<?xml version="1.0" encoding="utf-8"?>
<gpx xmlns:xsi="http://www.w3.org/2001/XMLSchema-instance" xmlns:xsd="http://www.w3.org/2001/XMLSchema" version="1.1" creator="Shapelink.com" xmlns="http://www.topografix.com/GPX/1/1" xmlns:gpxtpx="http://www.garmin.com/xmlschemas/TrackPointExtension/v1">
  <metadata>
    <name>Löpning 8.69 km, 2017-10-09</name>
    <desc></desc>
    <author><name>Bengt-Åke Forslund</name></author> 
    <time>2017-10-09T18:05:08Z</time>
  </metadata>
  <trk>
    <name>Löpning 8.69 km, 2017-10-09</name>
    <trkseg>
      <trkpt lat="62.637147113364" lon="17.965195496628">
        <ele>51.4</ele>
        <time>2017-10-09T18:05:08Z</time>
      </trkpt>
      <trkpt lat="62.637136216894" lon="17.965168003996">
        <ele>51.2</ele>
        <time>2017-10-09T18:05:09Z</time>
      </trkpt>
      <trkpt lat="62.637128254089" lon="17.965132129464">
        <ele>51.2</ele>
        <time>2017-10-09T18:05:10Z</time>
      </trkpt>
      <trkpt lat="62.637112747574" lon="17.965091896344">
        <ele>51.2</ele>
        <time>2017-10-09T18:05:11Z</time>
      </trkpt>
      <trkpt lat="62.637090703177" lon="17.965041688763">
        <ele>51</ele>
        <time>2017-10-09T18:05:12Z</time>
      </trkpt>
      <trkpt lat="62.637072598273" lon="17.964992906105">
        <ele>50.8</ele>
        <time>2017-10-09T18:05:13Z</time>
      </trkpt>
      <trkpt lat="62.637055163921" lon="17.964952086252">
        <ele>51</ele>
        <time>2017-10-09T18:05:14Z</time>
      </trkpt>
      <trkpt lat="62.637037310474" lon="17.964902130128">
        <ele>51</ele>
        <time>2017-10-09T18:05:15Z</time>
      </trkpt>
      <trkpt lat="62.637020714312" lon="17.96486089118">
        <ele>51</ele>
        <time>2017-10-09T18:05:16Z</time>
      </trkpt>
      <trkpt lat="62.637006129806" lon="17.964811354151">
        <ele>51</ele>
        <time>2017-10-09T18:05:17Z</time>
      </trkpt>
      <trkpt lat="62.636998669915" lon="17.964752513213">
        <ele>51</ele>
        <time>2017-10-09T18:05:18Z</time>
      </trkpt>
      <trkpt lat="62.637003615236" lon="17.96471336974">
        <ele>51.2</ele>
        <time>2017-10-09T18:05:19Z</time>
      </trkpt>
      <trkpt lat="62.637017780647" lon="17.964678501036">
        <ele>51</ele>
        <time>2017-10-09T18:05:20Z</time>
      </trkpt>
      <trkpt lat="62.637034544447" lon="17.964649751119">
        <ele>51</ele>
        <time>2017-10-09T18:05:21Z</time>
      </trkpt>
      <trkpt lat="62.637049967143" lon="17.964628796369">
        <ele>51</ele>
        <time>2017-10-09T18:05:22Z</time>
      </trkpt>
      <trkpt lat="62.637069580789" lon="17.964599878814">
        <ele>51.2</ele>
        <time>2017-10-09T18:05:23Z</time>
      </trkpt>
      <trkpt lat="62.637086344589" lon="17.964575738942">
        <ele>51</ele>
        <time>2017-10-09T18:05:24Z</time>
      </trkpt>
      <trkpt lat="62.637106125873" lon="17.964548078672">
        <ele>50.8</ele>
        <time>2017-10-09T18:05:25Z</time>
      </trkpt>
      <trkpt lat="62.6371256557" lon="17.964523603524">
        <ele>50.8</ele>
        <time>2017-10-09T18:05:26Z</time>
      </trkpt>
      <trkpt lat="62.637145353165" lon="17.964496865263">
        <ele>50.6</ele>
        <time>2017-10-09T18:05:27Z</time>
      </trkpt>
      <trkpt lat="62.637161781689" lon="17.9644736474">
        <ele>50.4</ele>
        <time>2017-10-09T18:05:28Z</time>
      </trkpt>
      <trkpt lat="62.637182401163" lon="17.964442215275">
        <ele>50.4</ele>
        <time>2017-10-09T18:05:29Z</time>
      </trkpt>
      <trkpt lat="62.637202685361" lon="17.96440994496">
        <ele>50.2</ele>
        <time>2017-10-09T18:05:30Z</time>
      </trkpt>
      <trkpt lat="62.637225148853" lon="17.964379518663">
        <ele>50</ele>
        <time>2017-10-09T18:05:31Z</time>
      </trkpt>
      <trkpt lat="62.637245433051" lon="17.964351020203">
        <ele>50</ele>
        <time>2017-10-09T18:05:32Z</time>
      </trkpt>
      <trkpt lat="62.637268231819" lon="17.964314726576">
        <ele>50</ele>
        <time>2017-10-09T18:05:33Z</time>
      </trkpt>
      <trkpt lat="62.637287929284" lon="17.964282204804">
        <ele>49.8</ele>
        <time>2017-10-09T18:05:34Z</time>
      </trkpt>
      <trkpt lat="62.63728742637" lon="17.964284970831">
        <ele>49.8</ele>
        <time>2017-10-09T18:05:35Z</time>
      </trkpt>
      <trkpt lat="62.63731089569" lon="17.964253119611">
        <ele>50</ele>
        <time>2017-10-09T18:05:36Z</time>
      </trkpt>
      <trkpt lat="62.637345345299" lon="17.964208946998">
        <ele>50.2</ele>
        <time>2017-10-09T18:05:37Z</time>
      </trkpt>
      <trkpt lat="62.637363869298" lon="17.964182292556">
        <ele>50</ele>
        <time>2017-10-09T18:05:38Z</time>
      </trkpt>
      <trkpt lat="62.637378369985" lon="17.964158990874">
        <ele>49.8</ele>
        <time>2017-10-09T18:05:39Z</time>
      </trkpt>
      <trkpt lat="62.637397564536" lon="17.964127558749">
        <ele>49.6</ele>
        <time>2017-10-09T18:05:40Z</time>
      </trkpt>
      <trkpt lat="62.637417848734" lon="17.964092187131">
        <ele>49.4</ele>
        <time>2017-10-09T18:05:41Z</time>
      </trkpt>
      <trkpt lat="62.637436205095" lon="17.964063018119">
        <ele>49.4</ele>
        <time>2017-10-09T18:05:42Z</time>
      </trkpt>
      <trkpt lat="62.637456908388" lon="17.964027646501">
        <ele>49</ele>
        <time>2017-10-09T18:05:43Z</time>
      </trkpt>
      <trkpt lat="62.637472750179" lon="17.9639958791">
        <ele>48.8</ele>
        <time>2017-10-09T18:05:44Z</time>
      </trkpt>
      <trkpt lat="62.637492699101" lon="17.963952125582">
        <ele>48.6</ele>
        <time>2017-10-09T18:05:45Z</time>
      </trkpt>
      <trkpt lat="62.637507786521" lon="17.96391960381">
        <ele>48.6</ele>
        <time>2017-10-09T18:05:46Z</time>
      </trkpt>
      <trkpt lat="62.637524550321" lon="17.96388859078">
        <ele>48.6</ele>
        <time>2017-10-09T18:05:47Z</time>
      </trkpt>
      <trkpt lat="62.637545253614" lon="17.963851039868">
        <ele>48.6</ele>
        <time>2017-10-09T18:05:48Z</time>
      </trkpt>
      <trkpt lat="62.637561933595" lon="17.963824804521">
        <ele>48.6</ele>
        <time>2017-10-09T18:05:49Z</time>
      </trkpt>
      <trkpt lat="62.637581714879" lon="17.963789432903">
        <ele>49</ele>
        <time>2017-10-09T18:05:50Z</time>
      </trkpt>
      <trkpt lat="62.637602669629" lon="17.963758755149">
        <ele>49.2</ele>
        <time>2017-10-09T18:05:51Z</time>
      </trkpt>
      <trkpt lat="62.637619181972" lon="17.963731597793">
        <ele>49.2</ele>
        <time>2017-10-09T18:05:52Z</time>
      </trkpt>
      <trkpt lat="62.637640220541" lon="17.963694549795">
        <ele>49.4</ele>
        <time>2017-10-09T18:05:53Z</time>
      </trkpt>
      <trkpt lat="62.637657990169" lon="17.963668985">
        <ele>49.6</ele>
        <time>2017-10-09T18:05:54Z</time>
      </trkpt>
      <trkpt lat="62.637679364014" lon="17.963636547047">
        <ele>49.6</ele>
        <time>2017-10-09T18:05:55Z</time>
      </trkpt>
      <trkpt lat="62.637700318764" lon="17.963606791302">
        <ele>49.6</ele>
        <time>2017-10-09T18:05:56Z</time>
      </trkpt>
      <trkpt lat="62.637721776428" lon="17.963577538471">
        <ele>49.4</ele>
        <time>2017-10-09T18:05:57Z</time>
      </trkpt>
      <trkpt lat="62.637739294599" lon="17.963550632572">
        <ele>49.4</ele>
        <time>2017-10-09T18:05:58Z</time>
      </trkpt>
      <trkpt lat="62.637759914073" lon="17.963514338945">
        <ele>49.4</ele>
        <time>2017-10-09T18:05:59Z</time>
      </trkpt>
      <trkpt lat="62.637782461384" lon="17.963474692558">
        <ele>49.4</ele>
        <time>2017-10-09T18:06:00Z</time>
      </trkpt>
      <trkpt lat="62.637803164677" lon="17.963443092795">
        <ele>49.6</ele>
        <time>2017-10-09T18:06:01Z</time>
      </trkpt>
      <trkpt lat="62.637821856314" lon="17.963416438353">
        <ele>49.4</ele>
        <time>2017-10-09T18:06:02Z</time>
      </trkpt>
      <trkpt lat="62.637845157996" lon="17.963381234373">
        <ele>49.4</ele>
        <time>2017-10-09T18:06:03Z</time>
      </trkpt>
      <trkpt lat="62.637861502701" lon="17.963357262139">
        <ele>49.4</ele>
        <time>2017-10-09T18:06:04Z</time>
      </trkpt>
      <trkpt lat="62.637888240962" lon="17.963330440059">
        <ele>49.2</ele>
        <time>2017-10-09T18:06:05Z</time>
      </trkpt>
      <trkpt lat="62.637912799929" lon="17.963324321272">
        <ele>49</ele>
        <time>2017-10-09T18:06:06Z</time>
      </trkpt>
      <trkpt lat="62.637942136579" lon="17.963337313217">
        <ele>48.8</ele>
        <time>2017-10-09T18:06:07Z</time>
      </trkpt>
      <trkpt lat="62.637967449917" lon="17.963361201632">
        <ele>48.8</ele>
        <time>2017-10-09T18:06:08Z</time>
      </trkpt>
      <trkpt lat="62.637985806278" lon="17.96338819135">
        <ele>48.2</ele>
        <time>2017-10-09T18:06:09Z</time>
      </trkpt>
      <trkpt lat="62.638003156811" lon="17.963427753918">
        <ele>48</ele>
        <time>2017-10-09T18:06:10Z</time>
      </trkpt>
      <trkpt lat="62.638018998602" lon="17.963470417789">
        <ele>47.2</ele>
        <time>2017-10-09T18:06:11Z</time>
      </trkpt>
      <trkpt lat="62.63803425366" lon="17.963513165479">
        <ele>46.6</ele>
        <time>2017-10-09T18:06:12Z</time>
      </trkpt>
      <trkpt lat="62.638050682184" lon="17.96355499116">
        <ele>46</ele>
        <time>2017-10-09T18:06:13Z</time>
      </trkpt>
      <trkpt lat="62.638066440156" lon="17.963595056642">
        <ele>46</ele>
        <time>2017-10-09T18:06:14Z</time>
      </trkpt>
      <trkpt lat="62.638084377422" lon="17.963649538992">
        <ele>45.8</ele>
        <time>2017-10-09T18:06:15Z</time>
      </trkpt>
      <trkpt lat="62.638098123738" lon="17.963689520655">
        <ele>45.8</ele>
        <time>2017-10-09T18:06:16Z</time>
      </trkpt>
      <trkpt lat="62.63811388171" lon="17.963737465123">
        <ele>45.8</ele>
        <time>2017-10-09T18:06:17Z</time>
      </trkpt>
      <trkpt lat="62.638132489528" lon="17.96378968436">
        <ele>46.2</ele>
        <time>2017-10-09T18:06:18Z</time>
      </trkpt>
      <trkpt lat="62.63814573293" lon="17.963829498385">
        <ele>46.2</ele>
        <time>2017-10-09T18:06:19Z</time>
      </trkpt>
      <trkpt lat="62.638162245273" lon="17.963884064554">
        <ele>46.2</ele>
        <time>2017-10-09T18:06:20Z</time>
      </trkpt>
      <trkpt lat="62.638177835607" lon="17.963929829728">
        <ele>46.4</ele>
        <time>2017-10-09T18:06:21Z</time>
      </trkpt>
      <trkpt lat="62.638194180312" lon="17.963973080332">
        <ele>46.6</ele>
        <time>2017-10-09T18:06:22Z</time>
      </trkpt>
      <trkpt lat="62.638213961596" lon="17.964031502175">
        <ele>46.8</ele>
        <time>2017-10-09T18:06:23Z</time>
      </trkpt>
      <trkpt lat="62.638227288817" lon="17.964070980924">
        <ele>46.8</ele>
        <time>2017-10-09T18:06:24Z</time>
      </trkpt>
      <trkpt lat="62.638244555531" lon="17.96412831312">
        <ele>46.8</ele>
        <time>2017-10-09T18:06:25Z</time>
      </trkpt>
      <trkpt lat="62.638260397322" lon="17.96417441357">
        <ele>46.8</ele>
        <time>2017-10-09T18:06:26Z</time>
      </trkpt>
      <trkpt lat="62.638275903837" lon="17.964221603667">
        <ele>47.2</ele>
        <time>2017-10-09T18:06:27Z</time>
      </trkpt>
      <trkpt lat="62.638290236886" lon="17.964264686633">
        <ele>47.2</ele>
        <time>2017-10-09T18:06:28Z</time>
      </trkpt>
      <trkpt lat="62.638305743401" lon="17.964310954721">
        <ele>47</ele>
        <time>2017-10-09T18:06:29Z</time>
      </trkpt>
      <trkpt lat="62.638323596848" lon="17.964363928329">
        <ele>46.8</ele>
        <time>2017-10-09T18:06:30Z</time>
      </trkpt>
      <trkpt lat="62.638339941553" lon="17.964412040435">
        <ele>47</ele>
        <time>2017-10-09T18:06:31Z</time>
      </trkpt>
      <trkpt lat="62.638353101136" lon="17.964451519184">
        <ele>46.8</ele>
        <time>2017-10-09T18:06:32Z</time>
      </trkpt>
      <trkpt lat="62.638370703126" lon="17.964504744249">
        <ele>46.4</ele>
        <time>2017-10-09T18:06:33Z</time>
      </trkpt>
      <trkpt lat="62.638382605424" lon="17.964541121695">
        <ele>46.4</ele>
        <time>2017-10-09T18:06:34Z</time>
      </trkpt>
      <trkpt lat="62.638399453043" lon="17.964592754199">
        <ele>46.6</ele>
        <time>2017-10-09T18:06:35Z</time>
      </trkpt>
      <trkpt lat="62.638414289006" lon="17.964640698667">
        <ele>46.4</ele>
        <time>2017-10-09T18:06:36Z</time>
      </trkpt>
      <trkpt lat="62.638428873512" lon="17.964685458013">
        <ele>46.2</ele>
        <time>2017-10-09T18:06:37Z</time>
      </trkpt>
      <trkpt lat="62.638444296208" lon="17.964733234843">
        <ele>46.2</ele>
        <time>2017-10-09T18:06:38Z</time>
      </trkpt>
      <trkpt lat="62.63845753961" lon="17.96477288123">
        <ele>46.2</ele>
        <time>2017-10-09T18:06:39Z</time>
      </trkpt>
      <trkpt lat="62.638472543211" lon="17.964819065499">
        <ele>46.6</ele>
        <time>2017-10-09T18:06:40Z</time>
      </trkpt>
      <trkpt lat="62.638488133545" lon="17.964871033279">
        <ele>46.6</ele>
        <time>2017-10-09T18:06:41Z</time>
      </trkpt>
      <trkpt lat="62.638502885689" lon="17.964915708806">
        <ele>47</ele>
        <time>2017-10-09T18:06:42Z</time>
      </trkpt>
      <trkpt lat="62.638520236222" lon="17.964957702125">
        <ele>47.4</ele>
        <time>2017-10-09T18:06:43Z</time>
      </trkpt>
      <trkpt lat="62.638536664746" lon="17.964995504494">
        <ele>47.6</ele>
        <time>2017-10-09T18:06:44Z</time>
      </trkpt>
      <trkpt lat="62.638555188745" lon="17.965048981016">
        <ele>47.4</ele>
        <time>2017-10-09T18:06:45Z</time>
      </trkpt>
      <trkpt lat="62.638570862898" lon="17.965094243276">
        <ele>47.4</ele>
        <time>2017-10-09T18:06:46Z</time>
      </trkpt>
      <trkpt lat="62.638588548707" lon="17.965140930459">
        <ele>46.8</ele>
        <time>2017-10-09T18:06:47Z</time>
      </trkpt>
      <trkpt lat="62.638608246172" lon="17.965196586275">
        <ele>46.6</ele>
        <time>2017-10-09T18:06:48Z</time>
      </trkpt>
      <trkpt lat="62.638624171782" lon="17.965241094164">
        <ele>46.4</ele>
        <time>2017-10-09T18:06:49Z</time>
      </trkpt>
      <trkpt lat="62.638643031057" lon="17.965292642849">
        <ele>46.2</ele>
        <time>2017-10-09T18:06:50Z</time>
      </trkpt>
      <trkpt lat="62.638659711038" lon="17.965343772439">
        <ele>45.8</ele>
        <time>2017-10-09T18:06:51Z</time>
      </trkpt>
      <trkpt lat="62.638675636648" lon="17.965385849577">
        <ele>45.8</ele>
        <time>2017-10-09T18:06:52Z</time>
      </trkpt>
      <trkpt lat="62.638696759036" lon="17.965439829013">
        <ele>45.8</ele>
        <time>2017-10-09T18:06:53Z</time>
      </trkpt>
      <trkpt lat="62.638712517008" lon="17.965486013282">
        <ele>46</ele>
        <time>2017-10-09T18:06:54Z</time>
      </trkpt>
      <trkpt lat="62.638732717387" lon="17.965542088193">
        <ele>46.2</ele>
        <time>2017-10-09T18:06:55Z</time>
      </trkpt>
      <trkpt lat="62.63874922973" lon="17.965591709041">
        <ele>46.2</ele>
        <time>2017-10-09T18:06:56Z</time>
      </trkpt>
      <trkpt lat="62.638766580263" lon="17.965640156423">
        <ele>46.6</ele>
        <time>2017-10-09T18:06:57Z</time>
      </trkpt>
      <trkpt lat="62.638782254416" lon="17.965686340692">
        <ele>46.8</ele>
        <time>2017-10-09T18:06:58Z</time>
      </trkpt>
      <trkpt lat="62.638798012388" lon="17.965728669287">
        <ele>47.2</ele>
        <time>2017-10-09T18:06:59Z</time>
      </trkpt>
      <trkpt lat="62.63881628493" lon="17.965780720886">
        <ele>47</ele>
        <time>2017-10-09T18:07:00Z</time>
      </trkpt>
      <trkpt lat="62.638831875264" lon="17.965828078621">
        <ele>47.2</ele>
        <time>2017-10-09T18:07:01Z</time>
      </trkpt>
      <trkpt lat="62.638845789218" lon="17.965867808827">
        <ele>47.4</ele>
        <time>2017-10-09T18:07:02Z</time>
      </trkpt>
      <trkpt lat="62.638862636837" lon="17.965918016408">
        <ele>47.4</ele>
        <time>2017-10-09T18:07:03Z</time>
      </trkpt>
      <trkpt lat="62.638875964058" lon="17.965957411338">
        <ele>47.4</ele>
        <time>2017-10-09T18:07:04Z</time>
      </trkpt>
      <trkpt lat="62.63889339841" lon="17.966008457109">
        <ele>47.6</ele>
        <time>2017-10-09T18:07:05Z</time>
      </trkpt>
      <trkpt lat="62.638909156382" lon="17.966054809016">
        <ele>47.6</ele>
        <time>2017-10-09T18:07:06Z</time>
      </trkpt>
      <trkpt lat="62.638925752544" lon="17.966100490371">
        <ele>47.6</ele>
        <time>2017-10-09T18:07:07Z</time>
      </trkpt>
      <trkpt lat="62.638941929611" lon="17.966146004088">
        <ele>47.6</ele>
        <time>2017-10-09T18:07:08Z</time>
      </trkpt>
      <trkpt lat="62.63895626266" lon="17.966186656303">
        <ele>47.8</ele>
        <time>2017-10-09T18:07:09Z</time>
      </trkpt>
      <trkpt lat="62.638970847166" lon="17.966229152536">
        <ele>47.6</ele>
        <time>2017-10-09T18:07:10Z</time>
      </trkpt>
      <trkpt lat="62.638989454984" lon="17.966278941022">
        <ele>47.4</ele>
        <time>2017-10-09T18:07:11Z</time>
      </trkpt>
      <trkpt lat="62.63900487768" lon="17.966324287101">
        <ele>47.2</ele>
        <time>2017-10-09T18:07:12Z</time>
      </trkpt>
      <trkpt lat="62.639020970928" lon="17.966366028963">
        <ele>47.2</ele>
        <time>2017-10-09T18:07:13Z</time>
      </trkpt>
      <trkpt lat="62.6390367289" lon="17.966406429721">
        <ele>47</ele>
        <time>2017-10-09T18:07:14Z</time>
      </trkpt>
      <trkpt lat="62.639055671994" lon="17.966456218207">
        <ele>47</ele>
        <time>2017-10-09T18:07:15Z</time>
      </trkpt>
      <trkpt lat="62.639072435794" lon="17.966497289517">
        <ele>47.4</ele>
        <time>2017-10-09T18:07:16Z</time>
      </trkpt>
      <trkpt lat="62.639091295069" lon="17.966545233985">
        <ele>47.6</ele>
        <time>2017-10-09T18:07:17Z</time>
      </trkpt>
      <trkpt lat="62.639110908715" lon="17.966594184281">
        <ele>47.4</ele>
        <time>2017-10-09T18:07:18Z</time>
      </trkpt>
      <trkpt lat="62.639126666687" lon="17.966635926143">
        <ele>47.6</ele>
        <time>2017-10-09T18:07:19Z</time>
      </trkpt>
      <trkpt lat="62.639144101039" lon="17.966688899751">
        <ele>47.6</ele>
        <time>2017-10-09T18:07:20Z</time>
      </trkpt>
      <trkpt lat="62.639160697201" lon="17.966732485631">
        <ele>47.2</ele>
        <time>2017-10-09T18:07:21Z</time>
      </trkpt>
      <trkpt lat="62.639175784621" lon="17.966775233321">
        <ele>47.2</ele>
        <time>2017-10-09T18:07:22Z</time>
      </trkpt>
      <trkpt lat="62.63919430862" lon="17.96682477035">
        <ele>47.6</ele>
        <time>2017-10-09T18:07:23Z</time>
      </trkpt>
      <trkpt lat="62.639208138755" lon="17.966863243271">
        <ele>47.6</ele>
        <time>2017-10-09T18:07:24Z</time>
      </trkpt>
      <trkpt lat="62.639226746573" lon="17.966917557983">
        <ele>47.6</ele>
        <time>2017-10-09T18:07:25Z</time>
      </trkpt>
      <trkpt lat="62.639244097106" lon="17.966965418632">
        <ele>47.6</ele>
        <time>2017-10-09T18:07:26Z</time>
      </trkpt>
      <trkpt lat="62.639260357992" lon="17.96701755405">
        <ele>47.6</ele>
        <time>2017-10-09T18:07:27Z</time>
      </trkpt>
      <trkpt lat="62.639274355765" lon="17.967059631188">
        <ele>47.4</ele>
        <time>2017-10-09T18:07:28Z</time>
      </trkpt>
      <trkpt lat="62.639292293031" lon="17.967112353339">
        <ele>47.2</ele>
        <time>2017-10-09T18:07:29Z</time>
      </trkpt>
      <trkpt lat="62.639308553917" lon="17.967164404938">
        <ele>47.4</ele>
        <time>2017-10-09T18:07:30Z</time>
      </trkpt>
      <trkpt lat="62.639322970785" lon="17.967214193424">
        <ele>47.8</ele>
        <time>2017-10-09T18:07:31Z</time>
      </trkpt>
      <trkpt lat="62.639336717101" lon="17.967261886435">
        <ele>48</ele>
        <time>2017-10-09T18:07:32Z</time>
      </trkpt>
      <trkpt lat="62.639354654367" lon="17.96731846426">
        <ele>47.8</ele>
        <time>2017-10-09T18:07:33Z</time>
      </trkpt>
      <trkpt lat="62.63936781395" lon="17.967356015172">
        <ele>47.8</ele>
        <time>2017-10-09T18:07:34Z</time>
      </trkpt>
      <trkpt lat="62.639383236646" lon="17.967411838626">
        <ele>48</ele>
        <time>2017-10-09T18:07:35Z</time>
      </trkpt>
      <trkpt lat="62.639396396229" lon="17.967461878569">
        <ele>47.8</ele>
        <time>2017-10-09T18:07:36Z</time>
      </trkpt>
      <trkpt lat="62.639408130889" lon="17.967515941824">
        <ele>47.8</ele>
        <time>2017-10-09T18:07:37Z</time>
      </trkpt>
      <trkpt lat="62.639420200825" lon="17.967566233224">
        <ele>47.8</ele>
        <time>2017-10-09T18:07:38Z</time>
      </trkpt>
      <trkpt lat="62.639429253277" lon="17.967612836588">
        <ele>48.2</ele>
        <time>2017-10-09T18:07:39Z</time>
      </trkpt>
      <trkpt lat="62.639436796987" lon="17.967677712494">
        <ele>48.4</ele>
        <time>2017-10-09T18:07:40Z</time>
      </trkpt>
      <trkpt lat="62.639439563014" lon="17.967743175133">
        <ele>48.6</ele>
        <time>2017-10-09T18:07:41Z</time>
      </trkpt>
      <trkpt lat="62.639440401204" lon="17.967804782098">
        <ele>49</ele>
        <time>2017-10-09T18:07:42Z</time>
      </trkpt>
      <trkpt lat="62.639441323213" lon="17.967859935">
        <ele>49.2</ele>
        <time>2017-10-09T18:07:43Z</time>
      </trkpt>
      <trkpt lat="62.639438724824" lon="17.967907125097">
        <ele>49.2</ele>
        <time>2017-10-09T18:07:44Z</time>
      </trkpt>
      <trkpt lat="62.639434533874" lon="17.96796387056">
        <ele>49</ele>
        <time>2017-10-09T18:07:45Z</time>
      </trkpt>
      <trkpt lat="62.639430594381" lon="17.96801332377">
        <ele>49</ele>
        <time>2017-10-09T18:07:46Z</time>
      </trkpt>
      <trkpt lat="62.639421541929" lon="17.968063363713">
        <ele>49</ele>
        <time>2017-10-09T18:07:47Z</time>
      </trkpt>
      <trkpt lat="62.639414584952" lon="17.968115331493">
        <ele>49</ele>
        <time>2017-10-09T18:07:48Z</time>
      </trkpt>
      <trkpt lat="62.639409220536" lon="17.968163527418">
        <ele>49</ele>
        <time>2017-10-09T18:07:49Z</time>
      </trkpt>
      <trkpt lat="62.639402515016" lon="17.968218345044">
        <ele>49</ele>
        <time>2017-10-09T18:07:50Z</time>
      </trkpt>
      <trkpt lat="62.639393546383" lon="17.968266373331">
        <ele>49.2</ele>
        <time>2017-10-09T18:07:51Z</time>
      </trkpt>
      <trkpt lat="62.639384074836" lon="17.968311048858">
        <ele>49.2</ele>
        <time>2017-10-09T18:07:52Z</time>
      </trkpt>
      <trkpt lat="62.639374016556" lon="17.96836117262">
        <ele>49.2</ele>
        <time>2017-10-09T18:07:53Z</time>
      </trkpt>
      <trkpt lat="62.639363958276" lon="17.968396963333">
        <ele>49.2</ele>
        <time>2017-10-09T18:07:54Z</time>
      </trkpt>
      <trkpt lat="62.639352894168" lon="17.968454714624">
        <ele>49.2</ele>
        <time>2017-10-09T18:07:55Z</time>
      </trkpt>
      <trkpt lat="62.63934266825" lon="17.968504586929">
        <ele>49.4</ele>
        <time>2017-10-09T18:07:56Z</time>
      </trkpt>
      <trkpt lat="62.639332442332" lon="17.968552112302">
        <ele>49.4</ele>
        <time>2017-10-09T18:07:57Z</time>
      </trkpt>
      <trkpt lat="62.639323641337" lon="17.968596033458">
        <ele>49.4</ele>
        <time>2017-10-09T18:07:58Z</time>
      </trkpt>
      <trkpt lat="62.639313080143" lon="17.96864448084">
        <ele>49.6</ele>
        <time>2017-10-09T18:07:59Z</time>
      </trkpt>
      <trkpt lat="62.639302602768" lon="17.968695023697">
        <ele>49.8</ele>
        <time>2017-10-09T18:08:00Z</time>
      </trkpt>
      <trkpt lat="62.639292460669" lon="17.96874674002">
        <ele>50</ele>
        <time>2017-10-09T18:08:01Z</time>
      </trkpt>
      <trkpt lat="62.639283575855" lon="17.968797618153">
        <ele>50.2</ele>
        <time>2017-10-09T18:08:02Z</time>
      </trkpt>
      <trkpt lat="62.639272847023" lon="17.96885319015">
        <ele>50.4</ele>
        <time>2017-10-09T18:08:03Z</time>
      </trkpt>
      <trkpt lat="62.639264046028" lon="17.968896440754">
        <ele>50.6</ele>
        <time>2017-10-09T18:08:04Z</time>
      </trkpt>
      <trkpt lat="62.639252562825" lon="17.968952683303">
        <ele>50.8</ele>
        <time>2017-10-09T18:08:05Z</time>
      </trkpt>
      <trkpt lat="62.639239403242" lon="17.968998364658">
        <ele>51</ele>
        <time>2017-10-09T18:08:06Z</time>
      </trkpt>
      <trkpt lat="62.639232446265" lon="17.969056283587">
        <ele>51.4</ele>
        <time>2017-10-09T18:08:07Z</time>
      </trkpt>
      <trkpt lat="62.639221717433" lon="17.969107664634">
        <ele>51.6</ele>
        <time>2017-10-09T18:08:08Z</time>
      </trkpt>
      <trkpt lat="62.639212497343" lon="17.969157034025">
        <ele>51.6</ele>
        <time>2017-10-09T18:08:09Z</time>
      </trkpt>
      <trkpt lat="62.639199589217" lon="17.969216713153">
        <ele>51.8</ele>
        <time>2017-10-09T18:08:10Z</time>
      </trkpt>
      <trkpt lat="62.639189866213" lon="17.969276727557">
        <ele>51.8</ele>
        <time>2017-10-09T18:08:11Z</time>
      </trkpt>
      <trkpt lat="62.639184166521" lon="17.969331126088">
        <ele>52</ele>
        <time>2017-10-09T18:08:12Z</time>
      </trkpt>
      <trkpt lat="62.639175616983" lon="17.969380244022">
        <ele>52.2</ele>
        <time>2017-10-09T18:08:13Z</time>
      </trkpt>
      <trkpt lat="62.639165642522" lon="17.969426093015">
        <ele>52.2</ele>
        <time>2017-10-09T18:08:14Z</time>
      </trkpt>
      <trkpt lat="62.63915575188" lon="17.969485017772">
        <ele>52.2</ele>
        <time>2017-10-09T18:08:15Z</time>
      </trkpt>
      <trkpt lat="62.639147621437" lon="17.96952374215">
        <ele>52.4</ele>
        <time>2017-10-09T18:08:16Z</time>
      </trkpt>
      <trkpt lat="62.639139071899" lon="17.969577218672">
        <ele>52.6</ele>
        <time>2017-10-09T18:08:17Z</time>
      </trkpt>
      <trkpt lat="62.639131109094" lon="17.96963354504">
        <ele>52.8</ele>
        <time>2017-10-09T18:08:18Z</time>
      </trkpt>
      <trkpt lat="62.639124068298" lon="17.969684255535">
        <ele>52.8</ele>
        <time>2017-10-09T18:08:19Z</time>
      </trkpt>
      <trkpt lat="62.639115015846" lon="17.969748544708">
        <ele>52.8</ele>
        <time>2017-10-09T18:08:20Z</time>
      </trkpt>
      <trkpt lat="62.639110070525" lon="17.969800847764">
        <ele>52.8</ele>
        <time>2017-10-09T18:08:21Z</time>
      </trkpt>
      <trkpt lat="62.639104454652" lon="17.969848456956">
        <ele>53</ele>
        <time>2017-10-09T18:08:22Z</time>
      </trkpt>
      <trkpt lat="62.639098503503" lon="17.969909141912">
        <ele>53</ele>
        <time>2017-10-09T18:08:23Z</time>
      </trkpt>
      <trkpt lat="62.639094647829" lon="17.969953817439">
        <ele>52.8</ele>
        <time>2017-10-09T18:08:24Z</time>
      </trkpt>
      <trkpt lat="62.639089115775" lon="17.970010059988">
        <ele>52.8</ele>
        <time>2017-10-09T18:08:25Z</time>
      </trkpt>
      <trkpt lat="62.639088109947" lon="17.970064877614">
        <ele>53</ele>
        <time>2017-10-09T18:08:26Z</time>
      </trkpt>
      <trkpt lat="62.639087523214" lon="17.97012472438">
        <ele>53</ele>
        <time>2017-10-09T18:08:27Z</time>
      </trkpt>
      <trkpt lat="62.639088948137" lon="17.970177865626">
        <ele>53</ele>
        <time>2017-10-09T18:08:28Z</time>
      </trkpt>
      <trkpt lat="62.639089451051" lon="17.970234946365">
        <ele>53</ele>
        <time>2017-10-09T18:08:29Z</time>
      </trkpt>
      <trkpt lat="62.639090121603" lon="17.970298313529">
        <ele>53.4</ele>
        <time>2017-10-09T18:08:30Z</time>
      </trkpt>
      <trkpt lat="62.639090875974" lon="17.970353214974">
        <ele>53.6</ele>
        <time>2017-10-09T18:08:31Z</time>
      </trkpt>
      <trkpt lat="62.63909288763" lon="17.970408284057">
        <ele>54</ele>
        <time>2017-10-09T18:08:32Z</time>
      </trkpt>
      <trkpt lat="62.639096408028" lon="17.970472908506">
        <ele>54</ele>
        <time>2017-10-09T18:08:33Z</time>
      </trkpt>
      <trkpt lat="62.639099928426" lon="17.970527390856">
        <ele>54.2</ele>
        <time>2017-10-09T18:08:34Z</time>
      </trkpt>
      <trkpt lat="62.639104287014" lon="17.970571060555">
        <ele>54.2</ele>
        <time>2017-10-09T18:08:35Z</time>
      </trkpt>
      <trkpt lat="62.639113255647" lon="17.970638199574">
        <ele>54</ele>
        <time>2017-10-09T18:08:36Z</time>
      </trkpt>
      <trkpt lat="62.639122559556" lon="17.970697543426">
        <ele>53.8</ele>
        <time>2017-10-09T18:08:37Z</time>
      </trkpt>
      <trkpt lat="62.639130438542" lon="17.97074833774">
        <ele>53.6</ele>
        <time>2017-10-09T18:08:38Z</time>
      </trkpt>
      <trkpt lat="62.639136808786" lon="17.970796785122">
        <ele>53.6</ele>
        <time>2017-10-09T18:08:39Z</time>
      </trkpt>
      <trkpt lat="62.639145609781" lon="17.970863002132">
        <ele>53.6</ele>
        <time>2017-10-09T18:08:40Z</time>
      </trkpt>
      <trkpt lat="62.639153824043" lon="17.970925614925">
        <ele>53.8</ele>
        <time>2017-10-09T18:08:41Z</time>
      </trkpt>
      <trkpt lat="62.639164552875" lon="17.970985964605">
        <ele>54.2</ele>
        <time>2017-10-09T18:08:42Z</time>
      </trkpt>
      <trkpt lat="62.639173018594" lon="17.971043548258">
        <ele>54.4</ele>
        <time>2017-10-09T18:08:43Z</time>
      </trkpt>
      <trkpt lat="62.639182741598" lon="17.971091073631">
        <ele>54.4</ele>
        <time>2017-10-09T18:08:44Z</time>
      </trkpt>
      <trkpt lat="62.639197074647" lon="17.971151758587">
        <ele>54.8</ele>
        <time>2017-10-09T18:08:45Z</time>
      </trkpt>
      <trkpt lat="62.639207552022" lon="17.971199116322">
        <ele>54.8</ele>
        <time>2017-10-09T18:08:46Z</time>
      </trkpt>
      <trkpt lat="62.639219119044" lon="17.97124957536">
        <ele>54.8</ele>
        <time>2017-10-09T18:08:47Z</time>
      </trkpt>
      <trkpt lat="62.639230853704" lon="17.971311098506">
        <ele>55</ele>
        <time>2017-10-09T18:08:48Z</time>
      </trkpt>
      <trkpt lat="62.639240576708" lon="17.971359210612">
        <ele>55</ele>
        <time>2017-10-09T18:08:49Z</time>
      </trkpt>
      <trkpt lat="62.639252730463" lon="17.971420733758">
        <ele>55</ele>
        <time>2017-10-09T18:08:50Z</time>
      </trkpt>
      <trkpt lat="62.639263794571" lon="17.971475802841">
        <ele>55</ele>
        <time>2017-10-09T18:08:51Z</time>
      </trkpt>
      <trkpt lat="62.639275277774" lon="17.971528441173">
        <ele>54.8</ele>
        <time>2017-10-09T18:08:52Z</time>
      </trkpt>
      <trkpt lat="62.639281145104" lon="17.971570769768">
        <ele>54.6</ele>
        <time>2017-10-09T18:08:53Z</time>
      </trkpt>
      <trkpt lat="62.639289694642" lon="17.971628269602">
        <ele>54.4</ele>
        <time>2017-10-09T18:08:54Z</time>
      </trkpt>
      <trkpt lat="62.639299501465" lon="17.971689876567">
        <ele>54.2</ele>
        <time>2017-10-09T18:08:55Z</time>
      </trkpt>
      <trkpt lat="62.639307967184" lon="17.971750310066">
        <ele>54</ele>
        <time>2017-10-09T18:08:56Z</time>
      </trkpt>
      <trkpt lat="62.63931668436" lon="17.97180529533">
        <ele>54</ele>
        <time>2017-10-09T18:08:57Z</time>
      </trkpt>
      <trkpt lat="62.639323641337" lon="17.971857430748">
        <ele>53.8</ele>
        <time>2017-10-09T18:08:58Z</time>
      </trkpt>
      <trkpt lat="62.639327497011" lon="17.971915517315">
        <ele>53.6</ele>
        <time>2017-10-09T18:08:59Z</time>
      </trkpt>
      <trkpt lat="62.639332023237" lon="17.971976621366">
        <ele>53.6</ele>
        <time>2017-10-09T18:09:00Z</time>
      </trkpt>
      <trkpt lat="62.639333615798" lon="17.972032780096">
        <ele>53.6</ele>
        <time>2017-10-09T18:09:01Z</time>
      </trkpt>
      <trkpt lat="62.639333951074" lon="17.972090699025">
        <ele>53.6</ele>
        <time>2017-10-09T18:09:02Z</time>
      </trkpt>
      <trkpt lat="62.639334537807" lon="17.972146941574">
        <ele>54</ele>
        <time>2017-10-09T18:09:03Z</time>
      </trkpt>
      <trkpt lat="62.639333951074" lon="17.972195556594">
        <ele>54</ele>
        <time>2017-10-09T18:09:04Z</time>
      </trkpt>
      <trkpt lat="62.639333112884" lon="17.972265713097">
        <ele>54</ele>
        <time>2017-10-09T18:09:05Z</time>
      </trkpt>
      <trkpt lat="62.639332442332" lon="17.972321368913">
        <ele>54</ele>
        <time>2017-10-09T18:09:06Z</time>
      </trkpt>
      <trkpt lat="62.639330765952" lon="17.972382053869">
        <ele>54.2</ele>
        <time>2017-10-09T18:09:07Z</time>
      </trkpt>
      <trkpt lat="62.639328167563" lon="17.972438044961">
        <ele>54.2</ele>
        <time>2017-10-09T18:09:08Z</time>
      </trkpt>
      <trkpt lat="62.639327245554" lon="17.972483642497">
        <ele>54.2</ele>
        <time>2017-10-09T18:09:09Z</time>
      </trkpt>
      <trkpt lat="62.639323306061" lon="17.97254457891">
        <ele>54.2</ele>
        <time>2017-10-09T18:09:10Z</time>
      </trkpt>
      <trkpt lat="62.639321210586" lon="17.972610293006">
        <ele>54.4</ele>
        <time>2017-10-09T18:09:11Z</time>
      </trkpt>
      <trkpt lat="62.639318947473" lon="17.972666032641">
        <ele>54.4</ele>
        <time>2017-10-09T18:09:12Z</time>
      </trkpt>
      <trkpt lat="62.639317941645" lon="17.972727136692">
        <ele>54.2</ele>
        <time>2017-10-09T18:09:13Z</time>
      </trkpt>
      <trkpt lat="62.639317438731" lon="17.97277927211">
        <ele>54.2</ele>
        <time>2017-10-09T18:09:14Z</time>
      </trkpt>
      <trkpt lat="62.639316265265" lon="17.972846662586">
        <ele>54.2</ele>
        <time>2017-10-09T18:09:15Z</time>
      </trkpt>
      <trkpt lat="62.639314840342" lon="17.972897373081">
        <ele>54</ele>
        <time>2017-10-09T18:09:16Z</time>
      </trkpt>
      <trkpt lat="62.639313415419" lon="17.972961913711">
        <ele>53.6</ele>
        <time>2017-10-09T18:09:17Z</time>
      </trkpt>
      <trkpt lat="62.639310984668" lon="17.973025783789">
        <ele>53.8</ele>
        <time>2017-10-09T18:09:18Z</time>
      </trkpt>
      <trkpt lat="62.639309895021" lon="17.973076913379">
        <ele>53.8</ele>
        <time>2017-10-09T18:09:19Z</time>
      </trkpt>
      <trkpt lat="62.639308889193" lon="17.973144303855">
        <ele>53.6</ele>
        <time>2017-10-09T18:09:20Z</time>
      </trkpt>
      <trkpt lat="62.639308889193" lon="17.973206246096">
        <ele>54</ele>
        <time>2017-10-09T18:09:21Z</time>
      </trkpt>
      <trkpt lat="62.639309224469" lon="17.973259303523">
        <ele>54.4</ele>
        <time>2017-10-09T18:09:22Z</time>
      </trkpt>
      <trkpt lat="62.639309811202" lon="17.973323592696">
        <ele>54.6</ele>
        <time>2017-10-09T18:09:23Z</time>
      </trkpt>
      <trkpt lat="62.639309392107" lon="17.973372794449">
        <ele>54.8</ele>
        <time>2017-10-09T18:09:24Z</time>
      </trkpt>
      <trkpt lat="62.639309895021" lon="17.973441526029">
        <ele>55.2</ele>
        <time>2017-10-09T18:09:25Z</time>
      </trkpt>
      <trkpt lat="62.639308470098" lon="17.973499109682">
        <ele>54.8</ele>
        <time>2017-10-09T18:09:26Z</time>
      </trkpt>
      <trkpt lat="62.639307631908" lon="17.97355292148">
        <ele>54.6</ele>
        <time>2017-10-09T18:09:27Z</time>
      </trkpt>
      <trkpt lat="62.63930578789" lon="17.973604637803">
        <ele>54.8</ele>
        <time>2017-10-09T18:09:28Z</time>
      </trkpt>
      <trkpt lat="62.639303440958" lon="17.973656437945">
        <ele>54.6</ele>
        <time>2017-10-09T18:09:29Z</time>
      </trkpt>
      <trkpt lat="62.63930159694" lon="17.97371553034">
        <ele>54.6</ele>
        <time>2017-10-09T18:09:30Z</time>
      </trkpt>
      <trkpt lat="62.63929992056" lon="17.973774287459">
        <ele>54.6</ele>
        <time>2017-10-09T18:09:31Z</time>
      </trkpt>
      <trkpt lat="62.639296316343" lon="17.973829859456">
        <ele>54.6</ele>
        <time>2017-10-09T18:09:32Z</time>
      </trkpt>
      <trkpt lat="62.639294220868" lon="17.973884760901">
        <ele>54.8</ele>
        <time>2017-10-09T18:09:33Z</time>
      </trkpt>
      <trkpt lat="62.639291790117" lon="17.973936309586">
        <ele>54.8</ele>
        <time>2017-10-09T18:09:34Z</time>
      </trkpt>
      <trkpt lat="62.639286341882" lon="17.973989031737">
        <ele>54.6</ele>
        <time>2017-10-09T18:09:35Z</time>
      </trkpt>
      <trkpt lat="62.639278546715" lon="17.974057763317">
        <ele>54.6</ele>
        <time>2017-10-09T18:09:36Z</time>
      </trkpt>
      <trkpt lat="62.63927058391" lon="17.974118783549">
        <ele>54.6</ele>
        <time>2017-10-09T18:09:37Z</time>
      </trkpt>
      <trkpt lat="62.6392630402" lon="17.974175864288">
        <ele>55</ele>
        <time>2017-10-09T18:09:38Z</time>
      </trkpt>
      <trkpt lat="62.639256502318" lon="17.974223892575">
        <ele>55.4</ele>
        <time>2017-10-09T18:09:39Z</time>
      </trkpt>
      <trkpt lat="62.639248120418" lon="17.974286840644">
        <ele>55.6</ele>
        <time>2017-10-09T18:09:40Z</time>
      </trkpt>
      <trkpt lat="62.639240241432" lon="17.974347441781">
        <ele>56</ele>
        <time>2017-10-09T18:09:41Z</time>
      </trkpt>
      <trkpt lat="62.639229931695" lon="17.974408042918">
        <ele>56</ele>
        <time>2017-10-09T18:09:42Z</time>
      </trkpt>
      <trkpt lat="62.639221633614" lon="17.974463614915">
        <ele>56</ele>
        <time>2017-10-09T18:09:43Z</time>
      </trkpt>
      <trkpt lat="62.639213251714" lon="17.974515247419">
        <ele>56</ele>
        <time>2017-10-09T18:09:44Z</time>
      </trkpt>
      <trkpt lat="62.639200595045" lon="17.974579788049">
        <ele>55.8</ele>
        <time>2017-10-09T18:09:45Z</time>
      </trkpt>
      <trkpt lat="62.639189698575" lon="17.974630498544">
        <ele>55.6</ele>
        <time>2017-10-09T18:09:46Z</time>
      </trkpt>
      <trkpt lat="62.639173605327" lon="17.974689004206">
        <ele>55.4</ele>
        <time>2017-10-09T18:09:47Z</time>
      </trkpt>
      <trkpt lat="62.639160445744" lon="17.974739463244">
        <ele>55.4</ele>
        <time>2017-10-09T18:09:48Z</time>
      </trkpt>
      <trkpt lat="62.639149716912" lon="17.974780115459">
        <ele>55.6</ele>
        <time>2017-10-09T18:09:49Z</time>
      </trkpt>
      <trkpt lat="62.639134461854" lon="17.974836274189">
        <ele>55.8</ele>
        <time>2017-10-09T18:09:50Z</time>
      </trkpt>
      <trkpt lat="62.63911970971" lon="17.974881620268">
        <ele>55.8</ele>
        <time>2017-10-09T18:09:51Z</time>
      </trkpt>
      <trkpt lat="62.63910713686" lon="17.974924284139">
        <ele>56.4</ele>
        <time>2017-10-09T18:09:52Z</time>
      </trkpt>
      <trkpt lat="62.639087690852" lon="17.974974575539">
        <ele>56.8</ele>
        <time>2017-10-09T18:09:53Z</time>
      </trkpt>
      <trkpt lat="62.639076626744" lon="17.975017155591">
        <ele>57</ele>
        <time>2017-10-09T18:09:54Z</time>
      </trkpt>
      <trkpt lat="62.639059276211" lon="17.975078092004">
        <ele>57</ele>
        <time>2017-10-09T18:09:55Z</time>
      </trkpt>
      <trkpt lat="62.639042093316" lon="17.975127796671">
        <ele>57.2</ele>
        <time>2017-10-09T18:09:56Z</time>
      </trkpt>
      <trkpt lat="62.639028179362" lon="17.975173729483">
        <ele>57.2</ele>
        <time>2017-10-09T18:09:57Z</time>
      </trkpt>
      <trkpt lat="62.63901577415" lon="17.975215471345">
        <ele>57.4</ele>
        <time>2017-10-09T18:09:58Z</time>
      </trkpt>
      <trkpt lat="62.638999764721" lon="17.975263415813">
        <ele>57.4</ele>
        <time>2017-10-09T18:09:59Z</time>
      </trkpt>
      <trkpt lat="62.638982749464" lon="17.97531228229">
        <ele>57.6</ele>
        <time>2017-10-09T18:10:00Z</time>
      </trkpt>
      <trkpt lat="62.638967242949" lon="17.975357293093">
        <ele>57.8</ele>
        <time>2017-10-09T18:10:01Z</time>
      </trkpt>
      <trkpt lat="62.63895123352" lon="17.975404064095">
        <ele>57.8</ele>
        <time>2017-10-09T18:10:02Z</time>
      </trkpt>
      <trkpt lat="62.638937654842" lon="17.975455528961">
        <ele>58</ele>
        <time>2017-10-09T18:10:03Z</time>
      </trkpt>
      <trkpt lat="62.638924914354" lon="17.975496264995">
        <ele>58.2</ele>
        <time>2017-10-09T18:10:04Z</time>
      </trkpt>
      <trkpt lat="62.638906306536" lon="17.975553429553">
        <ele>58.2</ele>
        <time>2017-10-09T18:10:05Z</time>
      </trkpt>
      <trkpt lat="62.638891805849" lon="17.975604978238">
        <ele>58.2</ele>
        <time>2017-10-09T18:10:06Z</time>
      </trkpt>
      <trkpt lat="62.638877221343" lon="17.975657700389">
        <ele>58.2</ele>
        <time>2017-10-09T18:10:07Z</time>
      </trkpt>
      <trkpt lat="62.638864145579" lon="17.975704974305">
        <ele>58.2</ele>
        <time>2017-10-09T18:10:08Z</time>
      </trkpt>
      <trkpt lat="62.638852997652" lon="17.975747721995">
        <ele>58.2</ele>
        <time>2017-10-09T18:10:09Z</time>
      </trkpt>
      <trkpt lat="62.638840340983" lon="17.975802539621">
        <ele>58</ele>
        <time>2017-10-09T18:10:10Z</time>
      </trkpt>
      <trkpt lat="62.638828187228" lon="17.975856938152">
        <ele>58.2</ele>
        <time>2017-10-09T18:10:11Z</time>
      </trkpt>
      <trkpt lat="62.638816201111" lon="17.975911671959">
        <ele>58.2</ele>
        <time>2017-10-09T18:10:12Z</time>
      </trkpt>
      <trkpt lat="62.638805220822" lon="17.975964645567">
        <ele>58.4</ele>
        <time>2017-10-09T18:10:13Z</time>
      </trkpt>
      <trkpt lat="62.638795413999" lon="17.976013595863">
        <ele>58.6</ele>
        <time>2017-10-09T18:10:14Z</time>
      </trkpt>
      <trkpt lat="62.638783763158" lon="17.976077298303">
        <ele>58.8</ele>
        <time>2017-10-09T18:10:15Z</time>
      </trkpt>
      <trkpt lat="62.638776973819" lon="17.976126835332">
        <ele>59.2</ele>
        <time>2017-10-09T18:10:16Z</time>
      </trkpt>
      <trkpt lat="62.638766077349" lon="17.976189699582">
        <ele>59.2</ele>
        <time>2017-10-09T18:10:17Z</time>
      </trkpt>
      <trkpt lat="62.638755767612" lon="17.97624099681">
        <ele>59.4</ele>
        <time>2017-10-09T18:10:18Z</time>
      </trkpt>
      <trkpt lat="62.638749313549" lon="17.976288606002">
        <ele>59.4</ele>
        <time>2017-10-09T18:10:19Z</time>
      </trkpt>
      <trkpt lat="62.638738668536" lon="17.976355158288">
        <ele>59.6</ele>
        <time>2017-10-09T18:10:20Z</time>
      </trkpt>
      <trkpt lat="62.638730370455" lon="17.97641198757">
        <ele>59.6</ele>
        <time>2017-10-09T18:10:21Z</time>
      </trkpt>
      <trkpt lat="62.638723078202" lon="17.97646227897">
        <ele>59.8</ele>
        <time>2017-10-09T18:10:22Z</time>
      </trkpt>
      <trkpt lat="62.638714696302" lon="17.976528579799">
        <ele>60</ele>
        <time>2017-10-09T18:10:23Z</time>
      </trkpt>
      <trkpt lat="62.638709918619" lon="17.976574428792">
        <ele>60</ele>
        <time>2017-10-09T18:10:24Z</time>
      </trkpt>
      <trkpt lat="62.638702123452" lon="17.976641986906">
        <ele>60</ele>
        <time>2017-10-09T18:10:25Z</time>
      </trkpt>
      <trkpt lat="62.638695669389" lon="17.976699067645">
        <ele>59.8</ele>
        <time>2017-10-09T18:10:26Z</time>
      </trkpt>
      <trkpt lat="62.63868888005" lon="17.976752460348">
        <ele>60</ele>
        <time>2017-10-09T18:10:27Z</time>
      </trkpt>
      <trkpt lat="62.638681587797" lon="17.976803841395">
        <ele>60</ele>
        <time>2017-10-09T18:10:28Z</time>
      </trkpt>
      <trkpt lat="62.63867714539" lon="17.976860503039">
        <ele>59.8</ele>
        <time>2017-10-09T18:10:29Z</time>
      </trkpt>
      <trkpt lat="62.638672870621" lon="17.97692747442">
        <ele>60</ele>
        <time>2017-10-09T18:10:30Z</time>
      </trkpt>
      <trkpt lat="62.638666919472" lon="17.976986399177">
        <ele>60</ele>
        <time>2017-10-09T18:10:31Z</time>
      </trkpt>
      <trkpt lat="62.63866205797" lon="17.977041049165">
        <ele>60</ele>
        <time>2017-10-09T18:10:32Z</time>
      </trkpt>
      <trkpt lat="62.638655855364" lon="17.977099638646">
        <ele>60</ele>
        <time>2017-10-09T18:10:33Z</time>
      </trkpt>
      <trkpt lat="62.63865283788" lon="17.977151522607">
        <ele>60</ele>
        <time>2017-10-09T18:10:34Z</time>
      </trkpt>
      <trkpt lat="62.638649401301" lon="17.97722000273">
        <ele>60</ele>
        <time>2017-10-09T18:10:35Z</time>
      </trkpt>
      <trkpt lat="62.638644539799" lon="17.977281525876">
        <ele>60.4</ele>
        <time>2017-10-09T18:10:36Z</time>
      </trkpt>
      <trkpt lat="62.638640516487" lon="17.977336594959">
        <ele>60.4</ele>
        <time>2017-10-09T18:10:37Z</time>
      </trkpt>
      <trkpt lat="62.63863607408" lon="17.977393843336">
        <ele>60.6</ele>
        <time>2017-10-09T18:10:38Z</time>
      </trkpt>
      <trkpt lat="62.638630709664" lon="17.977442709813">
        <ele>60.8</ele>
        <time>2017-10-09T18:10:39Z</time>
      </trkpt>
      <trkpt lat="62.638626770171" lon="17.977506244615">
        <ele>61</ele>
        <time>2017-10-09T18:10:40Z</time>
      </trkpt>
      <trkpt lat="62.638622579221" lon="17.9775661752">
        <ele>60.8</ele>
        <time>2017-10-09T18:10:41Z</time>
      </trkpt>
      <trkpt lat="62.638618136814" lon="17.977622920663">
        <ele>60.8</ele>
        <time>2017-10-09T18:10:42Z</time>
      </trkpt>
      <trkpt lat="62.638616628072" lon="17.977677151556">
        <ele>61</ele>
        <time>2017-10-09T18:10:43Z</time>
      </trkpt>
      <trkpt lat="62.638615454606" lon="17.977724174015">
        <ele>60.8</ele>
        <time>2017-10-09T18:10:44Z</time>
      </trkpt>
      <trkpt lat="62.638614784054" lon="17.977785613342">
        <ele>60.8</ele>
        <time>2017-10-09T18:10:45Z</time>
      </trkpt>
      <trkpt lat="62.638614784054" lon="17.977840766244">
        <ele>61</ele>
        <time>2017-10-09T18:10:46Z</time>
      </trkpt>
      <trkpt lat="62.638618052995" lon="17.977897763164">
        <ele>61</ele>
        <time>2017-10-09T18:10:47Z</time>
      </trkpt>
      <trkpt lat="62.638618891185" lon="17.97795425717">
        <ele>61.2</ele>
        <time>2017-10-09T18:10:48Z</time>
      </trkpt>
      <trkpt lat="62.638619058823" lon="17.97800287219">
        <ele>61.2</ele>
        <time>2017-10-09T18:10:49Z</time>
      </trkpt>
      <trkpt lat="62.638624255601" lon="17.978069256838">
        <ele>61.2</ele>
        <time>2017-10-09T18:10:50Z</time>
      </trkpt>
      <trkpt lat="62.638632805139" lon="17.978120134971">
        <ele>61.2</ele>
        <time>2017-10-09T18:10:51Z</time>
      </trkpt>
      <trkpt lat="62.638645545627" lon="17.978159278444">
        <ele>61.2</ele>
        <time>2017-10-09T18:10:52Z</time>
      </trkpt>
      <trkpt lat="62.638668595852" lon="17.978205630351">
        <ele>61.2</ele>
        <time>2017-10-09T18:10:53Z</time>
      </trkpt>
      <trkpt lat="62.638689885878" lon="17.978227926205">
        <ele>61</ele>
        <time>2017-10-09T18:10:54Z</time>
      </trkpt>
      <trkpt lat="62.638721904736" lon="17.978250054421">
        <ele>61</ele>
        <time>2017-10-09T18:10:55Z</time>
      </trkpt>
      <trkpt lat="62.63875006792" lon="17.978269248972">
        <ele>60.8</ele>
        <time>2017-10-09T18:10:56Z</time>
      </trkpt>
      <trkpt lat="62.638775884172" lon="17.978292802111">
        <ele>60.8</ele>
        <time>2017-10-09T18:10:57Z</time>
      </trkpt>
      <trkpt lat="62.638798180026" lon="17.978312583395">
        <ele>60.6</ele>
        <time>2017-10-09T18:10:58Z</time>
      </trkpt>
      <trkpt lat="62.638824583011" lon="17.978342842054">
        <ele>60.6</ele>
        <time>2017-10-09T18:10:59Z</time>
      </trkpt>
      <trkpt lat="62.638853919661" lon="17.978384751554">
        <ele>60.4</ele>
        <time>2017-10-09T18:11:00Z</time>
      </trkpt>
      <trkpt lat="62.638875377325" lon="17.978423140656">
        <ele>60.6</ele>
        <time>2017-10-09T18:11:01Z</time>
      </trkpt>
      <trkpt lat="62.63889507479" lon="17.978470749848">
        <ele>60.4</ele>
        <time>2017-10-09T18:11:02Z</time>
      </trkpt>
      <trkpt lat="62.638912341504" lon="17.978522885266">
        <ele>60.4</ele>
        <time>2017-10-09T18:11:03Z</time>
      </trkpt>
      <trkpt lat="62.638924746716" lon="17.978563202205">
        <ele>60.4</ele>
        <time>2017-10-09T18:11:04Z</time>
      </trkpt>
      <trkpt lat="62.638940420869" lon="17.978623635704">
        <ele>60.2</ele>
        <time>2017-10-09T18:11:05Z</time>
      </trkpt>
      <trkpt lat="62.638952658443" lon="17.978677698959">
        <ele>60</ele>
        <time>2017-10-09T18:11:06Z</time>
      </trkpt>
      <trkpt lat="62.638965901845" lon="17.978729163825">
        <ele>59.8</ele>
        <time>2017-10-09T18:11:07Z</time>
      </trkpt>
      <trkpt lat="62.638974535202" lon="17.978786663659">
        <ele>59.6</ele>
        <time>2017-10-09T18:11:08Z</time>
      </trkpt>
      <trkpt lat="62.638981324541" lon="17.978833267023">
        <ele>59.6</ele>
        <time>2017-10-09T18:11:09Z</time>
      </trkpt>
      <trkpt lat="62.638989538803" lon="17.978898478205">
        <ele>59.4</ele>
        <time>2017-10-09T18:11:10Z</time>
      </trkpt>
      <trkpt lat="62.638995322314" lon="17.978968047975">
        <ele>59.4</ele>
        <time>2017-10-09T18:11:11Z</time>
      </trkpt>
      <trkpt lat="62.639000351454" lon="17.979028313836">
        <ele>59.4</ele>
        <time>2017-10-09T18:11:12Z</time>
      </trkpt>
      <trkpt lat="62.639004207128" lon="17.979091345724">
        <ele>59.4</ele>
        <time>2017-10-09T18:11:13Z</time>
      </trkpt>
      <trkpt lat="62.639006134965" lon="17.979146079531">
        <ele>59.4</ele>
        <time>2017-10-09T18:11:14Z</time>
      </trkpt>
      <trkpt lat="62.639010577372" lon="17.979214392016">
        <ele>59.4</ele>
        <time>2017-10-09T18:11:15Z</time>
      </trkpt>
      <trkpt lat="62.639013008123" lon="17.979269209642">
        <ele>59.4</ele>
        <time>2017-10-09T18:11:16Z</time>
      </trkpt>
      <trkpt lat="62.639015103598" lon="17.979338025041">
        <ele>59.2</ele>
        <time>2017-10-09T18:11:17Z</time>
      </trkpt>
      <trkpt lat="62.639016863797" lon="17.979397452712">
        <ele>59.2</ele>
        <time>2017-10-09T18:11:18Z</time>
      </trkpt>
      <trkpt lat="62.639017701987" lon="17.979449504311">
        <ele>59.2</ele>
        <time>2017-10-09T18:11:19Z</time>
      </trkpt>
      <trkpt lat="62.639016696159" lon="17.979514380217">
        <ele>59.2</ele>
        <time>2017-10-09T18:11:20Z</time>
      </trkpt>
      <trkpt lat="62.639016025607" lon="17.979574897535">
        <ele>59</ele>
        <time>2017-10-09T18:11:21Z</time>
      </trkpt>
      <trkpt lat="62.639013594856" lon="17.979631307722">
        <ele>59.2</ele>
        <time>2017-10-09T18:11:22Z</time>
      </trkpt>
      <trkpt lat="62.639011415562" lon="17.979698111465">
        <ele>59.2</ele>
        <time>2017-10-09T18:11:23Z</time>
      </trkpt>
      <trkpt lat="62.639008900992" lon="17.979752593815">
        <ele>59.2</ele>
        <time>2017-10-09T18:11:24Z</time>
      </trkpt>
      <trkpt lat="62.639005380594" lon="17.979826438354">
        <ele>59.2</ele>
        <time>2017-10-09T18:11:25Z</time>
      </trkpt>
      <trkpt lat="62.639002614567" lon="17.979881926532">
        <ele>59.2</ele>
        <time>2017-10-09T18:11:26Z</time>
      </trkpt>
      <trkpt lat="62.639000435273" lon="17.979946048067">
        <ele>59.2</ele>
        <time>2017-10-09T18:11:27Z</time>
      </trkpt>
      <trkpt lat="62.638997082513" lon="17.979997680571">
        <ele>59.2</ele>
        <time>2017-10-09T18:11:28Z</time>
      </trkpt>
      <trkpt lat="62.638993478296" lon="17.980056353871">
        <ele>59.2</ele>
        <time>2017-10-09T18:11:29Z</time>
      </trkpt>
      <trkpt lat="62.638988784432" lon="17.980127432383">
        <ele>59.2</ele>
        <time>2017-10-09T18:11:30Z</time>
      </trkpt>
      <trkpt lat="62.638983587654" lon="17.980189961357">
        <ele>59</ele>
        <time>2017-10-09T18:11:31Z</time>
      </trkpt>
      <trkpt lat="62.638978307057" lon="17.980253663797">
        <ele>59</ele>
        <time>2017-10-09T18:11:32Z</time>
      </trkpt>
      <trkpt lat="62.638972942641" lon="17.980321473368">
        <ele>59</ele>
        <time>2017-10-09T18:11:33Z</time>
      </trkpt>
      <trkpt lat="62.638967913501" lon="17.980372686777">
        <ele>59</ele>
        <time>2017-10-09T18:11:34Z</time>
      </trkpt>
      <trkpt lat="62.638959280144" lon="17.980443262375">
        <ele>59</ele>
        <time>2017-10-09T18:11:35Z</time>
      </trkpt>
      <trkpt lat="62.638951484977" lon="17.980502103313">
        <ele>59.2</ele>
        <time>2017-10-09T18:11:36Z</time>
      </trkpt>
      <trkpt lat="62.638946120561" lon="17.980560860432">
        <ele>59.2</ele>
        <time>2017-10-09T18:11:37Z</time>
      </trkpt>
      <trkpt lat="62.63893866067" lon="17.980621964483">
        <ele>59</ele>
        <time>2017-10-09T18:11:38Z</time>
      </trkpt>
      <trkpt lat="62.638933380073" lon="17.980670495684">
        <ele>59</ele>
        <time>2017-10-09T18:11:39Z</time>
      </trkpt>
      <trkpt lat="62.638927680381" lon="17.980734365762">
        <ele>59</ele>
        <time>2017-10-09T18:11:40Z</time>
      </trkpt>
      <trkpt lat="62.638918795567" lon="17.98079655946">
        <ele>59</ele>
        <time>2017-10-09T18:11:41Z</time>
      </trkpt>
      <trkpt lat="62.638912090047" lon="17.980855484217">
        <ele>59</ele>
        <time>2017-10-09T18:11:42Z</time>
      </trkpt>
      <trkpt lat="62.638903372871" lon="17.980910469481">
        <ele>59</ele>
        <time>2017-10-09T18:11:43Z</time>
      </trkpt>
      <trkpt lat="62.638895577704" lon="17.980965622383">
        <ele>59.2</ele>
        <time>2017-10-09T18:11:44Z</time>
      </trkpt>
      <trkpt lat="62.638888536908" lon="17.981035192153">
        <ele>59.2</ele>
        <time>2017-10-09T18:11:45Z</time>
      </trkpt>
      <trkpt lat="62.638882585759" lon="17.981089003951">
        <ele>59.2</ele>
        <time>2017-10-09T18:11:46Z</time>
      </trkpt>
      <trkpt lat="62.638874706773" lon="17.98115530478">
        <ele>59.4</ele>
        <time>2017-10-09T18:11:47Z</time>
      </trkpt>
      <trkpt lat="62.638868001253" lon="17.981211295872">
        <ele>59.6</ele>
        <time>2017-10-09T18:11:48Z</time>
      </trkpt>
      <trkpt lat="62.638861631009" lon="17.98126510767">
        <ele>59.6</ele>
        <time>2017-10-09T18:11:49Z</time>
      </trkpt>
      <trkpt lat="62.638851572729" lon="17.981336018544">
        <ele>59.4</ele>
        <time>2017-10-09T18:11:50Z</time>
      </trkpt>
      <trkpt lat="62.638844699571" lon="17.981395697672">
        <ele>59.4</ele>
        <time>2017-10-09T18:11:51Z</time>
      </trkpt>
      <trkpt lat="62.638837407318" lon="17.981445737615">
        <ele>59.4</ele>
        <time>2017-10-09T18:11:52Z</time>
      </trkpt>
      <trkpt lat="62.638830785617" lon="17.981506171114">
        <ele>59.4</ele>
        <time>2017-10-09T18:11:53Z</time>
      </trkpt>
      <trkpt lat="62.638825085925" lon="17.981546990967">
        <ele>59.4</ele>
        <time>2017-10-09T18:11:54Z</time>
      </trkpt>
      <trkpt lat="62.638816117292" lon="17.981613291796">
        <ele>59.4</ele>
        <time>2017-10-09T18:11:55Z</time>
      </trkpt>
      <trkpt lat="62.638809076496" lon="17.981666516861">
        <ele>59.4</ele>
        <time>2017-10-09T18:11:56Z</time>
      </trkpt>
      <trkpt lat="62.638802706252" lon="17.981721418306">
        <ele>59.4</ele>
        <time>2017-10-09T18:11:57Z</time>
      </trkpt>
      <trkpt lat="62.638795413999" lon="17.981772715534">
        <ele>59.6</ele>
        <time>2017-10-09T18:11:58Z</time>
      </trkpt>
      <trkpt lat="62.638787199737" lon="17.981829880092">
        <ele>59.6</ele>
        <time>2017-10-09T18:11:59Z</time>
      </trkpt>
      <trkpt lat="62.638780913312" lon="17.981892409066">
        <ele>59.6</ele>
        <time>2017-10-09T18:12:00Z</time>
      </trkpt>
      <trkpt lat="62.638774291611" lon="17.981949322167">
        <ele>59.4</ele>
        <time>2017-10-09T18:12:01Z</time>
      </trkpt>
      <trkpt lat="62.638767837548" lon="17.982000619395">
        <ele>59.4</ele>
        <time>2017-10-09T18:12:02Z</time>
      </trkpt>
      <trkpt lat="62.638758785096" lon="17.98205384446">
        <ele>59.6</ele>
        <time>2017-10-09T18:12:03Z</time>
      </trkpt>
      <trkpt lat="62.638753001585" lon="17.982098017073">
        <ele>59.4</ele>
        <time>2017-10-09T18:12:04Z</time>
      </trkpt>
      <trkpt lat="62.638745625513" lon="17.982160881323">
        <ele>59.6</ele>
        <time>2017-10-09T18:12:05Z</time>
      </trkpt>
      <trkpt lat="62.638734226129" lon="17.982208993429">
        <ele>59.8</ele>
        <time>2017-10-09T18:12:06Z</time>
      </trkpt>
      <trkpt lat="62.6387265986" lon="17.982257021716">
        <ele>60</ele>
        <time>2017-10-09T18:12:07Z</time>
      </trkpt>
      <trkpt lat="62.638719557804" lon="17.982310749695">
        <ele>60</ele>
        <time>2017-10-09T18:12:08Z</time>
      </trkpt>
      <trkpt lat="62.638710337714" lon="17.982349976987">
        <ele>60.2</ele>
        <time>2017-10-09T18:12:09Z</time>
      </trkpt>
      <trkpt lat="62.638703716013" lon="17.982405381346">
        <ele>60.4</ele>
        <time>2017-10-09T18:12:10Z</time>
      </trkpt>
      <trkpt lat="62.638697681045" lon="17.982464641379">
        <ele>60.4</ele>
        <time>2017-10-09T18:12:11Z</time>
      </trkpt>
      <trkpt lat="62.638690807887" lon="17.982520129557">
        <ele>60.4</ele>
        <time>2017-10-09T18:12:12Z</time>
      </trkpt>
      <trkpt lat="62.638685108195" lon="17.982572432613">
        <ele>60.6</ele>
        <time>2017-10-09T18:12:13Z</time>
      </trkpt>
      <trkpt lat="62.638683180358" lon="17.982619119796">
        <ele>60.6</ele>
        <time>2017-10-09T18:12:14Z</time>
      </trkpt>
      <trkpt lat="62.638685192014" lon="17.982682067865">
        <ele>60.4</ele>
        <time>2017-10-09T18:12:15Z</time>
      </trkpt>
      <trkpt lat="62.638682928901" lon="17.982731185799">
        <ele>60.4</ele>
        <time>2017-10-09T18:12:16Z</time>
      </trkpt>
      <trkpt lat="62.63867798358" lon="17.982797905723">
        <ele>60.4</ele>
        <time>2017-10-09T18:12:17Z</time>
      </trkpt>
      <trkpt lat="62.63867379263" lon="17.982852220435">
        <ele>60.2</ele>
        <time>2017-10-09T18:12:18Z</time>
      </trkpt>
      <trkpt lat="62.638670942784" lon="17.982899494351">
        <ele>60.2</ele>
        <time>2017-10-09T18:12:19Z</time>
      </trkpt>
      <trkpt lat="62.638665494549" lon="17.98296579518">
        <ele>60</ele>
        <time>2017-10-09T18:12:20Z</time>
      </trkpt>
      <trkpt lat="62.638660549228" lon="17.983022456824">
        <ele>60</ele>
        <time>2017-10-09T18:12:21Z</time>
      </trkpt>
      <trkpt lat="62.638655771545" lon="17.983068305817">
        <ele>60</ele>
        <time>2017-10-09T18:12:22Z</time>
      </trkpt>
      <trkpt lat="62.638648144016" lon="17.983135444836">
        <ele>60</ele>
        <time>2017-10-09T18:12:23Z</time>
      </trkpt>
      <trkpt lat="62.638643198695" lon="17.98318121001">
        <ele>60</ele>
        <time>2017-10-09T18:12:24Z</time>
      </trkpt>
      <trkpt lat="62.638638504831" lon="17.983245080088">
        <ele>59.8</ele>
        <time>2017-10-09T18:12:25Z</time>
      </trkpt>
      <trkpt lat="62.638633894786" lon="17.983298305153">
        <ele>59.8</ele>
        <time>2017-10-09T18:12:26Z</time>
      </trkpt>
      <trkpt lat="62.638630625845" lon="17.983349602381">
        <ele>59.6</ele>
        <time>2017-10-09T18:12:27Z</time>
      </trkpt>
      <trkpt lat="62.638626434895" lon="17.983395535193">
        <ele>59.6</ele>
        <time>2017-10-09T18:12:28Z</time>
      </trkpt>
      <trkpt lat="62.638618555909" lon="17.983448257344">
        <ele>59.6</ele>
        <time>2017-10-09T18:12:29Z</time>
      </trkpt>
      <trkpt lat="62.638611850389" lon="17.983507098282">
        <ele>59.8</ele>
        <time>2017-10-09T18:12:30Z</time>
      </trkpt>
      <trkpt lat="62.638603300851" lon="17.983555629483">
        <ele>59.8</ele>
        <time>2017-10-09T18:12:31Z</time>
      </trkpt>
      <trkpt lat="62.638593996942" lon="17.983611117661">
        <ele>60</ele>
        <time>2017-10-09T18:12:32Z</time>
      </trkpt>
      <trkpt lat="62.638587961974" lon="17.983664258907">
        <ele>60.2</ele>
        <time>2017-10-09T18:12:33Z</time>
      </trkpt>
      <trkpt lat="62.638580585902" lon="17.983708263882">
        <ele>60</ele>
        <time>2017-10-09T18:12:34Z</time>
      </trkpt>
      <trkpt lat="62.638568013052" lon="17.983766769544">
        <ele>60</ele>
        <time>2017-10-09T18:12:35Z</time>
      </trkpt>
      <trkpt lat="62.638558541505" lon="17.983818904962">
        <ele>60.2</ele>
        <time>2017-10-09T18:12:36Z</time>
      </trkpt>
      <trkpt lat="62.63854806413" lon="17.983872213846">
        <ele>60.2</ele>
        <time>2017-10-09T18:12:37Z</time>
      </trkpt>
      <trkpt lat="62.638538089669" lon="17.983926863834">
        <ele>60.4</ele>
        <time>2017-10-09T18:12:38Z</time>
      </trkpt>
      <trkpt lat="62.638531970882" lon="17.983972880465">
        <ele>60.8</ele>
        <time>2017-10-09T18:12:39Z</time>
      </trkpt>
      <trkpt lat="62.638523169887" lon="17.984034319792">
        <ele>60.8</ele>
        <time>2017-10-09T18:12:40Z</time>
      </trkpt>
      <trkpt lat="62.638514955625" lon="17.984092573997">
        <ele>60.8</ele>
        <time>2017-10-09T18:12:41Z</time>
      </trkpt>
      <trkpt lat="62.638506741363" lon="17.984149990012">
        <ele>61</ele>
        <time>2017-10-09T18:12:42Z</time>
      </trkpt>
      <trkpt lat="62.638499365291" lon="17.984203047439">
        <ele>61</ele>
        <time>2017-10-09T18:12:43Z</time>
      </trkpt>
      <trkpt lat="62.638493749418" lon="17.984249986079">
        <ele>61</ele>
        <time>2017-10-09T18:12:44Z</time>
      </trkpt>
      <trkpt lat="62.638482517672" lon="17.984307653551">
        <ele>61.2</ele>
        <time>2017-10-09T18:12:45Z</time>
      </trkpt>
      <trkpt lat="62.638474387229" lon="17.984357358218">
        <ele>61.4</ele>
        <time>2017-10-09T18:12:46Z</time>
      </trkpt>
      <trkpt lat="62.638465334777" lon="17.984420976839">
        <ele>61.4</ele>
        <time>2017-10-09T18:12:47Z</time>
      </trkpt>
      <trkpt lat="62.638456785239" lon="17.984480069234">
        <ele>61.4</ele>
        <time>2017-10-09T18:12:48Z</time>
      </trkpt>
      <trkpt lat="62.638449492986" lon="17.984532791385">
        <ele>61.4</ele>
        <time>2017-10-09T18:12:49Z</time>
      </trkpt>
      <trkpt lat="62.638442368371" lon="17.984594565988">
        <ele>61.4</ele>
        <time>2017-10-09T18:12:50Z</time>
      </trkpt>
      <trkpt lat="62.638434321747" lon="17.984646282311">
        <ele>61.4</ele>
        <time>2017-10-09T18:12:51Z</time>
      </trkpt>
      <trkpt lat="62.638425856028" lon="17.984694813512">
        <ele>61.4</ele>
        <time>2017-10-09T18:12:52Z</time>
      </trkpt>
      <trkpt lat="62.638417809404" lon="17.984751223699">
        <ele>61.4</ele>
        <time>2017-10-09T18:12:53Z</time>
      </trkpt>
      <trkpt lat="62.63841060097" lon="17.984795647769">
        <ele>61.4</ele>
        <time>2017-10-09T18:12:54Z</time>
      </trkpt>
      <trkpt lat="62.638399955957" lon="17.984855410716">
        <ele>61.2</ele>
        <time>2017-10-09T18:12:55Z</time>
      </trkpt>
      <trkpt lat="62.638392076971" lon="17.984901762623">
        <ele>61.2</ele>
        <time>2017-10-09T18:12:56Z</time>
      </trkpt>
      <trkpt lat="62.638384365623" lon="17.984950126186">
        <ele>61.2</ele>
        <time>2017-10-09T18:12:57Z</time>
      </trkpt>
      <trkpt lat="62.638378246836" lon="17.984994634075">
        <ele>61.2</ele>
        <time>2017-10-09T18:12:58Z</time>
      </trkpt>
      <trkpt lat="62.638374055886" lon="17.985043249095">
        <ele>61.2</ele>
        <time>2017-10-09T18:12:59Z</time>
      </trkpt>
      <trkpt lat="62.638369445841" lon="17.985099156368">
        <ele>61.2</ele>
        <time>2017-10-09T18:13:00Z</time>
      </trkpt>
      <trkpt lat="62.638363578511" lon="17.985152884347">
        <ele>61.2</ele>
        <time>2017-10-09T18:13:01Z</time>
      </trkpt>
      <trkpt lat="62.638359722837" lon="17.985195967313">
        <ele>61</ele>
        <time>2017-10-09T18:13:02Z</time>
      </trkpt>
      <trkpt lat="62.638351676213" lon="17.985251204034">
        <ele>61</ele>
        <time>2017-10-09T18:13:04Z</time>
      </trkpt>
      <trkpt lat="62.638347904358" lon="17.985271823508">
        <ele>61</ele>
        <time>2017-10-09T18:13:05Z</time>
      </trkpt>
      <trkpt lat="62.638348994005" lon="17.985271572051">
        <ele>61</ele>
        <time>2017-10-09T18:13:06Z</time>
      </trkpt>
      <trkpt lat="62.638347988177" lon="17.985265285626">
        <ele>61</ele>
        <time>2017-10-09T18:13:07Z</time>
      </trkpt>
      <trkpt lat="62.638345725064" lon="17.985266123816">
        <ele>61</ele>
        <time>2017-10-09T18:13:08Z</time>
      </trkpt>
      <trkpt lat="62.63836366233" lon="17.984945013227">
        <ele>60.8</ele>
        <time>2017-10-09T18:13:49Z</time>
      </trkpt>
      <trkpt lat="62.638367518004" lon="17.984885501737">
        <ele>61</ele>
        <time>2017-10-09T18:13:50Z</time>
      </trkpt>
      <trkpt lat="62.638373217696" lon="17.984816434881">
        <ele>61</ele>
        <time>2017-10-09T18:13:51Z</time>
      </trkpt>
      <trkpt lat="62.638382270148" lon="17.984758264495">
        <ele>61.2</ele>
        <time>2017-10-09T18:13:52Z</time>
      </trkpt>
      <trkpt lat="62.638387718383" lon="17.984695316426">
        <ele>61.2</ele>
        <time>2017-10-09T18:13:53Z</time>
      </trkpt>
      <trkpt lat="62.638393166618" lon="17.984643600103">
        <ele>61.2</ele>
        <time>2017-10-09T18:13:54Z</time>
      </trkpt>
      <trkpt lat="62.638404398364" lon="17.984576209627">
        <ele>61.2</ele>
        <time>2017-10-09T18:13:55Z</time>
      </trkpt>
      <trkpt lat="62.638413031721" lon="17.984515943766">
        <ele>61.2</ele>
        <time>2017-10-09T18:13:56Z</time>
      </trkpt>
      <trkpt lat="62.638417809404" lon="17.984451654593">
        <ele>61.2</ele>
        <time>2017-10-09T18:13:57Z</time>
      </trkpt>
      <trkpt lat="62.638428789693" lon="17.984395579682">
        <ele>61.2</ele>
        <time>2017-10-09T18:13:58Z</time>
      </trkpt>
      <trkpt lat="62.638440859629" lon="17.98433707402">
        <ele>61.2</ele>
        <time>2017-10-09T18:13:59Z</time>
      </trkpt>
      <trkpt lat="62.638452091375" lon="17.984271108467">
        <ele>61.4</ele>
        <time>2017-10-09T18:14:00Z</time>
      </trkpt>
      <trkpt lat="62.638463742216" lon="17.9842130219">
        <ele>61.4</ele>
        <time>2017-10-09T18:14:01Z</time>
      </trkpt>
      <trkpt lat="62.638477320894" lon="17.984153091315">
        <ele>61.6</ele>
        <time>2017-10-09T18:14:02Z</time>
      </trkpt>
      <trkpt lat="62.638490815753" lon="17.98408813159">
        <ele>61.4</ele>
        <time>2017-10-09T18:14:03Z</time>
      </trkpt>
      <trkpt lat="62.638501376947" lon="17.984032894869">
        <ele>61.2</ele>
        <time>2017-10-09T18:14:04Z</time>
      </trkpt>
      <trkpt lat="62.638514871806" lon="17.983957038674">
        <ele>61.2</ele>
        <time>2017-10-09T18:14:05Z</time>
      </trkpt>
      <trkpt lat="62.638523840439" lon="17.983894425881">
        <ele>61.2</ele>
        <time>2017-10-09T18:14:06Z</time>
      </trkpt>
      <trkpt lat="62.638532557615" lon="17.983835752581">
        <ele>61.2</ele>
        <time>2017-10-09T18:14:07Z</time>
      </trkpt>
      <trkpt lat="62.638550494881" lon="17.98377297215">
        <ele>61</ele>
        <time>2017-10-09T18:14:08Z</time>
      </trkpt>
      <trkpt lat="62.638559295876" lon="17.983719747085">
        <ele>60.8</ele>
        <time>2017-10-09T18:14:09Z</time>
      </trkpt>
      <trkpt lat="62.638569521794" lon="17.983650009677">
        <ele>60.8</ele>
        <time>2017-10-09T18:14:10Z</time>
      </trkpt>
      <trkpt lat="62.638574718572" lon="17.983580523726">
        <ele>60.6</ele>
        <time>2017-10-09T18:14:11Z</time>
      </trkpt>
      <trkpt lat="62.638576730228" lon="17.983516737467">
        <ele>60.4</ele>
        <time>2017-10-09T18:14:12Z</time>
      </trkpt>
      <trkpt lat="62.638581927006" lon="17.983449179353">
        <ele>60.4</ele>
        <time>2017-10-09T18:14:13Z</time>
      </trkpt>
      <trkpt lat="62.638587123784" lon="17.983392769166">
        <ele>60.2</ele>
        <time>2017-10-09T18:14:14Z</time>
      </trkpt>
      <trkpt lat="62.638595421865" lon="17.983321858292">
        <ele>60</ele>
        <time>2017-10-09T18:14:15Z</time>
      </trkpt>
      <trkpt lat="62.638600786281" lon="17.983260586603">
        <ele>60</ele>
        <time>2017-10-09T18:14:16Z</time>
      </trkpt>
      <trkpt lat="62.638608832905" lon="17.983190849195">
        <ele>60</ele>
        <time>2017-10-09T18:14:17Z</time>
      </trkpt>
      <trkpt lat="62.638616544253" lon="17.983123542538">
        <ele>59.8</ele>
        <time>2017-10-09T18:14:18Z</time>
      </trkpt>
      <trkpt lat="62.638620902841" lon="17.983071239482">
        <ele>59.8</ele>
        <time>2017-10-09T18:14:19Z</time>
      </trkpt>
      <trkpt lat="62.638627608361" lon="17.983006531214">
        <ele>59.8</ele>
        <time>2017-10-09T18:14:20Z</time>
      </trkpt>
      <trkpt lat="62.638635738804" lon="17.98294484043">
        <ele>59.8</ele>
        <time>2017-10-09T18:14:21Z</time>
      </trkpt>
      <trkpt lat="62.63864194141" lon="17.982890777175">
        <ele>59.8</ele>
        <time>2017-10-09T18:14:22Z</time>
      </trkpt>
      <trkpt lat="62.638647892559" lon="17.982823219061">
        <ele>59.6</ele>
        <time>2017-10-09T18:14:23Z</time>
      </trkpt>
      <trkpt lat="62.638650826224" lon="17.98276798234">
        <ele>59.6</ele>
        <time>2017-10-09T18:14:24Z</time>
      </trkpt>
      <trkpt lat="62.638656106821" lon="17.982698496389">
        <ele>59.6</ele>
        <time>2017-10-09T18:14:25Z</time>
      </trkpt>
      <trkpt lat="62.638660800685" lon="17.982635213044">
        <ele>59.8</ele>
        <time>2017-10-09T18:14:26Z</time>
      </trkpt>
      <trkpt lat="62.638662393246" lon="17.982573103165">
        <ele>59.8</ele>
        <time>2017-10-09T18:14:27Z</time>
      </trkpt>
      <trkpt lat="62.638665829825" lon="17.98251233439">
        <ele>59.8</ele>
        <time>2017-10-09T18:14:28Z</time>
      </trkpt>
      <trkpt lat="62.638665326911" lon="17.982447123208">
        <ele>59.8</ele>
        <time>2017-10-09T18:14:29Z</time>
      </trkpt>
      <trkpt lat="62.638670858965" lon="17.982379565094">
        <ele>59.8</ele>
        <time>2017-10-09T18:14:30Z</time>
      </trkpt>
      <trkpt lat="62.638675636648" lon="17.982319718328">
        <ele>59.8</ele>
        <time>2017-10-09T18:14:31Z</time>
      </trkpt>
      <trkpt lat="62.638679157046" lon="17.982254255689">
        <ele>59.6</ele>
        <time>2017-10-09T18:14:32Z</time>
      </trkpt>
      <trkpt lat="62.638681168702" lon="17.982189212145">
        <ele>59.6</ele>
        <time>2017-10-09T18:14:33Z</time>
      </trkpt>
      <trkpt lat="62.638683934729" lon="17.982128275732">
        <ele>59.4</ele>
        <time>2017-10-09T18:14:34Z</time>
      </trkpt>
      <trkpt lat="62.638689550602" lon="17.982055353202">
        <ele>59.6</ele>
        <time>2017-10-09T18:14:35Z</time>
      </trkpt>
      <trkpt lat="62.638699105968" lon="17.9819918184">
        <ele>59.4</ele>
        <time>2017-10-09T18:14:36Z</time>
      </trkpt>
      <trkpt lat="62.63871067299" lon="17.981926271942">
        <ele>59.4</ele>
        <time>2017-10-09T18:14:37Z</time>
      </trkpt>
      <trkpt lat="62.638717546148" lon="17.981868436832">
        <ele>59.4</ele>
        <time>2017-10-09T18:14:38Z</time>
      </trkpt>
      <trkpt lat="62.638724838401" lon="17.981809344437">
        <ele>59.6</ele>
        <time>2017-10-09T18:14:39Z</time>
      </trkpt>
      <trkpt lat="62.638727352971" lon="17.981741451047">
        <ele>59.4</ele>
        <time>2017-10-09T18:14:40Z</time>
      </trkpt>
      <trkpt lat="62.638734477586" lon="17.981673054743">
        <ele>59.4</ele>
        <time>2017-10-09T18:14:41Z</time>
      </trkpt>
      <trkpt lat="62.638738919993" lon="17.981606334819">
        <ele>59.6</ele>
        <time>2017-10-09T18:14:42Z</time>
      </trkpt>
      <trkpt lat="62.638741518382" lon="17.981546990967">
        <ele>59.6</ele>
        <time>2017-10-09T18:14:43Z</time>
      </trkpt>
      <trkpt lat="62.638750319377" lon="17.981485803097">
        <ele>59.6</ele>
        <time>2017-10-09T18:14:44Z</time>
      </trkpt>
      <trkpt lat="62.638756102888" lon="17.98141682006">
        <ele>59.6</ele>
        <time>2017-10-09T18:14:45Z</time>
      </trkpt>
      <trkpt lat="62.638761467304" lon="17.981360745149">
        <ele>59.4</ele>
        <time>2017-10-09T18:14:46Z</time>
      </trkpt>
      <trkpt lat="62.638768005186" lon="17.981290085732">
        <ele>59.4</ele>
        <time>2017-10-09T18:14:47Z</time>
      </trkpt>
      <trkpt lat="62.63877186086" lon="17.981222443799">
        <ele>59.4</ele>
        <time>2017-10-09T18:14:48Z</time>
      </trkpt>
      <trkpt lat="62.638780326579" lon="17.981159411911">
        <ele>59.2</ele>
        <time>2017-10-09T18:14:49Z</time>
      </trkpt>
      <trkpt lat="62.6387852719" lon="17.981096882937">
        <ele>59</ele>
        <time>2017-10-09T18:14:50Z</time>
      </trkpt>
      <trkpt lat="62.638793067067" lon="17.981031839393">
        <ele>59.2</ele>
        <time>2017-10-09T18:14:51Z</time>
      </trkpt>
      <trkpt lat="62.638800610777" lon="17.980973669007">
        <ele>59.2</ele>
        <time>2017-10-09T18:14:52Z</time>
      </trkpt>
      <trkpt lat="62.638807567754" lon="17.980909631291">
        <ele>59</ele>
        <time>2017-10-09T18:14:53Z</time>
      </trkpt>
      <trkpt lat="62.638816704025" lon="17.980846599403">
        <ele>59.2</ele>
        <time>2017-10-09T18:14:54Z</time>
      </trkpt>
      <trkpt lat="62.638824750649" lon="17.980781136764">
        <ele>59.2</ele>
        <time>2017-10-09T18:14:55Z</time>
      </trkpt>
      <trkpt lat="62.638834054558" lon="17.980720451808">
        <ele>59</ele>
        <time>2017-10-09T18:14:56Z</time>
      </trkpt>
      <trkpt lat="62.638846878865" lon="17.980662532879">
        <ele>59.2</ele>
        <time>2017-10-09T18:14:57Z</time>
      </trkpt>
      <trkpt lat="62.638856853326" lon="17.980607463796">
        <ele>59.2</ele>
        <time>2017-10-09T18:14:58Z</time>
      </trkpt>
      <trkpt lat="62.638862804475" lon="17.980541162967">
        <ele>59</ele>
        <time>2017-10-09T18:14:59Z</time>
      </trkpt>
      <trkpt lat="62.63887244366" lon="17.980474526862">
        <ele>59.2</ele>
        <time>2017-10-09T18:15:00Z</time>
      </trkpt>
      <trkpt lat="62.638877556619" lon="17.980418032856">
        <ele>59.2</ele>
        <time>2017-10-09T18:15:01Z</time>
      </trkpt>
      <trkpt lat="62.63888501651" lon="17.980346535249">
        <ele>59.2</ele>
        <time>2017-10-09T18:15:02Z</time>
      </trkpt>
      <trkpt lat="62.638892308763" lon="17.980290795614">
        <ele>59.2</ele>
        <time>2017-10-09T18:15:03Z</time>
      </trkpt>
      <trkpt lat="62.638900690663" lon="17.980235139798">
        <ele>59.2</ele>
        <time>2017-10-09T18:15:04Z</time>
      </trkpt>
      <trkpt lat="62.638908737287" lon="17.980167749322">
        <ele>59.4</ele>
        <time>2017-10-09T18:15:05Z</time>
      </trkpt>
      <trkpt lat="62.638910832762" lon="17.980105471805">
        <ele>59.6</ele>
        <time>2017-10-09T18:15:06Z</time>
      </trkpt>
      <trkpt lat="62.638915358988" lon="17.980035315302">
        <ele>59.6</ele>
        <time>2017-10-09T18:15:07Z</time>
      </trkpt>
      <trkpt lat="62.63892105868" lon="17.97997680964">
        <ele>59.4</ele>
        <time>2017-10-09T18:15:08Z</time>
      </trkpt>
      <trkpt lat="62.638926590734" lon="17.979917046693">
        <ele>59.4</ele>
        <time>2017-10-09T18:15:09Z</time>
      </trkpt>
      <trkpt lat="62.638930194951" lon="17.979845297629">
        <ele>59.4</ele>
        <time>2017-10-09T18:15:10Z</time>
      </trkpt>
      <trkpt lat="62.638939247403" lon="17.979780254085">
        <ele>59.2</ele>
        <time>2017-10-09T18:15:11Z</time>
      </trkpt>
      <trkpt lat="62.638941845792" lon="17.979708253564">
        <ele>59.2</ele>
        <time>2017-10-09T18:15:12Z</time>
      </trkpt>
      <trkpt lat="62.638944276543" lon="17.979639605803">
        <ele>59.2</ele>
        <time>2017-10-09T18:15:13Z</time>
      </trkpt>
      <trkpt lat="62.638946958751" lon="17.979579172304">
        <ele>59</ele>
        <time>2017-10-09T18:15:14Z</time>
      </trkpt>
      <trkpt lat="62.6389529099" lon="17.979505076308">
        <ele>59.2</ele>
        <time>2017-10-09T18:15:15Z</time>
      </trkpt>
      <trkpt lat="62.638949724778" lon="17.979449839587">
        <ele>59.4</ele>
        <time>2017-10-09T18:15:16Z</time>
      </trkpt>
      <trkpt lat="62.638948802769" lon="17.979375240677">
        <ele>59.2</ele>
        <time>2017-10-09T18:15:17Z</time>
      </trkpt>
      <trkpt lat="62.638949054226" lon="17.979307179649">
        <ele>59.2</ele>
        <time>2017-10-09T18:15:18Z</time>
      </trkpt>
      <trkpt lat="62.638949054226" lon="17.979245991779">
        <ele>59.2</ele>
        <time>2017-10-09T18:15:19Z</time>
      </trkpt>
      <trkpt lat="62.638946707294" lon="17.979178266027">
        <ele>59</ele>
        <time>2017-10-09T18:15:20Z</time>
      </trkpt>
      <trkpt lat="62.638946623475" lon="17.979119005994">
        <ele>58.8</ele>
        <time>2017-10-09T18:15:21Z</time>
      </trkpt>
      <trkpt lat="62.638942348706" lon="17.979060500332">
        <ele>59</ele>
        <time>2017-10-09T18:15:22Z</time>
      </trkpt>
      <trkpt lat="62.638938493032" lon="17.978993948046">
        <ele>59</ele>
        <time>2017-10-09T18:15:23Z</time>
      </trkpt>
      <trkpt lat="62.63893279334" lon="17.978941142076">
        <ele>59</ele>
        <time>2017-10-09T18:15:24Z</time>
      </trkpt>
      <trkpt lat="62.638925584906" lon="17.978875008885">
        <ele>59</ele>
        <time>2017-10-09T18:15:25Z</time>
      </trkpt>
      <trkpt lat="62.638919801395" lon="17.97881340192">
        <ele>59</ele>
        <time>2017-10-09T18:15:26Z</time>
      </trkpt>
      <trkpt lat="62.638910246029" lon="17.978756153543">
        <ele>59.2</ele>
        <time>2017-10-09T18:15:27Z</time>
      </trkpt>
      <trkpt lat="62.638901947948" lon="17.978700330089">
        <ele>59.2</ele>
        <time>2017-10-09T18:15:28Z</time>
      </trkpt>
      <trkpt lat="62.638891554392" lon="17.978646937386">
        <ele>59.4</ele>
        <time>2017-10-09T18:15:29Z</time>
      </trkpt>
      <trkpt lat="62.638876047877" lon="17.978586420068">
        <ele>59.2</ele>
        <time>2017-10-09T18:15:30Z</time>
      </trkpt>
      <trkpt lat="62.638861463371" lon="17.978543169464">
        <ele>59.4</ele>
        <time>2017-10-09T18:15:31Z</time>
      </trkpt>
      <trkpt lat="62.638840927716" lon="17.978500421774">
        <ele>59.4</ele>
        <time>2017-10-09T18:15:32Z</time>
      </trkpt>
      <trkpt lat="62.638824415373" lon="17.9784546566">
        <ele>59.4</ele>
        <time>2017-10-09T18:15:33Z</time>
      </trkpt>
      <trkpt lat="62.638804298813" lon="17.978430181452">
        <ele>59.2</ele>
        <time>2017-10-09T18:15:34Z</time>
      </trkpt>
      <trkpt lat="62.638779572208" lon="17.978399419879">
        <ele>59.4</ele>
        <time>2017-10-09T18:15:35Z</time>
      </trkpt>
      <trkpt lat="62.63875509706" lon="17.978369245039">
        <ele>59.4</ele>
        <time>2017-10-09T18:15:36Z</time>
      </trkpt>
      <trkpt lat="62.638731543921" lon="17.97834736828">
        <ele>59.8</ele>
        <time>2017-10-09T18:15:37Z</time>
      </trkpt>
      <trkpt lat="62.638708661334" lon="17.978315097965">
        <ele>59.8</ele>
        <time>2017-10-09T18:15:38Z</time>
      </trkpt>
      <trkpt lat="62.638688377136" lon="17.978294394672">
        <ele>60</ele>
        <time>2017-10-09T18:15:39Z</time>
      </trkpt>
      <trkpt lat="62.638669936956" lon="17.978275703035">
        <ele>60.4</ele>
        <time>2017-10-09T18:15:40Z</time>
      </trkpt>
      <trkpt lat="62.638640348849" lon="17.978233290621">
        <ele>60.4</ele>
        <time>2017-10-09T18:15:41Z</time>
      </trkpt>
      <trkpt lat="62.63862014847" lon="17.978195320614">
        <ele>60.6</ele>
        <time>2017-10-09T18:15:42Z</time>
      </trkpt>
      <trkpt lat="62.63860422286" lon="17.978143436653">
        <ele>60.8</ele>
        <time>2017-10-09T18:15:43Z</time>
      </trkpt>
      <trkpt lat="62.638593661666" lon="17.978094067262">
        <ele>61</ele>
        <time>2017-10-09T18:15:44Z</time>
      </trkpt>
      <trkpt lat="62.638581088816" lon="17.978036148333">
        <ele>61.2</ele>
        <time>2017-10-09T18:15:45Z</time>
      </trkpt>
      <trkpt lat="62.638575556762" lon="17.977999603249">
        <ele>61.2</ele>
        <time>2017-10-09T18:15:46Z</time>
      </trkpt>
      <trkpt lat="62.638566336672" lon="17.977922489769">
        <ele>61.2</ele>
        <time>2017-10-09T18:15:47Z</time>
      </trkpt>
      <trkpt lat="62.638564492654" lon="17.977858535872">
        <ele>61.2</ele>
        <time>2017-10-09T18:15:48Z</time>
      </trkpt>
      <trkpt lat="62.638565414663" lon="17.977796845088">
        <ele>61.2</ele>
        <time>2017-10-09T18:15:49Z</time>
      </trkpt>
      <trkpt lat="62.638564576473" lon="17.97773465139">
        <ele>61.2</ele>
        <time>2017-10-09T18:15:50Z</time>
      </trkpt>
      <trkpt lat="62.63856482793" lon="17.977671200407">
        <ele>61</ele>
        <time>2017-10-09T18:15:51Z</time>
      </trkpt>
      <trkpt lat="62.638567007224" lon="17.977608839071">
        <ele>61</ele>
        <time>2017-10-09T18:15:52Z</time>
      </trkpt>
      <trkpt lat="62.638568935061" lon="17.977549327581">
        <ele>61</ele>
        <time>2017-10-09T18:15:53Z</time>
      </trkpt>
      <trkpt lat="62.638572706916" lon="17.977491743928">
        <ele>61</ele>
        <time>2017-10-09T18:15:54Z</time>
      </trkpt>
      <trkpt lat="62.638578490427" lon="17.977421671244">
        <ele>61</ele>
        <time>2017-10-09T18:15:55Z</time>
      </trkpt>
      <trkpt lat="62.638582597558" lon="17.977359561365">
        <ele>61</ele>
        <time>2017-10-09T18:15:56Z</time>
      </trkpt>
      <trkpt lat="62.638587626698" lon="17.977292757622">
        <ele>61.2</ele>
        <time>2017-10-09T18:15:57Z</time>
      </trkpt>
      <trkpt lat="62.638591482372" lon="17.977229809553">
        <ele>61.4</ele>
        <time>2017-10-09T18:15:58Z</time>
      </trkpt>
      <trkpt lat="62.638595170408" lon="17.977164346914">
        <ele>61.2</ele>
        <time>2017-10-09T18:15:59Z</time>
      </trkpt>
      <trkpt lat="62.638600786281" lon="17.97709092147">
        <ele>61.4</ele>
        <time>2017-10-09T18:16:00Z</time>
      </trkpt>
      <trkpt lat="62.63860254648" lon="17.977030236514">
        <ele>61.4</ele>
        <time>2017-10-09T18:16:01Z</time>
      </trkpt>
      <trkpt lat="62.638605563964" lon="17.976962929857">
        <ele>61.2</ele>
        <time>2017-10-09T18:16:02Z</time>
      </trkpt>
      <trkpt lat="62.638611682751" lon="17.976897970132">
        <ele>61.2</ele>
        <time>2017-10-09T18:16:03Z</time>
      </trkpt>
      <trkpt lat="62.638614448778" lon="17.976844325972">
        <ele>61.4</ele>
        <time>2017-10-09T18:16:04Z</time>
      </trkpt>
      <trkpt lat="62.63862266304" lon="17.976777103134">
        <ele>61.2</ele>
        <time>2017-10-09T18:16:05Z</time>
      </trkpt>
      <trkpt lat="62.638629955293" lon="17.97671289778">
        <ele>61.2</ele>
        <time>2017-10-09T18:16:06Z</time>
      </trkpt>
      <trkpt lat="62.638639343021" lon="17.976652045186">
        <ele>61.4</ele>
        <time>2017-10-09T18:16:07Z</time>
      </trkpt>
      <trkpt lat="62.638648395473" lon="17.976583900339">
        <ele>61.4</ele>
        <time>2017-10-09T18:16:08Z</time>
      </trkpt>
      <trkpt lat="62.638656693554" lon="17.97653017236">
        <ele>61.2</ele>
        <time>2017-10-09T18:16:09Z</time>
      </trkpt>
      <trkpt lat="62.638664321083" lon="17.976472840164">
        <ele>61.2</ele>
        <time>2017-10-09T18:16:10Z</time>
      </trkpt>
      <trkpt lat="62.638673038259" lon="17.976412993398">
        <ele>61.2</ele>
        <time>2017-10-09T18:16:11Z</time>
      </trkpt>
      <trkpt lat="62.638678570313" lon="17.976355661202">
        <ele>61</ele>
        <time>2017-10-09T18:16:12Z</time>
      </trkpt>
      <trkpt lat="62.638689550602" lon="17.976296401169">
        <ele>61</ele>
        <time>2017-10-09T18:16:13Z</time>
      </trkpt>
      <trkpt lat="62.638698183959" lon="17.976235297118">
        <ele>60.8</ele>
        <time>2017-10-09T18:16:14Z</time>
      </trkpt>
      <trkpt lat="62.638706901135" lon="17.97617226523">
        <ele>60.8</ele>
        <time>2017-10-09T18:16:15Z</time>
      </trkpt>
      <trkpt lat="62.638717127053" lon="17.97611191555">
        <ele>60.6</ele>
        <time>2017-10-09T18:16:16Z</time>
      </trkpt>
      <trkpt lat="62.638727520609" lon="17.976045530902">
        <ele>60.6</ele>
        <time>2017-10-09T18:16:17Z</time>
      </trkpt>
      <trkpt lat="62.638739506726" lon="17.975986689964">
        <ele>60.4</ele>
        <time>2017-10-09T18:16:18Z</time>
      </trkpt>
      <trkpt lat="62.638751241386" lon="17.975929944501">
        <ele>60.2</ele>
        <time>2017-10-09T18:16:19Z</time>
      </trkpt>
      <trkpt lat="62.638760377657" lon="17.975868588993">
        <ele>60.2</ele>
        <time>2017-10-09T18:16:20Z</time>
      </trkpt>
      <trkpt lat="62.638775716534" lon="17.975812765539">
        <ele>60</ele>
        <time>2017-10-09T18:16:21Z</time>
      </trkpt>
      <trkpt lat="62.638790217221" lon="17.975752499678">
        <ele>60</ele>
        <time>2017-10-09T18:16:22Z</time>
      </trkpt>
      <trkpt lat="62.638803544442" lon="17.975694580749">
        <ele>60</ele>
        <time>2017-10-09T18:16:23Z</time>
      </trkpt>
      <trkpt lat="62.638817290758" lon="17.975641020408">
        <ele>59.8</ele>
        <time>2017-10-09T18:16:24Z</time>
      </trkpt>
      <trkpt lat="62.638835730938" lon="17.975580670728">
        <ele>59.6</ele>
        <time>2017-10-09T18:16:25Z</time>
      </trkpt>
      <trkpt lat="62.638852159462" lon="17.975526942749">
        <ele>59.6</ele>
        <time>2017-10-09T18:16:26Z</time>
      </trkpt>
      <trkpt lat="62.638869677633" lon="17.975472544218">
        <ele>59.4</ele>
        <time>2017-10-09T18:16:27Z</time>
      </trkpt>
      <trkpt lat="62.638884765053" lon="17.975424096836">
        <ele>59.2</ele>
        <time>2017-10-09T18:16:28Z</time>
      </trkpt>
      <trkpt lat="62.638901864129" lon="17.975375817092">
        <ele>59.2</ele>
        <time>2017-10-09T18:16:29Z</time>
      </trkpt>
      <trkpt lat="62.638923154155" lon="17.975320748009">
        <ele>59.2</ele>
        <time>2017-10-09T18:16:30Z</time>
      </trkpt>
      <trkpt lat="62.638942683982" lon="17.975270624247">
        <ele>59.2</ele>
        <time>2017-10-09T18:16:31Z</time>
      </trkpt>
      <trkpt lat="62.638962046171" lon="17.975215471345">
        <ele>58.8</ele>
        <time>2017-10-09T18:16:32Z</time>
      </trkpt>
      <trkpt lat="62.638982162731" lon="17.975167610696">
        <ele>58.8</ele>
        <time>2017-10-09T18:16:33Z</time>
      </trkpt>
      <trkpt lat="62.638995070857" lon="17.975122683712">
        <ele>58.6</ele>
        <time>2017-10-09T18:16:34Z</time>
      </trkpt>
      <trkpt lat="62.639010074458" lon="17.975063758955">
        <ele>58.6</ele>
        <time>2017-10-09T18:16:35Z</time>
      </trkpt>
      <trkpt lat="62.639025748611" lon="17.975013467555">
        <ele>58.4</ele>
        <time>2017-10-09T18:16:36Z</time>
      </trkpt>
      <trkpt lat="62.639037315633" lon="17.974962673241">
        <ele>58.4</ele>
        <time>2017-10-09T18:16:37Z</time>
      </trkpt>
      <trkpt lat="62.639052570691" lon="17.974906765968">
        <ele>58.4</ele>
        <time>2017-10-09T18:16:38Z</time>
      </trkpt>
      <trkpt lat="62.639064053894" lon="17.974853289446">
        <ele>58.4</ele>
        <time>2017-10-09T18:16:39Z</time>
      </trkpt>
      <trkpt lat="62.63907528564" lon="17.974792688309">
        <ele>58.4</ele>
        <time>2017-10-09T18:16:40Z</time>
      </trkpt>
      <trkpt lat="62.639089115775" lon="17.974727728584">
        <ele>58.2</ele>
        <time>2017-10-09T18:16:41Z</time>
      </trkpt>
      <trkpt lat="62.639103197367" lon="17.974671988949">
        <ele>57.8</ele>
        <time>2017-10-09T18:16:42Z</time>
      </trkpt>
      <trkpt lat="62.639114345294" lon="17.974610968717">
        <ele>57.8</ele>
        <time>2017-10-09T18:16:43Z</time>
      </trkpt>
      <trkpt lat="62.639128678343" lon="17.974558078928">
        <ele>57.6</ele>
        <time>2017-10-09T18:16:44Z</time>
      </trkpt>
      <trkpt lat="62.639141418831" lon="17.974501333465">
        <ele>57.4</ele>
        <time>2017-10-09T18:16:45Z</time>
      </trkpt>
      <trkpt lat="62.639152985853" lon="17.974453305178">
        <ele>57.2</ele>
        <time>2017-10-09T18:16:46Z</time>
      </trkpt>
      <trkpt lat="62.639166313074" lon="17.974388513091">
        <ele>57.4</ele>
        <time>2017-10-09T18:16:47Z</time>
      </trkpt>
      <trkpt lat="62.639175533164" lon="17.974332186723">
        <ele>57.4</ele>
        <time>2017-10-09T18:16:48Z</time>
      </trkpt>
      <trkpt lat="62.639180562304" lon="17.974269993025">
        <ele>57.4</ele>
        <time>2017-10-09T18:16:49Z</time>
      </trkpt>
      <trkpt lat="62.63919011767" lon="17.974201596721">
        <ele>57.2</ele>
        <time>2017-10-09T18:16:50Z</time>
      </trkpt>
      <trkpt lat="62.63919849957" lon="17.974145437991">
        <ele>57.4</ele>
        <time>2017-10-09T18:16:51Z</time>
      </trkpt>
      <trkpt lat="62.639201768511" lon="17.974089530718">
        <ele>57.2</ele>
        <time>2017-10-09T18:16:52Z</time>
      </trkpt>
      <trkpt lat="62.639205288909" lon="17.974030857418">
        <ele>57</ele>
        <time>2017-10-09T18:16:53Z</time>
      </trkpt>
      <trkpt lat="62.639204618357" lon="17.973973273765">
        <ele>57</ele>
        <time>2017-10-09T18:16:54Z</time>
      </trkpt>
      <trkpt lat="62.639209312221" lon="17.973908984592">
        <ele>56.8</ele>
        <time>2017-10-09T18:16:55Z</time>
      </trkpt>
      <trkpt lat="62.639208641669" lon="17.973845785066">
        <ele>56.8</ele>
        <time>2017-10-09T18:16:56Z</time>
      </trkpt>
      <trkpt lat="62.639215347189" lon="17.973789039603">
        <ele>56.8</ele>
        <time>2017-10-09T18:16:57Z</time>
      </trkpt>
      <trkpt lat="62.639224986374" lon="17.973735060167">
        <ele>56.6</ele>
        <time>2017-10-09T18:16:58Z</time>
      </trkpt>
      <trkpt lat="62.639227500944" lon="17.973673285564">
        <ele>56.6</ele>
        <time>2017-10-09T18:16:59Z</time>
      </trkpt>
      <trkpt lat="62.639234038826" lon="17.97362081487">
        <ele>56.6</ele>
        <time>2017-10-09T18:17:00Z</time>
      </trkpt>
      <trkpt lat="62.639240492889" lon="17.973562393027">
        <ele>56.4</ele>
        <time>2017-10-09T18:17:01Z</time>
      </trkpt>
      <trkpt lat="62.639237726862" lon="17.973495673103">
        <ele>56.4</ele>
        <time>2017-10-09T18:17:02Z</time>
      </trkpt>
      <trkpt lat="62.639238984147" lon="17.97342719298">
        <ele>56.2</ele>
        <time>2017-10-09T18:17:03Z</time>
      </trkpt>
      <trkpt lat="62.639242336907" lon="17.973367346214">
        <ele>56</ele>
        <time>2017-10-09T18:17:04Z</time>
      </trkpt>
      <trkpt lat="62.6392462764" lon="17.973297441168">
        <ele>56.2</ele>
        <time>2017-10-09T18:17:05Z</time>
      </trkpt>
      <trkpt lat="62.639246444038" lon="17.973230302149">
        <ele>56</ele>
        <time>2017-10-09T18:17:06Z</time>
      </trkpt>
      <trkpt lat="62.639248707151" lon="17.973159223637">
        <ele>56</ele>
        <time>2017-10-09T18:17:07Z</time>
      </trkpt>
      <trkpt lat="62.639250718807" lon="17.973087223116">
        <ele>56</ele>
        <time>2017-10-09T18:17:08Z</time>
      </trkpt>
      <trkpt lat="62.639254239205" lon="17.97302067083">
        <ele>56.2</ele>
        <time>2017-10-09T18:17:09Z</time>
      </trkpt>
      <trkpt lat="62.639255999404" lon="17.972958141856">
        <ele>56</ele>
        <time>2017-10-09T18:17:10Z</time>
      </trkpt>
      <trkpt lat="62.639256921413" lon="17.972893768864">
        <ele>56.2</ele>
        <time>2017-10-09T18:17:11Z</time>
      </trkpt>
      <trkpt lat="62.639259855078" lon="17.972826881302">
        <ele>56.2</ele>
        <time>2017-10-09T18:17:12Z</time>
      </trkpt>
      <trkpt lat="62.639262621105" lon="17.972764017052">
        <ele>56</ele>
        <time>2017-10-09T18:17:13Z</time>
      </trkpt>
      <trkpt lat="62.639265890046" lon="17.97270383501">
        <ele>56</ele>
        <time>2017-10-09T18:17:14Z</time>
      </trkpt>
      <trkpt lat="62.639270080996" lon="17.972629990471">
        <ele>56.2</ele>
        <time>2017-10-09T18:17:15Z</time>
      </trkpt>
      <trkpt lat="62.639272092652" lon="17.972574669931">
        <ele>56.2</ele>
        <time>2017-10-09T18:17:16Z</time>
      </trkpt>
      <trkpt lat="62.639276283602" lon="17.972503842876">
        <ele>56.2</ele>
        <time>2017-10-09T18:17:17Z</time>
      </trkpt>
      <trkpt lat="62.63928148038" lon="17.972440475712">
        <ele>56.2</ele>
        <time>2017-10-09T18:17:18Z</time>
      </trkpt>
      <trkpt lat="62.639283408217" lon="17.972382221507">
        <ele>56.2</ele>
        <time>2017-10-09T18:17:19Z</time>
      </trkpt>
      <trkpt lat="62.639282905303" lon="17.972307874054">
        <ele>56</ele>
        <time>2017-10-09T18:17:20Z</time>
      </trkpt>
      <trkpt lat="62.639282234751" lon="17.972239896845">
        <ele>56</ele>
        <time>2017-10-09T18:17:21Z</time>
      </trkpt>
      <trkpt lat="62.639276032145" lon="17.972173176921">
        <ele>55.8</ele>
        <time>2017-10-09T18:17:22Z</time>
      </trkpt>
      <trkpt lat="62.639271841195" lon="17.972100589667">
        <ele>55.8</ele>
        <time>2017-10-09T18:17:23Z</time>
      </trkpt>
      <trkpt lat="62.639265890046" lon="17.972044766213">
        <ele>55.8</ele>
        <time>2017-10-09T18:17:24Z</time>
      </trkpt>
      <trkpt lat="62.639258430155" lon="17.97197880066">
        <ele>55.8</ele>
        <time>2017-10-09T18:17:25Z</time>
      </trkpt>
      <trkpt lat="62.639251724635" lon="17.971915768772">
        <ele>55.6</ele>
        <time>2017-10-09T18:17:26Z</time>
      </trkpt>
      <trkpt lat="62.639240911984" lon="17.971857179291">
        <ele>55.8</ele>
        <time>2017-10-09T18:17:27Z</time>
      </trkpt>
      <trkpt lat="62.639229261143" lon="17.97179691343">
        <ele>55.6</ele>
        <time>2017-10-09T18:17:28Z</time>
      </trkpt>
      <trkpt lat="62.639218280854" lon="17.971735138827">
        <ele>55.6</ele>
        <time>2017-10-09T18:17:29Z</time>
      </trkpt>
      <trkpt lat="62.639207049108" lon="17.971675543518">
        <ele>55.8</ele>
        <time>2017-10-09T18:17:30Z</time>
      </trkpt>
      <trkpt lat="62.639199924493" lon="17.971616534942">
        <ele>55.8</ele>
        <time>2017-10-09T18:17:31Z</time>
      </trkpt>
      <trkpt lat="62.639188022195" lon="17.971553083959">
        <ele>55.8</ele>
        <time>2017-10-09T18:17:32Z</time>
      </trkpt>
      <trkpt lat="62.639174527336" lon="17.971501451455">
        <ele>55.8</ele>
        <time>2017-10-09T18:17:33Z</time>
      </trkpt>
      <trkpt lat="62.639166983626" lon="17.9714473882">
        <ele>56</ele>
        <time>2017-10-09T18:17:34Z</time>
      </trkpt>
      <trkpt lat="62.639156170975" lon="17.971374381851">
        <ele>55.8</ele>
        <time>2017-10-09T18:17:35Z</time>
      </trkpt>
      <trkpt lat="62.639147537618" lon="17.971311182325">
        <ele>55.8</ele>
        <time>2017-10-09T18:17:36Z</time>
      </trkpt>
      <trkpt lat="62.639140832098" lon="17.971246809333">
        <ele>55.8</ele>
        <time>2017-10-09T18:17:37Z</time>
      </trkpt>
      <trkpt lat="62.639130438542" lon="17.971184950911">
        <ele>55.8</ele>
        <time>2017-10-09T18:17:38Z</time>
      </trkpt>
      <trkpt lat="62.639121805185" lon="17.971125355602">
        <ele>55.6</ele>
        <time>2017-10-09T18:17:39Z</time>
      </trkpt>
      <trkpt lat="62.639112920371" lon="17.971056875479">
        <ele>55.6</ele>
        <time>2017-10-09T18:17:40Z</time>
      </trkpt>
      <trkpt lat="62.639102778272" lon="17.970994178867">
        <ele>55.6</ele>
        <time>2017-10-09T18:17:41Z</time>
      </trkpt>
      <trkpt lat="62.63909456401" lon="17.970926536934">
        <ele>55.6</ele>
        <time>2017-10-09T18:17:42Z</time>
      </trkpt>
      <trkpt lat="62.639086265929" lon="17.970846489789">
        <ele>55.6</ele>
        <time>2017-10-09T18:17:43Z</time>
      </trkpt>
      <trkpt lat="62.639079895685" lon="17.970782032978">
        <ele>55.4</ele>
        <time>2017-10-09T18:17:44Z</time>
      </trkpt>
      <trkpt lat="62.639075201821" lon="17.970708439896">
        <ele>55.4</ele>
        <time>2017-10-09T18:17:45Z</time>
      </trkpt>
      <trkpt lat="62.639071178509" lon="17.97064859313">
        <ele>55.6</ele>
        <time>2017-10-09T18:17:46Z</time>
      </trkpt>
      <trkpt lat="62.639067993387" lon="17.970577095523">
        <ele>55.4</ele>
        <time>2017-10-09T18:17:47Z</time>
      </trkpt>
      <trkpt lat="62.639065814093" lon="17.970503502441">
        <ele>55.4</ele>
        <time>2017-10-09T18:17:48Z</time>
      </trkpt>
      <trkpt lat="62.63906522736" lon="17.970445667331">
        <ele>55.4</ele>
        <time>2017-10-09T18:17:49Z</time>
      </trkpt>
      <trkpt lat="62.639067909568" lon="17.970377941579">
        <ele>55.4</ele>
        <time>2017-10-09T18:17:50Z</time>
      </trkpt>
      <trkpt lat="62.639073441622" lon="17.970308036533">
        <ele>55.4</ele>
        <time>2017-10-09T18:17:51Z</time>
      </trkpt>
      <trkpt lat="62.639078722219" lon="17.970246010473">
        <ele>55.4</ele>
        <time>2017-10-09T18:17:52Z</time>
      </trkpt>
      <trkpt lat="62.639079308952" lon="17.970185828431">
        <ele>55.2</ele>
        <time>2017-10-09T18:17:53Z</time>
      </trkpt>
      <trkpt lat="62.639079057495" lon="17.970123467095">
        <ele>55.2</ele>
        <time>2017-10-09T18:17:54Z</time>
      </trkpt>
      <trkpt lat="62.639082745531" lon="17.970057250085">
        <ele>55</ele>
        <time>2017-10-09T18:17:55Z</time>
      </trkpt>
      <trkpt lat="62.639088193766" lon="17.969992541817">
        <ele>55</ele>
        <time>2017-10-09T18:17:56Z</time>
      </trkpt>
      <trkpt lat="62.639095653657" lon="17.96992691154">
        <ele>54.8</ele>
        <time>2017-10-09T18:17:57Z</time>
      </trkpt>
      <trkpt lat="62.639103700281" lon="17.969873686475">
        <ele>54.6</ele>
        <time>2017-10-09T18:17:58Z</time>
      </trkpt>
      <trkpt lat="62.639113423285" lon="17.969822640704">
        <ele>54.6</ele>
        <time>2017-10-09T18:17:59Z</time>
      </trkpt>
      <trkpt lat="62.6391289298" lon="17.969752819477">
        <ele>54.6</ele>
        <time>2017-10-09T18:18:00Z</time>
      </trkpt>
      <trkpt lat="62.639138736623" lon="17.969690793417">
        <ele>54.4</ele>
        <time>2017-10-09T18:18:01Z</time>
      </trkpt>
      <trkpt lat="62.639150387464" lon="17.969621391285">
        <ele>54.4</ele>
        <time>2017-10-09T18:18:02Z</time>
      </trkpt>
      <trkpt lat="62.639163547047" lon="17.96955643156">
        <ele>54.4</ele>
        <time>2017-10-09T18:18:03Z</time>
      </trkpt>
      <trkpt lat="62.639174275879" lon="17.969501194839">
        <ele>54</ele>
        <time>2017-10-09T18:18:04Z</time>
      </trkpt>
      <trkpt lat="62.639191710231" lon="17.969439839331">
        <ele>54</ele>
        <time>2017-10-09T18:18:05Z</time>
      </trkpt>
      <trkpt lat="62.639208138755" lon="17.969378902918">
        <ele>53.8</ele>
        <time>2017-10-09T18:18:06Z</time>
      </trkpt>
      <trkpt lat="62.639221046881" lon="17.969314865202">
        <ele>53.8</ele>
        <time>2017-10-09T18:18:07Z</time>
      </trkpt>
      <trkpt lat="62.63923202717" lon="17.969244541061">
        <ele>53.6</ele>
        <time>2017-10-09T18:18:08Z</time>
      </trkpt>
      <trkpt lat="62.639242672183" lon="17.969179162241">
        <ele>53.4</ele>
        <time>2017-10-09T18:18:09Z</time>
      </trkpt>
      <trkpt lat="62.639255328852" lon="17.969121075674">
        <ele>53.2</ele>
        <time>2017-10-09T18:18:10Z</time>
      </trkpt>
      <trkpt lat="62.639268823711" lon="17.96905351756">
        <ele>53.2</ele>
        <time>2017-10-09T18:18:11Z</time>
      </trkpt>
      <trkpt lat="62.639281731837" lon="17.968988390197">
        <ele>53</ele>
        <time>2017-10-09T18:18:12Z</time>
      </trkpt>
      <trkpt lat="62.639292795945" lon="17.968926867051">
        <ele>52.8</ele>
        <time>2017-10-09T18:18:13Z</time>
      </trkpt>
      <trkpt lat="62.639304530605" lon="17.968869451036">
        <ele>52.8</ele>
        <time>2017-10-09T18:18:14Z</time>
      </trkpt>
      <trkpt lat="62.639313415419" lon="17.968796360868">
        <ele>52.8</ele>
        <time>2017-10-09T18:18:15Z</time>
      </trkpt>
      <trkpt lat="62.639323473699" lon="17.968742465251">
        <ele>52.8</ele>
        <time>2017-10-09T18:18:16Z</time>
      </trkpt>
      <trkpt lat="62.639336968558" lon="17.968673063119">
        <ele>52.8</ele>
        <time>2017-10-09T18:18:17Z</time>
      </trkpt>
      <trkpt lat="62.639350882512" lon="17.968613048715">
        <ele>52.8</ele>
        <time>2017-10-09T18:18:18Z</time>
      </trkpt>
      <trkpt lat="62.639363371543" lon="17.968557895813">
        <ele>52.6</ele>
        <time>2017-10-09T18:18:19Z</time>
      </trkpt>
      <trkpt lat="62.639378458963" lon="17.968494696287">
        <ele>52.6</ele>
        <time>2017-10-09T18:18:20Z</time>
      </trkpt>
      <trkpt lat="62.639390193623" lon="17.968436777358">
        <ele>52.4</ele>
        <time>2017-10-09T18:18:21Z</time>
      </trkpt>
      <trkpt lat="62.639402095921" lon="17.968379193705">
        <ele>52</ele>
        <time>2017-10-09T18:18:22Z</time>
      </trkpt>
      <trkpt lat="62.639414082038" lon="17.968309707754">
        <ele>52</ele>
        <time>2017-10-09T18:18:23Z</time>
      </trkpt>
      <trkpt lat="62.639422044843" lon="17.968250028626">
        <ele>52</ele>
        <time>2017-10-09T18:18:24Z</time>
      </trkpt>
      <trkpt lat="62.639432186942" lon="17.968177189915">
        <ele>51.8</ele>
        <time>2017-10-09T18:18:25Z</time>
      </trkpt>
      <trkpt lat="62.639438641005" lon="17.968108542154">
        <ele>51.6</ele>
        <time>2017-10-09T18:18:26Z</time>
      </trkpt>
      <trkpt lat="62.639443837783" lon="17.96804517499">
        <ele>51.6</ele>
        <time>2017-10-09T18:18:27Z</time>
      </trkpt>
      <trkpt lat="62.639443670145" lon="17.967975186125">
        <ele>51.4</ele>
        <time>2017-10-09T18:18:28Z</time>
      </trkpt>
      <trkpt lat="62.639438641005" lon="17.967905113441">
        <ele>51.2</ele>
        <time>2017-10-09T18:18:29Z</time>
      </trkpt>
      <trkpt lat="62.639432270761" lon="17.967835040757">
        <ele>51</ele>
        <time>2017-10-09T18:18:30Z</time>
      </trkpt>
      <trkpt lat="62.639426151974" lon="17.967771338317">
        <ele>51</ele>
        <time>2017-10-09T18:18:31Z</time>
      </trkpt>
      <trkpt lat="62.639411902744" lon="17.967708390248">
        <ele>50.8</ele>
        <time>2017-10-09T18:18:32Z</time>
      </trkpt>
      <trkpt lat="62.639396982962" lon="17.967651141871">
        <ele>50.6</ele>
        <time>2017-10-09T18:18:33Z</time>
      </trkpt>
      <trkpt lat="62.639380722076" lon="17.967602191575">
        <ele>50.8</ele>
        <time>2017-10-09T18:18:34Z</time>
      </trkpt>
      <trkpt lat="62.639362533353" lon="17.967543434456">
        <ele>50.8</ele>
        <time>2017-10-09T18:18:35Z</time>
      </trkpt>
      <trkpt lat="62.639345350458" lon="17.967492304866">
        <ele>50.6</ele>
        <time>2017-10-09T18:18:36Z</time>
      </trkpt>
      <trkpt lat="62.639329089572" lon="17.967434050661">
        <ele>50.6</ele>
        <time>2017-10-09T18:18:37Z</time>
      </trkpt>
      <trkpt lat="62.639313834514" lon="17.967381496148">
        <ele>50.4</ele>
        <time>2017-10-09T18:18:38Z</time>
      </trkpt>
      <trkpt lat="62.63929908237" lon="17.967327516712">
        <ele>50.4</ele>
        <time>2017-10-09T18:18:39Z</time>
      </trkpt>
      <trkpt lat="62.639283827312" lon="17.967269597783">
        <ele>50.6</ele>
        <time>2017-10-09T18:18:40Z</time>
      </trkpt>
      <trkpt lat="62.639268404616" lon="17.967213774329">
        <ele>50.4</ele>
        <time>2017-10-09T18:18:41Z</time>
      </trkpt>
      <trkpt lat="62.639250634988" lon="17.967158621427">
        <ele>50.6</ele>
        <time>2017-10-09T18:18:42Z</time>
      </trkpt>
      <trkpt lat="62.639234206464" lon="17.967104474353">
        <ele>50.6</ele>
        <time>2017-10-09T18:18:43Z</time>
      </trkpt>
      <trkpt lat="62.639218448492" lon="17.967055691695">
        <ele>50.6</ele>
        <time>2017-10-09T18:18:44Z</time>
      </trkpt>
      <trkpt lat="62.63919849957" lon="17.966994503825">
        <ele>50.6</ele>
        <time>2017-10-09T18:18:45Z</time>
      </trkpt>
      <trkpt lat="62.639186094358" lon="17.966959886578">
        <ele>50.4</ele>
        <time>2017-10-09T18:18:46Z</time>
      </trkpt>
      <trkpt lat="62.639162876495" lon="17.9668876346">
        <ele>50.2</ele>
        <time>2017-10-09T18:18:47Z</time>
      </trkpt>
      <trkpt lat="62.639145358324" lon="17.966831727327">
        <ele>50.2</ele>
        <time>2017-10-09T18:18:48Z</time>
      </trkpt>
      <trkpt lat="62.639130857637" lon="17.966784788687">
        <ele>50.2</ele>
        <time>2017-10-09T18:18:49Z</time>
      </trkpt>
      <trkpt lat="62.639110070525" lon="17.966720080419">
        <ele>50</ele>
        <time>2017-10-09T18:18:50Z</time>
      </trkpt>
      <trkpt lat="62.639094899286" lon="17.966666184802">
        <ele>49.8</ele>
        <time>2017-10-09T18:18:51Z</time>
      </trkpt>
      <trkpt lat="62.639078303124" lon="17.966620000533">
        <ele>49.8</ele>
        <time>2017-10-09T18:18:52Z</time>
      </trkpt>
      <trkpt lat="62.639062042238" lon="17.966564512355">
        <ele>49.8</ele>
        <time>2017-10-09T18:18:53Z</time>
      </trkpt>
      <trkpt lat="62.63904594899" lon="17.966518831">
        <ele>49.6</ele>
        <time>2017-10-09T18:18:54Z</time>
      </trkpt>
      <trkpt lat="62.639027760267" lon="17.966467282315">
        <ele>49.6</ele>
        <time>2017-10-09T18:18:55Z</time>
      </trkpt>
      <trkpt lat="62.63901074501" lon="17.96641070449">
        <ele>49.4</ele>
        <time>2017-10-09T18:18:56Z</time>
      </trkpt>
      <trkpt lat="62.638993813572" lon="17.966356641235">
        <ele>49.4</ele>
        <time>2017-10-09T18:18:57Z</time>
      </trkpt>
      <trkpt lat="62.638976463039" lon="17.966308361491">
        <ele>49.2</ele>
        <time>2017-10-09T18:18:58Z</time>
      </trkpt>
      <trkpt lat="62.638958106678" lon="17.966254382055">
        <ele>49.2</ele>
        <time>2017-10-09T18:18:59Z</time>
      </trkpt>
      <trkpt lat="62.638940001774" lon="17.966197385135">
        <ele>49.2</ele>
        <time>2017-10-09T18:19:00Z</time>
      </trkpt>
      <trkpt lat="62.638923908526" lon="17.966148686296">
        <ele>49</ele>
        <time>2017-10-09T18:19:01Z</time>
      </trkpt>
      <trkpt lat="62.638905468346" lon="17.966087582245">
        <ele>49.2</ele>
        <time>2017-10-09T18:19:02Z</time>
      </trkpt>
      <trkpt lat="62.638886860528" lon="17.966037458483">
        <ele>49.2</ele>
        <time>2017-10-09T18:19:03Z</time>
      </trkpt>
      <trkpt lat="62.638872695117" lon="17.965988592006">
        <ele>49.2</ele>
        <time>2017-10-09T18:19:04Z</time>
      </trkpt>
      <trkpt lat="62.638853919661" lon="17.96592706886">
        <ele>49</ele>
        <time>2017-10-09T18:19:05Z</time>
      </trkpt>
      <trkpt lat="62.638835144205" lon="17.965874011433">
        <ele>49</ele>
        <time>2017-10-09T18:19:06Z</time>
      </trkpt>
      <trkpt lat="62.638816536387" lon="17.965818439436">
        <ele>49</ele>
        <time>2017-10-09T18:19:07Z</time>
      </trkpt>
      <trkpt lat="62.638801029872" lon="17.96576613638">
        <ele>48.8</ele>
        <time>2017-10-09T18:19:08Z</time>
      </trkpt>
      <trkpt lat="62.638787367375" lon="17.965714420057">
        <ele>49</ele>
        <time>2017-10-09T18:19:09Z</time>
      </trkpt>
      <trkpt lat="62.638770352118" lon="17.965660272983">
        <ele>49</ele>
        <time>2017-10-09T18:19:10Z</time>
      </trkpt>
      <trkpt lat="62.638752833947" lon="17.965609478669">
        <ele>48.8</ele>
        <time>2017-10-09T18:19:11Z</time>
      </trkpt>
      <trkpt lat="62.638735902509" lon="17.965563881133">
        <ele>48.8</ele>
        <time>2017-10-09T18:19:12Z</time>
      </trkpt>
      <trkpt lat="62.638717546148" lon="17.965513338276">
        <ele>48.8</ele>
        <time>2017-10-09T18:19:13Z</time>
      </trkpt>
      <trkpt lat="62.638701620538" lon="17.965469836215">
        <ele>48.8</ele>
        <time>2017-10-09T18:19:14Z</time>
      </trkpt>
      <trkpt lat="62.638684186186" lon="17.965412755476">
        <ele>48.6</ele>
        <time>2017-10-09T18:19:15Z</time>
      </trkpt>
      <trkpt lat="62.638669936956" lon="17.965362296438">
        <ele>48.6</ele>
        <time>2017-10-09T18:19:16Z</time>
      </trkpt>
      <trkpt lat="62.638655603907" lon="17.965302030577">
        <ele>48.8</ele>
        <time>2017-10-09T18:19:17Z</time>
      </trkpt>
      <trkpt lat="62.638641270858" lon="17.96524981134">
        <ele>49</ele>
        <time>2017-10-09T18:19:18Z</time>
      </trkpt>
      <trkpt lat="62.638625261429" lon="17.96519868175">
        <ele>49</ele>
        <time>2017-10-09T18:19:19Z</time>
      </trkpt>
      <trkpt lat="62.638607659439" lon="17.96514755216">
        <ele>49</ele>
        <time>2017-10-09T18:19:20Z</time>
      </trkpt>
      <trkpt lat="62.638589889811" lon="17.965092315439">
        <ele>49</ele>
        <time>2017-10-09T18:19:21Z</time>
      </trkpt>
      <trkpt lat="62.638574718572" lon="17.965040012383">
        <ele>49.2</ele>
        <time>2017-10-09T18:19:22Z</time>
      </trkpt>
      <trkpt lat="62.638554937288" lon="17.964981925816">
        <ele>49</ele>
        <time>2017-10-09T18:19:23Z</time>
      </trkpt>
      <trkpt lat="62.638539598411" lon="17.964932053511">
        <ele>49.2</ele>
        <time>2017-10-09T18:19:24Z</time>
      </trkpt>
      <trkpt lat="62.638522247878" lon="17.964874888953">
        <ele>49.2</ele>
        <time>2017-10-09T18:19:25Z</time>
      </trkpt>
      <trkpt lat="62.63850699282" lon="17.964818311128">
        <ele>49.2</ele>
        <time>2017-10-09T18:19:26Z</time>
      </trkpt>
      <trkpt lat="62.638488049726" lon="17.964768857918">
        <ele>49.2</ele>
        <time>2017-10-09T18:19:27Z</time>
      </trkpt>
      <trkpt lat="62.638470615374" lon="17.964715465215">
        <ele>49.4</ele>
        <time>2017-10-09T18:19:28Z</time>
      </trkpt>
      <trkpt lat="62.638451337004" lon="17.964668023661">
        <ele>49.2</ele>
        <time>2017-10-09T18:19:29Z</time>
      </trkpt>
      <trkpt lat="62.638430633711" lon="17.964612284026">
        <ele>49</ele>
        <time>2017-10-09T18:19:30Z</time>
      </trkpt>
      <trkpt lat="62.638417390309" lon="17.964566770309">
        <ele>49</ele>
        <time>2017-10-09T18:19:31Z</time>
      </trkpt>
      <trkpt lat="62.63839886631" lon="17.964503235507">
        <ele>49</ele>
        <time>2017-10-09T18:19:32Z</time>
      </trkpt>
      <trkpt lat="62.638385622908" lon="17.964450513356">
        <ele>49</ele>
        <time>2017-10-09T18:19:33Z</time>
      </trkpt>
      <trkpt lat="62.638370032574" lon="17.964403323259">
        <ele>48.8</ele>
        <time>2017-10-09T18:19:34Z</time>
      </trkpt>
      <trkpt lat="62.638348994005" lon="17.964337441525">
        <ele>49</ele>
        <time>2017-10-09T18:19:35Z</time>
      </trkpt>
      <trkpt lat="62.638331308196" lon="17.964284803193">
        <ele>49</ele>
        <time>2017-10-09T18:19:36Z</time>
      </trkpt>
      <trkpt lat="62.638314712034" lon="17.964231578128">
        <ele>49</ele>
        <time>2017-10-09T18:19:37Z</time>
      </trkpt>
      <trkpt lat="62.638297193863" lon="17.964176592864">
        <ele>49</ele>
        <time>2017-10-09T18:19:38Z</time>
      </trkpt>
      <trkpt lat="62.638281100615" lon="17.964129067491">
        <ele>49.2</ele>
        <time>2017-10-09T18:19:39Z</time>
      </trkpt>
      <trkpt lat="62.638263833901" lon="17.96407550715">
        <ele>49</ele>
        <time>2017-10-09T18:19:40Z</time>
      </trkpt>
      <trkpt lat="62.638246399549" lon="17.964017085307">
        <ele>49</ele>
        <time>2017-10-09T18:19:41Z</time>
      </trkpt>
      <trkpt lat="62.638229216654" lon="17.963962854414">
        <ele>49.2</ele>
        <time>2017-10-09T18:19:42Z</time>
      </trkpt>
      <trkpt lat="62.638207675171" lon="17.963905270761">
        <ele>49.2</ele>
        <time>2017-10-09T18:19:43Z</time>
      </trkpt>
      <trkpt lat="62.638191079009" lon="17.963856823379">
        <ele>49.2</ele>
        <time>2017-10-09T18:19:44Z</time>
      </trkpt>
      <trkpt lat="62.638171465363" lon="17.963799407364">
        <ele>49</ele>
        <time>2017-10-09T18:19:45Z</time>
      </trkpt>
      <trkpt lat="62.638156126486" lon="17.96375196581">
        <ele>49</ele>
        <time>2017-10-09T18:19:46Z</time>
      </trkpt>
      <trkpt lat="62.6381398656" lon="17.963695136528">
        <ele>48.8</ele>
        <time>2017-10-09T18:19:47Z</time>
      </trkpt>
      <trkpt lat="62.638120168135" lon="17.9636438393">
        <ele>48.8</ele>
        <time>2017-10-09T18:19:48Z</time>
      </trkpt>
      <trkpt lat="62.638107930561" lon="17.96360779713">
        <ele>48.8</ele>
        <time>2017-10-09T18:19:49Z</time>
      </trkpt>
      <trkpt lat="62.63809208877" lon="17.963588015846">
        <ele>49</ele>
        <time>2017-10-09T18:19:50Z</time>
      </trkpt>
      <trkpt lat="62.638073061857" lon="17.963601510705">
        <ele>49</ele>
        <time>2017-10-09T18:19:51Z</time>
      </trkpt>
      <trkpt lat="62.638055292229" lon="17.963631434088">
        <ele>48.8</ele>
        <time>2017-10-09T18:19:52Z</time>
      </trkpt>
      <trkpt lat="62.638033666927" lon="17.963667643896">
        <ele>49</ele>
        <time>2017-10-09T18:19:53Z</time>
      </trkpt>
      <trkpt lat="62.638010197607" lon="17.963700417125">
        <ele>49.2</ele>
        <time>2017-10-09T18:19:54Z</time>
      </trkpt>
      <trkpt lat="62.637983794622" lon="17.963738135675">
        <ele>49.2</ele>
        <time>2017-10-09T18:19:55Z</time>
      </trkpt>
      <trkpt lat="62.637956385809" lon="17.963777782062">
        <ele>49.2</ele>
        <time>2017-10-09T18:19:56Z</time>
      </trkpt>
      <trkpt lat="62.637932162118" lon="17.963815249155">
        <ele>49.4</ele>
        <time>2017-10-09T18:19:57Z</time>
      </trkpt>
      <trkpt lat="62.637910620635" lon="17.963848273841">
        <ele>49.8</ele>
        <time>2017-10-09T18:19:58Z</time>
      </trkpt>
      <trkpt lat="62.6378884086" lon="17.963886830581">
        <ele>49.8</ele>
        <time>2017-10-09T18:19:59Z</time>
      </trkpt>
      <trkpt lat="62.637867286212" lon="17.963925219683">
        <ele>49.8</ele>
        <time>2017-10-09T18:20:00Z</time>
      </trkpt>
      <trkpt lat="62.637847253471" lon="17.963961178034">
        <ele>49.8</ele>
        <time>2017-10-09T18:20:01Z</time>
      </trkpt>
      <trkpt lat="62.637822526866" lon="17.96399755548">
        <ele>49.8</ele>
        <time>2017-10-09T18:20:02Z</time>
      </trkpt>
      <trkpt lat="62.637799895736" lon="17.964030580166">
        <ele>49.8</ele>
        <time>2017-10-09T18:20:03Z</time>
      </trkpt>
      <trkpt lat="62.637780030633" lon="17.96405706697">
        <ele>50</ele>
        <time>2017-10-09T18:20:04Z</time>
      </trkpt>
      <trkpt lat="62.637752957096" lon="17.964094869339">
        <ele>50</ele>
        <time>2017-10-09T18:20:05Z</time>
      </trkpt>
      <trkpt lat="62.637732672898" lon="17.964132168794">
        <ele>50.2</ele>
        <time>2017-10-09T18:20:06Z</time>
      </trkpt>
      <trkpt lat="62.637712891614" lon="17.964165109661">
        <ele>50.4</ele>
        <time>2017-10-09T18:20:07Z</time>
      </trkpt>
      <trkpt lat="62.637691769226" lon="17.964201990021">
        <ele>50.4</ele>
        <time>2017-10-09T18:20:08Z</time>
      </trkpt>
      <trkpt lat="62.637663606042" lon="17.96422805773">
        <ele>50.4</ele>
        <time>2017-10-09T18:20:09Z</time>
      </trkpt>
      <trkpt lat="62.637624797845" lon="17.964252700516">
        <ele>50.6</ele>
        <time>2017-10-09T18:20:10Z</time>
      </trkpt>
      <trkpt lat="62.637601412344" lon="17.964277343302">
        <ele>50.4</ele>
        <time>2017-10-09T18:20:11Z</time>
      </trkpt>
      <trkpt lat="62.637581463422" lon="17.964316402956">
        <ele>50.6</ele>
        <time>2017-10-09T18:20:12Z</time>
      </trkpt>
      <trkpt lat="62.637555730989" lon="17.964357893361">
        <ele>50.8</ele>
        <time>2017-10-09T18:20:13Z</time>
      </trkpt>
      <trkpt lat="62.637532513126" lon="17.964389996038">
        <ele>50.8</ele>
        <time>2017-10-09T18:20:14Z</time>
      </trkpt>
      <trkpt lat="62.637490100712" lon="17.964435593574">
        <ele>51</ele>
        <time>2017-10-09T18:20:16Z</time>
      </trkpt>
      <trkpt lat="62.637477276405" lon="17.964456213048">
        <ele>51</ele>
        <time>2017-10-09T18:20:17Z</time>
      </trkpt>
      <trkpt lat="62.637468643048" lon="17.964478760359">
        <ele>51</ele>
        <time>2017-10-09T18:20:18Z</time>
      </trkpt>
      <trkpt lat="62.637459758234" lon="17.964498374005">
        <ele>51</ele>
        <time>2017-10-09T18:20:19Z</time>
      </trkpt>
      <trkpt lat="62.637451795429" lon="17.964521088954">
        <ele>51.2</ele>
        <time>2017-10-09T18:20:20Z</time>
      </trkpt>
      <trkpt lat="62.637444670814" lon="17.964539696772">
        <ele>51.2</ele>
        <time>2017-10-09T18:20:21Z</time>
      </trkpt>
      <trkpt lat="62.637442742977" lon="17.964558723685">
        <ele>51.2</ele>
        <time>2017-10-09T18:20:22Z</time>
      </trkpt>
      <trkpt lat="62.637449280859" lon="17.964575655123">
        <ele>51.2</ele>
        <time>2017-10-09T18:20:23Z</time>
      </trkpt>
      <trkpt lat="62.637458165673" lon="17.964591077819">
        <ele>51.4</ele>
        <time>2017-10-09T18:20:24Z</time>
      </trkpt>
      <trkpt lat="62.637470403247" lon="17.964603399212">
        <ele>51.2</ele>
        <time>2017-10-09T18:20:25Z</time>
      </trkpt>
      <trkpt lat="62.637474845654" lon="17.964622761401">
        <ele>51</ele>
        <time>2017-10-09T18:20:26Z</time>
      </trkpt>
      <trkpt lat="62.637487167047" lon="17.964636759174">
        <ele>50.8</ele>
        <time>2017-10-09T18:20:27Z</time>
      </trkpt>
      <trkpt lat="62.637498398793" lon="17.964651427499">
        <ele>50.8</ele>
        <time>2017-10-09T18:20:28Z</time>
      </trkpt>
      <trkpt lat="62.637511474557" lon="17.964671376421">
        <ele>50.6</ele>
        <time>2017-10-09T18:20:29Z</time>
      </trkpt>
      <trkpt lat="62.637525137054" lon="17.964685374194">
        <ele>50.6</ele>
        <time>2017-10-09T18:20:30Z</time>
      </trkpt>
      <trkpt lat="62.637536871714" lon="17.964686463841">
        <ele>50.6</ele>
        <time>2017-10-09T18:20:31Z</time>
      </trkpt>
      <trkpt lat="62.637549109288" lon="17.964680847968">
        <ele>50.4</ele>
        <time>2017-10-09T18:20:32Z</time>
      </trkpt>
      <trkpt lat="62.637558748473" lon="17.964671208783">
        <ele>50.4</ele>
        <time>2017-10-09T18:20:33Z</time>
      </trkpt>
      <trkpt lat="62.637563861432" lon="17.964655786087">
        <ele>50.2</ele>
        <time>2017-10-09T18:20:34Z</time>
      </trkpt>
      <trkpt lat="62.637572327151" lon="17.964635334251">
        <ele>50.2</ele>
        <time>2017-10-09T18:20:35Z</time>
      </trkpt>
      <trkpt lat="62.637581882517" lon="17.964616055881">
        <ele>50.4</ele>
        <time>2017-10-09T18:20:36Z</time>
      </trkpt>
      <trkpt lat="62.637591270245" lon="17.964597364244">
        <ele>50.6</ele>
        <time>2017-10-09T18:20:37Z</time>
      </trkpt>
      <trkpt lat="62.637600322697" lon="17.964576996227">
        <ele>51</ele>
        <time>2017-10-09T18:20:38Z</time>
      </trkpt>
      <trkpt lat="62.637608536959" lon="17.964556795848">
        <ele>51</ele>
        <time>2017-10-09T18:20:39Z</time>
      </trkpt>
      <trkpt lat="62.637615410117" lon="17.964535924917">
        <ele>51.4</ele>
        <time>2017-10-09T18:20:40Z</time>
      </trkpt>
      <trkpt lat="62.637623037646" lon="17.964513964339">
        <ele>51.4</ele>
        <time>2017-10-09T18:20:41Z</time>
      </trkpt>
      <trkpt lat="62.637630665175" lon="17.964494015417">
        <ele>51.6</ele>
        <time>2017-10-09T18:20:42Z</time>
      </trkpt>
      <trkpt lat="62.637635778134" lon="17.964470629916">
        <ele>51.8</ele>
        <time>2017-10-09T18:20:43Z</time>
      </trkpt>
      <trkpt lat="62.637638376523" lon="17.964447412053">
        <ele>51.8</ele>
        <time>2017-10-09T18:20:44Z</time>
      </trkpt>
      <trkpt lat="62.637642483654" lon="17.964426373484">
        <ele>51.8</ele>
        <time>2017-10-09T18:20:45Z</time>
      </trkpt>
      <trkpt lat="62.63765203902" lon="17.964410196417">
        <ele>51.6</ele>
        <time>2017-10-09T18:20:46Z</time>
      </trkpt>
      <trkpt lat="62.637650614097" lon="17.964399299947">
        <ele>51.4</ele>
        <time>2017-10-09T18:20:47Z</time>
      </trkpt>
      <trkpt lat="62.637655978513" lon="17.964412794806">
        <ele>51.2</ele>
        <time>2017-10-09T18:20:48Z</time>
      </trkpt>
      <trkpt lat="62.637651787563" lon="17.964405083458">
        <ele>51</ele>
        <time>2017-10-09T18:20:49Z</time>
      </trkpt>
      <trkpt lat="62.637743569368" lon="17.964267955574">
        <ele>50</ele>
        <time>2017-10-09T18:22:57Z</time>
      </trkpt>
      <trkpt lat="62.637755220209" lon="17.964261333873">
        <ele>49.8</ele>
        <time>2017-10-09T18:22:58Z</time>
      </trkpt>
      <trkpt lat="62.637773408932" lon="17.964251107955">
        <ele>49.8</ele>
        <time>2017-10-09T18:22:59Z</time>
      </trkpt>
      <trkpt lat="62.63778866399" lon="17.964241552589">
        <ele>49.8</ele>
        <time>2017-10-09T18:23:00Z</time>
      </trkpt>
      <trkpt lat="62.63780291322" lon="17.96423476325">
        <ele>50</ele>
        <time>2017-10-09T18:23:01Z</time>
      </trkpt>
      <trkpt lat="62.637819174106" lon="17.964234008879">
        <ele>50.2</ele>
        <time>2017-10-09T18:23:02Z</time>
      </trkpt>
      <trkpt lat="62.637834848259" lon="17.964233589784">
        <ele>50.4</ele>
        <time>2017-10-09T18:23:03Z</time>
      </trkpt>
      <trkpt lat="62.637848762213" lon="17.964230320843">
        <ele>50.2</ele>
        <time>2017-10-09T18:23:04Z</time>
      </trkpt>
      <trkpt lat="62.637866028927" lon="17.964226632807">
        <ele>50.4</ele>
        <time>2017-10-09T18:23:05Z</time>
      </trkpt>
      <trkpt lat="62.637880613433" lon="17.964223280047">
        <ele>50.2</ele>
        <time>2017-10-09T18:23:06Z</time>
      </trkpt>
      <trkpt lat="62.637894527387" lon="17.964221855124">
        <ele>50.4</ele>
        <time>2017-10-09T18:23:07Z</time>
      </trkpt>
      <trkpt lat="62.637907770789" lon="17.964219759649">
        <ele>50.4</ele>
        <time>2017-10-09T18:23:08Z</time>
      </trkpt>
      <trkpt lat="62.637920092182" lon="17.964215652518">
        <ele>50.4</ele>
        <time>2017-10-09T18:23:09Z</time>
      </trkpt>
      <trkpt lat="62.637933335584" lon="17.964212886491">
        <ele>50.2</ele>
        <time>2017-10-09T18:23:10Z</time>
      </trkpt>
      <trkpt lat="62.637948171547" lon="17.964210371921">
        <ele>50.2</ele>
        <time>2017-10-09T18:23:11Z</time>
      </trkpt>
      <trkpt lat="62.637963426605" lon="17.964208024989">
        <ele>50</ele>
        <time>2017-10-09T18:23:12Z</time>
      </trkpt>
      <trkpt lat="62.637977424378" lon="17.964203163487">
        <ele>49.8</ele>
        <time>2017-10-09T18:23:13Z</time>
      </trkpt>
      <trkpt lat="62.637989913409" lon="17.96419955927">
        <ele>49.8</ele>
        <time>2017-10-09T18:23:14Z</time>
      </trkpt>
      <trkpt lat="62.638004833191" lon="17.964198134347">
        <ele>50</ele>
        <time>2017-10-09T18:23:15Z</time>
      </trkpt>
      <trkpt lat="62.638018495688" lon="17.964203079668">
        <ele>50.4</ele>
        <time>2017-10-09T18:23:16Z</time>
      </trkpt>
      <trkpt lat="62.63803425366" lon="17.964212048301">
        <ele>50.4</ele>
        <time>2017-10-09T18:23:17Z</time>
      </trkpt>
      <trkpt lat="62.638047832338" lon="17.964218921459">
        <ele>50.6</ele>
        <time>2017-10-09T18:23:18Z</time>
      </trkpt>
      <trkpt lat="62.638058058256" lon="17.964226800445">
        <ele>50.8</ele>
        <time>2017-10-09T18:23:19Z</time>
      </trkpt>
      <trkpt lat="62.638069876735" lon="17.964241301132">
        <ele>50.6</ele>
        <time>2017-10-09T18:23:20Z</time>
      </trkpt>
      <trkpt lat="62.638080857024" lon="17.964252784335">
        <ele>50.4</ele>
        <time>2017-10-09T18:23:21Z</time>
      </trkpt>
      <trkpt lat="62.638091837313" lon="17.964261920606">
        <ele>50.2</ele>
        <time>2017-10-09T18:23:22Z</time>
      </trkpt>
      <trkpt lat="62.638104745439" lon="17.964276505112">
        <ele>50.2</ele>
        <time>2017-10-09T18:23:23Z</time>
      </trkpt>
      <trkpt lat="62.638114887538" lon="17.964295364387">
        <ele>50.2</ele>
        <time>2017-10-09T18:23:24Z</time>
      </trkpt>
      <trkpt lat="62.638126873655" lon="17.964314642757">
        <ele>50</ele>
        <time>2017-10-09T18:23:25Z</time>
      </trkpt>
      <trkpt lat="62.638139697962" lon="17.964338028258">
        <ele>50</ele>
        <time>2017-10-09T18:23:26Z</time>
      </trkpt>
      <trkpt lat="62.638149588604" lon="17.964357725723">
        <ele>50</ele>
        <time>2017-10-09T18:23:27Z</time>
      </trkpt>
      <trkpt lat="62.638159227789" lon="17.964382452328">
        <ele>49.8</ele>
        <time>2017-10-09T18:23:28Z</time>
      </trkpt>
      <trkpt lat="62.638168447879" lon="17.964404748182">
        <ele>49.8</ele>
        <time>2017-10-09T18:23:29Z</time>
      </trkpt>
      <trkpt lat="62.638177500331" lon="17.964425451475">
        <ele>49.8</ele>
        <time>2017-10-09T18:23:30Z</time>
      </trkpt>
      <trkpt lat="62.638184960222" lon="17.964440455076">
        <ele>49.8</ele>
        <time>2017-10-09T18:23:31Z</time>
      </trkpt>
      <trkpt lat="62.63818931881" lon="17.964443137284">
        <ele>49.8</ele>
        <time>2017-10-09T18:23:32Z</time>
      </trkpt>
      <trkpt lat="62.638188983534" lon="17.964443304922">
        <ele>49.8</ele>
        <time>2017-10-09T18:23:33Z</time>
      </trkpt>
      <trkpt lat="62.63803425366" lon="17.964548665405">
        <ele>50.6</ele>
        <time>2017-10-09T18:26:12Z</time>
      </trkpt>
      <trkpt lat="62.638009191779" lon="17.964522932972">
        <ele>50.6</ele>
        <time>2017-10-09T18:26:13Z</time>
      </trkpt>
      <trkpt lat="62.637980860957" lon="17.964495272702">
        <ele>50.8</ele>
        <time>2017-10-09T18:26:14Z</time>
      </trkpt>
      <trkpt lat="62.637949931746" lon="17.964474401771">
        <ele>50.6</ele>
        <time>2017-10-09T18:26:15Z</time>
      </trkpt>
      <trkpt lat="62.637929815186" lon="17.964467193337">
        <ele>50.8</ele>
        <time>2017-10-09T18:26:16Z</time>
      </trkpt>
      <trkpt lat="62.637887989505" lon="17.964459649627">
        <ele>50.8</ele>
        <time>2017-10-09T18:26:17Z</time>
      </trkpt>
      <trkpt lat="62.637858149941" lon="17.964459062894">
        <ele>50.8</ele>
        <time>2017-10-09T18:26:18Z</time>
      </trkpt>
      <trkpt lat="62.637828980929" lon="17.964473898857">
        <ele>50.8</ele>
        <time>2017-10-09T18:26:19Z</time>
      </trkpt>
      <trkpt lat="62.637793190216" lon="17.96449544034">
        <ele>50.6</ele>
        <time>2017-10-09T18:26:20Z</time>
      </trkpt>
      <trkpt lat="62.637764188842" lon="17.964519999307">
        <ele>50.6</ele>
        <time>2017-10-09T18:26:21Z</time>
      </trkpt>
      <trkpt lat="62.637736360934" lon="17.964548665405">
        <ele>50.4</ele>
        <time>2017-10-09T18:26:22Z</time>
      </trkpt>
      <trkpt lat="62.637707443379" lon="17.964597950977">
        <ele>50.4</ele>
        <time>2017-10-09T18:26:23Z</time>
      </trkpt>
      <trkpt lat="62.637681627127" lon="17.964653187698">
        <ele>50.2</ele>
        <time>2017-10-09T18:26:24Z</time>
      </trkpt>
      <trkpt lat="62.637654218314" lon="17.964712280093">
        <ele>50</ele>
        <time>2017-10-09T18:26:25Z</time>
      </trkpt>
      <trkpt lat="62.637628653519" lon="17.964772378316">
        <ele>49.8</ele>
        <time>2017-10-09T18:26:26Z</time>
      </trkpt>
      <trkpt lat="62.637605519475" lon="17.964837924774">
        <ele>50</ele>
        <time>2017-10-09T18:26:27Z</time>
      </trkpt>
      <trkpt lat="62.637588168942" lon="17.964905901983">
        <ele>50.2</ele>
        <time>2017-10-09T18:26:28Z</time>
      </trkpt>
      <trkpt lat="62.63757408735" lon="17.9649765614">
        <ele>50.4</ele>
        <time>2017-10-09T18:26:29Z</time>
      </trkpt>
      <trkpt lat="62.637562185052" lon="17.965055686536">
        <ele>50.6</ele>
        <time>2017-10-09T18:26:30Z</time>
      </trkpt>
      <trkpt lat="62.637557239731" lon="17.965131458912">
        <ele>50.4</ele>
        <time>2017-10-09T18:26:31Z</time>
      </trkpt>
      <trkpt lat="62.637553719333" lon="17.965207818021">
        <ele>50.2</ele>
        <time>2017-10-09T18:26:32Z</time>
      </trkpt>
      <trkpt lat="62.637556736817" lon="17.965276465782">
        <ele>49.6</ele>
        <time>2017-10-09T18:26:33Z</time>
      </trkpt>
      <trkpt lat="62.637563526156" lon="17.965344023896">
        <ele>49.2</ele>
        <time>2017-10-09T18:26:34Z</time>
      </trkpt>
      <trkpt lat="62.637573081522" lon="17.965421807928">
        <ele>48.2</ele>
        <time>2017-10-09T18:26:35Z</time>
      </trkpt>
      <trkpt lat="62.637585989648" lon="17.96548534273">
        <ele>47.6</ele>
        <time>2017-10-09T18:26:36Z</time>
      </trkpt>
      <trkpt lat="62.637601160887" lon="17.965546362962">
        <ele>47.4</ele>
        <time>2017-10-09T18:26:37Z</time>
      </trkpt>
      <trkpt lat="62.637616080669" lon="17.965597157276">
        <ele>47.2</ele>
        <time>2017-10-09T18:26:38Z</time>
      </trkpt>
      <trkpt lat="62.637632341555" lon="17.965648035409">
        <ele>47.2</ele>
        <time>2017-10-09T18:26:39Z</time>
      </trkpt>
      <trkpt lat="62.637647596613" lon="17.965697907714">
        <ele>47.2</ele>
        <time>2017-10-09T18:26:40Z</time>
      </trkpt>
      <trkpt lat="62.637667210259" lon="17.96575104896">
        <ele>47.4</ele>
        <time>2017-10-09T18:26:41Z</time>
      </trkpt>
      <trkpt lat="62.637683219688" lon="17.965805112215">
        <ele>47.6</ele>
        <time>2017-10-09T18:26:42Z</time>
      </trkpt>
      <trkpt lat="62.637699564393" lon="17.965849703923">
        <ele>47.8</ele>
        <time>2017-10-09T18:26:43Z</time>
      </trkpt>
      <trkpt lat="62.637715154727" lon="17.965895552916">
        <ele>48</ele>
        <time>2017-10-09T18:26:44Z</time>
      </trkpt>
      <trkpt lat="62.637733511088" lon="17.965950035266">
        <ele>48.2</ele>
        <time>2017-10-09T18:26:45Z</time>
      </trkpt>
      <trkpt lat="62.637749436698" lon="17.965993202051">
        <ele>48.2</ele>
        <time>2017-10-09T18:26:46Z</time>
      </trkpt>
      <trkpt lat="62.63776770924" lon="17.966051288618">
        <ele>48.4</ele>
        <time>2017-10-09T18:26:47Z</time>
      </trkpt>
      <trkpt lat="62.63778279666" lon="17.966092695204">
        <ele>48.4</ele>
        <time>2017-10-09T18:26:48Z</time>
      </trkpt>
      <trkpt lat="62.63780207503" lon="17.966150278857">
        <ele>48.2</ele>
        <time>2017-10-09T18:26:49Z</time>
      </trkpt>
      <trkpt lat="62.63782302978" lon="17.966210460899">
        <ele>48</ele>
        <time>2017-10-09T18:26:50Z</time>
      </trkpt>
      <trkpt lat="62.637843900711" lon="17.966274498615">
        <ele>48</ele>
        <time>2017-10-09T18:26:51Z</time>
      </trkpt>
      <trkpt lat="62.637862927624" lon="17.966325628205">
        <ele>47.8</ele>
        <time>2017-10-09T18:26:52Z</time>
      </trkpt>
      <trkpt lat="62.637884385288" lon="17.966385726428">
        <ele>47.8</ele>
        <time>2017-10-09T18:26:53Z</time>
      </trkpt>
      <trkpt lat="62.637902490192" lon="17.966442220434">
        <ele>47.6</ele>
        <time>2017-10-09T18:26:54Z</time>
      </trkpt>
      <trkpt lat="62.63792109801" lon="17.966503324485">
        <ele>47.4</ele>
        <time>2017-10-09T18:26:55Z</time>
      </trkpt>
      <trkpt lat="62.637940292561" lon="17.966564847631">
        <ele>47.8</ele>
        <time>2017-10-09T18:26:56Z</time>
      </trkpt>
      <trkpt lat="62.637958984198" lon="17.966617569782">
        <ele>48</ele>
        <time>2017-10-09T18:26:57Z</time>
      </trkpt>
      <trkpt lat="62.637980022767" lon="17.966679931118">
        <ele>48.2</ele>
        <time>2017-10-09T18:26:58Z</time>
      </trkpt>
      <trkpt lat="62.637999468775" lon="17.966735335477">
        <ele>48.4</ele>
        <time>2017-10-09T18:26:59Z</time>
      </trkpt>
      <trkpt lat="62.638022351362" lon="17.966801720125">
        <ele>48.8</ele>
        <time>2017-10-09T18:27:00Z</time>
      </trkpt>
      <trkpt lat="62.638042384103" lon="17.966856705389">
        <ele>49</ele>
        <time>2017-10-09T18:27:01Z</time>
      </trkpt>
      <trkpt lat="62.638060991921" lon="17.966916384517">
        <ele>49</ele>
        <time>2017-10-09T18:27:02Z</time>
      </trkpt>
      <trkpt lat="62.638080018834" lon="17.96697061541">
        <ele>49</ele>
        <time>2017-10-09T18:27:03Z</time>
      </trkpt>
      <trkpt lat="62.638101811774" lon="17.967022164095">
        <ele>49</ele>
        <time>2017-10-09T18:27:04Z</time>
      </trkpt>
      <trkpt lat="62.638128298578" lon="17.967076478807">
        <ele>49</ele>
        <time>2017-10-09T18:27:05Z</time>
      </trkpt>
      <trkpt lat="62.638154450106" lon="17.967116041375">
        <ele>49</ele>
        <time>2017-10-09T18:27:06Z</time>
      </trkpt>
      <trkpt lat="62.638183116204" lon="17.96715501721">
        <ele>49.4</ele>
        <time>2017-10-09T18:27:07Z</time>
      </trkpt>
      <trkpt lat="62.638208513361" lon="17.967179911453">
        <ele>49.4</ele>
        <time>2017-10-09T18:27:08Z</time>
      </trkpt>
      <trkpt lat="62.638237682373" lon="17.96720363223">
        <ele>49.6</ele>
        <time>2017-10-09T18:27:09Z</time>
      </trkpt>
      <trkpt lat="62.638268527765" lon="17.967217713822">
        <ele>49.6</ele>
        <time>2017-10-09T18:27:10Z</time>
      </trkpt>
      <trkpt lat="62.638304234659" lon="17.967230621948">
        <ele>49.8</ele>
        <time>2017-10-09T18:27:11Z</time>
      </trkpt>
      <trkpt lat="62.638332481662" lon="17.967233304156">
        <ele>49.8</ele>
        <time>2017-10-09T18:27:12Z</time>
      </trkpt>
      <trkpt lat="62.638363075597" lon="17.967227772102">
        <ele>50</ele>
        <time>2017-10-09T18:27:13Z</time>
      </trkpt>
      <trkpt lat="62.638390065315" lon="17.967221066582">
        <ele>50</ele>
        <time>2017-10-09T18:27:14Z</time>
      </trkpt>
      <trkpt lat="62.638416719757" lon="17.967207906999">
        <ele>50.2</ele>
        <time>2017-10-09T18:27:15Z</time>
      </trkpt>
      <trkpt lat="62.638441362543" lon="17.967190388828">
        <ele>50.2</ele>
        <time>2017-10-09T18:27:16Z</time>
      </trkpt>
      <trkpt lat="62.638465167139" lon="17.967167925336">
        <ele>50.4</ele>
        <time>2017-10-09T18:27:17Z</time>
      </trkpt>
      <trkpt lat="62.638484864604" lon="17.967144707473">
        <ele>50.4</ele>
        <time>2017-10-09T18:27:18Z</time>
      </trkpt>
      <trkpt lat="62.638509172114" lon="17.967114616452">
        <ele>50.4</ele>
        <time>2017-10-09T18:27:19Z</time>
      </trkpt>
      <trkpt lat="62.638532054701" lon="17.967079831567">
        <ele>50.4</ele>
        <time>2017-10-09T18:27:20Z</time>
      </trkpt>
      <trkpt lat="62.638552171261" lon="17.967050578736">
        <ele>50.6</ele>
        <time>2017-10-09T18:27:21Z</time>
      </trkpt>
      <trkpt lat="62.638569605613" lon="17.96701252491">
        <ele>50.8</ele>
        <time>2017-10-09T18:27:22Z</time>
      </trkpt>
      <trkpt lat="62.638586537051" lon="17.966969441944">
        <ele>50.8</ele>
        <time>2017-10-09T18:27:23Z</time>
      </trkpt>
      <trkpt lat="62.638600199548" lon="17.966917557983">
        <ele>50.8</ele>
        <time>2017-10-09T18:27:24Z</time>
      </trkpt>
      <trkpt lat="62.638613694407" lon="17.966855364285">
        <ele>50.8</ele>
        <time>2017-10-09T18:27:25Z</time>
      </trkpt>
      <trkpt lat="62.638624423239" lon="17.966787638533">
        <ele>51</ele>
        <time>2017-10-09T18:27:26Z</time>
      </trkpt>
      <trkpt lat="62.63863188313" lon="17.966713961632">
        <ele>51</ele>
        <time>2017-10-09T18:27:27Z</time>
      </trkpt>
      <trkpt lat="62.638638085736" lon="17.966655623608">
        <ele>51.2</ele>
        <time>2017-10-09T18:27:28Z</time>
      </trkpt>
      <trkpt lat="62.638644036885" lon="17.96658923896">
        <ele>51.2</ele>
        <time>2017-10-09T18:27:29Z</time>
      </trkpt>
      <trkpt lat="62.638647389645" lon="17.966516400249">
        <ele>51</ele>
        <time>2017-10-09T18:27:30Z</time>
      </trkpt>
      <trkpt lat="62.638645545627" lon="17.96644674666">
        <ele>51.2</ele>
        <time>2017-10-09T18:27:31Z</time>
      </trkpt>
      <trkpt lat="62.638640432668" lon="17.966369130266">
        <ele>51.2</ele>
        <time>2017-10-09T18:27:32Z</time>
      </trkpt>
      <trkpt lat="62.638630793483" lon="17.96630593074">
        <ele>51.2</ele>
        <time>2017-10-09T18:27:33Z</time>
      </trkpt>
      <trkpt lat="62.638620902841" lon="17.966240803377">
        <ele>51.2</ele>
        <time>2017-10-09T18:27:34Z</time>
      </trkpt>
      <trkpt lat="62.638605396326" lon="17.966168551399">
        <ele>51.2</ele>
        <time>2017-10-09T18:27:35Z</time>
      </trkpt>
      <trkpt lat="62.638589638354" lon="17.966097556706">
        <ele>51.2</ele>
        <time>2017-10-09T18:27:36Z</time>
      </trkpt>
      <trkpt lat="62.638571030536" lon="17.966039553958">
        <ele>51.4</ele>
        <time>2017-10-09T18:27:37Z</time>
      </trkpt>
      <trkpt lat="62.638550327243" lon="17.96598155121">
        <ele>51.4</ele>
        <time>2017-10-09T18:27:38Z</time>
      </trkpt>
      <trkpt lat="62.638530126864" lon="17.965926146851">
        <ele>51.4</ele>
        <time>2017-10-09T18:27:39Z</time>
      </trkpt>
      <trkpt lat="62.638508753019" lon="17.965870155759">
        <ele>51.4</ele>
        <time>2017-10-09T18:27:40Z</time>
      </trkpt>
      <trkpt lat="62.638487798269" lon="17.965811147183">
        <ele>51.4</ele>
        <time>2017-10-09T18:27:41Z</time>
      </trkpt>
      <trkpt lat="62.638465502415" lon="17.965754904634">
        <ele>51.4</ele>
        <time>2017-10-09T18:27:42Z</time>
      </trkpt>
      <trkpt lat="62.638444296208" lon="17.965691621289">
        <ele>51.2</ele>
        <time>2017-10-09T18:27:43Z</time>
      </trkpt>
      <trkpt lat="62.63842317382" lon="17.965640994613">
        <ele>51.2</ele>
        <time>2017-10-09T18:27:44Z</time>
      </trkpt>
      <trkpt lat="62.638401967613" lon="17.965575783431">
        <ele>51.2</ele>
        <time>2017-10-09T18:27:45Z</time>
      </trkpt>
      <trkpt lat="62.638387047831" lon="17.965535131216">
        <ele>51.4</ele>
        <time>2017-10-09T18:27:46Z</time>
      </trkpt>
      <trkpt lat="62.638360728665" lon="17.965457766279">
        <ele>51.4</ele>
        <time>2017-10-09T18:27:47Z</time>
      </trkpt>
      <trkpt lat="62.638342037028" lon="17.965404122119">
        <ele>51.2</ele>
        <time>2017-10-09T18:27:48Z</time>
      </trkpt>
      <trkpt lat="62.638326530513" lon="17.965352489615">
        <ele>51.2</ele>
        <time>2017-10-09T18:27:49Z</time>
      </trkpt>
      <trkpt lat="62.638307168324" lon="17.96529926455">
        <ele>51.4</ele>
        <time>2017-10-09T18:27:50Z</time>
      </trkpt>
      <trkpt lat="62.638293924922" lon="17.965253918471">
        <ele>51.4</ele>
        <time>2017-10-09T18:27:51Z</time>
      </trkpt>
      <trkpt lat="62.638280597701" lon="17.965210248772">
        <ele>51.4</ele>
        <time>2017-10-09T18:27:52Z</time>
      </trkpt>
      <trkpt lat="62.638266264652" lon="17.965161130838">
        <ele>51.6</ele>
        <time>2017-10-09T18:27:53Z</time>
      </trkpt>
      <trkpt lat="62.638255787277" lon="17.965126094496">
        <ele>51.4</ele>
        <time>2017-10-09T18:27:54Z</time>
      </trkpt>
      <trkpt lat="62.638243382065" lon="17.965085274643">
        <ele>51.4</ele>
        <time>2017-10-09T18:27:55Z</time>
      </trkpt>
      <trkpt lat="62.638230641577" lon="17.965043951876">
        <ele>51.4</ele>
        <time>2017-10-09T18:27:56Z</time>
      </trkpt>
      <trkpt lat="62.638218068727" lon="17.96500757443">
        <ele>51.4</ele>
        <time>2017-10-09T18:27:57Z</time>
      </trkpt>
      <trkpt lat="62.638206166429" lon="17.964972705726">
        <ele>51.6</ele>
        <time>2017-10-09T18:27:58Z</time>
      </trkpt>
      <trkpt lat="62.638195521416" lon="17.964934400443">
        <ele>51.6</ele>
        <time>2017-10-09T18:27:59Z</time>
      </trkpt>
      <trkpt lat="62.638183786756" lon="17.964900621386">
        <ele>51.6</ele>
        <time>2017-10-09T18:28:00Z</time>
      </trkpt>
      <trkpt lat="62.638170375716" lon="17.9648759786">
        <ele>51.4</ele>
        <time>2017-10-09T18:28:01Z</time>
      </trkpt>
      <trkpt lat="62.638159227789" lon="17.964855442945">
        <ele>51.4</ele>
        <time>2017-10-09T18:28:02Z</time>
      </trkpt>
      <trkpt lat="62.638154282468" lon="17.964833650005">
        <ele>51.4</ele>
        <time>2017-10-09T18:28:03Z</time>
      </trkpt>
      <trkpt lat="62.638153360459" lon="17.964810264504">
        <ele>51.2</ele>
        <time>2017-10-09T18:28:04Z</time>
      </trkpt>
      <trkpt lat="62.6381566294" lon="17.964796182912">
        <ele>51.2</ele>
        <time>2017-10-09T18:28:05Z</time>
      </trkpt>
      <trkpt lat="62.638157132314" lon="17.964797607835">
        <ele>51.2</ele>
        <time>2017-10-09T18:28:06Z</time>
      </trkpt>
      <trkpt lat="62.63815495302" lon="17.964801128233">
        <ele>51</ele>
        <time>2017-10-09T18:28:07Z</time>
      </trkpt>
      <trkpt lat="62.638013382729" lon="17.964602812479">
        <ele>51.2</ele>
        <time>2017-10-09T18:29:31Z</time>
      </trkpt>
      <trkpt lat="62.63797809493" lon="17.964568865784">
        <ele>51.2</ele>
        <time>2017-10-09T18:29:32Z</time>
      </trkpt>
      <trkpt lat="62.637937526534" lon="17.964548581586">
        <ele>51</ele>
        <time>2017-10-09T18:29:33Z</time>
      </trkpt>
      <trkpt lat="62.637902741649" lon="17.964535338184">
        <ele>51</ele>
        <time>2017-10-09T18:29:34Z</time>
      </trkpt>
      <trkpt lat="62.637863011443" lon="17.964532236881">
        <ele>50.6</ele>
        <time>2017-10-09T18:29:35Z</time>
      </trkpt>
      <trkpt lat="62.637828478015" lon="17.964536679288">
        <ele>50.6</ele>
        <time>2017-10-09T18:29:36Z</time>
      </trkpt>
      <trkpt lat="62.637787490524" lon="17.964545480283">
        <ele>50.4</ele>
        <time>2017-10-09T18:29:37Z</time>
      </trkpt>
      <trkpt lat="62.637745664843" lon="17.964569620155">
        <ele>50.4</ele>
        <time>2017-10-09T18:29:38Z</time>
      </trkpt>
      <trkpt lat="62.637718004573" lon="17.964605159411">
        <ele>50.4</ele>
        <time>2017-10-09T18:29:39Z</time>
      </trkpt>
      <trkpt lat="62.637687913552" lon="17.964642542685">
        <ele>50.2</ele>
        <time>2017-10-09T18:29:40Z</time>
      </trkpt>
      <trkpt lat="62.637655224142" lon="17.964695600112">
        <ele>50.4</ele>
        <time>2017-10-09T18:29:41Z</time>
      </trkpt>
      <trkpt lat="62.637625300759" lon="17.964753519041">
        <ele>50.6</ele>
        <time>2017-10-09T18:29:42Z</time>
      </trkpt>
      <trkpt lat="62.63760677676" lon="17.964813701083">
        <ele>50.6</ele>
        <time>2017-10-09T18:29:43Z</time>
      </trkpt>
      <trkpt lat="62.637585319096" lon="17.964886455975">
        <ele>50.6</ele>
        <time>2017-10-09T18:29:44Z</time>
      </trkpt>
      <trkpt lat="62.637575931368" lon="17.964959546143">
        <ele>50.6</ele>
        <time>2017-10-09T18:29:45Z</time>
      </trkpt>
      <trkpt lat="62.63756486726" lon="17.965036491985">
        <ele>50.4</ele>
        <time>2017-10-09T18:29:46Z</time>
      </trkpt>
      <trkpt lat="62.637558077921" lon="17.965110420343">
        <ele>50.2</ele>
        <time>2017-10-09T18:29:47Z</time>
      </trkpt>
      <trkpt lat="62.637553384057" lon="17.965186863271">
        <ele>50</ele>
        <time>2017-10-09T18:29:48Z</time>
      </trkpt>
      <trkpt lat="62.637556988274" lon="17.965262300371">
        <ele>50</ele>
        <time>2017-10-09T18:29:49Z</time>
      </trkpt>
      <trkpt lat="62.637560257215" lon="17.965350897054">
        <ele>50</ele>
        <time>2017-10-09T18:29:50Z</time>
      </trkpt>
      <trkpt lat="62.637570566952" lon="17.965428094353">
        <ele>49.8</ele>
        <time>2017-10-09T18:29:51Z</time>
      </trkpt>
      <trkpt lat="62.637581044327" lon="17.96549707739">
        <ele>49.6</ele>
        <time>2017-10-09T18:29:52Z</time>
      </trkpt>
      <trkpt lat="62.637598143403" lon="17.965567233893">
        <ele>49.2</ele>
        <time>2017-10-09T18:29:53Z</time>
      </trkpt>
      <trkpt lat="62.637617840868" lon="17.965632277437">
        <ele>49</ele>
        <time>2017-10-09T18:29:54Z</time>
      </trkpt>
      <trkpt lat="62.637638711799" lon="17.965694387316">
        <ele>49</ele>
        <time>2017-10-09T18:29:55Z</time>
      </trkpt>
      <trkpt lat="62.63766042092" lon="17.96575523991">
        <ele>49.2</ele>
        <time>2017-10-09T18:29:56Z</time>
      </trkpt>
      <trkpt lat="62.637676765625" lon="17.965818439436">
        <ele>48.8</ele>
        <time>2017-10-09T18:29:57Z</time>
      </trkpt>
      <trkpt lat="62.637694954348" lon="17.965877448012">
        <ele>48.8</ele>
        <time>2017-10-09T18:29:58Z</time>
      </trkpt>
      <trkpt lat="62.637715657641" lon="17.965937546235">
        <ele>48.6</ele>
        <time>2017-10-09T18:29:59Z</time>
      </trkpt>
      <trkpt lat="62.637736780029" lon="17.965997560639">
        <ele>48.4</ele>
        <time>2017-10-09T18:30:00Z</time>
      </trkpt>
      <trkpt lat="62.637756561313" lon="17.966060843984">
        <ele>48.2</ele>
        <time>2017-10-09T18:30:01Z</time>
      </trkpt>
      <trkpt lat="62.637776510235" lon="17.966116751257">
        <ele>48.4</ele>
        <time>2017-10-09T18:30:02Z</time>
      </trkpt>
      <trkpt lat="62.637795285691" lon="17.966185985751">
        <ele>48.8</ele>
        <time>2017-10-09T18:30:03Z</time>
      </trkpt>
      <trkpt lat="62.637813725871" lon="17.966232421477">
        <ele>49</ele>
        <time>2017-10-09T18:30:04Z</time>
      </trkpt>
      <trkpt lat="62.637837530467" lon="17.966305427826">
        <ele>49.2</ele>
        <time>2017-10-09T18:30:05Z</time>
      </trkpt>
      <trkpt lat="62.637858149941" lon="17.96635454576">
        <ele>49.6</ele>
        <time>2017-10-09T18:30:06Z</time>
      </trkpt>
      <trkpt lat="62.637878015044" lon="17.966418080562">
        <ele>49.6</ele>
        <time>2017-10-09T18:30:07Z</time>
      </trkpt>
      <trkpt lat="62.637900059441" lon="17.9664769215">
        <ele>49.8</ele>
        <time>2017-10-09T18:30:08Z</time>
      </trkpt>
      <trkpt lat="62.637918667259" lon="17.966531152393">
        <ele>49.6</ele>
        <time>2017-10-09T18:30:09Z</time>
      </trkpt>
      <trkpt lat="62.637937358896" lon="17.966584461277">
        <ele>49.4</ele>
        <time>2017-10-09T18:30:10Z</time>
      </trkpt>
      <trkpt lat="62.637959403293" lon="17.966649923916">
        <ele>49.2</ele>
        <time>2017-10-09T18:30:11Z</time>
      </trkpt>
      <trkpt lat="62.637978765482" lon="17.966712620528">
        <ele>49.6</ele>
        <time>2017-10-09T18:30:12Z</time>
      </trkpt>
      <trkpt lat="62.637999804051" lon="17.966768443982">
        <ele>49.8</ele>
        <time>2017-10-09T18:30:13Z</time>
      </trkpt>
      <trkpt lat="62.638017154584" lon="17.966832649336">
        <ele>50</ele>
        <time>2017-10-09T18:30:14Z</time>
      </trkpt>
      <trkpt lat="62.638036097678" lon="17.966893753387">
        <ele>50.2</ele>
        <time>2017-10-09T18:30:15Z</time>
      </trkpt>
      <trkpt lat="62.638057387704" lon="17.966960640949">
        <ele>50.4</ele>
        <time>2017-10-09T18:30:16Z</time>
      </trkpt>
      <trkpt lat="62.638078593911" lon="17.967021074448">
        <ele>50</ele>
        <time>2017-10-09T18:30:17Z</time>
      </trkpt>
      <trkpt lat="62.638102398507" lon="17.967078406644">
        <ele>50</ele>
        <time>2017-10-09T18:30:18Z</time>
      </trkpt>
      <trkpt lat="62.638128466216" lon="17.967119645592">
        <ele>50.4</ele>
        <time>2017-10-09T18:30:19Z</time>
      </trkpt>
      <trkpt lat="62.63816082035" lon="17.967163734386">
        <ele>50.4</ele>
        <time>2017-10-09T18:30:20Z</time>
      </trkpt>
      <trkpt lat="62.638189989362" lon="17.967201201479">
        <ele>50.6</ele>
        <time>2017-10-09T18:30:21Z</time>
      </trkpt>
      <trkpt lat="62.638218739279" lon="17.9672229106">
        <ele>50.4</ele>
        <time>2017-10-09T18:30:22Z</time>
      </trkpt>
      <trkpt lat="62.638251931603" lon="17.967244032988">
        <ele>50.4</ele>
        <time>2017-10-09T18:30:23Z</time>
      </trkpt>
      <trkpt lat="62.63827984333" lon="17.96724973268">
        <ele>50.2</ele>
        <time>2017-10-09T18:30:24Z</time>
      </trkpt>
      <trkpt lat="62.63831756188" lon="17.967261718797">
        <ele>49.8</ele>
        <time>2017-10-09T18:30:25Z</time>
      </trkpt>
      <trkpt lat="62.638351340937" lon="17.967261048245">
        <ele>50.2</ele>
        <time>2017-10-09T18:30:26Z</time>
      </trkpt>
      <trkpt lat="62.638386880193" lon="17.96725308544">
        <ele>50.4</ele>
        <time>2017-10-09T18:30:27Z</time>
      </trkpt>
      <trkpt lat="62.638411271522" lon="17.967226766274">
        <ele>50.4</ele>
        <time>2017-10-09T18:30:28Z</time>
      </trkpt>
      <trkpt lat="62.638444212389" lon="17.967201201479">
        <ele>50.4</ele>
        <time>2017-10-09T18:30:29Z</time>
      </trkpt>
      <trkpt lat="62.638475057781" lon="17.967164824033">
        <ele>50.4</ele>
        <time>2017-10-09T18:30:30Z</time>
      </trkpt>
      <trkpt lat="62.63850280187" lon="17.967134397736">
        <ele>50.6</ele>
        <time>2017-10-09T18:30:31Z</time>
      </trkpt>
      <trkpt lat="62.638527528475" lon="17.967089386933">
        <ele>50.8</ele>
        <time>2017-10-09T18:30:32Z</time>
      </trkpt>
      <trkpt lat="62.638548315587" lon="17.967037754429">
        <ele>50.8</ele>
        <time>2017-10-09T18:30:33Z</time>
      </trkpt>
      <trkpt lat="62.638567845414" lon="17.966981008966">
        <ele>51</ele>
        <time>2017-10-09T18:30:34Z</time>
      </trkpt>
      <trkpt lat="62.638588213431" lon="17.966916803612">
        <ele>51.2</ele>
        <time>2017-10-09T18:30:35Z</time>
      </trkpt>
      <trkpt lat="62.638609335819" lon="17.966852262982">
        <ele>51.2</ele>
        <time>2017-10-09T18:30:36Z</time>
      </trkpt>
      <trkpt lat="62.638620902841" lon="17.966780849194">
        <ele>51.2</ele>
        <time>2017-10-09T18:30:37Z</time>
      </trkpt>
      <trkpt lat="62.638636325537" lon="17.966709854501">
        <ele>51.2</ele>
        <time>2017-10-09T18:30:38Z</time>
      </trkpt>
      <trkpt lat="62.63864194141" lon="17.96665377959">
        <ele>51.2</ele>
        <time>2017-10-09T18:30:39Z</time>
      </trkpt>
      <trkpt lat="62.638646551455" lon="17.966588568408">
        <ele>51.4</ele>
        <time>2017-10-09T18:30:40Z</time>
      </trkpt>
      <trkpt lat="62.63864780874" lon="17.966507012521">
        <ele>51.4</ele>
        <time>2017-10-09T18:30:41Z</time>
      </trkpt>
      <trkpt lat="62.638643785428" lon="17.966447501031">
        <ele>51.6</ele>
        <time>2017-10-09T18:30:42Z</time>
      </trkpt>
      <trkpt lat="62.638637079908" lon="17.966373405035">
        <ele>51.4</ele>
        <time>2017-10-09T18:30:43Z</time>
      </trkpt>
      <trkpt lat="62.638626602533" lon="17.966315905201">
        <ele>51.4</ele>
        <time>2017-10-09T18:30:44Z</time>
      </trkpt>
      <trkpt lat="62.638613191493" lon="17.966245748698">
        <ele>51.2</ele>
        <time>2017-10-09T18:30:45Z</time>
      </trkpt>
      <trkpt lat="62.638601373014" lon="17.966189506149">
        <ele>51.6</ele>
        <time>2017-10-09T18:30:46Z</time>
      </trkpt>
      <trkpt lat="62.638582932834" lon="17.966126893356">
        <ele>51.6</ele>
        <time>2017-10-09T18:30:47Z</time>
      </trkpt>
      <trkpt lat="62.638561642808" lon="17.966072578644">
        <ele>51.6</ele>
        <time>2017-10-09T18:30:48Z</time>
      </trkpt>
      <trkpt lat="62.638545130465" lon="17.966024717995">
        <ele>51.6</ele>
        <time>2017-10-09T18:30:49Z</time>
      </trkpt>
      <trkpt lat="62.638526103552" lon="17.965963027211">
        <ele>51.8</ele>
        <time>2017-10-09T18:30:50Z</time>
      </trkpt>
      <trkpt lat="62.638507663372" lon="17.965910137422">
        <ele>51.8</ele>
        <time>2017-10-09T18:30:51Z</time>
      </trkpt>
      <trkpt lat="62.63849022902" lon="17.965859762203">
        <ele>51.8</ele>
        <time>2017-10-09T18:30:52Z</time>
      </trkpt>
      <trkpt lat="62.63847095065" lon="17.965801591817">
        <ele>51.8</ele>
        <time>2017-10-09T18:30:53Z</time>
      </trkpt>
      <trkpt lat="62.63845418685" lon="17.965759682317">
        <ele>52</ele>
        <time>2017-10-09T18:30:54Z</time>
      </trkpt>
      <trkpt lat="62.638434740842" lon="17.9657057867">
        <ele>52</ele>
        <time>2017-10-09T18:30:55Z</time>
      </trkpt>
      <trkpt lat="62.638419485784" lon="17.965647364857">
        <ele>51.8</ele>
        <time>2017-10-09T18:30:56Z</time>
      </trkpt>
      <trkpt lat="62.638399453043" lon="17.965597157276">
        <ele>52.2</ele>
        <time>2017-10-09T18:30:57Z</time>
      </trkpt>
      <trkpt lat="62.638382856881" lon="17.965538651614">
        <ele>52.2</ele>
        <time>2017-10-09T18:30:58Z</time>
      </trkpt>
      <trkpt lat="62.638364919615" lon="17.965485678006">
        <ele>52</ele>
        <time>2017-10-09T18:30:59Z</time>
      </trkpt>
      <trkpt lat="62.638343629589" lon="17.965429686914">
        <ele>52</ele>
        <time>2017-10-09T18:31:00Z</time>
      </trkpt>
      <trkpt lat="62.638324351219" lon="17.965376294211">
        <ele>52</ele>
        <time>2017-10-09T18:31:01Z</time>
      </trkpt>
      <trkpt lat="62.638305072849" lon="17.965324577888">
        <ele>51.8</ele>
        <time>2017-10-09T18:31:02Z</time>
      </trkpt>
      <trkpt lat="62.638286297393" lon="17.965268838253">
        <ele>51.6</ele>
        <time>2017-10-09T18:31:03Z</time>
      </trkpt>
      <trkpt lat="62.638269282136" lon="17.965221145242">
        <ele>51.4</ele>
        <time>2017-10-09T18:31:04Z</time>
      </trkpt>
      <trkpt lat="62.638248662662" lon="17.965158280992">
        <ele>51.4</ele>
        <time>2017-10-09T18:31:05Z</time>
      </trkpt>
      <trkpt lat="62.63823122831" lon="17.965104720651">
        <ele>51.6</ele>
        <time>2017-10-09T18:31:06Z</time>
      </trkpt>
      <trkpt lat="62.638210525017" lon="17.965051244129">
        <ele>51.2</ele>
        <time>2017-10-09T18:31:07Z</time>
      </trkpt>
      <trkpt lat="62.638191246647" lon="17.964986200585">
        <ele>51.2</ele>
        <time>2017-10-09T18:31:08Z</time>
      </trkpt>
      <trkpt lat="62.63817255501" lon="17.964931131502">
        <ele>51.4</ele>
        <time>2017-10-09T18:31:09Z</time>
      </trkpt>
      <trkpt lat="62.638158138142" lon="17.964865249768">
        <ele>51.4</ele>
        <time>2017-10-09T18:31:10Z</time>
      </trkpt>
      <trkpt lat="62.63813567465" lon="17.964803558984">
        <ele>51.6</ele>
        <time>2017-10-09T18:31:11Z</time>
      </trkpt>
      <trkpt lat="62.638114216986" lon="17.964742119657">
        <ele>51.6</ele>
        <time>2017-10-09T18:31:12Z</time>
      </trkpt>
      <trkpt lat="62.638089071286" lon="17.964688894592">
        <ele>51.6</ele>
        <time>2017-10-09T18:31:13Z</time>
      </trkpt>
      <trkpt lat="62.638063925586" lon="17.964647655644">
        <ele>51.6</ele>
        <time>2017-10-09T18:31:14Z</time>
      </trkpt>
      <trkpt lat="62.638031236176" lon="17.964603315393">
        <ele>51.8</ele>
        <time>2017-10-09T18:31:15Z</time>
      </trkpt>
      <trkpt lat="62.638004330277" lon="17.964577247684">
        <ele>51.6</ele>
        <time>2017-10-09T18:31:16Z</time>
      </trkpt>
      <trkpt lat="62.637974239256" lon="17.96454992269">
        <ele>51.2</ele>
        <time>2017-10-09T18:31:17Z</time>
      </trkpt>
      <trkpt lat="62.637942471855" lon="17.964535757279">
        <ele>51.2</ele>
        <time>2017-10-09T18:31:18Z</time>
      </trkpt>
      <trkpt lat="62.637912799929" lon="17.964529973768">
        <ele>51.2</ele>
        <time>2017-10-09T18:31:19Z</time>
      </trkpt>
      <trkpt lat="62.63787583575" lon="17.96452310061">
        <ele>51.2</ele>
        <time>2017-10-09T18:31:20Z</time>
      </trkpt>
      <trkpt lat="62.637848091661" lon="17.964528045931">
        <ele>51</ele>
        <time>2017-10-09T18:31:21Z</time>
      </trkpt>
      <trkpt lat="62.637811462758" lon="17.964538104211">
        <ele>51</ele>
        <time>2017-10-09T18:31:22Z</time>
      </trkpt>
      <trkpt lat="62.637781287918" lon="17.964558639866">
        <ele>51</ele>
        <time>2017-10-09T18:31:23Z</time>
      </trkpt>
      <trkpt lat="62.637754717295" lon="17.964586383955">
        <ele>50.8</ele>
        <time>2017-10-09T18:31:24Z</time>
      </trkpt>
      <trkpt lat="62.63772328517" lon="17.964615133872">
        <ele>50.8</ele>
        <time>2017-10-09T18:31:25Z</time>
      </trkpt>
      <trkpt lat="62.63770065404" lon="17.964650589309">
        <ele>50.6</ele>
        <time>2017-10-09T18:31:26Z</time>
      </trkpt>
      <trkpt lat="62.637675256883" lon="17.96469576775">
        <ele>50.6</ele>
        <time>2017-10-09T18:31:27Z</time>
      </trkpt>
      <trkpt lat="62.63765706816" lon="17.964740694734">
        <ele>50.8</ele>
        <time>2017-10-09T18:31:28Z</time>
      </trkpt>
      <trkpt lat="62.637640974912" lon="17.964794925627">
        <ele>50.8</ele>
        <time>2017-10-09T18:31:29Z</time>
      </trkpt>
      <trkpt lat="62.637621612723" lon="17.964850916719">
        <ele>50.8</ele>
        <time>2017-10-09T18:31:30Z</time>
      </trkpt>
      <trkpt lat="62.637607531131" lon="17.964908081277">
        <ele>50.6</ele>
        <time>2017-10-09T18:31:31Z</time>
      </trkpt>
      <trkpt lat="62.637590599693" lon="17.964974382106">
        <ele>50.6</ele>
        <time>2017-10-09T18:31:32Z</time>
      </trkpt>
      <trkpt lat="62.637584397087" lon="17.965036408166">
        <ele>50.2</ele>
        <time>2017-10-09T18:31:33Z</time>
      </trkpt>
      <trkpt lat="62.637578865033" lon="17.965094830009">
        <ele>50</ele>
        <time>2017-10-09T18:31:34Z</time>
      </trkpt>
      <trkpt lat="62.637572243332" lon="17.965170853842">
        <ele>50</ele>
        <time>2017-10-09T18:31:35Z</time>
      </trkpt>
      <trkpt lat="62.637573165341" lon="17.965235226834">
        <ele>50</ele>
        <time>2017-10-09T18:31:36Z</time>
      </trkpt>
      <trkpt lat="62.637573752074" lon="17.965307981726">
        <ele>50.4</ele>
        <time>2017-10-09T18:31:37Z</time>
      </trkpt>
      <trkpt lat="62.637580122318" lon="17.965369421053">
        <ele>50.2</ele>
        <time>2017-10-09T18:31:38Z</time>
      </trkpt>
      <trkpt lat="62.63758833658" lon="17.965437649719">
        <ele>50</ele>
        <time>2017-10-09T18:31:39Z</time>
      </trkpt>
      <trkpt lat="62.637597472851" lon="17.965496406838">
        <ele>49.8</ele>
        <time>2017-10-09T18:31:40Z</time>
      </trkpt>
      <trkpt lat="62.6376118059" lon="17.965556085966">
        <ele>49.8</ele>
        <time>2017-10-09T18:31:41Z</time>
      </trkpt>
      <trkpt lat="62.637627899148" lon="17.965618698759">
        <ele>49.4</ele>
        <time>2017-10-09T18:31:42Z</time>
      </trkpt>
      <trkpt lat="62.637643238025" lon="17.965668487245">
        <ele>49.4</ele>
        <time>2017-10-09T18:31:43Z</time>
      </trkpt>
      <trkpt lat="62.637660337101" lon="17.965722718138">
        <ele>49.6</ele>
        <time>2017-10-09T18:31:44Z</time>
      </trkpt>
      <trkpt lat="62.637680286023" lon="17.965774602099">
        <ele>49.8</ele>
        <time>2017-10-09T18:31:45Z</time>
      </trkpt>
      <trkpt lat="62.637697888013" lon="17.965817349789">
        <ele>49.6</ele>
        <time>2017-10-09T18:31:46Z</time>
      </trkpt>
      <trkpt lat="62.637713981261" lon="17.965876526003">
        <ele>49.6</ele>
        <time>2017-10-09T18:31:47Z</time>
      </trkpt>
      <trkpt lat="62.637730325966" lon="17.965924805747">
        <ele>49.6</ele>
        <time>2017-10-09T18:31:48Z</time>
      </trkpt>
      <trkpt lat="62.637748933784" lon="17.965981215934">
        <ele>49.6</ele>
        <time>2017-10-09T18:31:49Z</time>
      </trkpt>
      <trkpt lat="62.637767373964" lon="17.96603938632">
        <ele>49.6</ele>
        <time>2017-10-09T18:31:50Z</time>
      </trkpt>
      <trkpt lat="62.637783718669" lon="17.966091018824">
        <ele>49.4</ele>
        <time>2017-10-09T18:31:51Z</time>
      </trkpt>
      <trkpt lat="62.637801153021" lon="17.966141561681">
        <ele>49.6</ele>
        <time>2017-10-09T18:31:52Z</time>
      </trkpt>
      <trkpt lat="62.637819593201" lon="17.966190763434">
        <ele>49.4</ele>
        <time>2017-10-09T18:31:53Z</time>
      </trkpt>
      <trkpt lat="62.637837865743" lon="17.966244072318">
        <ele>49.4</ele>
        <time>2017-10-09T18:31:54Z</time>
      </trkpt>
      <trkpt lat="62.637858401398" lon="17.966300314867">
        <ele>49.2</ele>
        <time>2017-10-09T18:31:55Z</time>
      </trkpt>
      <trkpt lat="62.637878098863" lon="17.966349097525">
        <ele>49.2</ele>
        <time>2017-10-09T18:31:56Z</time>
      </trkpt>
      <trkpt lat="62.637894611206" lon="17.966410033938">
        <ele>49.2</ele>
        <time>2017-10-09T18:31:57Z</time>
      </trkpt>
      <trkpt lat="62.637913135205" lon="17.966452111076">
        <ele>49.2</ele>
        <time>2017-10-09T18:31:58Z</time>
      </trkpt>
      <trkpt lat="62.637931826842" lon="17.966504414132">
        <ele>49.4</ele>
        <time>2017-10-09T18:31:59Z</time>
      </trkpt>
      <trkpt lat="62.637951943402" lon="17.966566021097">
        <ele>49.8</ele>
        <time>2017-10-09T18:32:00Z</time>
      </trkpt>
      <trkpt lat="62.637969964487" lon="17.966618407972">
        <ele>50</ele>
        <time>2017-10-09T18:32:01Z</time>
      </trkpt>
      <trkpt lat="62.637990416323" lon="17.966676913634">
        <ele>50.2</ele>
        <time>2017-10-09T18:32:02Z</time>
      </trkpt>
      <trkpt lat="62.638009443236" lon="17.966729468147">
        <ele>50.4</ele>
        <time>2017-10-09T18:32:03Z</time>
      </trkpt>
      <trkpt lat="62.638026374674" lon="17.966777664072">
        <ele>50.2</ele>
        <time>2017-10-09T18:32:04Z</time>
      </trkpt>
      <trkpt lat="62.638047916157" lon="17.966841115055">
        <ele>49.8</ele>
        <time>2017-10-09T18:32:05Z</time>
      </trkpt>
      <trkpt lat="62.63806275212" lon="17.966889059523">
        <ele>49.8</ele>
        <time>2017-10-09T18:32:06Z</time>
      </trkpt>
      <trkpt lat="62.638081862852" lon="17.966947397547">
        <ele>49.6</ele>
        <time>2017-10-09T18:32:07Z</time>
      </trkpt>
      <trkpt lat="62.638099548661" lon="17.967002131354">
        <ele>49.6</ele>
        <time>2017-10-09T18:32:08Z</time>
      </trkpt>
      <trkpt lat="62.63811807266" lon="17.967054182953">
        <ele>49.8</ele>
        <time>2017-10-09T18:32:09Z</time>
      </trkpt>
      <trkpt lat="62.638142296351" lon="17.967103719982">
        <ele>49.8</ele>
        <time>2017-10-09T18:32:10Z</time>
      </trkpt>
      <trkpt lat="62.638163502558" lon="17.967139510695">
        <ele>50</ele>
        <time>2017-10-09T18:32:11Z</time>
      </trkpt>
      <trkpt lat="62.638196778701" lon="17.967189550638">
        <ele>50</ele>
        <time>2017-10-09T18:32:12Z</time>
      </trkpt>
      <trkpt lat="62.638222511134" lon="17.967219474021">
        <ele>50.2</ele>
        <time>2017-10-09T18:32:13Z</time>
      </trkpt>
      <trkpt lat="62.638249249395" lon="17.96724637992">
        <ele>50.2</ele>
        <time>2017-10-09T18:32:14Z</time>
      </trkpt>
      <trkpt lat="62.638281268253" lon="17.967269765421">
        <ele>50.2</ele>
        <time>2017-10-09T18:32:15Z</time>
      </trkpt>
      <trkpt lat="62.638306162496" lon="17.967278734054">
        <ele>50.4</ele>
        <time>2017-10-09T18:32:16Z</time>
      </trkpt>
      <trkpt lat="62.638339187182" lon="17.96728828942">
        <ele>50.6</ele>
        <time>2017-10-09T18:32:17Z</time>
      </trkpt>
      <trkpt lat="62.638367266547" lon="17.967286948316">
        <ele>50.8</ele>
        <time>2017-10-09T18:32:18Z</time>
      </trkpt>
      <trkpt lat="62.638397022292" lon="17.967277309131">
        <ele>50.8</ele>
        <time>2017-10-09T18:32:19Z</time>
      </trkpt>
      <trkpt lat="62.638429460245" lon="17.967261132064">
        <ele>51</ele>
        <time>2017-10-09T18:32:20Z</time>
      </trkpt>
      <trkpt lat="62.638453181022" lon="17.967231795414">
        <ele>51.2</ele>
        <time>2017-10-09T18:32:21Z</time>
      </trkpt>
      <trkpt lat="62.638479919283" lon="17.967206482076">
        <ele>51.2</ele>
        <time>2017-10-09T18:32:22Z</time>
      </trkpt>
      <trkpt lat="62.638505735535" lon="17.967173792666">
        <ele>51</ele>
        <time>2017-10-09T18:32:23Z</time>
      </trkpt>
      <trkpt lat="62.638530713597" lon="17.967135990297">
        <ele>51</ele>
        <time>2017-10-09T18:32:24Z</time>
      </trkpt>
      <trkpt lat="62.638553680003" lon="17.967094751349">
        <ele>51</ele>
        <time>2017-10-09T18:32:25Z</time>
      </trkpt>
      <trkpt lat="62.638572539278" lon="17.967041945379">
        <ele>51</ele>
        <time>2017-10-09T18:32:26Z</time>
      </trkpt>
      <trkpt lat="62.638594583675" lon="17.966990145237">
        <ele>51.2</ele>
        <time>2017-10-09T18:32:27Z</time>
      </trkpt>
      <trkpt lat="62.638610509285" lon="17.966939937656">
        <ele>51.4</ele>
        <time>2017-10-09T18:32:28Z</time>
      </trkpt>
      <trkpt lat="62.638626518714" lon="17.966886544953">
        <ele>51.4</ele>
        <time>2017-10-09T18:32:29Z</time>
      </trkpt>
      <trkpt lat="62.638641606134" lon="17.96682560854">
        <ele>51.6</ele>
        <time>2017-10-09T18:32:30Z</time>
      </trkpt>
      <trkpt lat="62.638645713265" lon="17.966752937467">
        <ele>51.4</ele>
        <time>2017-10-09T18:32:31Z</time>
      </trkpt>
      <trkpt lat="62.63865619064" lon="17.966676243082">
        <ele>51.4</ele>
        <time>2017-10-09T18:32:32Z</time>
      </trkpt>
      <trkpt lat="62.638660130133" lon="17.966613378832">
        <ele>51.4</ele>
        <time>2017-10-09T18:32:33Z</time>
      </trkpt>
      <trkpt lat="62.638663231436" lon="17.966546323632">
        <ele>51.6</ele>
        <time>2017-10-09T18:32:34Z</time>
      </trkpt>
      <trkpt lat="62.638659711038" lon="17.966468874876">
        <ele>51.4</ele>
        <time>2017-10-09T18:32:35Z</time>
      </trkpt>
      <trkpt lat="62.638649904215" lon="17.966393689233">
        <ele>51.6</ele>
        <time>2017-10-09T18:32:36Z</time>
      </trkpt>
      <trkpt lat="62.638641270858" lon="17.966322862178">
        <ele>51.6</ele>
        <time>2017-10-09T18:32:37Z</time>
      </trkpt>
      <trkpt lat="62.638629787655" lon="17.966260752299">
        <ele>51.6</ele>
        <time>2017-10-09T18:32:38Z</time>
      </trkpt>
      <trkpt lat="62.638618136814" lon="17.966196044031">
        <ele>51.8</ele>
        <time>2017-10-09T18:32:39Z</time>
      </trkpt>
      <trkpt lat="62.638603636127" lon="17.966144830622">
        <ele>51.8</ele>
        <time>2017-10-09T18:32:40Z</time>
      </trkpt>
      <trkpt lat="62.638584693033" lon="17.966085402951">
        <ele>51.8</ele>
        <time>2017-10-09T18:32:41Z</time>
      </trkpt>
      <trkpt lat="62.638565498482" lon="17.9660242989">
        <ele>52</ele>
        <time>2017-10-09T18:32:42Z</time>
      </trkpt>
      <trkpt lat="62.638546220112" lon="17.965978449907">
        <ele>52</ele>
        <time>2017-10-09T18:32:43Z</time>
      </trkpt>
      <trkpt lat="62.638525433" lon="17.965929751068">
        <ele>51.8</ele>
        <time>2017-10-09T18:32:44Z</time>
      </trkpt>
      <trkpt lat="62.638507663372" lon="17.965870239578">
        <ele>52</ele>
        <time>2017-10-09T18:32:45Z</time>
      </trkpt>
      <trkpt lat="62.638489139373" lon="17.965826569879">
        <ele>52</ele>
        <time>2017-10-09T18:32:46Z</time>
      </trkpt>
      <trkpt lat="62.63847095065" lon="17.965763370353">
        <ele>52</ele>
        <time>2017-10-09T18:32:47Z</time>
      </trkpt>
      <trkpt lat="62.638452929565" lon="17.965709726193">
        <ele>52</ele>
        <time>2017-10-09T18:32:48Z</time>
      </trkpt>
      <trkpt lat="62.638433399738" lon="17.965662117001">
        <ele>52.4</ele>
        <time>2017-10-09T18:32:49Z</time>
      </trkpt>
      <trkpt lat="62.638414121368" lon="17.96560017476">
        <ele>52.4</ele>
        <time>2017-10-09T18:32:50Z</time>
      </trkpt>
      <trkpt lat="62.638399201586" lon="17.965545273315">
        <ele>52.4</ele>
        <time>2017-10-09T18:32:51Z</time>
      </trkpt>
      <trkpt lat="62.638379839397" lon="17.965488527852">
        <ele>52.4</ele>
        <time>2017-10-09T18:32:52Z</time>
      </trkpt>
      <trkpt lat="62.638359890475" lon="17.96543588952">
        <ele>52.4</ele>
        <time>2017-10-09T18:32:53Z</time>
      </trkpt>
      <trkpt lat="62.638341617933" lon="17.965388280328">
        <ele>52.2</ele>
        <time>2017-10-09T18:32:54Z</time>
      </trkpt>
      <trkpt lat="62.638318902984" lon="17.965330445218">
        <ele>52</ele>
        <time>2017-10-09T18:32:55Z</time>
      </trkpt>
      <trkpt lat="62.6382991217" lon="17.965278561257">
        <ele>51.8</ele>
        <time>2017-10-09T18:32:56Z</time>
      </trkpt>
      <trkpt lat="62.638278669864" lon="17.965223073079">
        <ele>51.8</ele>
        <time>2017-10-09T18:32:57Z</time>
      </trkpt>
      <trkpt lat="62.638260816417" lon="17.965176134439">
        <ele>51.8</ele>
        <time>2017-10-09T18:32:58Z</time>
      </trkpt>
      <trkpt lat="62.63823961021" lon="17.965128189971">
        <ele>51.6</ele>
        <time>2017-10-09T18:32:59Z</time>
      </trkpt>
      <trkpt lat="62.638219828926" lon="17.965070019585">
        <ele>51.8</ele>
        <time>2017-10-09T18:33:00Z</time>
      </trkpt>
      <trkpt lat="62.638200885832" lon="17.965015537235">
        <ele>52</ele>
        <time>2017-10-09T18:33:01Z</time>
      </trkpt>
      <trkpt lat="62.638182194195" lon="17.964958624134">
        <ele>52</ele>
        <time>2017-10-09T18:33:02Z</time>
      </trkpt>
      <trkpt lat="62.638163754015" lon="17.964902633042">
        <ele>52.2</ele>
        <time>2017-10-09T18:33:03Z</time>
      </trkpt>
      <trkpt lat="62.63814908569" lon="17.964858041334">
        <ele>52.2</ele>
        <time>2017-10-09T18:33:04Z</time>
      </trkpt>
      <trkpt lat="62.638127041293" lon="17.964794171256">
        <ele>52</ele>
        <time>2017-10-09T18:33:05Z</time>
      </trkpt>
      <trkpt lat="62.638107595285" lon="17.964751255928">
        <ele>52</ele>
        <time>2017-10-09T18:33:06Z</time>
      </trkpt>
      <trkpt lat="62.638083958327" lon="17.96470414965">
        <ele>52</ele>
        <time>2017-10-09T18:33:07Z</time>
      </trkpt>
      <trkpt lat="62.638055543686" lon="17.964660144675">
        <ele>52</ele>
        <time>2017-10-09T18:33:08Z</time>
      </trkpt>
      <trkpt lat="62.638028051054" lon="17.964629047826">
        <ele>51.8</ele>
        <time>2017-10-09T18:33:09Z</time>
      </trkpt>
      <trkpt lat="62.637999804051" lon="17.964595101131">
        <ele>51.8</ele>
        <time>2017-10-09T18:33:10Z</time>
      </trkpt>
      <trkpt lat="62.637967282279" lon="17.964566183576">
        <ele>51.8</ele>
        <time>2017-10-09T18:33:11Z</time>
      </trkpt>
      <trkpt lat="62.637938616181" lon="17.964550174147">
        <ele>51.6</ele>
        <time>2017-10-09T18:33:12Z</time>
      </trkpt>
      <trkpt lat="62.637903915115" lon="17.964533075071">
        <ele>51.6</ele>
        <time>2017-10-09T18:33:13Z</time>
      </trkpt>
      <trkpt lat="62.63787332118" lon="17.964532153062">
        <ele>51.6</ele>
        <time>2017-10-09T18:33:14Z</time>
      </trkpt>
      <trkpt lat="62.6378381172" lon="17.964541037876">
        <ele>51.8</ele>
        <time>2017-10-09T18:33:15Z</time>
      </trkpt>
      <trkpt lat="62.637807690903" lon="17.964552269622">
        <ele>51.6</ele>
        <time>2017-10-09T18:33:16Z</time>
      </trkpt>
      <trkpt lat="62.637773325113" lon="17.964577247684">
        <ele>51.6</ele>
        <time>2017-10-09T18:33:17Z</time>
      </trkpt>
      <trkpt lat="62.637740384246" lon="17.964604907954">
        <ele>51.4</ele>
        <time>2017-10-09T18:33:18Z</time>
      </trkpt>
      <trkpt lat="62.637715909098" lon="17.964647320368">
        <ele>51.4</ele>
        <time>2017-10-09T18:33:19Z</time>
      </trkpt>
      <trkpt lat="62.637690260484" lon="17.96469912051">
        <ele>51.2</ele>
        <time>2017-10-09T18:33:20Z</time>
      </trkpt>
      <trkpt lat="62.63766964101" lon="17.964743376942">
        <ele>51</ele>
        <time>2017-10-09T18:33:21Z</time>
      </trkpt>
      <trkpt lat="62.637649356812" lon="17.964798194568">
        <ele>51</ele>
        <time>2017-10-09T18:33:22Z</time>
      </trkpt>
      <trkpt lat="62.637626977139" lon="17.96486005299">
        <ele>50.8</ele>
        <time>2017-10-09T18:33:23Z</time>
      </trkpt>
      <trkpt lat="62.637616080669" lon="17.964912272227">
        <ele>51</ele>
        <time>2017-10-09T18:33:24Z</time>
      </trkpt>
      <trkpt lat="62.637600406516" lon="17.964975974667">
        <ele>51</ele>
        <time>2017-10-09T18:33:25Z</time>
      </trkpt>
      <trkpt lat="62.637589929141" lon="17.965046214989">
        <ele>50.8</ele>
        <time>2017-10-09T18:33:26Z</time>
      </trkpt>
      <trkpt lat="62.637582888345" lon="17.965121232994">
        <ele>50.8</ele>
        <time>2017-10-09T18:33:27Z</time>
      </trkpt>
      <trkpt lat="62.637579451766" lon="17.965185438348">
        <ele>50.8</ele>
        <time>2017-10-09T18:33:28Z</time>
      </trkpt>
      <trkpt lat="62.637578026843" lon="17.96525148772">
        <ele>50.6</ele>
        <time>2017-10-09T18:33:29Z</time>
      </trkpt>
      <trkpt lat="62.637579284128" lon="17.965331031951">
        <ele>50.6</ele>
        <time>2017-10-09T18:33:30Z</time>
      </trkpt>
      <trkpt lat="62.63758498382" lon="17.965396243133">
        <ele>50.4</ele>
        <time>2017-10-09T18:33:31Z</time>
      </trkpt>
      <trkpt lat="62.637592946625" lon="17.965465729084">
        <ele>50.2</ele>
        <time>2017-10-09T18:33:32Z</time>
      </trkpt>
      <trkpt lat="62.637604346009" lon="17.965524821479">
        <ele>49.8</ele>
        <time>2017-10-09T18:33:33Z</time>
      </trkpt>
      <trkpt lat="62.637617254135" lon="17.965572346852">
        <ele>49.8</ele>
        <time>2017-10-09T18:33:34Z</time>
      </trkpt>
      <trkpt lat="62.637635107582" lon="17.965639234414">
        <ele>49.6</ele>
        <time>2017-10-09T18:33:35Z</time>
      </trkpt>
      <trkpt lat="62.637651871382" lon="17.965684999588">
        <ele>49.4</ele>
        <time>2017-10-09T18:33:36Z</time>
      </trkpt>
      <trkpt lat="62.637667210259" lon="17.965738224653">
        <ele>49.6</ele>
        <time>2017-10-09T18:33:37Z</time>
      </trkpt>
      <trkpt lat="62.637684393154" lon="17.965791701175">
        <ele>49.6</ele>
        <time>2017-10-09T18:33:38Z</time>
      </trkpt>
      <trkpt lat="62.637699312936" lon="17.965829755001">
        <ele>49.6</ele>
        <time>2017-10-09T18:33:39Z</time>
      </trkpt>
      <trkpt lat="62.63770484499" lon="17.965849452466">
        <ele>49.4</ele>
        <time>2017-10-09T18:33:40Z</time>
      </trkpt>
      <trkpt lat="62.637731583251" lon="17.965927487955">
        <ele>49.4</ele>
        <time>2017-10-09T18:33:41Z</time>
      </trkpt>
      <trkpt lat="62.637750777802" lon="17.965979623373">
        <ele>49.4</ele>
        <time>2017-10-09T18:33:42Z</time>
      </trkpt>
      <trkpt lat="62.637768882706" lon="17.966043744908">
        <ele>49.2</ele>
        <time>2017-10-09T18:33:43Z</time>
      </trkpt>
      <trkpt lat="62.637784975954" lon="17.966088085159">
        <ele>49.2</ele>
        <time>2017-10-09T18:33:44Z</time>
      </trkpt>
      <trkpt lat="62.637804338143" lon="17.966144495346">
        <ele>49.4</ele>
        <time>2017-10-09T18:33:45Z</time>
      </trkpt>
      <trkpt lat="62.637820850486" lon="17.966189673787">
        <ele>49.4</ele>
        <time>2017-10-09T18:33:46Z</time>
      </trkpt>
      <trkpt lat="62.63784146996" lon="17.966241054834">
        <ele>49.8</ele>
        <time>2017-10-09T18:33:47Z</time>
      </trkpt>
      <trkpt lat="62.637860077778" lon="17.966299476677">
        <ele>49.8</ele>
        <time>2017-10-09T18:33:48Z</time>
      </trkpt>
      <trkpt lat="62.637876590121" lon="17.966351276819">
        <ele>49.8</ele>
        <time>2017-10-09T18:33:49Z</time>
      </trkpt>
      <trkpt lat="62.63789846688" lon="17.966416236544">
        <ele>49.8</ele>
        <time>2017-10-09T18:33:50Z</time>
      </trkpt>
      <trkpt lat="62.637917912888" lon="17.966469210152">
        <ele>50</ele>
        <time>2017-10-09T18:33:51Z</time>
      </trkpt>
      <trkpt lat="62.637936772163" lon="17.966514556231">
        <ele>49.8</ele>
        <time>2017-10-09T18:33:52Z</time>
      </trkpt>
      <trkpt lat="62.637958984198" lon="17.966580102689">
        <ele>50</ele>
        <time>2017-10-09T18:33:53Z</time>
      </trkpt>
      <trkpt lat="62.637976502369" lon="17.966627125148">
        <ele>50</ele>
        <time>2017-10-09T18:33:54Z</time>
      </trkpt>
      <trkpt lat="62.637996786567" lon="17.96668479262">
        <ele>50.4</ele>
        <time>2017-10-09T18:33:55Z</time>
      </trkpt>
      <trkpt lat="62.63801916624" lon="17.966741202807">
        <ele>50.2</ele>
        <time>2017-10-09T18:33:56Z</time>
      </trkpt>
      <trkpt lat="62.638040875361" lon="17.966793841139">
        <ele>50</ele>
        <time>2017-10-09T18:33:57Z</time>
      </trkpt>
      <trkpt lat="62.638058142075" lon="17.966853184991">
        <ele>50</ele>
        <time>2017-10-09T18:33:58Z</time>
      </trkpt>
      <trkpt lat="62.638093429874" lon="17.966964664261">
        <ele>49.8</ele>
        <time>2017-10-09T18:34:00Z</time>
      </trkpt>
      <trkpt lat="62.638108601113" lon="17.967012692548">
        <ele>49.4</ele>
        <time>2017-10-09T18:34:01Z</time>
      </trkpt>
      <trkpt lat="62.638119916678" lon="17.967042532112">
        <ele>49.4</ele>
        <time>2017-10-09T18:34:02Z</time>
      </trkpt>
      <trkpt lat="62.638125448732" lon="17.967062983948">
        <ele>49.8</ele>
        <time>2017-10-09T18:34:03Z</time>
      </trkpt>
      <trkpt lat="62.638130896967" lon="17.967089219295">
        <ele>50.2</ele>
        <time>2017-10-09T18:34:04Z</time>
      </trkpt>
      <trkpt lat="62.638134920279" lon="17.967118555945">
        <ele>50.6</ele>
        <time>2017-10-09T18:34:05Z</time>
      </trkpt>
      <trkpt lat="62.638142715446" lon="17.967140348885">
        <ele>50.8</ele>
        <time>2017-10-09T18:34:06Z</time>
      </trkpt>
      <trkpt lat="62.63815411483" lon="17.96715753178">
        <ele>50.8</ele>
        <time>2017-10-09T18:34:07Z</time>
      </trkpt>
      <trkpt lat="62.638168531698" lon="17.967184689136">
        <ele>50.6</ele>
        <time>2017-10-09T18:34:08Z</time>
      </trkpt>
      <trkpt lat="62.638176662141" lon="17.967199608918">
        <ele>50.6</ele>
        <time>2017-10-09T18:34:09Z</time>
      </trkpt>
      <trkpt lat="62.638182110376" lon="17.967208577551">
        <ele>50.6</ele>
        <time>2017-10-09T18:34:10Z</time>
      </trkpt>
      <trkpt lat="62.638193928855" lon="17.9672480563">
        <ele>50.6</ele>
        <time>2017-10-09T18:34:11Z</time>
      </trkpt>
      <trkpt lat="62.63820440623" lon="17.967245374092">
        <ele>50.8</ele>
        <time>2017-10-09T18:34:12Z</time>
      </trkpt>
      <trkpt lat="62.638215218881" lon="17.967262892263">
        <ele>51.2</ele>
        <time>2017-10-09T18:34:13Z</time>
      </trkpt>
      <trkpt lat="62.638226618265" lon="17.967275213656">
        <ele>51.2</ele>
        <time>2017-10-09T18:34:14Z</time>
      </trkpt>
      <trkpt lat="62.638238352925" lon="17.9672815839">
        <ele>51.2</ele>
        <time>2017-10-09T18:34:15Z</time>
      </trkpt>
      <trkpt lat="62.638252015422" lon="17.967293905293">
        <ele>51.4</ele>
        <time>2017-10-09T18:34:16Z</time>
      </trkpt>
      <trkpt lat="62.638266013195" lon="17.967307232514">
        <ele>51.4</ele>
        <time>2017-10-09T18:34:17Z</time>
      </trkpt>
      <trkpt lat="62.638279340416" lon="17.96729918589">
        <ele>51.2</ele>
        <time>2017-10-09T18:34:18Z</time>
      </trkpt>
      <trkpt lat="62.638290236886" lon="17.967313770396">
        <ele>51.2</ele>
        <time>2017-10-09T18:34:19Z</time>
      </trkpt>
      <trkpt lat="62.638301133356" lon="17.967325002142">
        <ele>51</ele>
        <time>2017-10-09T18:34:20Z</time>
      </trkpt>
      <trkpt lat="62.638310437265" lon="17.967331288567">
        <ele>51</ele>
        <time>2017-10-09T18:34:21Z</time>
      </trkpt>
      <trkpt lat="62.638321166097" lon="17.967334725146">
        <ele>51</ele>
        <time>2017-10-09T18:34:22Z</time>
      </trkpt>
      <trkpt lat="62.638330721463" lon="17.967338916096">
        <ele>51</ele>
        <time>2017-10-09T18:34:23Z</time>
      </trkpt>
      <trkpt lat="62.638340947381" lon="17.967343358503">
        <ele>51</ele>
        <time>2017-10-09T18:34:24Z</time>
      </trkpt>
      <trkpt lat="62.638355364249" lon="17.967344951064">
        <ele>51</ele>
        <time>2017-10-09T18:34:25Z</time>
      </trkpt>
      <trkpt lat="62.63837120604" lon="17.967347381815">
        <ele>51</ele>
        <time>2017-10-09T18:34:26Z</time>
      </trkpt>
      <trkpt lat="62.638387634564" lon="17.967341682123">
        <ele>51.2</ele>
        <time>2017-10-09T18:34:27Z</time>
      </trkpt>
      <trkpt lat="62.638395178274" lon="17.967341765942">
        <ele>51.2</ele>
        <time>2017-10-09T18:34:28Z</time>
      </trkpt>
      <trkpt lat="62.63840389545" lon="17.967337658811">
        <ele>51.4</ele>
        <time>2017-10-09T18:34:29Z</time>
      </trkpt>
      <trkpt lat="62.638417055033" lon="17.967332462033">
        <ele>51.4</ele>
        <time>2017-10-09T18:34:30Z</time>
      </trkpt>
      <trkpt lat="62.638424682562" lon="17.967328606359">
        <ele>51.8</ele>
        <time>2017-10-09T18:34:31Z</time>
      </trkpt>
      <trkpt lat="62.638433735014" lon="17.967326343246">
        <ele>52</ele>
        <time>2017-10-09T18:34:32Z</time>
      </trkpt>
      <trkpt lat="62.638446140226" lon="17.967314440948">
        <ele>52.4</ele>
        <time>2017-10-09T18:34:33Z</time>
      </trkpt>
      <trkpt lat="62.638457204334" lon="17.967308908894">
        <ele>52.6</ele>
        <time>2017-10-09T18:34:34Z</time>
      </trkpt>
      <trkpt lat="62.638467178795" lon="17.967300778451">
        <ele>52.8</ele>
        <time>2017-10-09T18:34:35Z</time>
      </trkpt>
      <trkpt lat="62.638468687537" lon="17.967280075158">
        <ele>53</ele>
        <time>2017-10-09T18:34:36Z</time>
      </trkpt>
      <trkpt lat="62.638476398885" lon="17.967277141493">
        <ele>52.8</ele>
        <time>2017-10-09T18:34:37Z</time>
      </trkpt>
      <trkpt lat="62.638490648115" lon="17.967264568643">
        <ele>52.6</ele>
        <time>2017-10-09T18:34:38Z</time>
      </trkpt>
      <trkpt lat="62.638501879861" lon="17.967251828155">
        <ele>52.2</ele>
        <time>2017-10-09T18:34:39Z</time>
      </trkpt>
      <trkpt lat="62.638511938141" lon="17.967242608065">
        <ele>52</ele>
        <time>2017-10-09T18:34:40Z</time>
      </trkpt>
      <trkpt lat="62.638521074412" lon="17.967225341351">
        <ele>51.8</ele>
        <time>2017-10-09T18:34:41Z</time>
      </trkpt>
      <trkpt lat="62.638541610067" lon="17.967214696338">
        <ele>51.6</ele>
        <time>2017-10-09T18:34:42Z</time>
      </trkpt>
      <trkpt lat="62.638545130465" lon="17.967198770728">
        <ele>51.6</ele>
        <time>2017-10-09T18:34:43Z</time>
      </trkpt>
      <trkpt lat="62.638552925632" lon="17.967183096575">
        <ele>51.6</ele>
        <time>2017-10-09T18:34:44Z</time>
      </trkpt>
      <trkpt lat="62.638565749939" lon="17.96716256092">
        <ele>51.6</ele>
        <time>2017-10-09T18:34:45Z</time>
      </trkpt>
      <trkpt lat="62.638573796563" lon="17.967145629482">
        <ele>51.6</ele>
        <time>2017-10-09T18:34:46Z</time>
      </trkpt>
      <trkpt lat="62.638583351929" lon="17.967121992524">
        <ele>51.4</ele>
        <time>2017-10-09T18:34:47Z</time>
      </trkpt>
      <trkpt lat="62.638590308906" lon="17.967099445213">
        <ele>51.4</ele>
        <time>2017-10-09T18:34:48Z</time>
      </trkpt>
      <trkpt lat="62.638597768797" lon="17.967076897902">
        <ele>51.4</ele>
        <time>2017-10-09T18:34:49Z</time>
      </trkpt>
      <trkpt lat="62.638608078534" lon="17.967053680039">
        <ele>51.6</ele>
        <time>2017-10-09T18:34:50Z</time>
      </trkpt>
      <trkpt lat="62.638615286968" lon="17.967031384185">
        <ele>51.6</ele>
        <time>2017-10-09T18:34:51Z</time>
      </trkpt>
      <trkpt lat="62.638623752687" lon="17.96700581939">
        <ele>51.6</ele>
        <time>2017-10-09T18:34:52Z</time>
      </trkpt>
      <trkpt lat="62.63863355951" lon="17.966980589871">
        <ele>51.6</ele>
        <time>2017-10-09T18:34:53Z</time>
      </trkpt>
      <trkpt lat="62.638641522315" lon="17.966957120551">
        <ele>51.8</ele>
        <time>2017-10-09T18:34:54Z</time>
      </trkpt>
      <trkpt lat="62.638647473464" lon="17.966933986507">
        <ele>51.8</ele>
        <time>2017-10-09T18:34:55Z</time>
      </trkpt>
      <trkpt lat="62.638649652758" lon="17.966914959594">
        <ele>51.8</ele>
        <time>2017-10-09T18:34:56Z</time>
      </trkpt>
      <trkpt lat="62.638659459581" lon="17.966877324863">
        <ele>51.6</ele>
        <time>2017-10-09T18:34:57Z</time>
      </trkpt>
      <trkpt lat="62.638664656359" lon="17.966854526095">
        <ele>51.6</ele>
        <time>2017-10-09T18:34:58Z</time>
      </trkpt>
      <trkpt lat="62.63866708711" lon="17.96682560854">
        <ele>51.6</ele>
        <time>2017-10-09T18:34:59Z</time>
      </trkpt>
      <trkpt lat="62.638671780974" lon="17.966796020433">
        <ele>51.8</ele>
        <time>2017-10-09T18:35:00Z</time>
      </trkpt>
      <trkpt lat="62.638676977752" lon="17.966767102878">
        <ele>52</ele>
        <time>2017-10-09T18:35:01Z</time>
      </trkpt>
      <trkpt lat="62.638680414331" lon="17.966737430952">
        <ele>52</ele>
        <time>2017-10-09T18:35:02Z</time>
      </trkpt>
      <trkpt lat="62.638680246693" lon="17.966707004655">
        <ele>52.2</ele>
        <time>2017-10-09T18:35:03Z</time>
      </trkpt>
      <trkpt lat="62.638680665788" lon="17.966684289706">
        <ele>52.2</ele>
        <time>2017-10-09T18:35:04Z</time>
      </trkpt>
      <trkpt lat="62.638679576141" lon="17.966663754051">
        <ele>52</ele>
        <time>2017-10-09T18:35:05Z</time>
      </trkpt>
      <trkpt lat="62.638679324684" lon="17.966633160116">
        <ele>52</ele>
        <time>2017-10-09T18:35:06Z</time>
      </trkpt>
      <trkpt lat="62.638681587797" lon="17.966605835122">
        <ele>51.8</ele>
        <time>2017-10-09T18:35:07Z</time>
      </trkpt>
      <trkpt lat="62.63868385091" lon="17.966586305295">
        <ele>51.8</ele>
        <time>2017-10-09T18:35:08Z</time>
      </trkpt>
      <trkpt lat="62.638685275833" lon="17.966566524011">
        <ele>51.8</ele>
        <time>2017-10-09T18:35:09Z</time>
      </trkpt>
      <trkpt lat="62.638678989408" lon="17.966541881225">
        <ele>51.6</ele>
        <time>2017-10-09T18:35:10Z</time>
      </trkpt>
      <trkpt lat="62.638676558657" lon="17.96650961091">
        <ele>51.6</ele>
        <time>2017-10-09T18:35:11Z</time>
      </trkpt>
      <trkpt lat="62.638677480666" lon="17.966481363907">
        <ele>51.6</ele>
        <time>2017-10-09T18:35:12Z</time>
      </trkpt>
      <trkpt lat="62.638677564485" lon="17.966447333393">
        <ele>51.6</ele>
        <time>2017-10-09T18:35:13Z</time>
      </trkpt>
      <trkpt lat="62.638677061571" lon="17.96642160096">
        <ele>51.6</ele>
        <time>2017-10-09T18:35:14Z</time>
      </trkpt>
      <trkpt lat="62.638672619164" lon="17.966387905722">
        <ele>51.6</ele>
        <time>2017-10-09T18:35:15Z</time>
      </trkpt>
      <trkpt lat="62.638669098766" lon="17.966370052275">
        <ele>51.4</ele>
        <time>2017-10-09T18:35:16Z</time>
      </trkpt>
      <trkpt lat="62.638664321083" lon="17.966345158032">
        <ele>51.4</ele>
        <time>2017-10-09T18:35:17Z</time>
      </trkpt>
      <trkpt lat="62.63866121978" lon="17.966320515246">
        <ele>51.4</ele>
        <time>2017-10-09T18:35:18Z</time>
      </trkpt>
      <trkpt lat="62.638657280287" lon="17.966298470849">
        <ele>51.4</ele>
        <time>2017-10-09T18:35:19Z</time>
      </trkpt>
      <trkpt lat="62.638653340794" lon="17.966271145855">
        <ele>51.4</ele>
        <time>2017-10-09T18:35:20Z</time>
      </trkpt>
      <trkpt lat="62.638648060197" lon="17.966244575232">
        <ele>51.4</ele>
        <time>2017-10-09T18:35:21Z</time>
      </trkpt>
      <trkpt lat="62.638641438496" lon="17.966223704301">
        <ele>51.6</ele>
        <time>2017-10-09T18:35:22Z</time>
      </trkpt>
      <trkpt lat="62.638638001917" lon="17.966190931072">
        <ele>51.6</ele>
        <time>2017-10-09T18:35:23Z</time>
      </trkpt>
      <trkpt lat="62.638629787655" lon="17.966176178928">
        <ele>51.8</ele>
        <time>2017-10-09T18:35:24Z</time>
      </trkpt>
      <trkpt lat="62.638625093791" lon="17.966143405699">
        <ele>51.8</ele>
        <time>2017-10-09T18:35:25Z</time>
      </trkpt>
      <trkpt lat="62.638617214805" lon="17.966119684922">
        <ele>51.8</ele>
        <time>2017-10-09T18:35:26Z</time>
      </trkpt>
      <trkpt lat="62.638608497629" lon="17.966097640525">
        <ele>51.8</ele>
        <time>2017-10-09T18:35:27Z</time>
      </trkpt>
      <trkpt lat="62.638602881756" lon="17.966077859241">
        <ele>51.8</ele>
        <time>2017-10-09T18:35:28Z</time>
      </trkpt>
      <trkpt lat="62.638597768797" lon="17.966057742681">
        <ele>51.8</ele>
        <time>2017-10-09T18:35:29Z</time>
      </trkpt>
      <trkpt lat="62.638590476544" lon="17.966039134863">
        <ele>51.8</ele>
        <time>2017-10-09T18:35:30Z</time>
      </trkpt>
      <trkpt lat="62.638584190119" lon="17.966016336095">
        <ele>51.8</ele>
        <time>2017-10-09T18:35:31Z</time>
      </trkpt>
      <trkpt lat="62.638576394952" lon="17.965992531499">
        <ele>51.6</ele>
        <time>2017-10-09T18:35:32Z</time>
      </trkpt>
      <trkpt lat="62.63857153345" lon="17.965966882885">
        <ele>51.6</ele>
        <time>2017-10-09T18:35:33Z</time>
      </trkpt>
      <trkpt lat="62.638566420491" lon="17.965951292551">
        <ele>51.6</ele>
        <time>2017-10-09T18:35:34Z</time>
      </trkpt>
      <trkpt lat="62.63855812241" lon="17.96594215628">
        <ele>51.6</ele>
        <time>2017-10-09T18:35:35Z</time>
      </trkpt>
      <trkpt lat="62.63854890232" lon="17.965927571774">
        <ele>51.6</ele>
        <time>2017-10-09T18:35:36Z</time>
      </trkpt>
      <trkpt lat="62.638542364438" lon="17.965912316716">
        <ele>51.6</ele>
        <time>2017-10-09T18:35:37Z</time>
      </trkpt>
      <trkpt lat="62.638531803244" lon="17.965879711125">
        <ele>51.6</ele>
        <time>2017-10-09T18:35:38Z</time>
      </trkpt>
      <trkpt lat="62.638529121036" lon="17.965860181298">
        <ele>51.6</ele>
        <time>2017-10-09T18:35:39Z</time>
      </trkpt>
      <trkpt lat="62.63852375662" lon="17.96584157348">
        <ele>51.8</ele>
        <time>2017-10-09T18:35:40Z</time>
      </trkpt>
      <trkpt lat="62.638514201254" lon="17.965836711978">
        <ele>51.8</ele>
        <time>2017-10-09T18:35:41Z</time>
      </trkpt>
      <trkpt lat="62.638502215137" lon="17.965811985373">
        <ele>51.8</ele>
        <time>2017-10-09T18:35:42Z</time>
      </trkpt>
      <trkpt lat="62.638495341979" lon="17.965789186605">
        <ele>51.8</ele>
        <time>2017-10-09T18:35:43Z</time>
      </trkpt>
      <trkpt lat="62.638488385002" lon="17.965759514679">
        <ele>51.8</ele>
        <time>2017-10-09T18:35:44Z</time>
      </trkpt>
      <trkpt lat="62.638476650342" lon="17.9657393143">
        <ele>51.8</ele>
        <time>2017-10-09T18:35:45Z</time>
      </trkpt>
      <trkpt lat="62.638469525727" lon="17.965710564383">
        <ele>51.8</ele>
        <time>2017-10-09T18:35:46Z</time>
      </trkpt>
      <trkpt lat="62.638459635085" lon="17.965694974049">
        <ele>51.6</ele>
        <time>2017-10-09T18:35:47Z</time>
      </trkpt>
      <trkpt lat="62.638452091375" lon="17.965676617688">
        <ele>51.8</ele>
        <time>2017-10-09T18:35:48Z</time>
      </trkpt>
      <trkpt lat="62.638447816606" lon="17.96565465711">
        <ele>51.8</ele>
        <time>2017-10-09T18:35:49Z</time>
      </trkpt>
      <trkpt lat="62.638441530181" lon="17.965640994613">
        <ele>52</ele>
        <time>2017-10-09T18:35:50Z</time>
      </trkpt>
      <trkpt lat="62.63843574667" lon="17.965625823374">
        <ele>52</ele>
        <time>2017-10-09T18:35:51Z</time>
      </trkpt>
      <trkpt lat="62.638429124969" lon="17.965605120081">
        <ele>52.2</ele>
        <time>2017-10-09T18:35:52Z</time>
      </trkpt>
      <trkpt lat="62.638422084173" lon="17.965575112879">
        <ele>52.2</ele>
        <time>2017-10-09T18:35:53Z</time>
      </trkpt>
      <trkpt lat="62.638413618454" lon="17.965549631903">
        <ele>52.2</ele>
        <time>2017-10-09T18:35:54Z</time>
      </trkpt>
      <trkpt lat="62.638404063088" lon="17.965523815651">
        <ele>52</ele>
        <time>2017-10-09T18:35:55Z</time>
      </trkpt>
      <trkpt lat="62.63839467536" lon="17.965501603616">
        <ele>52.2</ele>
        <time>2017-10-09T18:35:56Z</time>
      </trkpt>
      <trkpt lat="62.638387802202" lon="17.96547779902">
        <ele>52.2</ele>
        <time>2017-10-09T18:35:57Z</time>
      </trkpt>
      <trkpt lat="62.638378582112" lon="17.965458855926">
        <ele>52.2</ele>
        <time>2017-10-09T18:35:58Z</time>
      </trkpt>
      <trkpt lat="62.638371708954" lon="17.965441505393">
        <ele>52.2</ele>
        <time>2017-10-09T18:35:59Z</time>
      </trkpt>
      <trkpt lat="62.638366093081" lon="17.965426920887">
        <ele>52.4</ele>
        <time>2017-10-09T18:36:00Z</time>
      </trkpt>
      <trkpt lat="62.638353520231" lon="17.965403367748">
        <ele>52.2</ele>
        <time>2017-10-09T18:36:01Z</time>
      </trkpt>
      <trkpt lat="62.63834606034" lon="17.965377802953">
        <ele>52.2</ele>
        <time>2017-10-09T18:36:02Z</time>
      </trkpt>
      <trkpt lat="62.638336504974" lon="17.9653537469">
        <ele>52.4</ele>
        <time>2017-10-09T18:36:03Z</time>
      </trkpt>
      <trkpt lat="62.63832929654" lon="17.965330361399">
        <ele>52.4</ele>
        <time>2017-10-09T18:36:04Z</time>
      </trkpt>
      <trkpt lat="62.638320244088" lon="17.965302114396">
        <ele>52.4</ele>
        <time>2017-10-09T18:36:05Z</time>
      </trkpt>
      <trkpt lat="62.638311023998" lon="17.965280153818">
        <ele>52.4</ele>
        <time>2017-10-09T18:36:06Z</time>
      </trkpt>
      <trkpt lat="62.63830163627" lon="17.965256600679">
        <ele>52.4</ele>
        <time>2017-10-09T18:36:07Z</time>
      </trkpt>
      <trkpt lat="62.638295685121" lon="17.965233382816">
        <ele>52.2</ele>
        <time>2017-10-09T18:36:08Z</time>
      </trkpt>
      <trkpt lat="62.638288644325" lon="17.965216954292">
        <ele>52</ele>
        <time>2017-10-09T18:36:09Z</time>
      </trkpt>
      <trkpt lat="62.638281268253" lon="17.965198933207">
        <ele>51.8</ele>
        <time>2017-10-09T18:36:10Z</time>
      </trkpt>
      <trkpt lat="62.63827313781" lon="17.965172781679">
        <ele>51.8</ele>
        <time>2017-10-09T18:36:11Z</time>
      </trkpt>
      <trkpt lat="62.638265929376" lon="17.965151491653">
        <ele>51.6</ele>
        <time>2017-10-09T18:36:12Z</time>
      </trkpt>
      <trkpt lat="62.638258218028" lon="17.965130620722">
        <ele>51.6</ele>
        <time>2017-10-09T18:36:13Z</time>
      </trkpt>
      <trkpt lat="62.638249500852" lon="17.965108827782">
        <ele>51.6</ele>
        <time>2017-10-09T18:36:14Z</time>
      </trkpt>
      <trkpt lat="62.638240616038" lon="17.965085861376">
        <ele>52</ele>
        <time>2017-10-09T18:36:15Z</time>
      </trkpt>
      <trkpt lat="62.638233323785" lon="17.965062308237">
        <ele>52.2</ele>
        <time>2017-10-09T18:36:16Z</time>
      </trkpt>
      <trkpt lat="62.638224355152" lon="17.965034899424">
        <ele>52.4</ele>
        <time>2017-10-09T18:36:17Z</time>
      </trkpt>
      <trkpt lat="62.638216811442" lon="17.965010759552">
        <ele>52.4</ele>
        <time>2017-10-09T18:36:18Z</time>
      </trkpt>
      <trkpt lat="62.638208764818" lon="17.964984021291">
        <ele>52.6</ele>
        <time>2017-10-09T18:36:19Z</time>
      </trkpt>
      <trkpt lat="62.638198957995" lon="17.964964491464">
        <ele>52.4</ele>
        <time>2017-10-09T18:36:20Z</time>
      </trkpt>
      <trkpt lat="62.638191498104" lon="17.964939429583">
        <ele>52.2</ele>
        <time>2017-10-09T18:36:21Z</time>
      </trkpt>
      <trkpt lat="62.638186301326" lon="17.964918307195">
        <ele>52</ele>
        <time>2017-10-09T18:36:22Z</time>
      </trkpt>
      <trkpt lat="62.638178673797" lon="17.964895424608">
        <ele>52</ele>
        <time>2017-10-09T18:36:23Z</time>
      </trkpt>
      <trkpt lat="62.6381733932" lon="17.964873128754">
        <ele>51.8</ele>
        <time>2017-10-09T18:36:24Z</time>
      </trkpt>
      <trkpt lat="62.638166939137" lon="17.9648508329">
        <ele>51.6</ele>
        <time>2017-10-09T18:36:25Z</time>
      </trkpt>
      <trkpt lat="62.638160317436" lon="17.964818814042">
        <ele>51.6</ele>
        <time>2017-10-09T18:36:26Z</time>
      </trkpt>
      <trkpt lat="62.638153863373" lon="17.964798194568">
        <ele>51.8</ele>
        <time>2017-10-09T18:36:27Z</time>
      </trkpt>
      <trkpt lat="62.638149840061" lon="17.964781430768">
        <ele>52</ele>
        <time>2017-10-09T18:36:28Z</time>
      </trkpt>
      <trkpt lat="62.638146654939" lon="17.964767935909">
        <ele>52</ele>
        <time>2017-10-09T18:36:29Z</time>
      </trkpt>
      <trkpt lat="62.638149756242" lon="17.964780257302">
        <ele>52.4</ele>
        <time>2017-10-09T18:36:31Z</time>
      </trkpt>
      <trkpt lat="62.637991003056" lon="17.964541289333">
        <ele>51.6</ele>
        <time>2017-10-09T18:36:59Z</time>
      </trkpt>
      <trkpt lat="62.637958397465" lon="17.964519412574">
        <ele>51.4</ele>
        <time>2017-10-09T18:37:00Z</time>
      </trkpt>
      <trkpt lat="62.637911710282" lon="17.964506085353">
        <ele>51.4</ele>
        <time>2017-10-09T18:37:01Z</time>
      </trkpt>
      <trkpt lat="62.637874662284" lon="17.96449963129">
        <ele>51.4</ele>
        <time>2017-10-09T18:37:02Z</time>
      </trkpt>
      <trkpt lat="62.637839709761" lon="17.964504325154">
        <ele>51.6</ele>
        <time>2017-10-09T18:37:03Z</time>
      </trkpt>
      <trkpt lat="62.637804002867" lon="17.964509354294">
        <ele>51.6</ele>
        <time>2017-10-09T18:37:04Z</time>
      </trkpt>
      <trkpt lat="62.637766200498" lon="17.964537182202">
        <ele>51.6</ele>
        <time>2017-10-09T18:37:05Z</time>
      </trkpt>
      <trkpt lat="62.637729487776" lon="17.964574314019">
        <ele>51.6</ele>
        <time>2017-10-09T18:37:06Z</time>
      </trkpt>
      <trkpt lat="62.637700151126" lon="17.964610775284">
        <ele>51.4</ele>
        <time>2017-10-09T18:37:07Z</time>
      </trkpt>
      <trkpt lat="62.637667377897" lon="17.964658971209">
        <ele>51.2</ele>
        <time>2017-10-09T18:37:08Z</time>
      </trkpt>
      <trkpt lat="62.637646255509" lon="17.964708675876">
        <ele>51.2</ele>
        <time>2017-10-09T18:37:09Z</time>
      </trkpt>
      <trkpt lat="62.637626809501" lon="17.964766343348">
        <ele>51.2</ele>
        <time>2017-10-09T18:37:10Z</time>
      </trkpt>
      <trkpt lat="62.637605854751" lon="17.964833482367">
        <ele>51</ele>
        <time>2017-10-09T18:37:11Z</time>
      </trkpt>
      <trkpt lat="62.637588671856" lon="17.964904560879">
        <ele>51</ele>
        <time>2017-10-09T18:37:12Z</time>
      </trkpt>
      <trkpt lat="62.637580960508" lon="17.964973292459">
        <ele>51.2</ele>
        <time>2017-10-09T18:37:13Z</time>
      </trkpt>
      <trkpt lat="62.637569393486" lon="17.96504110203">
        <ele>51.4</ele>
        <time>2017-10-09T18:37:14Z</time>
      </trkpt>
      <trkpt lat="62.63756235269" lon="17.965116371492">
        <ele>51.4</ele>
        <time>2017-10-09T18:37:15Z</time>
      </trkpt>
      <trkpt lat="62.6375615145" lon="17.965197675922">
        <ele>51.4</ele>
        <time>2017-10-09T18:37:16Z</time>
      </trkpt>
      <trkpt lat="62.637569309667" lon="17.965274873221">
        <ele>51.4</ele>
        <time>2017-10-09T18:37:17Z</time>
      </trkpt>
      <trkpt lat="62.637572662427" lon="17.965359446592">
        <ele>51</ele>
        <time>2017-10-09T18:37:18Z</time>
      </trkpt>
      <trkpt lat="62.637582804526" lon="17.965423987222">
        <ele>50.4</ele>
        <time>2017-10-09T18:37:19Z</time>
      </trkpt>
      <trkpt lat="62.637597389032" lon="17.965503028539">
        <ele>50</ele>
        <time>2017-10-09T18:37:20Z</time>
      </trkpt>
      <trkpt lat="62.637616415945" lon="17.96556664716">
        <ele>49.8</ele>
        <time>2017-10-09T18:37:21Z</time>
      </trkpt>
      <trkpt lat="62.63763527522" lon="17.965642000441">
        <ele>49.6</ele>
        <time>2017-10-09T18:37:22Z</time>
      </trkpt>
      <trkpt lat="62.637658493083" lon="17.965697991533">
        <ele>49.4</ele>
        <time>2017-10-09T18:37:23Z</time>
      </trkpt>
      <trkpt lat="62.637679447833" lon="17.96575775448">
        <ele>49.6</ele>
        <time>2017-10-09T18:37:24Z</time>
      </trkpt>
      <trkpt lat="62.637697720375" lon="17.965815421952">
        <ele>49.8</ele>
        <time>2017-10-09T18:37:25Z</time>
      </trkpt>
      <trkpt lat="62.637721273514" lon="17.965876106908">
        <ele>49.6</ele>
        <time>2017-10-09T18:37:26Z</time>
      </trkpt>
      <trkpt lat="62.637742647359" lon="17.96593461257">
        <ele>49.4</ele>
        <time>2017-10-09T18:37:27Z</time>
      </trkpt>
      <trkpt lat="62.637760836082" lon="17.965990016929">
        <ele>49.6</ele>
        <time>2017-10-09T18:37:28Z</time>
      </trkpt>
      <trkpt lat="62.637780030633" lon="17.96605531193">
        <ele>49.6</ele>
        <time>2017-10-09T18:37:29Z</time>
      </trkpt>
      <trkpt lat="62.637801404478" lon="17.966116583619">
        <ele>50</ele>
        <time>2017-10-09T18:37:30Z</time>
      </trkpt>
      <trkpt lat="62.637823616513" lon="17.966180705154">
        <ele>50.4</ele>
        <time>2017-10-09T18:37:31Z</time>
      </trkpt>
      <trkpt lat="62.637844235987" lon="17.966237366798">
        <ele>50.6</ele>
        <time>2017-10-09T18:37:32Z</time>
      </trkpt>
      <trkpt lat="62.63786577747" lon="17.96629503427">
        <ele>50.8</ele>
        <time>2017-10-09T18:37:33Z</time>
      </trkpt>
      <trkpt lat="62.637883714736" lon="17.966354629579">
        <ele>50.8</ele>
        <time>2017-10-09T18:37:34Z</time>
      </trkpt>
      <trkpt lat="62.637905088581" lon="17.966416823277">
        <ele>50.6</ele>
        <time>2017-10-09T18:37:35Z</time>
      </trkpt>
      <trkpt lat="62.63792445077" lon="17.966480358079">
        <ele>50.4</ele>
        <time>2017-10-09T18:37:36Z</time>
      </trkpt>
      <trkpt lat="62.637944315873" lon="17.966535427162">
        <ele>50.2</ele>
        <time>2017-10-09T18:37:37Z</time>
      </trkpt>
      <trkpt lat="62.637964180976" lon="17.966601644172">
        <ele>50</ele>
        <time>2017-10-09T18:37:38Z</time>
      </trkpt>
      <trkpt lat="62.637981280052" lon="17.966658389635">
        <ele>50.2</ele>
        <time>2017-10-09T18:37:39Z</time>
      </trkpt>
      <trkpt lat="62.638001731888" lon="17.966714799822">
        <ele>50.6</ele>
        <time>2017-10-09T18:37:40Z</time>
      </trkpt>
      <trkpt lat="62.638020591163" lon="17.966789314913">
        <ele>50.8</ele>
        <time>2017-10-09T18:37:41Z</time>
      </trkpt>
      <trkpt lat="62.638043725207" lon="17.966843964901">
        <ele>50.6</ele>
        <time>2017-10-09T18:37:42Z</time>
      </trkpt>
      <trkpt lat="62.638062584482" lon="17.96691110392">
        <ele>50.6</ele>
        <time>2017-10-09T18:37:43Z</time>
      </trkpt>
      <trkpt lat="62.638080186472" lon="17.96696139532">
        <ele>50.6</ele>
        <time>2017-10-09T18:37:44Z</time>
      </trkpt>
      <trkpt lat="62.638102566145" lon="17.967029540167">
        <ele>50.4</ele>
        <time>2017-10-09T18:37:45Z</time>
      </trkpt>
      <trkpt lat="62.638125281094" lon="17.967082681413">
        <ele>50.4</ele>
        <time>2017-10-09T18:37:46Z</time>
      </trkpt>
      <trkpt lat="62.638150007699" lon="17.967135152107">
        <ele>50.6</ele>
        <time>2017-10-09T18:37:47Z</time>
      </trkpt>
      <trkpt lat="62.638174650485" lon="17.967173038295">
        <ele>50.8</ele>
        <time>2017-10-09T18:37:48Z</time>
      </trkpt>
      <trkpt lat="62.638203065126" lon="17.967200195651">
        <ele>50.8</ele>
        <time>2017-10-09T18:37:49Z</time>
      </trkpt>
      <trkpt lat="62.638233407604" lon="17.967231376319">
        <ele>51</ele>
        <time>2017-10-09T18:37:50Z</time>
      </trkpt>
      <trkpt lat="62.638265091186" lon="17.967246631377">
        <ele>51</ele>
        <time>2017-10-09T18:37:51Z</time>
      </trkpt>
      <trkpt lat="62.638296942406" lon="17.967262221711">
        <ele>51</ele>
        <time>2017-10-09T18:37:52Z</time>
      </trkpt>
      <trkpt lat="62.638333738947" lon="17.967269597783">
        <ele>51.2</ele>
        <time>2017-10-09T18:37:53Z</time>
      </trkpt>
      <trkpt lat="62.638360644846" lon="17.967261551159">
        <ele>51.2</ele>
        <time>2017-10-09T18:37:54Z</time>
      </trkpt>
      <trkpt lat="62.638392076971" lon="17.967253420716">
        <ele>51.4</ele>
        <time>2017-10-09T18:37:55Z</time>
      </trkpt>
      <trkpt lat="62.638423509096" lon="17.967235818726">
        <ele>51.6</ele>
        <time>2017-10-09T18:37:56Z</time>
      </trkpt>
      <trkpt lat="62.638455695592" lon="17.967206649714">
        <ele>51.8</ele>
        <time>2017-10-09T18:37:57Z</time>
      </trkpt>
      <trkpt lat="62.638482266215" lon="17.967179073263">
        <ele>51.8</ele>
        <time>2017-10-09T18:37:58Z</time>
      </trkpt>
      <trkpt lat="62.638513782159" lon="17.967140265066">
        <ele>52</ele>
        <time>2017-10-09T18:37:59Z</time>
      </trkpt>
      <trkpt lat="62.638540352782" lon="17.967091985322">
        <ele>51.8</ele>
        <time>2017-10-09T18:38:00Z</time>
      </trkpt>
      <trkpt lat="62.638568348328" lon="17.967047477433">
        <ele>51.8</ele>
        <time>2017-10-09T18:38:01Z</time>
      </trkpt>
      <trkpt lat="62.638593494028" lon="17.966995677291">
        <ele>51.8</ele>
        <time>2017-10-09T18:38:02Z</time>
      </trkpt>
      <trkpt lat="62.638613191493" lon="17.966936081982">
        <ele>51.8</ele>
        <time>2017-10-09T18:38:03Z</time>
      </trkpt>
      <trkpt lat="62.638628614189" lon="17.966875648483">
        <ele>52</ele>
        <time>2017-10-09T18:38:04Z</time>
      </trkpt>
      <trkpt lat="62.638644707437" lon="17.966808425645">
        <ele>52.2</ele>
        <time>2017-10-09T18:38:05Z</time>
      </trkpt>
      <trkpt lat="62.638655855364" lon="17.966737347133">
        <ele>52.2</ele>
        <time>2017-10-09T18:38:06Z</time>
      </trkpt>
      <trkpt lat="62.63866205797" lon="17.966674231426">
        <ele>52</ele>
        <time>2017-10-09T18:38:07Z</time>
      </trkpt>
      <trkpt lat="62.638666416558" lon="17.966597788498">
        <ele>52.6</ele>
        <time>2017-10-09T18:38:08Z</time>
      </trkpt>
      <trkpt lat="62.638664740178" lon="17.966528386366">
        <ele>52.6</ele>
        <time>2017-10-09T18:38:09Z</time>
      </trkpt>
      <trkpt lat="62.638663063798" lon="17.966460409157">
        <ele>52.6</ele>
        <time>2017-10-09T18:38:10Z</time>
      </trkpt>
      <trkpt lat="62.638656442097" lon="17.966371812474">
        <ele>52.6</ele>
        <time>2017-10-09T18:38:11Z</time>
      </trkpt>
      <trkpt lat="62.638642947238" lon="17.966307188025">
        <ele>52.4</ele>
        <time>2017-10-09T18:38:12Z</time>
      </trkpt>
      <trkpt lat="62.638632386044" lon="17.966253208589">
        <ele>52.4</ele>
        <time>2017-10-09T18:38:13Z</time>
      </trkpt>
      <trkpt lat="62.638614532597" lon="17.966177771489">
        <ele>52.4</ele>
        <time>2017-10-09T18:38:14Z</time>
      </trkpt>
      <trkpt lat="62.638593913123" lon="17.966117086533">
        <ele>52.2</ele>
        <time>2017-10-09T18:38:15Z</time>
      </trkpt>
      <trkpt lat="62.638576478771" lon="17.966056904491">
        <ele>52.2</ele>
        <time>2017-10-09T18:38:16Z</time>
      </trkpt>
      <trkpt lat="62.638552003623" lon="17.966002757417">
        <ele>52.2</ele>
        <time>2017-10-09T18:38:17Z</time>
      </trkpt>
      <trkpt lat="62.638532054701" lon="17.965942407737">
        <ele>52.4</ele>
        <time>2017-10-09T18:38:18Z</time>
      </trkpt>
      <trkpt lat="62.638514871806" lon="17.965893457441">
        <ele>52.4</ele>
        <time>2017-10-09T18:38:19Z</time>
      </trkpt>
      <trkpt lat="62.638495090522" lon="17.965833862132">
        <ele>52.2</ele>
        <time>2017-10-09T18:38:20Z</time>
      </trkpt>
      <trkpt lat="62.638475393057" lon="17.965775859384">
        <ele>52.2</ele>
        <time>2017-10-09T18:38:21Z</time>
      </trkpt>
      <trkpt lat="62.63846005418" lon="17.965724310699">
        <ele>52.4</ele>
        <time>2017-10-09T18:38:22Z</time>
      </trkpt>
      <trkpt lat="62.638438680335" lon="17.965664799209">
        <ele>52.4</ele>
        <time>2017-10-09T18:38:23Z</time>
      </trkpt>
      <trkpt lat="62.63842065925" lon="17.96561777675">
        <ele>52.4</ele>
        <time>2017-10-09T18:38:24Z</time>
      </trkpt>
      <trkpt lat="62.638399620681" lon="17.965558935812">
        <ele>52.6</ele>
        <time>2017-10-09T18:38:25Z</time>
      </trkpt>
      <trkpt lat="62.638379923216" lon="17.965504453462">
        <ele>52.8</ele>
        <time>2017-10-09T18:38:26Z</time>
      </trkpt>
      <trkpt lat="62.638357795" lon="17.965449635836">
        <ele>52.6</ele>
        <time>2017-10-09T18:38:27Z</time>
      </trkpt>
      <trkpt lat="62.638340444467" lon="17.965387693595">
        <ele>52.6</ele>
        <time>2017-10-09T18:38:28Z</time>
      </trkpt>
      <trkpt lat="62.638317813337" lon="17.965337318376">
        <ele>52.6</ele>
        <time>2017-10-09T18:38:29Z</time>
      </trkpt>
      <trkpt lat="62.638294846931" lon="17.965277723067">
        <ele>52.4</ele>
        <time>2017-10-09T18:38:30Z</time>
      </trkpt>
      <trkpt lat="62.63827313781" lon="17.965221815794">
        <ele>52.2</ele>
        <time>2017-10-09T18:38:31Z</time>
      </trkpt>
      <trkpt lat="62.638250925775" lon="17.965164232141">
        <ele>52.2</ele>
        <time>2017-10-09T18:38:32Z</time>
      </trkpt>
      <trkpt lat="62.638229635749" lon="17.965106145574">
        <ele>52.2</ele>
        <time>2017-10-09T18:38:33Z</time>
      </trkpt>
      <trkpt lat="62.638211782302" lon="17.965061050952">
        <ele>52.2</ele>
        <time>2017-10-09T18:38:34Z</time>
      </trkpt>
      <trkpt lat="62.638191330466" lon="17.964988966612">
        <ele>52.2</ele>
        <time>2017-10-09T18:38:35Z</time>
      </trkpt>
      <trkpt lat="62.638172722648" lon="17.964934316624">
        <ele>52.2</ele>
        <time>2017-10-09T18:38:36Z</time>
      </trkpt>
      <trkpt lat="62.63815411483" lon="17.964879247541">
        <ele>52.2</ele>
        <time>2017-10-09T18:38:37Z</time>
      </trkpt>
      <trkpt lat="62.63813316008" lon="17.964822166802">
        <ele>52</ele>
        <time>2017-10-09T18:38:38Z</time>
      </trkpt>
      <trkpt lat="62.638114803719" lon="17.964775563438">
        <ele>52</ele>
        <time>2017-10-09T18:38:39Z</time>
      </trkpt>
      <trkpt lat="62.63809376515" lon="17.964726445504">
        <ele>52</ele>
        <time>2017-10-09T18:38:40Z</time>
      </trkpt>
      <trkpt lat="62.638065099052" lon="17.964686631479">
        <ele>51.8</ele>
        <time>2017-10-09T18:38:41Z</time>
      </trkpt>
      <trkpt lat="62.638036852049" lon="17.964634998975">
        <ele>51.6</ele>
        <time>2017-10-09T18:38:42Z</time>
      </trkpt>
      <trkpt lat="62.638012376901" lon="17.964597867158">
        <ele>51.4</ele>
        <time>2017-10-09T18:38:43Z</time>
      </trkpt>
      <trkpt lat="62.637983375527" lon="17.964573811105">
        <ele>51.6</ele>
        <time>2017-10-09T18:38:44Z</time>
      </trkpt>
      <trkpt lat="62.637942974769" lon="17.964551682889">
        <ele>51.6</ele>
        <time>2017-10-09T18:38:45Z</time>
      </trkpt>
      <trkpt lat="62.637915901232" lon="17.964546737568">
        <ele>51.6</ele>
        <time>2017-10-09T18:38:46Z</time>
      </trkpt>
      <trkpt lat="62.637874829922" lon="17.964541037876">
        <ele>51.6</ele>
        <time>2017-10-09T18:38:47Z</time>
      </trkpt>
      <trkpt lat="62.637846080005" lon="17.964542462799">
        <ele>51.6</ele>
        <time>2017-10-09T18:38:48Z</time>
      </trkpt>
      <trkpt lat="62.637817665364" lon="17.964553443088">
        <ele>51.6</ele>
        <time>2017-10-09T18:38:49Z</time>
      </trkpt>
      <trkpt lat="62.637784305402" lon="17.964569871612">
        <ele>51.6</ele>
        <time>2017-10-09T18:38:50Z</time>
      </trkpt>
      <trkpt lat="62.637753376191" lon="17.964591580733">
        <ele>51.6</ele>
        <time>2017-10-09T18:38:51Z</time>
      </trkpt>
      <trkpt lat="62.637723368989" lon="17.96462116884">
        <ele>51.6</ele>
        <time>2017-10-09T18:38:52Z</time>
      </trkpt>
      <trkpt lat="62.637697468918" lon="17.964659977037">
        <ele>51.6</ele>
        <time>2017-10-09T18:38:53Z</time>
      </trkpt>
      <trkpt lat="62.637673077589" lon="17.964708843514">
        <ele>51.6</ele>
        <time>2017-10-09T18:38:54Z</time>
      </trkpt>
      <trkpt lat="62.637654050676" lon="17.964757207077">
        <ele>51.4</ele>
        <time>2017-10-09T18:38:55Z</time>
      </trkpt>
      <trkpt lat="62.637625971311" lon="17.964812359979">
        <ele>51.6</ele>
        <time>2017-10-09T18:38:56Z</time>
      </trkpt>
      <trkpt lat="62.637607112036" lon="17.964862986655">
        <ele>51.4</ele>
        <time>2017-10-09T18:38:57Z</time>
      </trkpt>
      <trkpt lat="62.637593784815" lon="17.964907578363">
        <ele>51.4</ele>
        <time>2017-10-09T18:38:58Z</time>
      </trkpt>
      <trkpt lat="62.637580541413" lon="17.964973460097">
        <ele>51.4</ele>
        <time>2017-10-09T18:38:59Z</time>
      </trkpt>
      <trkpt lat="62.637574422626" lon="17.965055602717">
        <ele>51.4</ele>
        <time>2017-10-09T18:39:00Z</time>
      </trkpt>
      <trkpt lat="62.637566292183" lon="17.965129447256">
        <ele>51.4</ele>
        <time>2017-10-09T18:39:01Z</time>
      </trkpt>
      <trkpt lat="62.637563442337" lon="17.96519281442">
        <ele>51.4</ele>
        <time>2017-10-09T18:39:02Z</time>
      </trkpt>
      <trkpt lat="62.637561179224" lon="17.965269173529">
        <ele>51.2</ele>
        <time>2017-10-09T18:39:03Z</time>
      </trkpt>
      <trkpt lat="62.637566292183" lon="17.965327930648">
        <ele>51.2</ele>
        <time>2017-10-09T18:39:04Z</time>
      </trkpt>
      <trkpt lat="62.63757324916" lon="17.965408061612">
        <ele>51</ele>
        <time>2017-10-09T18:39:05Z</time>
      </trkpt>
      <trkpt lat="62.637581379603" lon="17.96548198997">
        <ele>50.8</ele>
        <time>2017-10-09T18:39:06Z</time>
      </trkpt>
      <trkpt lat="62.637595628833" lon="17.965541333822">
        <ele>50.6</ele>
        <time>2017-10-09T18:39:07Z</time>
      </trkpt>
      <trkpt lat="62.637613314642" lon="17.965605539176">
        <ele>50.4</ele>
        <time>2017-10-09T18:39:08Z</time>
      </trkpt>
      <trkpt lat="62.637629575528" lon="17.965649292694">
        <ele>50</ele>
        <time>2017-10-09T18:39:09Z</time>
      </trkpt>
      <trkpt lat="62.637645584957" lon="17.965705870519">
        <ele>49.6</ele>
        <time>2017-10-09T18:39:10Z</time>
      </trkpt>
      <trkpt lat="62.63766628825" lon="17.965761693973">
        <ele>49.2</ele>
        <time>2017-10-09T18:39:11Z</time>
      </trkpt>
      <trkpt lat="62.63768472843" lon="17.965810308993">
        <ele>49</ele>
        <time>2017-10-09T18:39:12Z</time>
      </trkpt>
      <trkpt lat="62.637702581877" lon="17.965864875162">
        <ele>49</ele>
        <time>2017-10-09T18:39:13Z</time>
      </trkpt>
      <trkpt lat="62.63771825603" lon="17.965899743866">
        <ele>49.2</ele>
        <time>2017-10-09T18:39:14Z</time>
      </trkpt>
      <trkpt lat="62.637736193296" lon="17.965954058578">
        <ele>49.4</ele>
        <time>2017-10-09T18:39:15Z</time>
      </trkpt>
      <trkpt lat="62.637754968752" lon="17.966010636403">
        <ele>49.4</ele>
        <time>2017-10-09T18:39:16Z</time>
      </trkpt>
      <trkpt lat="62.637774917674" lon="17.96605866469">
        <ele>49.4</ele>
        <time>2017-10-09T18:39:17Z</time>
      </trkpt>
      <trkpt lat="62.637793274035" lon="17.966118511456">
        <ele>49.6</ele>
        <time>2017-10-09T18:39:18Z</time>
      </trkpt>
      <trkpt lat="62.637810289292" lon="17.966163270802">
        <ele>49.8</ele>
        <time>2017-10-09T18:39:19Z</time>
      </trkpt>
      <trkpt lat="62.637830741128" lon="17.966220183903">
        <ele>49.6</ele>
        <time>2017-10-09T18:39:20Z</time>
      </trkpt>
      <trkpt lat="62.637849600403" lon="17.966275839719">
        <ele>49.8</ele>
        <time>2017-10-09T18:39:21Z</time>
      </trkpt>
      <trkpt lat="62.637867789126" lon="17.966322359264">
        <ele>50.2</ele>
        <time>2017-10-09T18:39:22Z</time>
      </trkpt>
      <trkpt lat="62.637888576238" lon="17.966384301505">
        <ele>50.2</ele>
        <time>2017-10-09T18:39:23Z</time>
      </trkpt>
      <trkpt lat="62.63790433421" lon="17.966427552109">
        <ele>50.4</ele>
        <time>2017-10-09T18:39:24Z</time>
      </trkpt>
      <trkpt lat="62.637922690571" lon="17.966477005319">
        <ele>50.4</ele>
        <time>2017-10-09T18:39:25Z</time>
      </trkpt>
      <trkpt lat="62.637943058588" lon="17.966536600628">
        <ele>50.4</ele>
        <time>2017-10-09T18:39:26Z</time>
      </trkpt>
      <trkpt lat="62.63796133113" lon="17.966584461277">
        <ele>50</ele>
        <time>2017-10-09T18:39:27Z</time>
      </trkpt>
      <trkpt lat="62.637979687491" lon="17.966633076297">
        <ele>50</ele>
        <time>2017-10-09T18:39:28Z</time>
      </trkpt>
      <trkpt lat="62.638000223146" lon="17.966687977742">
        <ele>50</ele>
        <time>2017-10-09T18:39:29Z</time>
      </trkpt>
      <trkpt lat="62.638016986946" lon="17.966740699893">
        <ele>50.2</ele>
        <time>2017-10-09T18:39:30Z</time>
      </trkpt>
      <trkpt lat="62.638035008031" lon="17.96679711008">
        <ele>50.2</ele>
        <time>2017-10-09T18:39:31Z</time>
      </trkpt>
      <trkpt lat="62.63805353203" lon="17.966849245498">
        <ele>50.2</ele>
        <time>2017-10-09T18:39:32Z</time>
      </trkpt>
      <trkpt lat="62.638073313314" lon="17.966907499703">
        <ele>50.6</ele>
        <time>2017-10-09T18:39:33Z</time>
      </trkpt>
      <trkpt lat="62.638090915304" lon="17.966954354524">
        <ele>50.8</ele>
        <time>2017-10-09T18:39:34Z</time>
      </trkpt>
      <trkpt lat="62.63811052895" lon="17.967015542394">
        <ele>50.6</ele>
        <time>2017-10-09T18:39:35Z</time>
      </trkpt>
      <trkpt lat="62.638131148424" lon="17.967070108563">
        <ele>50.8</ele>
        <time>2017-10-09T18:39:36Z</time>
      </trkpt>
      <trkpt lat="62.638152773726" lon="17.96711478409">
        <ele>51</ele>
        <time>2017-10-09T18:39:37Z</time>
      </trkpt>
      <trkpt lat="62.638182110376" lon="17.967159124341">
        <ele>51.2</ele>
        <time>2017-10-09T18:39:38Z</time>
      </trkpt>
      <trkpt lat="62.638206585524" lon="17.967185024412">
        <ele>51</ele>
        <time>2017-10-09T18:39:39Z</time>
      </trkpt>
      <trkpt lat="62.638233659061" lon="17.967214361062">
        <ele>51</ele>
        <time>2017-10-09T18:39:40Z</time>
      </trkpt>
      <trkpt lat="62.638267438118" lon="17.967243697712">
        <ele>51.2</ele>
        <time>2017-10-09T18:39:41Z</time>
      </trkpt>
      <trkpt lat="62.638300546623" lon="17.96725140906">
        <ele>51.2</ele>
        <time>2017-10-09T18:39:42Z</time>
      </trkpt>
      <trkpt lat="62.638334074223" lon="17.967262054073">
        <ele>51.4</ele>
        <time>2017-10-09T18:39:43Z</time>
      </trkpt>
      <trkpt lat="62.638362572683" lon="17.96725895277">
        <ele>51.2</ele>
        <time>2017-10-09T18:39:44Z</time>
      </trkpt>
      <trkpt lat="62.638395094455" lon="17.967245709368">
        <ele>51.2</ele>
        <time>2017-10-09T18:39:45Z</time>
      </trkpt>
      <trkpt lat="62.638426107485" lon="17.967231041043">
        <ele>51.2</ele>
        <time>2017-10-09T18:39:46Z</time>
      </trkpt>
      <trkpt lat="62.638455527954" lon="17.96720782318">
        <ele>51.4</ele>
        <time>2017-10-09T18:39:47Z</time>
      </trkpt>
      <trkpt lat="62.638488133545" lon="17.967185359688">
        <ele>51.4</ele>
        <time>2017-10-09T18:39:48Z</time>
      </trkpt>
      <trkpt lat="62.638514033616" lon="17.967155352486">
        <ele>51.4</ele>
        <time>2017-10-09T18:39:49Z</time>
      </trkpt>
      <trkpt lat="62.638545214284" lon="17.967117550117">
        <ele>51.4</ele>
        <time>2017-10-09T18:39:50Z</time>
      </trkpt>
      <trkpt lat="62.638571365812" lon="17.967072790771">
        <ele>51.4</ele>
        <time>2017-10-09T18:39:51Z</time>
      </trkpt>
      <trkpt lat="62.638591147096" lon="17.967026271226">
        <ele>51.2</ele>
        <time>2017-10-09T18:39:52Z</time>
      </trkpt>
      <trkpt lat="62.638616879529" lon="17.96697229179">
        <ele>51.4</ele>
        <time>2017-10-09T18:39:53Z</time>
      </trkpt>
      <trkpt lat="62.638632050768" lon="17.96691529487">
        <ele>51.8</ele>
        <time>2017-10-09T18:39:54Z</time>
      </trkpt>
      <trkpt lat="62.638648898387" lon="17.966845641281">
        <ele>52</ele>
        <time>2017-10-09T18:39:55Z</time>
      </trkpt>
      <trkpt lat="62.638660884504" lon="17.966772634932">
        <ele>52</ele>
        <time>2017-10-09T18:39:56Z</time>
      </trkpt>
      <trkpt lat="62.638668428214" lon="17.966707004655">
        <ele>52.2</ele>
        <time>2017-10-09T18:39:57Z</time>
      </trkpt>
      <trkpt lat="62.638675552829" lon="17.966631316098">
        <ele>52.2</ele>
        <time>2017-10-09T18:39:58Z</time>
      </trkpt>
      <trkpt lat="62.63867546901" lon="17.966565937278">
        <ele>52.2</ele>
        <time>2017-10-09T18:39:59Z</time>
      </trkpt>
      <trkpt lat="62.638675552829" lon="17.966498295345">
        <ele>52.2</ele>
        <time>2017-10-09T18:40:00Z</time>
      </trkpt>
      <trkpt lat="62.638672786802" lon="17.966427133014">
        <ele>52.2</ele>
        <time>2017-10-09T18:40:01Z</time>
      </trkpt>
      <trkpt lat="62.638663650531" lon="17.966363179117">
        <ele>52.2</ele>
        <time>2017-10-09T18:40:02Z</time>
      </trkpt>
      <trkpt lat="62.638651832052" lon="17.966295621003">
        <ele>52.2</ele>
        <time>2017-10-09T18:40:03Z</time>
      </trkpt>
      <trkpt lat="62.638642360505" lon="17.966244575232">
        <ele>52.4</ele>
        <time>2017-10-09T18:40:04Z</time>
      </trkpt>
      <trkpt lat="62.638625764343" lon="17.966178609679">
        <ele>52.2</ele>
        <time>2017-10-09T18:40:05Z</time>
      </trkpt>
      <trkpt lat="62.638607743258" lon="17.966118092361">
        <ele>52.4</ele>
        <time>2017-10-09T18:40:06Z</time>
      </trkpt>
      <trkpt lat="62.63858745906" lon="17.966066040762">
        <ele>52.6</ele>
        <time>2017-10-09T18:40:07Z</time>
      </trkpt>
      <trkpt lat="62.638571784907" lon="17.966014492077">
        <ele>52.4</ele>
        <time>2017-10-09T18:40:08Z</time>
      </trkpt>
      <trkpt lat="62.638554266736" lon="17.965962608116">
        <ele>52.4</ele>
        <time>2017-10-09T18:40:09Z</time>
      </trkpt>
      <trkpt lat="62.638537419117" lon="17.965915166562">
        <ele>52.4</ele>
        <time>2017-10-09T18:40:10Z</time>
      </trkpt>
      <trkpt lat="62.638519398032" lon="17.965859594565">
        <ele>52.2</ele>
        <time>2017-10-09T18:40:11Z</time>
      </trkpt>
      <trkpt lat="62.638500874033" lon="17.965804106387">
        <ele>52.2</ele>
        <time>2017-10-09T18:40:12Z</time>
      </trkpt>
      <trkpt lat="62.638483188224" lon="17.965750043132">
        <ele>52.4</ele>
        <time>2017-10-09T18:40:13Z</time>
      </trkpt>
      <trkpt lat="62.638464664225" lon="17.96569656661">
        <ele>52.4</ele>
        <time>2017-10-09T18:40:14Z</time>
      </trkpt>
      <trkpt lat="62.63844664314" lon="17.965644850287">
        <ele>52.4</ele>
        <time>2017-10-09T18:40:15Z</time>
      </trkpt>
      <trkpt lat="62.638427867684" lon="17.965599839484">
        <ele>52.6</ele>
        <time>2017-10-09T18:40:16Z</time>
      </trkpt>
      <trkpt lat="62.638405068916" lon="17.965533706293">
        <ele>52.4</ele>
        <time>2017-10-09T18:40:17Z</time>
      </trkpt>
      <trkpt lat="62.638385036175" lon="17.965484336902">
        <ele>52.4</ele>
        <time>2017-10-09T18:40:18Z</time>
      </trkpt>
      <trkpt lat="62.638367350366" lon="17.965434799873">
        <ele>52.4</ele>
        <time>2017-10-09T18:40:19Z</time>
      </trkpt>
      <trkpt lat="62.638347233806" lon="17.96537386346">
        <ele>52.4</ele>
        <time>2017-10-09T18:40:20Z</time>
      </trkpt>
      <trkpt lat="62.638327955436" lon="17.96532273387">
        <ele>52.4</ele>
        <time>2017-10-09T18:40:21Z</time>
      </trkpt>
      <trkpt lat="62.63831085636" lon="17.965272610108">
        <ele>52.4</ele>
        <time>2017-10-09T18:40:22Z</time>
      </trkpt>
      <trkpt lat="62.638285375384" lon="17.965213266256">
        <ele>52.4</ele>
        <time>2017-10-09T18:40:23Z</time>
      </trkpt>
      <trkpt lat="62.638265929376" lon="17.965167165806">
        <ele>52.4</ele>
        <time>2017-10-09T18:40:24Z</time>
      </trkpt>
      <trkpt lat="62.638245812816" lon="17.965106061755">
        <ele>52.2</ele>
        <time>2017-10-09T18:40:25Z</time>
      </trkpt>
      <trkpt lat="62.638219745107" lon="17.96505032212">
        <ele>52</ele>
        <time>2017-10-09T18:40:26Z</time>
      </trkpt>
      <trkpt lat="62.638199963823" lon="17.964999695444">
        <ele>52</ele>
        <time>2017-10-09T18:40:27Z</time>
      </trkpt>
      <trkpt lat="62.638181607462" lon="17.964940770687">
        <ele>51.8</ele>
        <time>2017-10-09T18:40:28Z</time>
      </trkpt>
      <trkpt lat="62.638161826178" lon="17.964883103215">
        <ele>52</ele>
        <time>2017-10-09T18:40:29Z</time>
      </trkpt>
      <trkpt lat="62.638140787609" lon="17.964827866494">
        <ele>52</ele>
        <time>2017-10-09T18:40:30Z</time>
      </trkpt>
      <trkpt lat="62.638118324117" lon="17.964767181538">
        <ele>52.2</ele>
        <time>2017-10-09T18:40:31Z</time>
      </trkpt>
      <trkpt lat="62.638099045747" lon="17.964715800491">
        <ele>52.4</ele>
        <time>2017-10-09T18:40:32Z</time>
      </trkpt>
      <trkpt lat="62.638070798744" lon="17.964668023661">
        <ele>52.2</ele>
        <time>2017-10-09T18:40:33Z</time>
      </trkpt>
      <trkpt lat="62.638048251433" lon="17.964630556568">
        <ele>52</ele>
        <time>2017-10-09T18:40:34Z</time>
      </trkpt>
      <trkpt lat="62.638017741317" lon="17.964597364244">
        <ele>52.2</ele>
        <time>2017-10-09T18:40:35Z</time>
      </trkpt>
      <trkpt lat="62.637986309192" lon="17.964559813332">
        <ele>52</ele>
        <time>2017-10-09T18:40:36Z</time>
      </trkpt>
      <trkpt lat="62.637962336958" lon="17.964533829442">
        <ele>51.8</ele>
        <time>2017-10-09T18:40:37Z</time>
      </trkpt>
      <trkpt lat="62.637928390263" lon="17.964522597696">
        <ele>51.8</ele>
        <time>2017-10-09T18:40:38Z</time>
      </trkpt>
      <trkpt lat="62.637900562355" lon="17.964513377606">
        <ele>52</ele>
        <time>2017-10-09T18:40:39Z</time>
      </trkpt>
      <trkpt lat="62.637872566809" lon="17.964512790873">
        <ele>52</ele>
        <time>2017-10-09T18:40:40Z</time>
      </trkpt>
      <trkpt lat="62.637836189363" lon="17.964509521932">
        <ele>52</ele>
        <time>2017-10-09T18:40:41Z</time>
      </trkpt>
      <trkpt lat="62.637810708387" lon="17.964518406746">
        <ele>52</ele>
        <time>2017-10-09T18:40:42Z</time>
      </trkpt>
      <trkpt lat="62.637782209927" lon="17.964533410347">
        <ele>52</ele>
        <time>2017-10-09T18:40:43Z</time>
      </trkpt>
      <trkpt lat="62.637757315684" lon="17.964550006509">
        <ele>52</ele>
        <time>2017-10-09T18:40:44Z</time>
      </trkpt>
      <trkpt lat="62.637729571595" lon="17.96458428848">
        <ele>51.8</ele>
        <time>2017-10-09T18:40:45Z</time>
      </trkpt>
      <trkpt lat="62.637702498058" lon="17.964620833564">
        <ele>51.8</ele>
        <time>2017-10-09T18:40:46Z</time>
      </trkpt>
      <trkpt lat="62.637674418693" lon="17.964665928186">
        <ele>51.8</ele>
        <time>2017-10-09T18:40:47Z</time>
      </trkpt>
      <trkpt lat="62.637649356812" lon="17.964698701415">
        <ele>51.6</ele>
        <time>2017-10-09T18:40:48Z</time>
      </trkpt>
      <trkpt lat="62.637628234424" lon="17.964754273412">
        <ele>51.6</ele>
        <time>2017-10-09T18:40:49Z</time>
      </trkpt>
      <trkpt lat="62.637609458968" lon="17.96481227616">
        <ele>51.4</ele>
        <time>2017-10-09T18:40:50Z</time>
      </trkpt>
      <trkpt lat="62.637591940797" lon="17.964872039107">
        <ele>51.2</ele>
        <time>2017-10-09T18:40:51Z</time>
      </trkpt>
      <trkpt lat="62.637579703223" lon="17.964936747375">
        <ele>51.2</ele>
        <time>2017-10-09T18:40:52Z</time>
      </trkpt>
      <trkpt lat="62.637570650771" lon="17.965005478955">
        <ele>51.2</ele>
        <time>2017-10-09T18:40:53Z</time>
      </trkpt>
      <trkpt lat="62.637568052382" lon="17.965077228019">
        <ele>51</ele>
        <time>2017-10-09T18:40:54Z</time>
      </trkpt>
      <trkpt lat="62.637566124545" lon="17.965142103925">
        <ele>50.8</ele>
        <time>2017-10-09T18:40:55Z</time>
      </trkpt>
      <trkpt lat="62.63756654364" lon="17.96522382745">
        <ele>50.8</ele>
        <time>2017-10-09T18:40:56Z</time>
      </trkpt>
      <trkpt lat="62.637568806753" lon="17.965292810487">
        <ele>50.8</ele>
        <time>2017-10-09T18:40:57Z</time>
      </trkpt>
      <trkpt lat="62.637575679911" lon="17.965352657253">
        <ele>50.8</ele>
        <time>2017-10-09T18:40:58Z</time>
      </trkpt>
      <trkpt lat="62.637584397087" lon="17.965424825412">
        <ele>50.8</ele>
        <time>2017-10-09T18:40:59Z</time>
      </trkpt>
      <trkpt lat="62.637594706824" lon="17.965492718802">
        <ele>51</ele>
        <time>2017-10-09T18:41:00Z</time>
      </trkpt>
      <trkpt lat="62.637610883891" lon="17.965551224464">
        <ele>50.6</ele>
        <time>2017-10-09T18:41:01Z</time>
      </trkpt>
      <trkpt lat="62.637629324071" lon="17.965612831429">
        <ele>50.2</ele>
        <time>2017-10-09T18:41:02Z</time>
      </trkpt>
      <trkpt lat="62.63764952445" lon="17.965661278811">
        <ele>49.6</ele>
        <time>2017-10-09T18:41:03Z</time>
      </trkpt>
      <trkpt lat="62.63766712644" lon="17.965711737849">
        <ele>49.6</ele>
        <time>2017-10-09T18:41:04Z</time>
      </trkpt>
      <trkpt lat="62.637688500285" lon="17.965777284307">
        <ele>49.4</ele>
        <time>2017-10-09T18:41:05Z</time>
      </trkpt>
      <trkpt lat="62.637707443379" lon="17.965828413897">
        <ele>49.4</ele>
        <time>2017-10-09T18:41:06Z</time>
      </trkpt>
      <trkpt lat="62.637728062853" lon="17.965893373622">
        <ele>49.6</ele>
        <time>2017-10-09T18:41:07Z</time>
      </trkpt>
      <trkpt lat="62.637746670671" lon="17.965948945619">
        <ele>50</ele>
        <time>2017-10-09T18:41:08Z</time>
      </trkpt>
      <trkpt lat="62.637763937385" lon="17.965995213707">
        <ele>50</ele>
        <time>2017-10-09T18:41:09Z</time>
      </trkpt>
      <trkpt lat="62.637783383393" lon="17.966053384093">
        <ele>50.2</ele>
        <time>2017-10-09T18:41:10Z</time>
      </trkpt>
      <trkpt lat="62.637802410306" lon="17.966109459004">
        <ele>50.2</ele>
        <time>2017-10-09T18:41:11Z</time>
      </trkpt>
      <trkpt lat="62.637821940133" lon="17.966175340738">
        <ele>50.2</ele>
        <time>2017-10-09T18:41:12Z</time>
      </trkpt>
      <trkpt lat="62.637840128856" lon="17.966228230527">
        <ele>50.2</ele>
        <time>2017-10-09T18:41:13Z</time>
      </trkpt>
      <trkpt lat="62.637855886828" lon="17.966271397312">
        <ele>50.2</ele>
        <time>2017-10-09T18:41:14Z</time>
      </trkpt>
      <trkpt lat="62.637879859062" lon="17.966344571299">
        <ele>50.4</ele>
        <time>2017-10-09T18:41:15Z</time>
      </trkpt>
      <trkpt lat="62.637896119948" lon="17.966393018681">
        <ele>50.2</ele>
        <time>2017-10-09T18:41:16Z</time>
      </trkpt>
      <trkpt lat="62.637917326155" lon="17.966455799112">
        <ele>50.2</ele>
        <time>2017-10-09T18:41:17Z</time>
      </trkpt>
      <trkpt lat="62.637937275077" lon="17.966517657534">
        <ele>50.4</ele>
        <time>2017-10-09T18:41:18Z</time>
      </trkpt>
      <trkpt lat="62.637953535963" lon="17.966567948934">
        <ele>50.4</ele>
        <time>2017-10-09T18:41:19Z</time>
      </trkpt>
      <trkpt lat="62.637975831817" lon="17.966633076297">
        <ele>50.4</ele>
        <time>2017-10-09T18:41:20Z</time>
      </trkpt>
      <trkpt lat="62.637994439635" lon="17.966685966086">
        <ele>50.4</ele>
        <time>2017-10-09T18:41:21Z</time>
      </trkpt>
      <trkpt lat="62.638015310566" lon="17.966743130644">
        <ele>50.8</ele>
        <time>2017-10-09T18:41:22Z</time>
      </trkpt>
      <trkpt lat="62.638035343307" lon="17.966810018206">
        <ele>50.6</ele>
        <time>2017-10-09T18:41:23Z</time>
      </trkpt>
      <trkpt lat="62.638054286401" lon="17.966860980158">
        <ele>50.6</ele>
        <time>2017-10-09T18:41:24Z</time>
      </trkpt>
      <trkpt lat="62.638090915304" lon="17.966975476912">
        <ele>50.6</ele>
        <time>2017-10-09T18:41:26Z</time>
      </trkpt>
      <trkpt lat="62.638105918905" lon="17.967030629814">
        <ele>50.6</ele>
        <time>2017-10-09T18:41:27Z</time>
      </trkpt>
      <trkpt lat="62.638111450959" lon="17.967056865161">
        <ele>50.8</ele>
        <time>2017-10-09T18:41:28Z</time>
      </trkpt>
      <trkpt lat="62.63811639628" lon="17.967084106336">
        <ele>51</ele>
        <time>2017-10-09T18:41:29Z</time>
      </trkpt>
      <trkpt lat="62.638125951646" lon="17.967108581484">
        <ele>51.4</ele>
        <time>2017-10-09T18:41:30Z</time>
      </trkpt>
      <trkpt lat="62.638135842288" lon="17.967129955329">
        <ele>51.6</ele>
        <time>2017-10-09T18:41:31Z</time>
      </trkpt>
      <trkpt lat="62.638140200876" lon="17.967160465445">
        <ele>51.6</ele>
        <time>2017-10-09T18:41:32Z</time>
      </trkpt>
      <trkpt lat="62.638145146197" lon="17.967178737987">
        <ele>51.6</ele>
        <time>2017-10-09T18:41:33Z</time>
      </trkpt>
      <trkpt lat="62.638154282468" lon="17.967204051325">
        <ele>51.6</ele>
        <time>2017-10-09T18:41:34Z</time>
      </trkpt>
      <trkpt lat="62.638166855318" lon="17.967222659143">
        <ele>51.4</ele>
        <time>2017-10-09T18:41:35Z</time>
      </trkpt>
      <trkpt lat="62.638176662141" lon="17.967232549785">
        <ele>51.4</ele>
        <time>2017-10-09T18:41:36Z</time>
      </trkpt>
      <trkpt lat="62.638186133688" lon="17.967250487051">
        <ele>51.4</ele>
        <time>2017-10-09T18:41:37Z</time>
      </trkpt>
      <trkpt lat="62.638198371262" lon="17.967267586127">
        <ele>51.4</ele>
        <time>2017-10-09T18:41:38Z</time>
      </trkpt>
      <trkpt lat="62.638210105922" lon="17.967278650235">
        <ele>51.2</ele>
        <time>2017-10-09T18:41:39Z</time>
      </trkpt>
      <trkpt lat="62.638222511134" lon="17.967290720171">
        <ele>51.4</ele>
        <time>2017-10-09T18:41:40Z</time>
      </trkpt>
      <trkpt lat="62.638236508907" lon="17.967296336044">
        <ele>51.2</ele>
        <time>2017-10-09T18:41:41Z</time>
      </trkpt>
      <trkpt lat="62.638246148092" lon="17.967299018252">
        <ele>51.2</ele>
        <time>2017-10-09T18:41:42Z</time>
      </trkpt>
      <trkpt lat="62.638260816417" lon="17.967293067103">
        <ele>51.2</ele>
        <time>2017-10-09T18:41:43Z</time>
      </trkpt>
      <trkpt lat="62.638271042335" lon="17.967294072931">
        <ele>51.2</ele>
        <time>2017-10-09T18:41:44Z</time>
      </trkpt>
      <trkpt lat="62.638282274081" lon="17.967309076532">
        <ele>51.2</ele>
        <time>2017-10-09T18:41:45Z</time>
      </trkpt>
      <trkpt lat="62.638291158895" lon="17.967317039337">
        <ele>51.4</ele>
        <time>2017-10-09T18:41:46Z</time>
      </trkpt>
      <trkpt lat="62.638305659582" lon="17.967325840332">
        <ele>51.4</ele>
        <time>2017-10-09T18:41:47Z</time>
      </trkpt>
      <trkpt lat="62.638316220776" lon="17.967329025454">
        <ele>51.4</ele>
        <time>2017-10-09T18:41:48Z</time>
      </trkpt>
      <trkpt lat="62.63832678197" lon="17.967321649382">
        <ele>51.4</ele>
        <time>2017-10-09T18:41:49Z</time>
      </trkpt>
      <trkpt lat="62.63834019301" lon="17.967324834504">
        <ele>51.4</ele>
        <time>2017-10-09T18:41:50Z</time>
      </trkpt>
      <trkpt lat="62.638353268774" lon="17.967331623843">
        <ele>51.4</ele>
        <time>2017-10-09T18:41:51Z</time>
      </trkpt>
      <trkpt lat="62.638363746149" lon="17.967338245544">
        <ele>51.2</ele>
        <time>2017-10-09T18:41:52Z</time>
      </trkpt>
      <trkpt lat="62.638375816085" lon="17.967345621616">
        <ele>51.4</ele>
        <time>2017-10-09T18:41:53Z</time>
      </trkpt>
      <trkpt lat="62.638387047831" lon="17.967349058195">
        <ele>51.4</ele>
        <time>2017-10-09T18:41:54Z</time>
      </trkpt>
      <trkpt lat="62.638398614853" lon="17.967352243317">
        <ele>51.6</ele>
        <time>2017-10-09T18:41:55Z</time>
      </trkpt>
      <trkpt lat="62.638412864083" lon="17.96735031548">
        <ele>51.8</ele>
        <time>2017-10-09T18:41:56Z</time>
      </trkpt>
      <trkpt lat="62.638423341458" lon="17.967353835878">
        <ele>52</ele>
        <time>2017-10-09T18:41:57Z</time>
      </trkpt>
      <trkpt lat="62.638433567376" lon="17.967346543625">
        <ele>52</ele>
        <time>2017-10-09T18:41:58Z</time>
      </trkpt>
      <trkpt lat="62.638446224045" lon="17.967340005743">
        <ele>52</ele>
        <time>2017-10-09T18:41:59Z</time>
      </trkpt>
      <trkpt lat="62.638458210162" lon="17.967332462033">
        <ele>52.2</ele>
        <time>2017-10-09T18:42:00Z</time>
      </trkpt>
      <trkpt lat="62.63847011246" lon="17.967323241943">
        <ele>52.2</ele>
        <time>2017-10-09T18:42:01Z</time>
      </trkpt>
      <trkpt lat="62.638482350034" lon="17.967314860043">
        <ele>52</ele>
        <time>2017-10-09T18:42:02Z</time>
      </trkpt>
      <trkpt lat="62.638493749418" lon="17.967305807591">
        <ele>52.2</ele>
        <time>2017-10-09T18:42:03Z</time>
      </trkpt>
      <trkpt lat="62.638498527101" lon="17.967297677148">
        <ele>52</ele>
        <time>2017-10-09T18:42:04Z</time>
      </trkpt>
      <trkpt lat="62.638517302557" lon="17.967280242796">
        <ele>52</ele>
        <time>2017-10-09T18:42:05Z</time>
      </trkpt>
      <trkpt lat="62.638529204855" lon="17.967269513964">
        <ele>52</ele>
        <time>2017-10-09T18:42:06Z</time>
      </trkpt>
      <trkpt lat="62.638540185144" lon="17.967257360209">
        <ele>51.8</ele>
        <time>2017-10-09T18:42:07Z</time>
      </trkpt>
      <trkpt lat="62.638550243424" lon="17.967241183142">
        <ele>51.6</ele>
        <time>2017-10-09T18:42:08Z</time>
      </trkpt>
      <trkpt lat="62.63856063698" lon="17.967220898944">
        <ele>51.6</ele>
        <time>2017-10-09T18:42:09Z</time>
      </trkpt>
      <trkpt lat="62.638569605613" lon="17.967207487904">
        <ele>51.6</ele>
        <time>2017-10-09T18:42:10Z</time>
      </trkpt>
      <trkpt lat="62.638582010825" lon="17.96719357395">
        <ele>51.4</ele>
        <time>2017-10-09T18:42:11Z</time>
      </trkpt>
      <trkpt lat="62.638591566191" lon="17.967178402711">
        <ele>51.4</ele>
        <time>2017-10-09T18:42:12Z</time>
      </trkpt>
      <trkpt lat="62.638601373014" lon="17.967161638911">
        <ele>51.4</ele>
        <time>2017-10-09T18:42:13Z</time>
      </trkpt>
      <trkpt lat="62.638612101846" lon="17.96714998807">
        <ele>51.4</ele>
        <time>2017-10-09T18:42:14Z</time>
      </trkpt>
      <trkpt lat="62.638620064651" lon="17.967130206786">
        <ele>51.4</ele>
        <time>2017-10-09T18:42:15Z</time>
      </trkpt>
      <trkpt lat="62.638626351076" lon="17.967109922588">
        <ele>51.4</ele>
        <time>2017-10-09T18:42:16Z</time>
      </trkpt>
      <trkpt lat="62.638633978605" lon="17.967088967838">
        <ele>51.4</ele>
        <time>2017-10-09T18:42:17Z</time>
      </trkpt>
      <trkpt lat="62.638640600306" lon="17.967068935097">
        <ele>51.4</ele>
        <time>2017-10-09T18:42:18Z</time>
      </trkpt>
      <trkpt lat="62.638647557283" lon="17.967050830193">
        <ele>51.4</ele>
        <time>2017-10-09T18:42:19Z</time>
      </trkpt>
      <trkpt lat="62.638655520088" lon="17.967030545995">
        <ele>51.6</ele>
        <time>2017-10-09T18:42:20Z</time>
      </trkpt>
      <trkpt lat="62.638662812341" lon="17.967010680892">
        <ele>51.8</ele>
        <time>2017-10-09T18:42:21Z</time>
      </trkpt>
      <trkpt lat="62.638669769318" lon="17.966990815789">
        <ele>51.8</ele>
        <time>2017-10-09T18:42:22Z</time>
      </trkpt>
      <trkpt lat="62.638676474838" lon="17.96696642446">
        <ele>51.8</ele>
        <time>2017-10-09T18:42:23Z</time>
      </trkpt>
      <trkpt lat="62.638681503978" lon="17.966945888805">
        <ele>52</ele>
        <time>2017-10-09T18:42:24Z</time>
      </trkpt>
      <trkpt lat="62.638688209498" lon="17.966924682598">
        <ele>51.8</ele>
        <time>2017-10-09T18:42:25Z</time>
      </trkpt>
      <trkpt lat="62.638694663561" lon="17.966900291269">
        <ele>51.8</ele>
        <time>2017-10-09T18:42:26Z</time>
      </trkpt>
      <trkpt lat="62.638699692701" lon="17.96687673813">
        <ele>51.8</ele>
        <time>2017-10-09T18:42:27Z</time>
      </trkpt>
      <trkpt lat="62.638703296918" lon="17.966852095344">
        <ele>51.8</ele>
        <time>2017-10-09T18:42:28Z</time>
      </trkpt>
      <trkpt lat="62.638706984954" lon="17.966829128938">
        <ele>51.8</ele>
        <time>2017-10-09T18:42:29Z</time>
      </trkpt>
      <trkpt lat="62.63871067299" lon="17.966804821428">
        <ele>51.8</ele>
        <time>2017-10-09T18:42:30Z</time>
      </trkpt>
      <trkpt lat="62.638713019922" lon="17.966772299656">
        <ele>51.8</ele>
        <time>2017-10-09T18:42:31Z</time>
      </trkpt>
      <trkpt lat="62.638714780121" lon="17.966743298282">
        <ele>51.8</ele>
        <time>2017-10-09T18:42:32Z</time>
      </trkpt>
      <trkpt lat="62.638720898908" lon="17.966717146754">
        <ele>51.8</ele>
        <time>2017-10-09T18:42:33Z</time>
      </trkpt>
      <trkpt lat="62.638722826745" lon="17.966694431805">
        <ele>52</ele>
        <time>2017-10-09T18:42:34Z</time>
      </trkpt>
      <trkpt lat="62.638724419306" lon="17.966665011336">
        <ele>52.2</ele>
        <time>2017-10-09T18:42:35Z</time>
      </trkpt>
      <trkpt lat="62.638724251668" lon="17.966638105437">
        <ele>52</ele>
        <time>2017-10-09T18:42:36Z</time>
      </trkpt>
      <trkpt lat="62.638721904736" lon="17.966609523158">
        <ele>52</ele>
        <time>2017-10-09T18:42:37Z</time>
      </trkpt>
      <trkpt lat="62.63871737851" lon="17.966580437965">
        <ele>52</ele>
        <time>2017-10-09T18:42:38Z</time>
      </trkpt>
      <trkpt lat="62.638715366854" lon="17.966553448247">
        <ele>51.6</ele>
        <time>2017-10-09T18:42:39Z</time>
      </trkpt>
      <trkpt lat="62.638712768465" lon="17.966523357226">
        <ele>51.6</ele>
        <time>2017-10-09T18:42:40Z</time>
      </trkpt>
      <trkpt lat="62.638707236411" lon="17.966492595653">
        <ele>51.4</ele>
        <time>2017-10-09T18:42:41Z</time>
      </trkpt>
      <trkpt lat="62.638705895307" lon="17.966463929555">
        <ele>51.4</ele>
        <time>2017-10-09T18:42:42Z</time>
      </trkpt>
      <trkpt lat="62.638703296918" lon="17.966435682552">
        <ele>51.2</ele>
        <time>2017-10-09T18:42:43Z</time>
      </trkpt>
      <trkpt lat="62.638700698529" lon="17.966404753341">
        <ele>51.2</ele>
        <time>2017-10-09T18:42:44Z</time>
      </trkpt>
      <trkpt lat="62.638696842855" lon="17.966376590157">
        <ele>51.2</ele>
        <time>2017-10-09T18:42:45Z</time>
      </trkpt>
      <trkpt lat="62.638692400448" lon="17.966356808873">
        <ele>51.6</ele>
        <time>2017-10-09T18:42:46Z</time>
      </trkpt>
      <trkpt lat="62.638689299145" lon="17.966328980965">
        <ele>51.8</ele>
        <time>2017-10-09T18:42:47Z</time>
      </trkpt>
      <trkpt lat="62.638688209498" lon="17.966306433654">
        <ele>52</ele>
        <time>2017-10-09T18:42:48Z</time>
      </trkpt>
      <trkpt lat="62.63868888005" lon="17.966282293782">
        <ele>52</ele>
        <time>2017-10-09T18:42:49Z</time>
      </trkpt>
      <trkpt lat="62.638689885878" lon="17.966256309892">
        <ele>52.4</ele>
        <time>2017-10-09T18:42:50Z</time>
      </trkpt>
      <trkpt lat="62.638690053516" lon="17.966232086201">
        <ele>52.4</ele>
        <time>2017-10-09T18:42:51Z</time>
      </trkpt>
      <trkpt lat="62.638685778747" lon="17.96619612785">
        <ele>52.2</ele>
        <time>2017-10-09T18:42:52Z</time>
      </trkpt>
      <trkpt lat="62.638682090711" lon="17.966166875019">
        <ele>52</ele>
        <time>2017-10-09T18:42:53Z</time>
      </trkpt>
      <trkpt lat="62.638677648304" lon="17.966143070423">
        <ele>52.2</ele>
        <time>2017-10-09T18:42:54Z</time>
      </trkpt>
      <trkpt lat="62.638667254748" lon="17.966121193664">
        <ele>52</ele>
        <time>2017-10-09T18:42:55Z</time>
      </trkpt>
      <trkpt lat="62.638658286115" lon="17.966101831475">
        <ele>52</ele>
        <time>2017-10-09T18:42:56Z</time>
      </trkpt>
      <trkpt lat="62.638654178984" lon="17.966086408779">
        <ele>51.8</ele>
        <time>2017-10-09T18:42:57Z</time>
      </trkpt>
      <trkpt lat="62.638647305826" lon="17.966070231712">
        <ele>51.8</ele>
        <time>2017-10-09T18:42:58Z</time>
      </trkpt>
      <trkpt lat="62.638641857591" lon="17.966046427116">
        <ele>51.8</ele>
        <time>2017-10-09T18:42:59Z</time>
      </trkpt>
      <trkpt lat="62.638641606134" lon="17.966003092693">
        <ele>52</ele>
        <time>2017-10-09T18:43:00Z</time>
      </trkpt>
      <trkpt lat="62.638636493175" lon="17.965981467391">
        <ele>52</ele>
        <time>2017-10-09T18:43:01Z</time>
      </trkpt>
      <trkpt lat="62.63863020675" lon="17.965973672224">
        <ele>52</ele>
        <time>2017-10-09T18:43:02Z</time>
      </trkpt>
      <trkpt lat="62.638617130986" lon="17.965947604515">
        <ele>52</ele>
        <time>2017-10-09T18:43:03Z</time>
      </trkpt>
      <trkpt lat="62.63860757562" lon="17.965939138796">
        <ele>52</ele>
        <time>2017-10-09T18:43:04Z</time>
      </trkpt>
      <trkpt lat="62.63859667915" lon="17.965924386652">
        <ele>52</ele>
        <time>2017-10-09T18:43:05Z</time>
      </trkpt>
      <trkpt lat="62.638586704689" lon="17.96591198144">
        <ele>52</ele>
        <time>2017-10-09T18:43:06Z</time>
      </trkpt>
      <trkpt lat="62.638576311133" lon="17.965893457441">
        <ele>52.2</ele>
        <time>2017-10-09T18:43:07Z</time>
      </trkpt>
      <trkpt lat="62.638568013052" lon="17.965876023089">
        <ele>52.2</ele>
        <time>2017-10-09T18:43:08Z</time>
      </trkpt>
      <trkpt lat="62.638559882609" lon="17.96585498452">
        <ele>52.2</ele>
        <time>2017-10-09T18:43:09Z</time>
      </trkpt>
      <trkpt lat="62.638550997795" lon="17.965825480232">
        <ele>52.2</ele>
        <time>2017-10-09T18:43:10Z</time>
      </trkpt>
      <trkpt lat="62.63854638775" lon="17.965795640668">
        <ele>52.4</ele>
        <time>2017-10-09T18:43:11Z</time>
      </trkpt>
      <trkpt lat="62.638539011678" lon="17.965781391438">
        <ele>52.4</ele>
        <time>2017-10-09T18:43:12Z</time>
      </trkpt>
      <trkpt lat="62.638528282846" lon="17.9657560781">
        <ele>52.4</ele>
        <time>2017-10-09T18:43:13Z</time>
      </trkpt>
      <trkpt lat="62.63852040386" lon="17.965733027875">
        <ele>52.4</ele>
        <time>2017-10-09T18:43:14Z</time>
      </trkpt>
      <trkpt lat="62.638511016132" lon="17.965705535243">
        <ele>52.6</ele>
        <time>2017-10-09T18:43:15Z</time>
      </trkpt>
      <trkpt lat="62.638503388603" lon="17.965688017072">
        <ele>52.8</ele>
        <time>2017-10-09T18:43:16Z</time>
      </trkpt>
      <trkpt lat="62.638497437454" lon="17.965669073978">
        <ele>53</ele>
        <time>2017-10-09T18:43:17Z</time>
      </trkpt>
      <trkpt lat="62.638490648115" lon="17.965650047065">
        <ele>53.2</ele>
        <time>2017-10-09T18:43:18Z</time>
      </trkpt>
      <trkpt lat="62.638482350034" lon="17.965635881654">
        <ele>53.2</ele>
        <time>2017-10-09T18:43:19Z</time>
      </trkpt>
      <trkpt lat="62.638477739989" lon="17.96562029132">
        <ele>53.2</ele>
        <time>2017-10-09T18:43:20Z</time>
      </trkpt>
      <trkpt lat="62.638468771356" lon="17.965594894163">
        <ele>53.2</ele>
        <time>2017-10-09T18:43:21Z</time>
      </trkpt>
      <trkpt lat="62.638463658397" lon="17.965571257205">
        <ele>52.8</ele>
        <time>2017-10-09T18:43:22Z</time>
      </trkpt>
      <trkpt lat="62.638462233474" lon="17.965556337423">
        <ele>52.8</ele>
        <time>2017-10-09T18:43:23Z</time>
      </trkpt>
      <trkpt lat="62.638461814379" lon="17.965543429297">
        <ele>52.6</ele>
        <time>2017-10-09T18:43:24Z</time>
      </trkpt>
      <trkpt lat="62.638463490759" lon="17.965505878385">
        <ele>52.6</ele>
        <time>2017-10-09T18:43:25Z</time>
      </trkpt>
      <trkpt lat="62.638462904026" lon="17.965524318565">
        <ele>52.8</ele>
        <time>2017-10-09T18:43:26Z</time>
      </trkpt>
      <trkpt lat="62.638460473275" lon="17.965512080991">
        <ele>52.8</ele>
        <time>2017-10-09T18:43:27Z</time>
      </trkpt>
      <trkpt lat="62.63835611862" lon="17.965252661186">
        <ele>52.6</ele>
        <time>2017-10-09T18:43:39Z</time>
      </trkpt>
      <trkpt lat="62.638348491091" lon="17.965231622617">
        <ele>52.4</ele>
        <time>2017-10-09T18:43:40Z</time>
      </trkpt>
      <trkpt lat="62.638339019544" lon="17.965206057822">
        <ele>52.4</ele>
        <time>2017-10-09T18:43:41Z</time>
      </trkpt>
      <trkpt lat="62.638328793626" lon="17.965193820248">
        <ele>52.6</ele>
        <time>2017-10-09T18:43:42Z</time>
      </trkpt>
      <trkpt lat="62.638320579364" lon="17.965163561589">
        <ele>52.6</ele>
        <time>2017-10-09T18:43:43Z</time>
      </trkpt>
      <trkpt lat="62.638313790025" lon="17.965151575472">
        <ele>52.6</ele>
        <time>2017-10-09T18:43:44Z</time>
      </trkpt>
      <trkpt lat="62.63830666541" lon="17.965123747564">
        <ele>52.6</ele>
        <time>2017-10-09T18:43:45Z</time>
      </trkpt>
      <trkpt lat="62.638300881899" lon="17.965098853321">
        <ele>52.6</ele>
        <time>2017-10-09T18:43:46Z</time>
      </trkpt>
      <trkpt lat="62.638291997085" lon="17.965076976562">
        <ele>52.4</ele>
        <time>2017-10-09T18:43:47Z</time>
      </trkpt>
      <trkpt lat="62.638282190262" lon="17.965051747043">
        <ele>52.2</ele>
        <time>2017-10-09T18:43:48Z</time>
      </trkpt>
      <trkpt lat="62.638272048163" lon="17.965033390682">
        <ele>52.2</ele>
        <time>2017-10-09T18:43:49Z</time>
      </trkpt>
      <trkpt lat="62.638260481141" lon="17.965011933018">
        <ele>52.2</ele>
        <time>2017-10-09T18:43:50Z</time>
      </trkpt>
      <trkpt lat="62.638249752309" lon="17.964993911933">
        <ele>52.2</ele>
        <time>2017-10-09T18:43:51Z</time>
      </trkpt>
      <trkpt lat="62.6382404484" lon="17.964974633563">
        <ele>52.2</ele>
        <time>2017-10-09T18:43:52Z</time>
      </trkpt>
      <trkpt lat="62.638234748708" lon="17.964953594994">
        <ele>52.2</ele>
        <time>2017-10-09T18:43:53Z</time>
      </trkpt>
      <trkpt lat="62.638226534446" lon="17.964933897529">
        <ele>52.2</ele>
        <time>2017-10-09T18:43:54Z</time>
      </trkpt>
      <trkpt lat="62.638218739279" lon="17.964913445693">
        <ele>52</ele>
        <time>2017-10-09T18:43:55Z</time>
      </trkpt>
      <trkpt lat="62.638210692655" lon="17.964891736572">
        <ele>52</ele>
        <time>2017-10-09T18:43:56Z</time>
      </trkpt>
      <trkpt lat="62.638205495877" lon="17.964870362727">
        <ele>51.8</ele>
        <time>2017-10-09T18:43:57Z</time>
      </trkpt>
      <trkpt lat="62.638196778701" lon="17.9648508329">
        <ele>51.8</ele>
        <time>2017-10-09T18:43:58Z</time>
      </trkpt>
      <trkpt lat="62.638188815896" lon="17.964821915345">
        <ele>51.8</ele>
        <time>2017-10-09T18:43:59Z</time>
      </trkpt>
      <trkpt lat="62.638183367661" lon="17.96479970331">
        <ele>51.8</ele>
        <time>2017-10-09T18:44:00Z</time>
      </trkpt>
      <trkpt lat="62.638180350177" lon="17.964792662514">
        <ele>51.8</ele>
        <time>2017-10-09T18:44:01Z</time>
      </trkpt>
      <trkpt lat="62.638183283842" lon="17.964800709138">
        <ele>51.8</ele>
        <time>2017-10-09T18:44:02Z</time>
      </trkpt>
      <trkpt lat="62.638051688012" lon="17.964565764481">
        <ele>52</ele>
        <time>2017-10-09T18:44:48Z</time>
      </trkpt>
      <trkpt lat="62.638021932267" lon="17.964537601297">
        <ele>51.8</ele>
        <time>2017-10-09T18:44:49Z</time>
      </trkpt>
      <trkpt lat="62.637974406894" lon="17.964513209968">
        <ele>51.8</ele>
        <time>2017-10-09T18:44:50Z</time>
      </trkpt>
      <trkpt lat="62.637936017792" lon="17.964498876919">
        <ele>51.8</ele>
        <time>2017-10-09T18:44:51Z</time>
      </trkpt>
      <trkpt lat="62.637901903459" lon="17.964501140032">
        <ele>51.6</ele>
        <time>2017-10-09T18:44:52Z</time>
      </trkpt>
      <trkpt lat="62.637865190737" lon="17.96450549862">
        <ele>51.4</ele>
        <time>2017-10-09T18:44:53Z</time>
      </trkpt>
      <trkpt lat="62.637828729472" lon="17.964516981823">
        <ele>51.4</ele>
        <time>2017-10-09T18:44:54Z</time>
      </trkpt>
      <trkpt lat="62.637794363682" lon="17.964541205514">
        <ele>51</ele>
        <time>2017-10-09T18:44:55Z</time>
      </trkpt>
      <trkpt lat="62.637756561313" lon="17.964574397838">
        <ele>50.8</ele>
        <time>2017-10-09T18:44:56Z</time>
      </trkpt>
      <trkpt lat="62.637726218835" lon="17.964611026741">
        <ele>50.8</ele>
        <time>2017-10-09T18:44:57Z</time>
      </trkpt>
      <trkpt lat="62.637697804194" lon="17.9646580492">
        <ele>50.8</ele>
        <time>2017-10-09T18:44:58Z</time>
      </trkpt>
      <trkpt lat="62.63767215558" lon="17.964711860998">
        <ele>50.8</ele>
        <time>2017-10-09T18:44:59Z</time>
      </trkpt>
      <trkpt lat="62.637647093699" lon="17.964779251474">
        <ele>51</ele>
        <time>2017-10-09T18:45:00Z</time>
      </trkpt>
      <trkpt lat="62.637626222768" lon="17.96484748014">
        <ele>50.8</ele>
        <time>2017-10-09T18:45:01Z</time>
      </trkpt>
      <trkpt lat="62.637605519475" lon="17.964916044082">
        <ele>50.8</ele>
        <time>2017-10-09T18:45:02Z</time>
      </trkpt>
      <trkpt lat="62.637598311041" lon="17.964975807029">
        <ele>50.6</ele>
        <time>2017-10-09T18:45:03Z</time>
      </trkpt>
      <trkpt lat="62.637586492562" lon="17.965051244129">
        <ele>50.4</ele>
        <time>2017-10-09T18:45:04Z</time>
      </trkpt>
      <trkpt lat="62.637582301612" lon="17.965119388976">
        <ele>50.2</ele>
        <time>2017-10-09T18:45:05Z</time>
      </trkpt>
      <trkpt lat="62.63757995468" lon="17.965210332591">
        <ele>49.8</ele>
        <time>2017-10-09T18:45:06Z</time>
      </trkpt>
      <trkpt lat="62.637583223621" lon="17.965285434415">
        <ele>49.8</ele>
        <time>2017-10-09T18:45:07Z</time>
      </trkpt>
      <trkpt lat="62.637592359892" lon="17.965358356945">
        <ele>49.6</ele>
        <time>2017-10-09T18:45:08Z</time>
      </trkpt>
      <trkpt lat="62.637601412344" lon="17.965431447113">
        <ele>49.4</ele>
        <time>2017-10-09T18:45:09Z</time>
      </trkpt>
      <trkpt lat="62.637619433429" lon="17.965502441806">
        <ele>49.4</ele>
        <time>2017-10-09T18:45:10Z</time>
      </trkpt>
      <trkpt lat="62.6376369516" lon="17.965577627449">
        <ele>49.2</ele>
        <time>2017-10-09T18:45:11Z</time>
      </trkpt>
      <trkpt lat="62.637654805047" lon="17.965637390396">
        <ele>49</ele>
        <time>2017-10-09T18:45:12Z</time>
      </trkpt>
      <trkpt lat="62.637674418693" lon="17.965696482791">
        <ele>49</ele>
        <time>2017-10-09T18:45:13Z</time>
      </trkpt>
      <trkpt lat="62.637695205805" lon="17.965752809159">
        <ele>49.4</ele>
        <time>2017-10-09T18:45:14Z</time>
      </trkpt>
      <trkpt lat="62.637715322365" lon="17.965820115816">
        <ele>49.6</ele>
        <time>2017-10-09T18:45:15Z</time>
      </trkpt>
      <trkpt lat="62.637733091993" lon="17.965877867107">
        <ele>49.4</ele>
        <time>2017-10-09T18:45:16Z</time>
      </trkpt>
      <trkpt lat="62.637752538001" lon="17.965935115484">
        <ele>49.2</ele>
        <time>2017-10-09T18:45:17Z</time>
      </trkpt>
      <trkpt lat="62.637768463611" lon="17.965991860947">
        <ele>49.2</ele>
        <time>2017-10-09T18:45:18Z</time>
      </trkpt>
      <trkpt lat="62.637786233239" lon="17.966043996365">
        <ele>49</ele>
        <time>2017-10-09T18:45:19Z</time>
      </trkpt>
      <trkpt lat="62.637805092514" lon="17.966107698805">
        <ele>48.4</ele>
        <time>2017-10-09T18:45:20Z</time>
      </trkpt>
      <trkpt lat="62.637822694504" lon="17.966166539743">
        <ele>48.2</ele>
        <time>2017-10-09T18:45:21Z</time>
      </trkpt>
      <trkpt lat="62.637842475788" lon="17.966227476156">
        <ele>48.4</ele>
        <time>2017-10-09T18:45:22Z</time>
      </trkpt>
      <trkpt lat="62.6378632629" lon="17.966291430053">
        <ele>48.4</ele>
        <time>2017-10-09T18:45:23Z</time>
      </trkpt>
      <trkpt lat="62.637882708908" lon="17.966345409489">
        <ele>48.4</ele>
        <time>2017-10-09T18:45:24Z</time>
      </trkpt>
      <trkpt lat="62.637902490192" lon="17.966407267911">
        <ele>48.4</ele>
        <time>2017-10-09T18:45:25Z</time>
      </trkpt>
      <trkpt lat="62.637923193485" lon="17.966457810768">
        <ele>48.8</ele>
        <time>2017-10-09T18:45:26Z</time>
      </trkpt>
      <trkpt lat="62.637943561502" lon="17.96652469833">
        <ele>49.2</ele>
        <time>2017-10-09T18:45:27Z</time>
      </trkpt>
      <trkpt lat="62.637962923691" lon="17.966576330834">
        <ele>49.6</ele>
        <time>2017-10-09T18:45:28Z</time>
      </trkpt>
      <trkpt lat="62.637981196233" lon="17.96664120674">
        <ele>50</ele>
        <time>2017-10-09T18:45:29Z</time>
      </trkpt>
      <trkpt lat="62.637999971689" lon="17.966705663551">
        <ele>50.4</ele>
        <time>2017-10-09T18:45:30Z</time>
      </trkpt>
      <trkpt lat="62.638019082421" lon="17.966764085394">
        <ele>50.2</ele>
        <time>2017-10-09T18:45:31Z</time>
      </trkpt>
      <trkpt lat="62.638038528429" lon="17.966822004323">
        <ele>50</ele>
        <time>2017-10-09T18:45:32Z</time>
      </trkpt>
      <trkpt lat="62.638054789315" lon="17.966867601859">
        <ele>49.6</ele>
        <time>2017-10-09T18:45:33Z</time>
      </trkpt>
      <trkpt lat="62.638073145676" lon="17.966926526616">
        <ele>49.4</ele>
        <time>2017-10-09T18:45:34Z</time>
      </trkpt>
      <trkpt lat="62.638092340227" lon="17.966990061418">
        <ele>49.4</ele>
        <time>2017-10-09T18:45:35Z</time>
      </trkpt>
      <trkpt lat="62.638114049348" lon="17.967053177125">
        <ele>49.6</ele>
        <time>2017-10-09T18:45:36Z</time>
      </trkpt>
      <trkpt lat="62.638135507012" lon="17.967099277575">
        <ele>49.8</ele>
        <time>2017-10-09T18:45:37Z</time>
      </trkpt>
      <trkpt lat="62.638160065979" lon="17.96714160617">
        <ele>50.2</ele>
        <time>2017-10-09T18:45:38Z</time>
      </trkpt>
      <trkpt lat="62.638185714593" lon="17.967181587833">
        <ele>50.4</ele>
        <time>2017-10-09T18:45:39Z</time>
      </trkpt>
      <trkpt lat="62.638211027931" lon="17.967207068809">
        <ele>50.6</ele>
        <time>2017-10-09T18:45:40Z</time>
      </trkpt>
      <trkpt lat="62.638241538047" lon="17.967235902545">
        <ele>50.8</ele>
        <time>2017-10-09T18:45:41Z</time>
      </trkpt>
      <trkpt lat="62.638271964344" lon="17.967255432372">
        <ele>51</ele>
        <time>2017-10-09T18:45:42Z</time>
      </trkpt>
      <trkpt lat="62.638305240487" lon="17.967263395177">
        <ele>50.6</ele>
        <time>2017-10-09T18:45:43Z</time>
      </trkpt>
      <trkpt lat="62.638338181354" lon="17.967266915575">
        <ele>50.8</ele>
        <time>2017-10-09T18:45:44Z</time>
      </trkpt>
      <trkpt lat="62.638370870764" lon="17.967264987738">
        <ele>51</ele>
        <time>2017-10-09T18:45:45Z</time>
      </trkpt>
      <trkpt lat="62.638401045604" lon="17.967255264734">
        <ele>51.2</ele>
        <time>2017-10-09T18:45:46Z</time>
      </trkpt>
      <trkpt lat="62.638432226272" lon="17.967240764047">
        <ele>51</ele>
        <time>2017-10-09T18:45:47Z</time>
      </trkpt>
      <trkpt lat="62.638458461619" lon="17.967218552012">
        <ele>51.2</ele>
        <time>2017-10-09T18:45:48Z</time>
      </trkpt>
      <trkpt lat="62.638490396658" lon="17.967196591434">
        <ele>51.2</ele>
        <time>2017-10-09T18:45:49Z</time>
      </trkpt>
      <trkpt lat="62.638517218738" lon="17.967160968359">
        <ele>50.8</ele>
        <time>2017-10-09T18:45:50Z</time>
      </trkpt>
      <trkpt lat="62.638544376094" lon="17.967117550117">
        <ele>50.8</ele>
        <time>2017-10-09T18:45:51Z</time>
      </trkpt>
      <trkpt lat="62.638567510138" lon="17.96707371278">
        <ele>50.8</ele>
        <time>2017-10-09T18:45:52Z</time>
      </trkpt>
      <trkpt lat="62.638589303078" lon="17.967024511027">
        <ele>51.2</ele>
        <time>2017-10-09T18:45:53Z</time>
      </trkpt>
      <trkpt lat="62.638612018027" lon="17.966974471084">
        <ele>51.4</ele>
        <time>2017-10-09T18:45:54Z</time>
      </trkpt>
      <trkpt lat="62.638628698008" lon="17.966917390345">
        <ele>51.8</ele>
        <time>2017-10-09T18:45:55Z</time>
      </trkpt>
      <trkpt lat="62.638645629446" lon="17.966856956846">
        <ele>51.8</ele>
        <time>2017-10-09T18:45:56Z</time>
      </trkpt>
      <trkpt lat="62.638656023002" lon="17.966794427872">
        <ele>52</ele>
        <time>2017-10-09T18:45:57Z</time>
      </trkpt>
      <trkpt lat="62.638666416558" lon="17.966728629957">
        <ele>52.2</ele>
        <time>2017-10-09T18:45:58Z</time>
      </trkpt>
      <trkpt lat="62.638674798458" lon="17.96666048511">
        <ele>52.6</ele>
        <time>2017-10-09T18:45:59Z</time>
      </trkpt>
      <trkpt lat="62.63867463082" lon="17.966586472933">
        <ele>52.8</ele>
        <time>2017-10-09T18:46:00Z</time>
      </trkpt>
      <trkpt lat="62.638674714639" lon="17.966511874023">
        <ele>52.8</ele>
        <time>2017-10-09T18:46:01Z</time>
      </trkpt>
      <trkpt lat="62.638669685499" lon="17.966448758316">
        <ele>53</ele>
        <time>2017-10-09T18:46:02Z</time>
      </trkpt>
      <trkpt lat="62.638664237264" lon="17.966388660093">
        <ele>53</ele>
        <time>2017-10-09T18:46:03Z</time>
      </trkpt>
      <trkpt lat="62.638653173156" lon="17.966324622377">
        <ele>52.8</ele>
        <time>2017-10-09T18:46:04Z</time>
      </trkpt>
      <trkpt lat="62.638638253374" lon="17.966250023467">
        <ele>52.4</ele>
        <time>2017-10-09T18:46:05Z</time>
      </trkpt>
      <trkpt lat="62.638622327764" lon="17.96618439319">
        <ele>52.2</ele>
        <time>2017-10-09T18:46:06Z</time>
      </trkpt>
      <trkpt lat="62.638604306679" lon="17.966129407926">
        <ele>52.4</ele>
        <time>2017-10-09T18:46:07Z</time>
      </trkpt>
      <trkpt lat="62.638584860671" lon="17.966072327187">
        <ele>52.2</ele>
        <time>2017-10-09T18:46:08Z</time>
      </trkpt>
      <trkpt lat="62.638565749939" lon="17.966018683027">
        <ele>52</ele>
        <time>2017-10-09T18:46:09Z</time>
      </trkpt>
      <trkpt lat="62.638546723026" lon="17.965962356659">
        <ele>52</ele>
        <time>2017-10-09T18:46:10Z</time>
      </trkpt>
      <trkpt lat="62.638526857923" lon="17.965910891793">
        <ele>52.2</ele>
        <time>2017-10-09T18:46:11Z</time>
      </trkpt>
      <trkpt lat="62.638505651716" lon="17.965852386131">
        <ele>52.2</ele>
        <time>2017-10-09T18:46:12Z</time>
      </trkpt>
      <trkpt lat="62.63848603807" lon="17.965798490514">
        <ele>51.8</ele>
        <time>2017-10-09T18:46:13Z</time>
      </trkpt>
      <trkpt lat="62.638467011157" lon="17.965748702028">
        <ele>52</ele>
        <time>2017-10-09T18:46:14Z</time>
      </trkpt>
      <trkpt lat="62.638447565149" lon="17.965693465307">
        <ele>52</ele>
        <time>2017-10-09T18:46:15Z</time>
      </trkpt>
      <trkpt lat="62.638430968987" lon="17.965639402052">
        <ele>51.8</ele>
        <time>2017-10-09T18:46:16Z</time>
      </trkpt>
      <trkpt lat="62.63841060097" lon="17.965574358508">
        <ele>52</ele>
        <time>2017-10-09T18:46:17Z</time>
      </trkpt>
      <trkpt lat="62.638391993152" lon="17.965521720176">
        <ele>52.2</ele>
        <time>2017-10-09T18:46:18Z</time>
      </trkpt>
      <trkpt lat="62.638371541316" lon="17.965465729084">
        <ele>52</ele>
        <time>2017-10-09T18:46:19Z</time>
      </trkpt>
      <trkpt lat="62.638348742548" lon="17.965411833467">
        <ele>52.2</ele>
        <time>2017-10-09T18:46:20Z</time>
      </trkpt>
      <trkpt lat="62.638328542169" lon="17.96535626147">
        <ele>52.4</ele>
        <time>2017-10-09T18:46:21Z</time>
      </trkpt>
      <trkpt lat="62.638308425609" lon="17.965298342541">
        <ele>52.2</ele>
        <time>2017-10-09T18:46:22Z</time>
      </trkpt>
      <trkpt lat="62.638284537194" lon="17.965241764716">
        <ele>52.2</ele>
        <time>2017-10-09T18:46:23Z</time>
      </trkpt>
      <trkpt lat="62.638266683747" lon="17.965187952918">
        <ele>52.2</ele>
        <time>2017-10-09T18:46:24Z</time>
      </trkpt>
      <trkpt lat="62.638243968798" lon="17.965129279618">
        <ele>52.2</ele>
        <time>2017-10-09T18:46:25Z</time>
      </trkpt>
      <trkpt lat="62.638223768419" lon="17.965072198879">
        <ele>52.2</ele>
        <time>2017-10-09T18:46:26Z</time>
      </trkpt>
      <trkpt lat="62.638203232764" lon="17.965011178647">
        <ele>52</ele>
        <time>2017-10-09T18:46:27Z</time>
      </trkpt>
      <trkpt lat="62.638184708765" lon="17.964962060713">
        <ele>52</ele>
        <time>2017-10-09T18:46:28Z</time>
      </trkpt>
      <trkpt lat="62.638164256929" lon="17.964901375757">
        <ele>52</ele>
        <time>2017-10-09T18:46:29Z</time>
      </trkpt>
      <trkpt lat="62.638142547808" lon="17.964844546475">
        <ele>52</ele>
        <time>2017-10-09T18:46:30Z</time>
      </trkpt>
      <trkpt lat="62.638120419592" lon="17.964797859292">
        <ele>52</ele>
        <time>2017-10-09T18:46:31Z</time>
      </trkpt>
      <trkpt lat="62.638092675503" lon="17.964749160453">
        <ele>52</ele>
        <time>2017-10-09T18:46:32Z</time>
      </trkpt>
      <trkpt lat="62.638068032717" lon="17.964710687532">
        <ele>51.8</ele>
        <time>2017-10-09T18:46:33Z</time>
      </trkpt>
      <trkpt lat="62.638045066311" lon="17.964667688385">
        <ele>52</ele>
        <time>2017-10-09T18:46:34Z</time>
      </trkpt>
      <trkpt lat="62.638015142928" lon="17.964622174668">
        <ele>52.2</ele>
        <time>2017-10-09T18:46:35Z</time>
      </trkpt>
      <trkpt lat="62.637988237029" lon="17.964597867158">
        <ele>52</ele>
        <time>2017-10-09T18:46:36Z</time>
      </trkpt>
      <trkpt lat="62.637957643094" lon="17.96456668649">
        <ele>52</ele>
        <time>2017-10-09T18:46:37Z</time>
      </trkpt>
      <trkpt lat="62.637928474082" lon="17.96455076088">
        <ele>52</ele>
        <time>2017-10-09T18:46:38Z</time>
      </trkpt>
      <trkpt lat="62.637901484364" lon="17.964546737568">
        <ele>52</ele>
        <time>2017-10-09T18:46:39Z</time>
      </trkpt>
      <trkpt lat="62.63786661566" lon="17.964549503595">
        <ele>51.8</ele>
        <time>2017-10-09T18:46:40Z</time>
      </trkpt>
      <trkpt lat="62.637836776096" lon="17.964549671233">
        <ele>51.8</ele>
        <time>2017-10-09T18:46:41Z</time>
      </trkpt>
      <trkpt lat="62.637803080858" lon="17.964557382581">
        <ele>51.8</ele>
        <time>2017-10-09T18:46:42Z</time>
      </trkpt>
      <trkpt lat="62.637770978181" lon="17.964577247684">
        <ele>51.8</ele>
        <time>2017-10-09T18:46:43Z</time>
      </trkpt>
      <trkpt lat="62.637744407558" lon="17.964604907954">
        <ele>51.8</ele>
        <time>2017-10-09T18:46:44Z</time>
      </trkpt>
      <trkpt lat="62.63770987413" lon="17.964629131645">
        <ele>51.6</ele>
        <time>2017-10-09T18:46:45Z</time>
      </trkpt>
      <trkpt lat="62.637689003199" lon="17.964662575426">
        <ele>51.6</ele>
        <time>2017-10-09T18:46:46Z</time>
      </trkpt>
      <trkpt lat="62.637664192775" lon="17.964710268437">
        <ele>51.6</ele>
        <time>2017-10-09T18:46:47Z</time>
      </trkpt>
      <trkpt lat="62.637643824758" lon="17.96475611743">
        <ele>51.2</ele>
        <time>2017-10-09T18:46:48Z</time>
      </trkpt>
      <trkpt lat="62.637621612723" lon="17.964811940884">
        <ele>50.8</ele>
        <time>2017-10-09T18:46:49Z</time>
      </trkpt>
      <trkpt lat="62.637602082896" lon="17.964877822618">
        <ele>50.6</ele>
        <time>2017-10-09T18:46:50Z</time>
      </trkpt>
      <trkpt lat="62.637591773159" lon="17.964939094307">
        <ele>50.6</ele>
        <time>2017-10-09T18:46:51Z</time>
      </trkpt>
      <trkpt lat="62.637582888345" lon="17.96499751615">
        <ele>50.4</ele>
        <time>2017-10-09T18:46:52Z</time>
      </trkpt>
      <trkpt lat="62.637575847549" lon="17.965069516671">
        <ele>50.4</ele>
        <time>2017-10-09T18:46:53Z</time>
      </trkpt>
      <trkpt lat="62.637573835893" lon="17.965138751165">
        <ele>50.4</ele>
        <time>2017-10-09T18:46:54Z</time>
      </trkpt>
      <trkpt lat="62.637570064038" lon="17.96522047469">
        <ele>50.6</ele>
        <time>2017-10-09T18:46:55Z</time>
      </trkpt>
      <trkpt lat="62.637572997703" lon="17.965291301745">
        <ele>50.6</ele>
        <time>2017-10-09T18:46:56Z</time>
      </trkpt>
      <trkpt lat="62.637577775386" lon="17.965368163768">
        <ele>50.6</ele>
        <time>2017-10-09T18:46:57Z</time>
      </trkpt>
      <trkpt lat="62.637588420399" lon="17.965427926715">
        <ele>50.4</ele>
        <time>2017-10-09T18:46:58Z</time>
      </trkpt>
      <trkpt lat="62.637601328525" lon="17.96549456282">
        <ele>50.4</ele>
        <time>2017-10-09T18:46:59Z</time>
      </trkpt>
      <trkpt lat="62.637619433429" lon="17.96556999992">
        <ele>50</ele>
        <time>2017-10-09T18:47:00Z</time>
      </trkpt>
      <trkpt lat="62.63763611341" lon="17.965633953817">
        <ele>49.6</ele>
        <time>2017-10-09T18:47:01Z</time>
      </trkpt>
      <trkpt lat="62.637658325445" lon="17.965694135859">
        <ele>49.4</ele>
        <time>2017-10-09T18:47:02Z</time>
      </trkpt>
      <trkpt lat="62.637677603815" lon="17.965749959313">
        <ele>49.4</ele>
        <time>2017-10-09T18:47:03Z</time>
      </trkpt>
      <trkpt lat="62.637694619072" lon="17.965803687292">
        <ele>49.2</ele>
        <time>2017-10-09T18:47:04Z</time>
      </trkpt>
      <trkpt lat="62.637715825279" lon="17.965868060284">
        <ele>49.2</ele>
        <time>2017-10-09T18:47:05Z</time>
      </trkpt>
      <trkpt lat="62.637734097821" lon="17.965917345856">
        <ele>49</ele>
        <time>2017-10-09T18:47:06Z</time>
      </trkpt>
      <trkpt lat="62.637752202725" lon="17.965975264785">
        <ele>49.2</ele>
        <time>2017-10-09T18:47:07Z</time>
      </trkpt>
      <trkpt lat="62.637770726724" lon="17.966026729651">
        <ele>49.6</ele>
        <time>2017-10-09T18:47:08Z</time>
      </trkpt>
      <trkpt lat="62.637788412533" lon="17.966074003567">
        <ele>49.8</ele>
        <time>2017-10-09T18:47:09Z</time>
      </trkpt>
      <trkpt lat="62.637806349799" lon="17.966139382387">
        <ele>49.8</ele>
        <time>2017-10-09T18:47:10Z</time>
      </trkpt>
      <trkpt lat="62.637825628169" lon="17.966196714583">
        <ele>50</ele>
        <time>2017-10-09T18:47:11Z</time>
      </trkpt>
      <trkpt lat="62.637845157996" lon="17.966259159738">
        <ele>50.2</ele>
        <time>2017-10-09T18:47:12Z</time>
      </trkpt>
      <trkpt lat="62.637864604004" lon="17.966312887717">
        <ele>50</ele>
        <time>2017-10-09T18:47:13Z</time>
      </trkpt>
      <trkpt lat="62.637883211822" lon="17.966371561017">
        <ele>50</ele>
        <time>2017-10-09T18:47:14Z</time>
      </trkpt>
      <trkpt lat="62.63790181964" lon="17.966433754715">
        <ele>50.4</ele>
        <time>2017-10-09T18:47:15Z</time>
      </trkpt>
      <trkpt lat="62.637919924544" lon="17.966477508233">
        <ele>50.4</ele>
        <time>2017-10-09T18:47:16Z</time>
      </trkpt>
      <trkpt lat="62.637940879294" lon="17.966540372483">
        <ele>50.6</ele>
        <time>2017-10-09T18:47:17Z</time>
      </trkpt>
      <trkpt lat="62.637959235655" lon="17.966594687195">
        <ele>50.6</ele>
        <time>2017-10-09T18:47:18Z</time>
      </trkpt>
      <trkpt lat="62.63797809493" lon="17.966650845925">
        <ele>50.8</ele>
        <time>2017-10-09T18:47:19Z</time>
      </trkpt>
      <trkpt lat="62.638000306965" lon="17.966720499514">
        <ele>50.6</ele>
        <time>2017-10-09T18:47:20Z</time>
      </trkpt>
      <trkpt lat="62.638021429353" lon="17.966776574425">
        <ele>50.4</ele>
        <time>2017-10-09T18:47:21Z</time>
      </trkpt>
      <trkpt lat="62.638039701895" lon="17.96683482863">
        <ele>50.4</ele>
        <time>2017-10-09T18:47:22Z</time>
      </trkpt>
      <trkpt lat="62.638063087396" lon="17.966892496102">
        <ele>50.6</ele>
        <time>2017-10-09T18:47:23Z</time>
      </trkpt>
      <trkpt lat="62.638078761549" lon="17.966944296244">
        <ele>50.6</ele>
        <time>2017-10-09T18:47:24Z</time>
      </trkpt>
      <trkpt lat="62.638099297204" lon="17.967008250141">
        <ele>50.8</ele>
        <time>2017-10-09T18:47:25Z</time>
      </trkpt>
      <trkpt lat="62.638120503411" lon="17.967058457722">
        <ele>50.8</ele>
        <time>2017-10-09T18:47:26Z</time>
      </trkpt>
      <trkpt lat="62.638149169509" lon="17.967106821285">
        <ele>50.8</ele>
        <time>2017-10-09T18:47:27Z</time>
      </trkpt>
      <trkpt lat="62.638173477019" lon="17.967146886767">
        <ele>50.8</ele>
        <time>2017-10-09T18:47:28Z</time>
      </trkpt>
      <trkpt lat="62.638200047642" lon="17.967181923109">
        <ele>50.6</ele>
        <time>2017-10-09T18:47:29Z</time>
      </trkpt>
      <trkpt lat="62.638234078156" lon="17.967216288899">
        <ele>50.6</ele>
        <time>2017-10-09T18:47:30Z</time>
      </trkpt>
      <trkpt lat="62.638264672091" lon="17.96723213069">
        <ele>50.6</ele>
        <time>2017-10-09T18:47:31Z</time>
      </trkpt>
      <trkpt lat="62.638297110044" lon="17.967246128463">
        <ele>50.8</ele>
        <time>2017-10-09T18:47:32Z</time>
      </trkpt>
      <trkpt lat="62.638328123074" lon="17.967253336897">
        <ele>51.2</ele>
        <time>2017-10-09T18:47:33Z</time>
      </trkpt>
      <trkpt lat="62.638360896303" lon="17.967256689657">
        <ele>51.4</ele>
        <time>2017-10-09T18:47:34Z</time>
      </trkpt>
      <trkpt lat="62.638402386708" lon="17.967251325241">
        <ele>51.4</ele>
        <time>2017-10-09T18:47:35Z</time>
      </trkpt>
      <trkpt lat="62.638435159937" lon="17.967241518418">
        <ele>51.6</ele>
        <time>2017-10-09T18:47:36Z</time>
      </trkpt>
      <trkpt lat="62.638465837691" lon="17.96722039603">
        <ele>51.6</ele>
        <time>2017-10-09T18:47:37Z</time>
      </trkpt>
      <trkpt lat="62.638497688911" lon="17.967192987217">
        <ele>51.8</ele>
        <time>2017-10-09T18:47:38Z</time>
      </trkpt>
      <trkpt lat="62.638523086068" lon="17.967166919508">
        <ele>51.6</ele>
        <time>2017-10-09T18:47:39Z</time>
      </trkpt>
      <trkpt lat="62.638552674175" lon="17.967126099655">
        <ele>51.8</ele>
        <time>2017-10-09T18:47:40Z</time>
      </trkpt>
      <trkpt lat="62.638578825703" lon="17.967082429956">
        <ele>52</ele>
        <time>2017-10-09T18:47:41Z</time>
      </trkpt>
      <trkpt lat="62.638604809593" lon="17.967035910411">
        <ele>51.8</ele>
        <time>2017-10-09T18:47:42Z</time>
      </trkpt>
      <trkpt lat="62.638624842334" lon="17.966977153292">
        <ele>51.6</ele>
        <time>2017-10-09T18:47:43Z</time>
      </trkpt>
      <trkpt lat="62.63863858865" lon="17.96691948582">
        <ele>51.6</ele>
        <time>2017-10-09T18:47:44Z</time>
      </trkpt>
      <trkpt lat="62.638654598079" lon="17.966845808919">
        <ele>51.6</ele>
        <time>2017-10-09T18:47:45Z</time>
      </trkpt>
      <trkpt lat="62.638667673843" lon="17.966786297429">
        <ele>51.6</ele>
        <time>2017-10-09T18:47:46Z</time>
      </trkpt>
      <trkpt lat="62.638677313028" lon="17.966716392383">
        <ele>51.6</ele>
        <time>2017-10-09T18:47:47Z</time>
      </trkpt>
      <trkpt lat="62.638686449299" lon="17.966644978595">
        <ele>51.6</ele>
        <time>2017-10-09T18:47:48Z</time>
      </trkpt>
      <trkpt lat="62.638685024376" lon="17.966572726617">
        <ele>51.6</ele>
        <time>2017-10-09T18:47:49Z</time>
      </trkpt>
      <trkpt lat="62.638685443471" lon="17.966497960069">
        <ele>51.8</ele>
        <time>2017-10-09T18:47:50Z</time>
      </trkpt>
      <trkpt lat="62.638680330512" lon="17.966423780254">
        <ele>52</ele>
        <time>2017-10-09T18:47:51Z</time>
      </trkpt>
      <trkpt lat="62.638673541173" lon="17.9663679568">
        <ele>51.8</ele>
        <time>2017-10-09T18:47:52Z</time>
      </trkpt>
      <trkpt lat="62.638660800685" lon="17.966293525528">
        <ele>52</ele>
        <time>2017-10-09T18:47:53Z</time>
      </trkpt>
      <trkpt lat="62.63864697055" lon="17.966238791721">
        <ele>52</ele>
        <time>2017-10-09T18:47:54Z</time>
      </trkpt>
      <trkpt lat="62.638627943637" lon="17.966177771489">
        <ele>51.8</ele>
        <time>2017-10-09T18:47:55Z</time>
      </trkpt>
      <trkpt lat="62.638608497629" lon="17.966126725718">
        <ele>51.8</ele>
        <time>2017-10-09T18:47:56Z</time>
      </trkpt>
      <trkpt lat="62.638587878155" lon="17.96607207573">
        <ele>51.8</ele>
        <time>2017-10-09T18:47:57Z</time>
      </trkpt>
      <trkpt lat="62.638570946717" lon="17.966021951968">
        <ele>51.8</ele>
        <time>2017-10-09T18:47:58Z</time>
      </trkpt>
      <trkpt lat="62.638554434374" lon="17.965962691935">
        <ele>52</ele>
        <time>2017-10-09T18:47:59Z</time>
      </trkpt>
      <trkpt lat="62.638537251479" lon="17.965912568173">
        <ele>52</ele>
        <time>2017-10-09T18:48:00Z</time>
      </trkpt>
      <trkpt lat="62.638517637833" lon="17.965860768031">
        <ele>52</ele>
        <time>2017-10-09T18:48:01Z</time>
      </trkpt>
      <trkpt lat="62.638500203481" lon="17.965796143582">
        <ele>52.2</ele>
        <time>2017-10-09T18:48:02Z</time>
      </trkpt>
      <trkpt lat="62.638481176568" lon="17.965749959313">
        <ele>52.2</ele>
        <time>2017-10-09T18:48:03Z</time>
      </trkpt>
      <trkpt lat="62.638463993673" lon="17.965703775044">
        <ele>52</ele>
        <time>2017-10-09T18:48:04Z</time>
      </trkpt>
      <trkpt lat="62.638445050579" lon="17.965648538323">
        <ele>52.2</ele>
        <time>2017-10-09T18:48:05Z</time>
      </trkpt>
      <trkpt lat="62.638422754725" lon="17.96558424915">
        <ele>52.4</ele>
        <time>2017-10-09T18:48:06Z</time>
      </trkpt>
      <trkpt lat="62.638400710328" lon="17.965530688809">
        <ele>52.2</ele>
        <time>2017-10-09T18:48:07Z</time>
      </trkpt>
      <trkpt lat="62.638382605424" lon="17.965469668577">
        <ele>52.2</ele>
        <time>2017-10-09T18:48:08Z</time>
      </trkpt>
      <trkpt lat="62.638361650674" lon="17.965424741593">
        <ele>52.2</ele>
        <time>2017-10-09T18:48:09Z</time>
      </trkpt>
      <trkpt lat="62.638342623761" lon="17.965359530411">
        <ele>52</ele>
        <time>2017-10-09T18:48:10Z</time>
      </trkpt>
      <trkpt lat="62.638321166097" lon="17.965302868767">
        <ele>52</ele>
        <time>2017-10-09T18:48:11Z</time>
      </trkpt>
      <trkpt lat="62.638301384813" lon="17.965253834652">
        <ele>51.8</ele>
        <time>2017-10-09T18:48:12Z</time>
      </trkpt>
      <trkpt lat="62.638279508054" lon="17.965194574619">
        <ele>51.8</ele>
        <time>2017-10-09T18:48:13Z</time>
      </trkpt>
      <trkpt lat="62.638263247168" lon="17.965143277391">
        <ele>51.8</ele>
        <time>2017-10-09T18:48:14Z</time>
      </trkpt>
      <trkpt lat="62.638241202771" lon="17.965090219964">
        <ele>52</ele>
        <time>2017-10-09T18:48:15Z</time>
      </trkpt>
      <trkpt lat="62.638221086211" lon="17.965024589687">
        <ele>52.2</ele>
        <time>2017-10-09T18:48:16Z</time>
      </trkpt>
      <trkpt lat="62.63820272985" lon="17.964965245835">
        <ele>52.2</ele>
        <time>2017-10-09T18:48:17Z</time>
      </trkpt>
      <trkpt lat="62.638179009073" lon="17.964916966091">
        <ele>52.2</ele>
        <time>2017-10-09T18:48:18Z</time>
      </trkpt>
      <trkpt lat="62.638157802866" lon="17.96485670023">
        <ele>52.4</ele>
        <time>2017-10-09T18:48:19Z</time>
      </trkpt>
      <trkpt lat="62.63813735103" lon="17.964797021102">
        <ele>52.4</ele>
        <time>2017-10-09T18:48:20Z</time>
      </trkpt>
      <trkpt lat="62.638111031864" lon="17.964749747186">
        <ele>52.2</ele>
        <time>2017-10-09T18:48:21Z</time>
      </trkpt>
      <trkpt lat="62.638086137621" lon="17.964704317288">
        <ele>52.2</ele>
        <time>2017-10-09T18:48:22Z</time>
      </trkpt>
      <trkpt lat="62.638057639161" lon="17.96466307834">
        <ele>52.2</ele>
        <time>2017-10-09T18:48:23Z</time>
      </trkpt>
      <trkpt lat="62.638026207036" lon="17.964629886016">
        <ele>52</ele>
        <time>2017-10-09T18:48:24Z</time>
      </trkpt>
      <trkpt lat="62.637990583961" lon="17.964603985945">
        <ele>51.8</ele>
        <time>2017-10-09T18:48:25Z</time>
      </trkpt>
      <trkpt lat="62.63796216932" lon="17.964585713403">
        <ele>51.8</ele>
        <time>2017-10-09T18:48:26Z</time>
      </trkpt>
      <trkpt lat="62.637926630064" lon="17.964571547992">
        <ele>51.8</ele>
        <time>2017-10-09T18:48:27Z</time>
      </trkpt>
      <trkpt lat="62.637899724165" lon="17.964566770309">
        <ele>51.8</ele>
        <time>2017-10-09T18:48:28Z</time>
      </trkpt>
      <trkpt lat="62.637867705307" lon="17.964568530508">
        <ele>51.8</ele>
        <time>2017-10-09T18:48:29Z</time>
      </trkpt>
      <trkpt lat="62.637831746956" lon="17.964573308191">
        <ele>51.8</ele>
        <time>2017-10-09T18:48:30Z</time>
      </trkpt>
      <trkpt lat="62.637803164677" lon="17.964581857729">
        <ele>51.8</ele>
        <time>2017-10-09T18:48:31Z</time>
      </trkpt>
      <trkpt lat="62.637771564914" lon="17.964599292081">
        <ele>51.6</ele>
        <time>2017-10-09T18:48:32Z</time>
      </trkpt>
      <trkpt lat="62.637744072282" lon="17.964629215464">
        <ele>51.6</ele>
        <time>2017-10-09T18:48:33Z</time>
      </trkpt>
      <trkpt lat="62.637718591306" lon="17.964658133019">
        <ele>51.6</ele>
        <time>2017-10-09T18:48:34Z</time>
      </trkpt>
      <trkpt lat="62.637687662095" lon="17.964703982012">
        <ele>51.4</ele>
        <time>2017-10-09T18:48:35Z</time>
      </trkpt>
      <trkpt lat="62.637663689861" lon="17.964745304779">
        <ele>51.2</ele>
        <time>2017-10-09T18:48:36Z</time>
      </trkpt>
      <trkpt lat="62.637642399835" lon="17.964794925627">
        <ele>51</ele>
        <time>2017-10-09T18:48:37Z</time>
      </trkpt>
      <trkpt lat="62.637619098153" lon="17.964844462656">
        <ele>51</ele>
        <time>2017-10-09T18:48:38Z</time>
      </trkpt>
      <trkpt lat="62.637603507819" lon="17.964902213947">
        <ele>51</ele>
        <time>2017-10-09T18:48:39Z</time>
      </trkpt>
      <trkpt lat="62.637591773159" lon="17.964963904731">
        <ele>51</ele>
        <time>2017-10-09T18:48:40Z</time>
      </trkpt>
      <trkpt lat="62.637580206137" lon="17.965036743442">
        <ele>51</ele>
        <time>2017-10-09T18:48:41Z</time>
      </trkpt>
      <trkpt lat="62.637575009359" lon="17.965098685683">
        <ele>51.2</ele>
        <time>2017-10-09T18:48:42Z</time>
      </trkpt>
      <trkpt lat="62.637568555296" lon="17.965166495254">
        <ele>51</ele>
        <time>2017-10-09T18:48:43Z</time>
      </trkpt>
      <trkpt lat="62.637569561124" lon="17.965231622617">
        <ele>50.6</ele>
        <time>2017-10-09T18:48:44Z</time>
      </trkpt>
      <trkpt lat="62.63757241097" lon="17.965307394993">
        <ele>50.6</ele>
        <time>2017-10-09T18:48:45Z</time>
      </trkpt>
      <trkpt lat="62.637575428454" lon="17.965373612003">
        <ele>50.4</ele>
        <time>2017-10-09T18:48:46Z</time>
      </trkpt>
      <trkpt lat="62.63758414563" lon="17.965441086298">
        <ele>50.2</ele>
        <time>2017-10-09T18:48:47Z</time>
      </trkpt>
      <trkpt lat="62.63759252753" lon="17.965504704919">
        <ele>50</ele>
        <time>2017-10-09T18:48:48Z</time>
      </trkpt>
      <trkpt lat="62.637609039873" lon="17.965567317712">
        <ele>50.2</ele>
        <time>2017-10-09T18:48:49Z</time>
      </trkpt>
      <trkpt lat="62.637627899148" lon="17.965630936333">
        <ele>50.2</ele>
        <time>2017-10-09T18:48:50Z</time>
      </trkpt>
      <trkpt lat="62.637649189174" lon="17.965691118375">
        <ele>50</ele>
        <time>2017-10-09T18:48:51Z</time>
      </trkpt>
      <trkpt lat="62.637665366241" lon="17.965739062843">
        <ele>50.2</ele>
        <time>2017-10-09T18:48:52Z</time>
      </trkpt>
      <trkpt lat="62.637685231344" lon="17.965800166894">
        <ele>50.2</ele>
        <time>2017-10-09T18:48:53Z</time>
      </trkpt>
      <trkpt lat="62.637700234945" lon="17.965851212665">
        <ele>50.2</ele>
        <time>2017-10-09T18:48:54Z</time>
      </trkpt>
      <trkpt lat="62.637718591306" lon="17.965906617024">
        <ele>50.2</ele>
        <time>2017-10-09T18:48:55Z</time>
      </trkpt>
      <trkpt lat="62.6377375344" lon="17.965968056351">
        <ele>50.2</ele>
        <time>2017-10-09T18:48:56Z</time>
      </trkpt>
      <trkpt lat="62.637756477494" lon="17.966019102122">
        <ele>50.2</ele>
        <time>2017-10-09T18:48:57Z</time>
      </trkpt>
      <trkpt lat="62.637776845511" lon="17.96607542849">
        <ele>50</ele>
        <time>2017-10-09T18:48:58Z</time>
      </trkpt>
      <trkpt lat="62.637796040062" lon="17.966127228632">
        <ele>49.6</ele>
        <time>2017-10-09T18:48:59Z</time>
      </trkpt>
      <trkpt lat="62.637815569889" lon="17.966180621335">
        <ele>49.4</ele>
        <time>2017-10-09T18:49:00Z</time>
      </trkpt>
      <trkpt lat="62.637832501327" lon="17.966241473929">
        <ele>49.4</ele>
        <time>2017-10-09T18:49:01Z</time>
      </trkpt>
      <trkpt lat="62.637853539896" lon="17.966295621003">
        <ele>49.4</ele>
        <time>2017-10-09T18:49:02Z</time>
      </trkpt>
      <trkpt lat="62.637870638972" lon="17.966358066158">
        <ele>49.6</ele>
        <time>2017-10-09T18:49:03Z</time>
      </trkpt>
      <trkpt lat="62.63788924679" lon="17.966405926807">
        <ele>49.8</ele>
        <time>2017-10-09T18:49:04Z</time>
      </trkpt>
      <trkpt lat="62.637910872092" lon="17.96646518684">
        <ele>50.2</ele>
        <time>2017-10-09T18:49:05Z</time>
      </trkpt>
      <trkpt lat="62.637927049159" lon="17.966520926475">
        <ele>49.8</ele>
        <time>2017-10-09T18:49:06Z</time>
      </trkpt>
      <trkpt lat="62.637944734968" lon="17.966568535667">
        <ele>49.4</ele>
        <time>2017-10-09T18:49:07Z</time>
      </trkpt>
      <trkpt lat="62.637964264795" lon="17.966629723537">
        <ele>49.2</ele>
        <time>2017-10-09T18:49:08Z</time>
      </trkpt>
      <trkpt lat="62.63797977131" lon="17.966679679661">
        <ele>49</ele>
        <time>2017-10-09T18:49:09Z</time>
      </trkpt>
      <trkpt lat="62.638001061336" lon="17.966737179495">
        <ele>49</ele>
        <time>2017-10-09T18:49:10Z</time>
      </trkpt>
      <trkpt lat="62.638022519" lon="17.966804569971">
        <ele>49</ele>
        <time>2017-10-09T18:49:11Z</time>
      </trkpt>
      <trkpt lat="62.6380392828" lon="17.966858214131">
        <ele>49.4</ele>
        <time>2017-10-09T18:49:12Z</time>
      </trkpt>
      <trkpt lat="62.63805856117" lon="17.966923592951">
        <ele>49.6</ele>
        <time>2017-10-09T18:49:13Z</time>
      </trkpt>
      <trkpt lat="62.638089155105" lon="17.967018140783">
        <ele>49.8</ele>
        <time>2017-10-09T18:49:15Z</time>
      </trkpt>
      <trkpt lat="62.638094938616" lon="17.967044962863">
        <ele>50</ele>
        <time>2017-10-09T18:49:16Z</time>
      </trkpt>
      <trkpt lat="62.638098710471" lon="17.9670720364">
        <ele>50.2</ele>
        <time>2017-10-09T18:49:17Z</time>
      </trkpt>
      <trkpt lat="62.638103069059" lon="17.967096427729">
        <ele>50.6</ele>
        <time>2017-10-09T18:49:18Z</time>
      </trkpt>
      <trkpt lat="62.638097872281" lon="17.967119561773">
        <ele>51</ele>
        <time>2017-10-09T18:49:19Z</time>
      </trkpt>
      <trkpt lat="62.638100889765" lon="17.967146551491">
        <ele>51</ele>
        <time>2017-10-09T18:49:20Z</time>
      </trkpt>
      <trkpt lat="62.638106589457" lon="17.967170775182">
        <ele>51</ele>
        <time>2017-10-09T18:49:21Z</time>
      </trkpt>
      <trkpt lat="62.638113797891" lon="17.967190975561">
        <ele>51</ele>
        <time>2017-10-09T18:49:22Z</time>
      </trkpt>
      <trkpt lat="62.638121928334" lon="17.96721620508">
        <ele>50.8</ele>
        <time>2017-10-09T18:49:23Z</time>
      </trkpt>
      <trkpt lat="62.638128382397" lon="17.967236489278">
        <ele>50.6</ele>
        <time>2017-10-09T18:49:24Z</time>
      </trkpt>
      <trkpt lat="62.638135758469" lon="17.96724554173">
        <ele>50.8</ele>
        <time>2017-10-09T18:49:25Z</time>
      </trkpt>
      <trkpt lat="62.638148079862" lon="17.967252163431">
        <ele>50.8</ele>
        <time>2017-10-09T18:49:26Z</time>
      </trkpt>
      <trkpt lat="62.638163083463" lon="17.967260461512">
        <ele>50.8</ele>
        <time>2017-10-09T18:49:27Z</time>
      </trkpt>
      <trkpt lat="62.638172974105" lon="17.967269262507">
        <ele>50.8</ele>
        <time>2017-10-09T18:49:28Z</time>
      </trkpt>
      <trkpt lat="62.638183702937" lon="17.967286696859">
        <ele>51</ele>
        <time>2017-10-09T18:49:29Z</time>
      </trkpt>
      <trkpt lat="62.638193425941" lon="17.967305556134">
        <ele>51</ele>
        <time>2017-10-09T18:49:30Z</time>
      </trkpt>
      <trkpt lat="62.638202226936" lon="17.967320727373">
        <ele>51.2</ele>
        <time>2017-10-09T18:49:31Z</time>
      </trkpt>
      <trkpt lat="62.63821194994" lon="17.967333635499">
        <ele>51</ele>
        <time>2017-10-09T18:49:32Z</time>
      </trkpt>
      <trkpt lat="62.638222678772" lon="17.967345873073">
        <ele>51</ele>
        <time>2017-10-09T18:49:33Z</time>
      </trkpt>
      <trkpt lat="62.638231395948" lon="17.967355596077">
        <ele>51.2</ele>
        <time>2017-10-09T18:49:34Z</time>
      </trkpt>
      <trkpt lat="62.638239777848" lon="17.967366324909">
        <ele>51.2</ele>
        <time>2017-10-09T18:49:35Z</time>
      </trkpt>
      <trkpt lat="62.638236508907" lon="17.967354925525">
        <ele>51.2</ele>
        <time>2017-10-09T18:49:36Z</time>
      </trkpt>
      <trkpt lat="62.638235083984" lon="17.967342604132">
        <ele>51</ele>
        <time>2017-10-09T18:49:37Z</time>
      </trkpt>
      <trkpt lat="62.638442536009" lon="17.967428602426">
        <ele>51.2</ele>
        <time>2017-10-09T18:50:13Z</time>
      </trkpt>
      <trkpt lat="62.638451337004" lon="17.967426339313">
        <ele>51.2</ele>
        <time>2017-10-09T18:50:14Z</time>
      </trkpt>
      <trkpt lat="62.63846089237" lon="17.967415191386">
        <ele>51</ele>
        <time>2017-10-09T18:50:15Z</time>
      </trkpt>
      <trkpt lat="62.638471118288" lon="17.967412592997">
        <ele>51.2</ele>
        <time>2017-10-09T18:50:16Z</time>
      </trkpt>
      <trkpt lat="62.638481428025" lon="17.967403792002">
        <ele>51.2</ele>
        <time>2017-10-09T18:50:17Z</time>
      </trkpt>
      <trkpt lat="62.638492995047" lon="17.96739390136">
        <ele>51.2</ele>
        <time>2017-10-09T18:50:18Z</time>
      </trkpt>
      <trkpt lat="62.638505735535" lon="17.967380741777">
        <ele>51.2</ele>
        <time>2017-10-09T18:50:19Z</time>
      </trkpt>
      <trkpt lat="62.638516380548" lon="17.967366492547">
        <ele>51.4</ele>
        <time>2017-10-09T18:50:20Z</time>
      </trkpt>
      <trkpt lat="62.638521661145" lon="17.96734193358">
        <ele>51.4</ele>
        <time>2017-10-09T18:50:21Z</time>
      </trkpt>
      <trkpt lat="62.638532557615" lon="17.967329193092">
        <ele>51.4</ele>
        <time>2017-10-09T18:50:22Z</time>
      </trkpt>
      <trkpt lat="62.638535575099" lon="17.967320727373">
        <ele>51.4</ele>
        <time>2017-10-09T18:50:23Z</time>
      </trkpt>
      <trkpt lat="62.638542029162" lon="17.96730589141">
        <ele>51.6</ele>
        <time>2017-10-09T18:50:24Z</time>
      </trkpt>
      <trkpt lat="62.6385505787" lon="17.967286780678">
        <ele>51.6</ele>
        <time>2017-10-09T18:50:25Z</time>
      </trkpt>
      <trkpt lat="62.638556362211" lon="17.967269346326">
        <ele>51.6</ele>
        <time>2017-10-09T18:50:26Z</time>
      </trkpt>
      <trkpt lat="62.638566588129" lon="17.967252582526">
        <ele>51.6</ele>
        <time>2017-10-09T18:50:27Z</time>
      </trkpt>
      <trkpt lat="62.638582178463" lon="17.967234896717">
        <ele>51.6</ele>
        <time>2017-10-09T18:50:28Z</time>
      </trkpt>
      <trkpt lat="62.638595505684" lon="17.967231795414">
        <ele>51.6</ele>
        <time>2017-10-09T18:50:29Z</time>
      </trkpt>
      <trkpt lat="62.638608329991" lon="17.967224670799">
        <ele>51.6</ele>
        <time>2017-10-09T18:50:30Z</time>
      </trkpt>
      <trkpt lat="62.638613526769" lon="17.967221066582">
        <ele>51.6</ele>
        <time>2017-10-09T18:50:31Z</time>
      </trkpt>
      <trkpt lat="62.638624171782" lon="17.967210002474">
        <ele>51.4</ele>
        <time>2017-10-09T18:50:32Z</time>
      </trkpt>
      <trkpt lat="62.638631547854" lon="17.967200111832">
        <ele>51.4</ele>
        <time>2017-10-09T18:50:33Z</time>
      </trkpt>
      <trkpt lat="62.638629871474" lon="17.967184772955">
        <ele>51.4</ele>
        <time>2017-10-09T18:50:34Z</time>
      </trkpt>
      <trkpt lat="62.638632553682" lon="17.96715753178">
        <ele>51.4</ele>
        <time>2017-10-09T18:50:35Z</time>
      </trkpt>
      <trkpt lat="62.63863523589" lon="17.967148060233">
        <ele>51.6</ele>
        <time>2017-10-09T18:50:36Z</time>
      </trkpt>
      <trkpt lat="62.638640097392" lon="17.967138001953">
        <ele>51.4</ele>
        <time>2017-10-09T18:50:37Z</time>
      </trkpt>
      <trkpt lat="62.638643533971" lon="17.967132302261">
        <ele>51.6</ele>
        <time>2017-10-09T18:50:38Z</time>
      </trkpt>
      <trkpt lat="62.63864780874" lon="17.967108665303">
        <ele>51.6</ele>
        <time>2017-10-09T18:50:39Z</time>
      </trkpt>
      <trkpt lat="62.638653843708" lon="17.96708628563">
        <ele>51.6</ele>
        <time>2017-10-09T18:50:40Z</time>
      </trkpt>
      <trkpt lat="62.638663231436" lon="17.967068935097">
        <ele>51.6</ele>
        <time>2017-10-09T18:50:41Z</time>
      </trkpt>
      <trkpt lat="62.638664153445" lon="17.967048399442">
        <ele>51.4</ele>
        <time>2017-10-09T18:50:42Z</time>
      </trkpt>
      <trkpt lat="62.638670858965" lon="17.967027277054">
        <ele>51.4</ele>
        <time>2017-10-09T18:50:43Z</time>
      </trkpt>
      <trkpt lat="62.63867379263" lon="17.967002634268">
        <ele>51.4</ele>
        <time>2017-10-09T18:50:44Z</time>
      </trkpt>
      <trkpt lat="62.638678486494" lon="17.96697396817">
        <ele>51.4</ele>
        <time>2017-10-09T18:50:45Z</time>
      </trkpt>
      <trkpt lat="62.638684353824" lon="17.966945804986">
        <ele>51.4</ele>
        <time>2017-10-09T18:50:46Z</time>
      </trkpt>
      <trkpt lat="62.638690640249" lon="17.966920240191">
        <ele>51.4</ele>
        <time>2017-10-09T18:50:47Z</time>
      </trkpt>
      <trkpt lat="62.638693741552" lon="17.966897357604">
        <ele>51.4</ele>
        <time>2017-10-09T18:50:48Z</time>
      </trkpt>
      <trkpt lat="62.638697513407" lon="17.966865087289">
        <ele>51.4</ele>
        <time>2017-10-09T18:50:49Z</time>
      </trkpt>
      <trkpt lat="62.63869977652" lon="17.966840193046">
        <ele>51.2</ele>
        <time>2017-10-09T18:50:50Z</time>
      </trkpt>
      <trkpt lat="62.638704302746" lon="17.966814544432">
        <ele>51.2</ele>
        <time>2017-10-09T18:50:51Z</time>
      </trkpt>
      <trkpt lat="62.638706398221" lon="17.966785962153">
        <ele>51.2</ele>
        <time>2017-10-09T18:50:52Z</time>
      </trkpt>
      <trkpt lat="62.638710170076" lon="17.966758050426">
        <ele>51.4</ele>
        <time>2017-10-09T18:50:53Z</time>
      </trkpt>
      <trkpt lat="62.638713858112" lon="17.966729803423">
        <ele>51.4</ele>
        <time>2017-10-09T18:50:54Z</time>
      </trkpt>
      <trkpt lat="62.638715785949" lon="17.966702813705">
        <ele>51.2</ele>
        <time>2017-10-09T18:50:55Z</time>
      </trkpt>
      <trkpt lat="62.638715618311" lon="17.966679847299">
        <ele>51.2</ele>
        <time>2017-10-09T18:50:56Z</time>
      </trkpt>
      <trkpt lat="62.638716121225" lon="17.966655958884">
        <ele>51.2</ele>
        <time>2017-10-09T18:50:57Z</time>
      </trkpt>
      <trkpt lat="62.638716959415" lon="17.966632573383">
        <ele>51.2</ele>
        <time>2017-10-09T18:50:58Z</time>
      </trkpt>
      <trkpt lat="62.638718803433" lon="17.966604913113">
        <ele>51.2</ele>
        <time>2017-10-09T18:50:59Z</time>
      </trkpt>
      <trkpt lat="62.638717965243" lon="17.966572894255">
        <ele>51.2</ele>
        <time>2017-10-09T18:51:00Z</time>
      </trkpt>
      <trkpt lat="62.63871654032" lon="17.966548670564">
        <ele>51.2</ele>
        <time>2017-10-09T18:51:01Z</time>
      </trkpt>
      <trkpt lat="62.638716288863" lon="17.966521597027">
        <ele>51.2</ele>
        <time>2017-10-09T18:51:02Z</time>
      </trkpt>
      <trkpt lat="62.638714361026" lon="17.966501648105">
        <ele>51.2</ele>
        <time>2017-10-09T18:51:03Z</time>
      </trkpt>
      <trkpt lat="62.638713606655" lon="17.966480609536">
        <ele>51.2</ele>
        <time>2017-10-09T18:51:04Z</time>
      </trkpt>
      <trkpt lat="62.638713019922" lon="17.966456888759">
        <ele>51.2</ele>
        <time>2017-10-09T18:51:05Z</time>
      </trkpt>
      <trkpt lat="62.638710170076" lon="17.966423444978">
        <ele>51.2</ele>
        <time>2017-10-09T18:51:06Z</time>
      </trkpt>
      <trkpt lat="62.638707571687" lon="17.966396622898">
        <ele>51.2</ele>
        <time>2017-10-09T18:51:07Z</time>
      </trkpt>
      <trkpt lat="62.638703799832" lon="17.966374913777">
        <ele>51.2</ele>
        <time>2017-10-09T18:51:08Z</time>
      </trkpt>
      <trkpt lat="62.638700530891" lon="17.966353959027">
        <ele>51.2</ele>
        <time>2017-10-09T18:51:09Z</time>
      </trkpt>
      <trkpt lat="62.638696339941" lon="17.966335351209">
        <ele>51.2</ele>
        <time>2017-10-09T18:51:10Z</time>
      </trkpt>
      <trkpt lat="62.638691562258" lon="17.96631347445">
        <ele>51.2</ele>
        <time>2017-10-09T18:51:11Z</time>
      </trkpt>
      <trkpt lat="62.638685778747" lon="17.966285981818">
        <ele>51.2</ele>
        <time>2017-10-09T18:51:12Z</time>
      </trkpt>
      <trkpt lat="62.638679827598" lon="17.966262261041">
        <ele>51.4</ele>
        <time>2017-10-09T18:51:13Z</time>
      </trkpt>
      <trkpt lat="62.638670020775" lon="17.966241641567">
        <ele>51.4</ele>
        <time>2017-10-09T18:51:14Z</time>
      </trkpt>
      <trkpt lat="62.638663399074" lon="17.96621875898">
        <ele>51.4</ele>
        <time>2017-10-09T18:51:15Z</time>
      </trkpt>
      <trkpt lat="62.638658034658" lon="17.966203587741">
        <ele>51.4</ele>
        <time>2017-10-09T18:51:16Z</time>
      </trkpt>
      <trkpt lat="62.63865199969" lon="17.966188416502">
        <ele>51.2</ele>
        <time>2017-10-09T18:51:17Z</time>
      </trkpt>
      <trkpt lat="62.638645713265" lon="17.966168635218">
        <ele>51.2</ele>
        <time>2017-10-09T18:51:18Z</time>
      </trkpt>
      <trkpt lat="62.638638001917" lon="17.966145668812">
        <ele>51.2</ele>
        <time>2017-10-09T18:51:19Z</time>
      </trkpt>
      <trkpt lat="62.638629871474" lon="17.966129575564">
        <ele>51.2</ele>
        <time>2017-10-09T18:51:20Z</time>
      </trkpt>
      <trkpt lat="62.638623165954" lon="17.966106609158">
        <ele>51.2</ele>
        <time>2017-10-09T18:51:21Z</time>
      </trkpt>
      <trkpt lat="62.638616544253" lon="17.966093365756">
        <ele>51.2</ele>
        <time>2017-10-09T18:51:22Z</time>
      </trkpt>
      <trkpt lat="62.638611598932" lon="17.966079116526">
        <ele>51.2</ele>
        <time>2017-10-09T18:51:23Z</time>
      </trkpt>
      <trkpt lat="62.638605228688" lon="17.966059335242">
        <ele>51.2</ele>
        <time>2017-10-09T18:51:24Z</time>
      </trkpt>
      <trkpt lat="62.638599361358" lon="17.966036704112">
        <ele>51.4</ele>
        <time>2017-10-09T18:51:25Z</time>
      </trkpt>
      <trkpt lat="62.638587710517" lon="17.966016000819">
        <ele>51.4</ele>
        <time>2017-10-09T18:51:26Z</time>
      </trkpt>
      <trkpt lat="62.638581843187" lon="17.965993621146">
        <ele>51.4</ele>
        <time>2017-10-09T18:51:27Z</time>
      </trkpt>
      <trkpt lat="62.638573796563" lon="17.965979288097">
        <ele>51.4</ele>
        <time>2017-10-09T18:51:28Z</time>
      </trkpt>
      <trkpt lat="62.638566336672" lon="17.965966631428">
        <ele>51.4</ele>
        <time>2017-10-09T18:51:29Z</time>
      </trkpt>
      <trkpt lat="62.638559714971" lon="17.96594802361">
        <ele>51.6</ele>
        <time>2017-10-09T18:51:30Z</time>
      </trkpt>
      <trkpt lat="62.638551165433" lon="17.965929080516">
        <ele>51.6</ele>
        <time>2017-10-09T18:51:31Z</time>
      </trkpt>
      <trkpt lat="62.63854387318" lon="17.965905192101">
        <ele>51.6</ele>
        <time>2017-10-09T18:51:32Z</time>
      </trkpt>
      <trkpt lat="62.638538927859" lon="17.9658818066">
        <ele>51.8</ele>
        <time>2017-10-09T18:51:33Z</time>
      </trkpt>
      <trkpt lat="62.638533479624" lon="17.965863953153">
        <ele>51.8</ele>
        <time>2017-10-09T18:51:34Z</time>
      </trkpt>
      <trkpt lat="62.638527277018" lon="17.965844004231">
        <ele>51.8</ele>
        <time>2017-10-09T18:51:35Z</time>
      </trkpt>
      <trkpt lat="62.638521661145" lon="17.965825815508">
        <ele>51.8</ele>
        <time>2017-10-09T18:51:36Z</time>
      </trkpt>
      <trkpt lat="62.638516548186" lon="17.965809051708">
        <ele>52</ele>
        <time>2017-10-09T18:51:37Z</time>
      </trkpt>
      <trkpt lat="62.638507914829" lon="17.965788264596">
        <ele>52</ele>
        <time>2017-10-09T18:51:38Z</time>
      </trkpt>
      <trkpt lat="62.63849944911" lon="17.965761610154">
        <ele>52</ele>
        <time>2017-10-09T18:51:39Z</time>
      </trkpt>
      <trkpt lat="62.638492575952" lon="17.965746438915">
        <ele>52</ele>
        <time>2017-10-09T18:51:40Z</time>
      </trkpt>
      <trkpt lat="62.638484613147" lon="17.965728334011">
        <ele>52</ele>
        <time>2017-10-09T18:51:41Z</time>
      </trkpt>
      <trkpt lat="62.63848184712" lon="17.96571165403">
        <ele>51.8</ele>
        <time>2017-10-09T18:51:42Z</time>
      </trkpt>
      <trkpt lat="62.63847765617" lon="17.965695141687">
        <ele>52</ele>
        <time>2017-10-09T18:51:43Z</time>
      </trkpt>
      <trkpt lat="62.638470363917" lon="17.965681898285">
        <ele>52</ele>
        <time>2017-10-09T18:51:44Z</time>
      </trkpt>
      <trkpt lat="62.638458545438" lon="17.965664044838">
        <ele>52</ele>
        <time>2017-10-09T18:51:45Z</time>
      </trkpt>
      <trkpt lat="62.638454605945" lon="17.965635043464">
        <ele>52.2</ele>
        <time>2017-10-09T18:51:46Z</time>
      </trkpt>
      <trkpt lat="62.638448570977" lon="17.965606712642">
        <ele>52.2</ele>
        <time>2017-10-09T18:51:47Z</time>
      </trkpt>
      <trkpt lat="62.638440189077" lon="17.965602018778">
        <ele>52.2</ele>
        <time>2017-10-09T18:51:48Z</time>
      </trkpt>
      <trkpt lat="62.638434321747" lon="17.965583830055">
        <ele>52.4</ele>
        <time>2017-10-09T18:51:49Z</time>
      </trkpt>
      <trkpt lat="62.638428789693" lon="17.96557083811">
        <ele>52.4</ele>
        <time>2017-10-09T18:51:50Z</time>
      </trkpt>
      <trkpt lat="62.638417725585" lon="17.96554569241">
        <ele>52.4</ele>
        <time>2017-10-09T18:51:51Z</time>
      </trkpt>
      <trkpt lat="62.638411271522" lon="17.965527000773">
        <ele>52.4</ele>
        <time>2017-10-09T18:51:52Z</time>
      </trkpt>
      <trkpt lat="62.638404482183" lon="17.965497161209">
        <ele>52.4</ele>
        <time>2017-10-09T18:51:53Z</time>
      </trkpt>
      <trkpt lat="62.638394172446" lon="17.965482157608">
        <ele>52.4</ele>
        <time>2017-10-09T18:51:54Z</time>
      </trkpt>
      <trkpt lat="62.638387802202" lon="17.96546103522">
        <ele>52.4</ele>
        <time>2017-10-09T18:51:55Z</time>
      </trkpt>
      <trkpt lat="62.638381096682" lon="17.965446534533">
        <ele>52.4</ele>
        <time>2017-10-09T18:51:56Z</time>
      </trkpt>
      <trkpt lat="62.638372798601" lon="17.965433961683">
        <ele>52.4</ele>
        <time>2017-10-09T18:51:57Z</time>
      </trkpt>
      <trkpt lat="62.638364835796" lon="17.965412084924">
        <ele>52.4</ele>
        <time>2017-10-09T18:51:58Z</time>
      </trkpt>
      <trkpt lat="62.638357711181" lon="17.965388867061">
        <ele>52.2</ele>
        <time>2017-10-09T18:51:59Z</time>
      </trkpt>
      <trkpt lat="62.638348994005" lon="17.965365313922">
        <ele>52.2</ele>
        <time>2017-10-09T18:52:00Z</time>
      </trkpt>
      <trkpt lat="62.638342456123" lon="17.965342347516">
        <ele>52</ele>
        <time>2017-10-09T18:52:01Z</time>
      </trkpt>
      <trkpt lat="62.638336588793" lon="17.965317285635">
        <ele>52</ele>
        <time>2017-10-09T18:52:02Z</time>
      </trkpt>
      <trkpt lat="62.638330218549" lon="17.965298007265">
        <ele>51.8</ele>
        <time>2017-10-09T18:52:03Z</time>
      </trkpt>
      <trkpt lat="62.638320747002" lon="17.965286440243">
        <ele>51.8</ele>
        <time>2017-10-09T18:52:04Z</time>
      </trkpt>
      <trkpt lat="62.638314963491" lon="17.965265820769">
        <ele>51.8</ele>
        <time>2017-10-09T18:52:05Z</time>
      </trkpt>
      <trkpt lat="62.638307000686" lon="17.965242016173">
        <ele>51.8</ele>
        <time>2017-10-09T18:52:06Z</time>
      </trkpt>
      <trkpt lat="62.638299624614" lon="17.965221396699">
        <ele>51.8</ele>
        <time>2017-10-09T18:52:07Z</time>
      </trkpt>
      <trkpt lat="62.63829325437" lon="17.96520119632">
        <ele>51.8</ele>
        <time>2017-10-09T18:52:08Z</time>
      </trkpt>
      <trkpt lat="62.638287554678" lon="17.965188120556">
        <ele>51.6</ele>
        <time>2017-10-09T18:52:09Z</time>
      </trkpt>
      <trkpt lat="62.638281771167" lon="17.965168339272">
        <ele>51.6</ele>
        <time>2017-10-09T18:52:10Z</time>
      </trkpt>
      <trkpt lat="62.638277747855" lon="17.965159873553">
        <ele>51.8</ele>
        <time>2017-10-09T18:52:11Z</time>
      </trkpt>
      <trkpt lat="62.638268611584" lon="17.96512995017">
        <ele>51.8</ele>
        <time>2017-10-09T18:52:12Z</time>
      </trkpt>
      <trkpt lat="62.638260481141" lon="17.96510899542">
        <ele>51.8</ele>
        <time>2017-10-09T18:52:13Z</time>
      </trkpt>
      <trkpt lat="62.638253524164" lon="17.965091309611">
        <ele>51.8</ele>
        <time>2017-10-09T18:52:14Z</time>
      </trkpt>
      <trkpt lat="62.638247908291" lon="17.965076389829">
        <ele>51.8</ele>
        <time>2017-10-09T18:52:15Z</time>
      </trkpt>
      <trkpt lat="62.638242376237" lon="17.965058620201">
        <ele>51.8</ele>
        <time>2017-10-09T18:52:16Z</time>
      </trkpt>
      <trkpt lat="62.638235167803" lon="17.965038922736">
        <ele>51.6</ele>
        <time>2017-10-09T18:52:17Z</time>
      </trkpt>
      <trkpt lat="62.638228965197" lon="17.965014615226">
        <ele>51.6</ele>
        <time>2017-10-09T18:52:18Z</time>
      </trkpt>
      <trkpt lat="62.638223768419" lon="17.965001623281">
        <ele>51.4</ele>
        <time>2017-10-09T18:52:19Z</time>
      </trkpt>
      <trkpt lat="62.638218152546" lon="17.964983434558">
        <ele>51.6</ele>
        <time>2017-10-09T18:52:20Z</time>
      </trkpt>
      <trkpt lat="62.638212620492" lon="17.9649681795">
        <ele>51.4</ele>
        <time>2017-10-09T18:52:21Z</time>
      </trkpt>
      <trkpt lat="62.638205831153" lon="17.964948817311">
        <ele>51.6</ele>
        <time>2017-10-09T18:52:22Z</time>
      </trkpt>
      <trkpt lat="62.638198455081" lon="17.964928952208">
        <ele>51.6</ele>
        <time>2017-10-09T18:52:23Z</time>
      </trkpt>
      <trkpt lat="62.638191498104" lon="17.964911350218">
        <ele>51.6</ele>
        <time>2017-10-09T18:52:24Z</time>
      </trkpt>
      <trkpt lat="62.638186636602" lon="17.964896011341">
        <ele>51.6</ele>
        <time>2017-10-09T18:52:25Z</time>
      </trkpt>
      <trkpt lat="62.638183200023" lon="17.964884109043">
        <ele>51.6</ele>
        <time>2017-10-09T18:52:26Z</time>
      </trkpt>
      <trkpt lat="62.638175991589" lon="17.96486675851">
        <ele>51.6</ele>
        <time>2017-10-09T18:52:27Z</time>
      </trkpt>
      <trkpt lat="62.638168280241" lon="17.964852425461">
        <ele>51.6</ele>
        <time>2017-10-09T18:52:28Z</time>
      </trkpt>
      <trkpt lat="62.638161909997" lon="17.964840187887">
        <ele>51.6</ele>
        <time>2017-10-09T18:52:29Z</time>
      </trkpt>
      <trkpt lat="62.638157299952" lon="17.964820825698">
        <ele>51.6</ele>
        <time>2017-10-09T18:52:30Z</time>
      </trkpt>
      <trkpt lat="62.63815579121" lon="17.964824346096">
        <ele>51.6</ele>
        <time>2017-10-09T18:52:31Z</time>
      </trkpt>
      <trkpt lat="62.638160401255" lon="17.964830045788">
        <ele>51.6</ele>
        <time>2017-10-09T18:52:32Z</time>
      </trkpt>
      <trkpt lat="62.638021177896" lon="17.964595436407">
        <ele>52.2</ele>
        <time>2017-10-09T18:52:44Z</time>
      </trkpt>
      <trkpt lat="62.637992930893" lon="17.964564926291">
        <ele>52.4</ele>
        <time>2017-10-09T18:52:45Z</time>
      </trkpt>
      <trkpt lat="62.637943310045" lon="17.964532655976">
        <ele>52.2</ele>
        <time>2017-10-09T18:52:46Z</time>
      </trkpt>
      <trkpt lat="62.637900310898" lon="17.964524860809">
        <ele>52</ele>
        <time>2017-10-09T18:52:47Z</time>
      </trkpt>
      <trkpt lat="62.637861251244" lon="17.964526034275">
        <ele>51.8</ele>
        <time>2017-10-09T18:52:48Z</time>
      </trkpt>
      <trkpt lat="62.637826131083" lon="17.964531733967">
        <ele>51.4</ele>
        <time>2017-10-09T18:52:49Z</time>
      </trkpt>
      <trkpt lat="62.637786819972" lon="17.964546989025">
        <ele>51.2</ele>
        <time>2017-10-09T18:52:50Z</time>
      </trkpt>
      <trkpt lat="62.637752370363" lon="17.964585713403">
        <ele>51</ele>
        <time>2017-10-09T18:52:51Z</time>
      </trkpt>
      <trkpt lat="62.637720267686" lon="17.964631897672">
        <ele>50.8</ele>
        <time>2017-10-09T18:52:52Z</time>
      </trkpt>
      <trkpt lat="62.63769227214" lon="17.964683781633">
        <ele>50.8</ele>
        <time>2017-10-09T18:52:53Z</time>
      </trkpt>
      <trkpt lat="62.637660085644" lon="17.964743628399">
        <ele>50.6</ele>
        <time>2017-10-09T18:52:54Z</time>
      </trkpt>
      <trkpt lat="62.637633179745" lon="17.964805151545">
        <ele>50.4</ele>
        <time>2017-10-09T18:52:55Z</time>
      </trkpt>
      <trkpt lat="62.637609626606" lon="17.964871955288">
        <ele>50.2</ele>
        <time>2017-10-09T18:52:56Z</time>
      </trkpt>
      <trkpt lat="62.637593700996" lon="17.964937417927">
        <ele>50</ele>
        <time>2017-10-09T18:52:57Z</time>
      </trkpt>
      <trkpt lat="62.63757995468" lon="17.965004137851">
        <ele>50.2</ele>
        <time>2017-10-09T18:52:58Z</time>
      </trkpt>
      <trkpt lat="62.637567298011" lon="17.965085023186">
        <ele>50.4</ele>
        <time>2017-10-09T18:52:59Z</time>
      </trkpt>
      <trkpt lat="62.637557826464" lon="17.965168003996">
        <ele>50.4</ele>
        <time>2017-10-09T18:53:00Z</time>
      </trkpt>
      <trkpt lat="62.637552210591" lon="17.965255091937">
        <ele>50.2</ele>
        <time>2017-10-09T18:53:01Z</time>
      </trkpt>
      <trkpt lat="62.637553635514" lon="17.965334384711">
        <ele>50</ele>
        <time>2017-10-09T18:53:02Z</time>
      </trkpt>
      <trkpt lat="62.637553635514" lon="17.965423735765">
        <ele>49.4</ele>
        <time>2017-10-09T18:53:03Z</time>
      </trkpt>
      <trkpt lat="62.637562017414" lon="17.965485761825">
        <ele>49.2</ele>
        <time>2017-10-09T18:53:04Z</time>
      </trkpt>
      <trkpt lat="62.637575176997" lon="17.965578968553">
        <ele>49.2</ele>
        <time>2017-10-09T18:53:05Z</time>
      </trkpt>
      <trkpt lat="62.637587582209" lon="17.965645101744">
        <ele>49.2</ele>
        <time>2017-10-09T18:53:06Z</time>
      </trkpt>
      <trkpt lat="62.63760426219" lon="17.965707714537">
        <ele>49</ele>
        <time>2017-10-09T18:53:07Z</time>
      </trkpt>
      <trkpt lat="62.637622367094" lon="17.965765130552">
        <ele>49.2</ele>
        <time>2017-10-09T18:53:08Z</time>
      </trkpt>
      <trkpt lat="62.63764449531" lon="17.965826234603">
        <ele>49.4</ele>
        <time>2017-10-09T18:53:09Z</time>
      </trkpt>
      <trkpt lat="62.637666707345" lon="17.965890020862">
        <ele>49.4</ele>
        <time>2017-10-09T18:53:10Z</time>
      </trkpt>
      <trkpt lat="62.63768472843" lon="17.965948358886">
        <ele>49.4</ele>
        <time>2017-10-09T18:53:11Z</time>
      </trkpt>
      <trkpt lat="62.637705096447" lon="17.966006780729">
        <ele>49.2</ele>
        <time>2017-10-09T18:53:12Z</time>
      </trkpt>
      <trkpt lat="62.637725883559" lon="17.966065621667">
        <ele>49.2</ele>
        <time>2017-10-09T18:53:13Z</time>
      </trkpt>
      <trkpt lat="62.637741976807" lon="17.966119098189">
        <ele>49.2</ele>
        <time>2017-10-09T18:53:14Z</time>
      </trkpt>
      <trkpt lat="62.637765529946" lon="17.966186823941">
        <ele>49.2</ele>
        <time>2017-10-09T18:53:15Z</time>
      </trkpt>
      <trkpt lat="62.637784724497" lon="17.966238624083">
        <ele>49</ele>
        <time>2017-10-09T18:53:16Z</time>
      </trkpt>
      <trkpt lat="62.637808277636" lon="17.966306685111">
        <ele>48.8</ele>
        <time>2017-10-09T18:53:17Z</time>
      </trkpt>
      <trkpt lat="62.637828645653" lon="17.966356976511">
        <ele>49</ele>
        <time>2017-10-09T18:53:18Z</time>
      </trkpt>
      <trkpt lat="62.63784985186" lon="17.966409363386">
        <ele>49.2</ele>
        <time>2017-10-09T18:53:19Z</time>
      </trkpt>
      <trkpt lat="62.63786996842" lon="17.966475412758">
        <ele>49.4</ele>
        <time>2017-10-09T18:53:20Z</time>
      </trkpt>
      <trkpt lat="62.63789343774" lon="17.966521680846">
        <ele>49.6</ele>
        <time>2017-10-09T18:53:21Z</time>
      </trkpt>
      <trkpt lat="62.637912799929" lon="17.966576582291">
        <ele>50</ele>
        <time>2017-10-09T18:53:22Z</time>
      </trkpt>
      <trkpt lat="62.637934089955" lon="17.966628466252">
        <ele>50</ele>
        <time>2017-10-09T18:53:23Z</time>
      </trkpt>
      <trkpt lat="62.637958062189" lon="17.966691581959">
        <ele>50</ele>
        <time>2017-10-09T18:53:24Z</time>
      </trkpt>
      <trkpt lat="62.63797725674" lon="17.96675184782">
        <ele>50</ele>
        <time>2017-10-09T18:53:25Z</time>
      </trkpt>
      <trkpt lat="62.637995948377" lon="17.966807335998">
        <ele>50.2</ele>
        <time>2017-10-09T18:53:26Z</time>
      </trkpt>
      <trkpt lat="62.638014388557" lon="17.966871122257">
        <ele>50.2</ele>
        <time>2017-10-09T18:53:27Z</time>
      </trkpt>
      <trkpt lat="62.638032074366" lon="17.966917138888">
        <ele>50.6</ele>
        <time>2017-10-09T18:53:28Z</time>
      </trkpt>
      <trkpt lat="62.638051185098" lon="17.966977823844">
        <ele>50.8</ele>
        <time>2017-10-09T18:53:29Z</time>
      </trkpt>
      <trkpt lat="62.638072978038" lon="17.967033731117">
        <ele>51</ele>
        <time>2017-10-09T18:53:30Z</time>
      </trkpt>
      <trkpt lat="62.638092843141" lon="17.967086369449">
        <ele>51.2</ele>
        <time>2017-10-09T18:53:31Z</time>
      </trkpt>
      <trkpt lat="62.638117066832" lon="17.967145210387">
        <ele>51.6</ele>
        <time>2017-10-09T18:53:32Z</time>
      </trkpt>
      <trkpt lat="62.638142212532" lon="17.967195585606">
        <ele>51.4</ele>
        <time>2017-10-09T18:53:33Z</time>
      </trkpt>
      <trkpt lat="62.63816668768" lon="17.967230202853">
        <ele>51.2</ele>
        <time>2017-10-09T18:53:34Z</time>
      </trkpt>
      <trkpt lat="62.638198957995" lon="17.967271274163">
        <ele>51.2</ele>
        <time>2017-10-09T18:53:35Z</time>
      </trkpt>
      <trkpt lat="62.638225193342" lon="17.967292061275">
        <ele>51.2</ele>
        <time>2017-10-09T18:53:36Z</time>
      </trkpt>
      <trkpt lat="62.638257128381" lon="17.967316704061">
        <ele>51.2</ele>
        <time>2017-10-09T18:53:37Z</time>
      </trkpt>
      <trkpt lat="62.638286967945" lon="17.967325253599">
        <ele>50.8</ele>
        <time>2017-10-09T18:53:38Z</time>
      </trkpt>
      <trkpt lat="62.638322674839" lon="17.967333970775">
        <ele>51.2</ele>
        <time>2017-10-09T18:53:39Z</time>
      </trkpt>
      <trkpt lat="62.638358465552" lon="17.967329109273">
        <ele>51.2</ele>
        <time>2017-10-09T18:53:40Z</time>
      </trkpt>
      <trkpt lat="62.638392328428" lon="17.967321146468">
        <ele>51.6</ele>
        <time>2017-10-09T18:53:41Z</time>
      </trkpt>
      <trkpt lat="62.638426275123" lon="17.967313770396">
        <ele>51.4</ele>
        <time>2017-10-09T18:53:42Z</time>
      </trkpt>
      <trkpt lat="62.638455108859" lon="17.96729164218">
        <ele>51.4</ele>
        <time>2017-10-09T18:53:43Z</time>
      </trkpt>
      <trkpt lat="62.638484696966" lon="17.967264484824">
        <ele>51.2</ele>
        <time>2017-10-09T18:53:44Z</time>
      </trkpt>
      <trkpt lat="62.638511938141" lon="17.967232214509">
        <ele>51.2</ele>
        <time>2017-10-09T18:53:45Z</time>
      </trkpt>
      <trkpt lat="62.638537838212" lon="17.96719525033">
        <ele>51</ele>
        <time>2017-10-09T18:53:46Z</time>
      </trkpt>
      <trkpt lat="62.638566671948" lon="17.967148730785">
        <ele>51</ele>
        <time>2017-10-09T18:53:47Z</time>
      </trkpt>
      <trkpt lat="62.638590225087" lon="17.967099612851">
        <ele>51.2</ele>
        <time>2017-10-09T18:53:48Z</time>
      </trkpt>
      <trkpt lat="62.638609503457" lon="17.967047561252">
        <ele>51.4</ele>
        <time>2017-10-09T18:53:49Z</time>
      </trkpt>
      <trkpt lat="62.638625429067" lon="17.966980254595">
        <ele>51.4</ele>
        <time>2017-10-09T18:53:50Z</time>
      </trkpt>
      <trkpt lat="62.638641522315" lon="17.966904566038">
        <ele>51.6</ele>
        <time>2017-10-09T18:53:51Z</time>
      </trkpt>
      <trkpt lat="62.638651077681" lon="17.96685326881">
        <ele>51.6</ele>
        <time>2017-10-09T18:53:52Z</time>
      </trkpt>
      <trkpt lat="62.638658872848" lon="17.96678872818">
        <ele>51.6</ele>
        <time>2017-10-09T18:53:53Z</time>
      </trkpt>
      <trkpt lat="62.638666584196" lon="17.966717314392">
        <ele>52</ele>
        <time>2017-10-09T18:53:54Z</time>
      </trkpt>
      <trkpt lat="62.638667254748" lon="17.966643637491">
        <ele>52</ele>
        <time>2017-10-09T18:53:55Z</time>
      </trkpt>
      <trkpt lat="62.638665913644" lon="17.96656660783">
        <ele>52.2</ele>
        <time>2017-10-09T18:53:56Z</time>
      </trkpt>
      <trkpt lat="62.638662560884" lon="17.96649536168">
        <ele>52.2</ele>
        <time>2017-10-09T18:53:57Z</time>
      </trkpt>
      <trkpt lat="62.638654933355" lon="17.966435682552">
        <ele>52.4</ele>
        <time>2017-10-09T18:53:58Z</time>
      </trkpt>
      <trkpt lat="62.638644958894" lon="17.966363346755">
        <ele>52.4</ele>
        <time>2017-10-09T18:53:59Z</time>
      </trkpt>
      <trkpt lat="62.638625093791" lon="17.966301069238">
        <ele>52.4</ele>
        <time>2017-10-09T18:54:00Z</time>
      </trkpt>
      <trkpt lat="62.638606569792" lon="17.966229990726">
        <ele>52.4</ele>
        <time>2017-10-09T18:54:01Z</time>
      </trkpt>
      <trkpt lat="62.638588381069" lon="17.966173915815">
        <ele>52.2</ele>
        <time>2017-10-09T18:54:02Z</time>
      </trkpt>
      <trkpt lat="62.63856566612" lon="17.966117924723">
        <ele>52.2</ele>
        <time>2017-10-09T18:54:03Z</time>
      </trkpt>
      <trkpt lat="62.63855141689" lon="17.966066627495">
        <ele>52.2</ele>
        <time>2017-10-09T18:54:04Z</time>
      </trkpt>
      <trkpt lat="62.638531551787" lon="17.966000494304">
        <ele>52</ele>
        <time>2017-10-09T18:54:05Z</time>
      </trkpt>
      <trkpt lat="62.638518895118" lon="17.965952801293">
        <ele>52.2</ele>
        <time>2017-10-09T18:54:06Z</time>
      </trkpt>
      <trkpt lat="62.638495677255" lon="17.965876190727">
        <ele>52.4</ele>
        <time>2017-10-09T18:54:07Z</time>
      </trkpt>
      <trkpt lat="62.63847933255" lon="17.965829419725">
        <ele>52.6</ele>
        <time>2017-10-09T18:54:08Z</time>
      </trkpt>
      <trkpt lat="62.638459383628" lon="17.965773512452">
        <ele>52.6</ele>
        <time>2017-10-09T18:54:09Z</time>
      </trkpt>
      <trkpt lat="62.638441362543" lon="17.965717437541">
        <ele>52.6</ele>
        <time>2017-10-09T18:54:10Z</time>
      </trkpt>
      <trkpt lat="62.638420323974" lon="17.96565884806">
        <ele>52.8</ele>
        <time>2017-10-09T18:54:11Z</time>
      </trkpt>
      <trkpt lat="62.638399872138" lon="17.965598833656">
        <ele>52.8</ele>
        <time>2017-10-09T18:54:12Z</time>
      </trkpt>
      <trkpt lat="62.638380929044" lon="17.965546782057">
        <ele>52.8</ele>
        <time>2017-10-09T18:54:13Z</time>
      </trkpt>
      <trkpt lat="62.638360393389" lon="17.965503531453">
        <ele>52.8</ele>
        <time>2017-10-09T18:54:14Z</time>
      </trkpt>
      <trkpt lat="62.638337259345" lon="17.965435386606">
        <ele>52.8</ele>
        <time>2017-10-09T18:54:15Z</time>
      </trkpt>
      <trkpt lat="62.63831923826" lon="17.965394063839">
        <ele>52.8</ele>
        <time>2017-10-09T18:54:16Z</time>
      </trkpt>
      <trkpt lat="62.638295098388" lon="17.965328685019">
        <ele>52.6</ele>
        <time>2017-10-09T18:54:17Z</time>
      </trkpt>
      <trkpt lat="62.638278250769" lon="17.965267161873">
        <ele>52.4</ele>
        <time>2017-10-09T18:54:18Z</time>
      </trkpt>
      <trkpt lat="62.638258553304" lon="17.96522131288">
        <ele>52.2</ele>
        <time>2017-10-09T18:54:19Z</time>
      </trkpt>
      <trkpt lat="62.63823625745" lon="17.965153335671">
        <ele>52.2</ele>
        <time>2017-10-09T18:54:20Z</time>
      </trkpt>
      <trkpt lat="62.638216308528" lon="17.965099942968">
        <ele>52</ele>
        <time>2017-10-09T18:54:21Z</time>
      </trkpt>
      <trkpt lat="62.638199880004" lon="17.965049400111">
        <ele>52</ele>
        <time>2017-10-09T18:54:22Z</time>
      </trkpt>
      <trkpt lat="62.63818009872" lon="17.964991062087">
        <ele>52</ele>
        <time>2017-10-09T18:54:23Z</time>
      </trkpt>
      <trkpt lat="62.638162999644" lon="17.964937082651">
        <ele>52.2</ele>
        <time>2017-10-09T18:54:24Z</time>
      </trkpt>
      <trkpt lat="62.638142128713" lon="17.964874050763">
        <ele>52.4</ele>
        <time>2017-10-09T18:54:25Z</time>
      </trkpt>
      <trkpt lat="62.638121257782" lon="17.964815293644">
        <ele>52.2</ele>
        <time>2017-10-09T18:54:26Z</time>
      </trkpt>
      <trkpt lat="62.638099716299" lon="17.964771791583">
        <ele>52</ele>
        <time>2017-10-09T18:54:27Z</time>
      </trkpt>
      <trkpt lat="62.638076246979" lon="17.964726110228">
        <ele>52</ele>
        <time>2017-10-09T18:54:28Z</time>
      </trkpt>
      <trkpt lat="62.638049592537" lon="17.96468235671">
        <ele>52</ele>
        <time>2017-10-09T18:54:29Z</time>
      </trkpt>
      <trkpt lat="62.63801832805" lon="17.964645895445">
        <ele>52</ele>
        <time>2017-10-09T18:54:30Z</time>
      </trkpt>
      <trkpt lat="62.637987231201" lon="17.964610020913">
        <ele>51.8</ele>
        <time>2017-10-09T18:54:31Z</time>
      </trkpt>
      <trkpt lat="62.637961582587" lon="17.964585797222">
        <ele>52</ele>
        <time>2017-10-09T18:54:32Z</time>
      </trkpt>
      <trkpt lat="62.637929899005" lon="17.964571464173">
        <ele>52</ele>
        <time>2017-10-09T18:54:33Z</time>
      </trkpt>
      <trkpt lat="62.637904501848" lon="17.964559394237">
        <ele>52</ele>
        <time>2017-10-09T18:54:34Z</time>
      </trkpt>
      <trkpt lat="62.637867118574" lon="17.964559478056">
        <ele>51.8</ele>
        <time>2017-10-09T18:54:35Z</time>
      </trkpt>
      <trkpt lat="62.637833423336" lon="17.964566267395">
        <ele>51.8</ele>
        <time>2017-10-09T18:54:36Z</time>
      </trkpt>
      <trkpt lat="62.637802326487" lon="17.964573224372">
        <ele>51.8</ele>
        <time>2017-10-09T18:54:37Z</time>
      </trkpt>
      <trkpt lat="62.637777935158" lon="17.96459267038">
        <ele>51.6</ele>
        <time>2017-10-09T18:54:38Z</time>
      </trkpt>
      <trkpt lat="62.637746251576" lon="17.964620414469">
        <ele>51.4</ele>
        <time>2017-10-09T18:54:39Z</time>
      </trkpt>
      <trkpt lat="62.637719345677" lon="17.964651595137">
        <ele>51.2</ele>
        <time>2017-10-09T18:54:40Z</time>
      </trkpt>
      <trkpt lat="62.637686488629" lon="17.964704652564">
        <ele>51</ele>
        <time>2017-10-09T18:54:41Z</time>
      </trkpt>
      <trkpt lat="62.637659498911" lon="17.964748657539">
        <ele>51</ele>
        <time>2017-10-09T18:54:42Z</time>
      </trkpt>
      <trkpt lat="62.637640388179" lon="17.964789728849">
        <ele>51.2</ele>
        <time>2017-10-09T18:54:43Z</time>
      </trkpt>
      <trkpt lat="62.637621193628" lon="17.96483742186">
        <ele>51</ele>
        <time>2017-10-09T18:54:44Z</time>
      </trkpt>
      <trkpt lat="62.63760174762" lon="17.964898861187">
        <ele>51</ele>
        <time>2017-10-09T18:54:45Z</time>
      </trkpt>
      <trkpt lat="62.637587833666" lon="17.96495057751">
        <ele>51</ele>
        <time>2017-10-09T18:54:46Z</time>
      </trkpt>
      <trkpt lat="62.637571237504" lon="17.965020482556">
        <ele>50.8</ele>
        <time>2017-10-09T18:54:47Z</time>
      </trkpt>
      <trkpt lat="62.637565034898" lon="17.965087453937">
        <ele>50.6</ele>
        <time>2017-10-09T18:54:48Z</time>
      </trkpt>
      <trkpt lat="62.637555563351" lon="17.965141098097">
        <ele>50.4</ele>
        <time>2017-10-09T18:54:49Z</time>
      </trkpt>
      <trkpt lat="62.637549696021" lon="17.965210751686">
        <ele>50.6</ele>
        <time>2017-10-09T18:54:50Z</time>
      </trkpt>
      <trkpt lat="62.637547935822" lon="17.965281327284">
        <ele>50.4</ele>
        <time>2017-10-09T18:54:51Z</time>
      </trkpt>
      <trkpt lat="62.637548857831" lon="17.965339162394">
        <ele>50.4</ele>
        <time>2017-10-09T18:54:52Z</time>
      </trkpt>
      <trkpt lat="62.63755899993" lon="17.96539649459">
        <ele>50.4</ele>
        <time>2017-10-09T18:54:53Z</time>
      </trkpt>
      <trkpt lat="62.637566208364" lon="17.965464807075">
        <ele>50.4</ele>
        <time>2017-10-09T18:54:54Z</time>
      </trkpt>
      <trkpt lat="62.637577104834" lon="17.965532868103">
        <ele>50</ele>
        <time>2017-10-09T18:54:55Z</time>
      </trkpt>
      <trkpt lat="62.63759085115" lon="17.965585338797">
        <ele>49.6</ele>
        <time>2017-10-09T18:54:56Z</time>
      </trkpt>
      <trkpt lat="62.637606273846" lon="17.96564543702">
        <ele>49.6</ele>
        <time>2017-10-09T18:54:57Z</time>
      </trkpt>
      <trkpt lat="62.637620942171" lon="17.965687849434">
        <ele>49.4</ele>
        <time>2017-10-09T18:54:58Z</time>
      </trkpt>
      <trkpt lat="62.637639549989" lon="17.96573512335">
        <ele>49.2</ele>
        <time>2017-10-09T18:54:59Z</time>
      </trkpt>
      <trkpt lat="62.637659498911" lon="17.965797819962">
        <ele>49.2</ele>
        <time>2017-10-09T18:55:00Z</time>
      </trkpt>
      <trkpt lat="62.637677436177" lon="17.965846267344">
        <ele>49.2</ele>
        <time>2017-10-09T18:55:01Z</time>
      </trkpt>
      <trkpt lat="62.637695457262" lon="17.965895972011">
        <ele>49.2</ele>
        <time>2017-10-09T18:55:02Z</time>
      </trkpt>
      <trkpt lat="62.637714484175" lon="17.965954142397">
        <ele>49.2</ele>
        <time>2017-10-09T18:55:03Z</time>
      </trkpt>
      <trkpt lat="62.637728481948" lon="17.96598825673">
        <ele>49.2</ele>
        <time>2017-10-09T18:55:04Z</time>
      </trkpt>
      <trkpt lat="62.637750023431" lon="17.966049696057">
        <ele>49.2</ele>
        <time>2017-10-09T18:55:05Z</time>
      </trkpt>
      <trkpt lat="62.63776854743" lon="17.966101747656">
        <ele>49.4</ele>
        <time>2017-10-09T18:55:06Z</time>
      </trkpt>
      <trkpt lat="62.637785897963" lon="17.96615338016">
        <ele>49.2</ele>
        <time>2017-10-09T18:55:07Z</time>
      </trkpt>
      <trkpt lat="62.6378045896" lon="17.966206940501">
        <ele>49.4</ele>
        <time>2017-10-09T18:55:08Z</time>
      </trkpt>
      <trkpt lat="62.637823616513" lon="17.966261255213">
        <ele>49.6</ele>
        <time>2017-10-09T18:55:09Z</time>
      </trkpt>
      <trkpt lat="62.637841386141" lon="17.966312468622">
        <ele>49.8</ele>
        <time>2017-10-09T18:55:10Z</time>
      </trkpt>
      <trkpt lat="62.637860915968" lon="17.966374913777">
        <ele>50.2</ele>
        <time>2017-10-09T18:55:11Z</time>
      </trkpt>
      <trkpt lat="62.637878937053" lon="17.966422355331">
        <ele>50.6</ele>
        <time>2017-10-09T18:55:12Z</time>
      </trkpt>
      <trkpt lat="62.63789595231" lon="17.966470635075">
        <ele>50.6</ele>
        <time>2017-10-09T18:55:13Z</time>
      </trkpt>
      <trkpt lat="62.637910872092" lon="17.966516651706">
        <ele>50.4</ele>
        <time>2017-10-09T18:55:14Z</time>
      </trkpt>
      <trkpt lat="62.637929228453" lon="17.966566691649">
        <ele>50</ele>
        <time>2017-10-09T18:55:15Z</time>
      </trkpt>
      <trkpt lat="62.637946662805" lon="17.966621425456">
        <ele>49.8</ele>
        <time>2017-10-09T18:55:16Z</time>
      </trkpt>
      <trkpt lat="62.637965354442" lon="17.966675321073">
        <ele>49.8</ele>
        <time>2017-10-09T18:55:17Z</time>
      </trkpt>
      <trkpt lat="62.637982453518" lon="17.9667283785">
        <ele>49.6</ele>
        <time>2017-10-09T18:55:18Z</time>
      </trkpt>
      <trkpt lat="62.638000055508" lon="17.966778166986">
        <ele>49.6</ele>
        <time>2017-10-09T18:55:19Z</time>
      </trkpt>
      <trkpt lat="62.638018914783" lon="17.966829967128">
        <ele>49.8</ele>
        <time>2017-10-09T18:55:20Z</time>
      </trkpt>
      <trkpt lat="62.638034756574" lon="17.966890065351">
        <ele>50</ele>
        <time>2017-10-09T18:55:21Z</time>
      </trkpt>
      <trkpt lat="62.638049592537" lon="17.966935662887">
        <ele>50.2</ele>
        <time>2017-10-09T18:55:22Z</time>
      </trkpt>
      <trkpt lat="62.63806694307" lon="17.966985116097">
        <ele>50.4</ele>
        <time>2017-10-09T18:55:23Z</time>
      </trkpt>
      <trkpt lat="62.638085047974" lon="17.967046974519">
        <ele>50.6</ele>
        <time>2017-10-09T18:55:24Z</time>
      </trkpt>
      <trkpt lat="62.638107008552" lon="17.967098355566">
        <ele>50.6</ele>
        <time>2017-10-09T18:55:25Z</time>
      </trkpt>
      <trkpt lat="62.638129555863" lon="17.967149317518">
        <ele>51</ele>
        <time>2017-10-09T18:55:26Z</time>
      </trkpt>
      <trkpt lat="62.638156545581" lon="17.967190556466">
        <ele>51.2</ele>
        <time>2017-10-09T18:55:27Z</time>
      </trkpt>
      <trkpt lat="62.63817842234" lon="17.967213606691">
        <ele>51</ele>
        <time>2017-10-09T18:55:28Z</time>
      </trkpt>
      <trkpt lat="62.638206585524" lon="17.967246463739">
        <ele>51</ele>
        <time>2017-10-09T18:55:29Z</time>
      </trkpt>
      <trkpt lat="62.638236760364" lon="17.967266747937">
        <ele>51</ele>
        <time>2017-10-09T18:55:30Z</time>
      </trkpt>
      <trkpt lat="62.638266516109" lon="17.967279488425">
        <ele>50.8</ele>
        <time>2017-10-09T18:55:31Z</time>
      </trkpt>
      <trkpt lat="62.638298115872" lon="17.967290133438">
        <ele>50.4</ele>
        <time>2017-10-09T18:55:32Z</time>
      </trkpt>
      <trkpt lat="62.638326446694" lon="17.96728745123">
        <ele>50.4</ele>
        <time>2017-10-09T18:55:33Z</time>
      </trkpt>
      <trkpt lat="62.638352682041" lon="17.96728326028">
        <ele>50.4</ele>
        <time>2017-10-09T18:55:34Z</time>
      </trkpt>
      <trkpt lat="62.638386712555" lon="17.967271777077">
        <ele>50.6</ele>
        <time>2017-10-09T18:55:35Z</time>
      </trkpt>
      <trkpt lat="62.638415127196" lon="17.967258533675">
        <ele>50.8</ele>
        <time>2017-10-09T18:55:36Z</time>
      </trkpt>
      <trkpt lat="62.638446391683" lon="17.967238249477">
        <ele>51.2</ele>
        <time>2017-10-09T18:55:37Z</time>
      </trkpt>
      <trkpt lat="62.638469190451" lon="17.967215869804">
        <ele>51.4</ele>
        <time>2017-10-09T18:55:38Z</time>
      </trkpt>
      <trkpt lat="62.638497353635" lon="17.967184521498">
        <ele>51.6</ele>
        <time>2017-10-09T18:55:39Z</time>
      </trkpt>
      <trkpt lat="62.638526019733" lon="17.96714914988">
        <ele>51.8</ele>
        <time>2017-10-09T18:55:40Z</time>
      </trkpt>
      <trkpt lat="62.638551752166" lon="17.967104222896">
        <ele>51.8</ele>
        <time>2017-10-09T18:55:41Z</time>
      </trkpt>
      <trkpt lat="62.638576059676" lon="17.96706030174">
        <ele>52</ele>
        <time>2017-10-09T18:55:42Z</time>
      </trkpt>
      <trkpt lat="62.638593913123" lon="17.967013027824">
        <ele>51.6</ele>
        <time>2017-10-09T18:55:43Z</time>
      </trkpt>
      <trkpt lat="62.638608581448" lon="17.966964915718">
        <ele>51.8</ele>
        <time>2017-10-09T18:55:44Z</time>
      </trkpt>
      <trkpt lat="62.638625848162" lon="17.966895010672">
        <ele>52</ele>
        <time>2017-10-09T18:55:45Z</time>
      </trkpt>
      <trkpt lat="62.638633140415" lon="17.966839354856">
        <ele>52</ele>
        <time>2017-10-09T18:55:46Z</time>
      </trkpt>
      <trkpt lat="62.638647138188" lon="17.966771377647">
        <ele>52</ele>
        <time>2017-10-09T18:55:47Z</time>
      </trkpt>
      <trkpt lat="62.638655184812" lon="17.966708848673">
        <ele>52.6</ele>
        <time>2017-10-09T18:55:48Z</time>
      </trkpt>
      <trkpt lat="62.638656945011" lon="17.966652270848">
        <ele>52.4</ele>
        <time>2017-10-09T18:55:49Z</time>
      </trkpt>
      <trkpt lat="62.638658537572" lon="17.966576917567">
        <ele>52.4</ele>
        <time>2017-10-09T18:55:50Z</time>
      </trkpt>
      <trkpt lat="62.638656442097" lon="17.966508688901">
        <ele>52.4</ele>
        <time>2017-10-09T18:55:51Z</time>
      </trkpt>
      <trkpt lat="62.638650155672" lon="17.96644842304">
        <ele>52.4</ele>
        <time>2017-10-09T18:55:52Z</time>
      </trkpt>
      <trkpt lat="62.638644036885" lon="17.966382708944">
        <ele>52.2</ele>
        <time>2017-10-09T18:55:53Z</time>
      </trkpt>
      <trkpt lat="62.638632805139" lon="17.966327053128">
        <ele>52</ele>
        <time>2017-10-09T18:55:54Z</time>
      </trkpt>
      <trkpt lat="62.638615454606" lon="17.966263350688">
        <ele>52</ele>
        <time>2017-10-09T18:55:55Z</time>
      </trkpt>
      <trkpt lat="62.638599780453" lon="17.966202665732">
        <ele>52</ele>
        <time>2017-10-09T18:55:56Z</time>
      </trkpt>
      <trkpt lat="62.638579831531" lon="17.966148183382">
        <ele>52</ele>
        <time>2017-10-09T18:55:57Z</time>
      </trkpt>
      <trkpt lat="62.638564073559" lon="17.966101328561">
        <ele>51.8</ele>
        <time>2017-10-09T18:55:58Z</time>
      </trkpt>
      <trkpt lat="62.638546303931" lon="17.966040559786">
        <ele>51.8</ele>
        <time>2017-10-09T18:55:59Z</time>
      </trkpt>
      <trkpt lat="62.638527277018" lon="17.965979288097">
        <ele>51.8</ele>
        <time>2017-10-09T18:56:00Z</time>
      </trkpt>
      <trkpt lat="62.638510932313" lon="17.965925979213">
        <ele>52</ele>
        <time>2017-10-09T18:56:01Z</time>
      </trkpt>
      <trkpt lat="62.638492240676" lon="17.965869652845">
        <ele>52</ele>
        <time>2017-10-09T18:56:02Z</time>
      </trkpt>
      <trkpt lat="62.638474051953" lon="17.965817098332">
        <ele>52.2</ele>
        <time>2017-10-09T18:56:03Z</time>
      </trkpt>
      <trkpt lat="62.638457707248" lon="17.965769992054">
        <ele>52.2</ele>
        <time>2017-10-09T18:56:04Z</time>
      </trkpt>
      <trkpt lat="62.638436417222" lon="17.965704697053">
        <ele>52.6</ele>
        <time>2017-10-09T18:56:05Z</time>
      </trkpt>
      <trkpt lat="62.638417390309" lon="17.965655327662">
        <ele>52.6</ele>
        <time>2017-10-09T18:56:06Z</time>
      </trkpt>
      <trkpt lat="62.638397944301" lon="17.965596738181">
        <ele>52.6</ele>
        <time>2017-10-09T18:56:07Z</time>
      </trkpt>
      <trkpt lat="62.638379420302" lon="17.965538819252">
        <ele>52.6</ele>
        <time>2017-10-09T18:56:08Z</time>
      </trkpt>
      <trkpt lat="62.638360058113" lon="17.96548031359">
        <ele>52.8</ele>
        <time>2017-10-09T18:56:09Z</time>
      </trkpt>
      <trkpt lat="62.638340863562" lon="17.965428932543">
        <ele>52.4</ele>
        <time>2017-10-09T18:56:10Z</time>
      </trkpt>
      <trkpt lat="62.638317310423" lon="17.965359278954">
        <ele>52.6</ele>
        <time>2017-10-09T18:56:11Z</time>
      </trkpt>
      <trkpt lat="62.638297110044" lon="17.965305048061">
        <ele>52.4</ele>
        <time>2017-10-09T18:56:12Z</time>
      </trkpt>
      <trkpt lat="62.638277244941" lon="17.965250062797">
        <ele>52.4</ele>
        <time>2017-10-09T18:56:13Z</time>
      </trkpt>
      <trkpt lat="62.63825805039" lon="17.965193904067">
        <ele>52.6</ele>
        <time>2017-10-09T18:56:14Z</time>
      </trkpt>
      <trkpt lat="62.638238269106" lon="17.965132883835">
        <ele>52.6</ele>
        <time>2017-10-09T18:56:15Z</time>
      </trkpt>
      <trkpt lat="62.638220080383" lon="17.965083430625">
        <ele>52.6</ele>
        <time>2017-10-09T18:56:16Z</time>
      </trkpt>
      <trkpt lat="62.638200466737" lon="17.965012938846">
        <ele>52.8</ele>
        <time>2017-10-09T18:56:17Z</time>
      </trkpt>
      <trkpt lat="62.6381817751" lon="17.964961641618">
        <ele>52.8</ele>
        <time>2017-10-09T18:56:18Z</time>
      </trkpt>
      <trkpt lat="62.638161993816" lon="17.964909170924">
        <ele>52.8</ele>
        <time>2017-10-09T18:56:19Z</time>
      </trkpt>
      <trkpt lat="62.638137099573" lon="17.96484161281">
        <ele>52.8</ele>
        <time>2017-10-09T18:56:20Z</time>
      </trkpt>
      <trkpt lat="62.638115222814" lon="17.964789812668">
        <ele>52.8</ele>
        <time>2017-10-09T18:56:21Z</time>
      </trkpt>
      <trkpt lat="62.638095525349" lon="17.964745304779">
        <ele>52.6</ele>
        <time>2017-10-09T18:56:22Z</time>
      </trkpt>
      <trkpt lat="62.638070547287" lon="17.964697360311">
        <ele>52.6</ele>
        <time>2017-10-09T18:56:23Z</time>
      </trkpt>
      <trkpt lat="62.638040623904" lon="17.964659222666">
        <ele>52.4</ele>
        <time>2017-10-09T18:56:24Z</time>
      </trkpt>
      <trkpt lat="62.638008102132" lon="17.964614547139">
        <ele>52.2</ele>
        <time>2017-10-09T18:56:25Z</time>
      </trkpt>
      <trkpt lat="62.637982202061" lon="17.964575655123">
        <ele>52.2</ele>
        <time>2017-10-09T18:56:26Z</time>
      </trkpt>
      <trkpt lat="62.637949009737" lon="17.964553610726">
        <ele>52</ele>
        <time>2017-10-09T18:56:27Z</time>
      </trkpt>
      <trkpt lat="62.637923444942" lon="17.964534499994">
        <ele>52.2</ele>
        <time>2017-10-09T18:56:28Z</time>
      </trkpt>
      <trkpt lat="62.637894192111" lon="17.964526704827">
        <ele>52</ele>
        <time>2017-10-09T18:56:29Z</time>
      </trkpt>
      <trkpt lat="62.637859574864" lon="17.964529219397">
        <ele>52</ele>
        <time>2017-10-09T18:56:30Z</time>
      </trkpt>
      <trkpt lat="62.637827807463" lon="17.964536595469">
        <ele>52.2</ele>
        <time>2017-10-09T18:56:31Z</time>
      </trkpt>
      <trkpt lat="62.637801823573" lon="17.964546737568">
        <ele>52</ele>
        <time>2017-10-09T18:56:32Z</time>
      </trkpt>
      <trkpt lat="62.637771816371" lon="17.964568949603">
        <ele>52</ele>
        <time>2017-10-09T18:56:33Z</time>
      </trkpt>
      <trkpt lat="62.63774843087" lon="17.96459602314">
        <ele>52</ele>
        <time>2017-10-09T18:56:34Z</time>
      </trkpt>
      <trkpt lat="62.637714232718" lon="17.964639525201">
        <ele>52</ele>
        <time>2017-10-09T18:56:35Z</time>
      </trkpt>
      <trkpt lat="62.637684476973" lon="17.964681350882">
        <ele>51.6</ele>
        <time>2017-10-09T18:56:36Z</time>
      </trkpt>
      <trkpt lat="62.637658409264" lon="17.964723176563">
        <ele>51.6</ele>
        <time>2017-10-09T18:56:37Z</time>
      </trkpt>
      <trkpt lat="62.637636783962" lon="17.96477036666">
        <ele>51.6</ele>
        <time>2017-10-09T18:56:38Z</time>
      </trkpt>
      <trkpt lat="62.637613566099" lon="17.96482736358">
        <ele>51.4</ele>
        <time>2017-10-09T18:56:39Z</time>
      </trkpt>
      <trkpt lat="62.63760007124" lon="17.964889976373">
        <ele>51</ele>
        <time>2017-10-09T18:56:40Z</time>
      </trkpt>
      <trkpt lat="62.637584564725" lon="17.964963820912">
        <ele>51</ele>
        <time>2017-10-09T18:56:41Z</time>
      </trkpt>
      <trkpt lat="62.637571824237" lon="17.965031798121">
        <ele>51</ele>
        <time>2017-10-09T18:56:42Z</time>
      </trkpt>
      <trkpt lat="62.637565873088" lon="17.965105894117">
        <ele>51</ele>
        <time>2017-10-09T18:56:43Z</time>
      </trkpt>
      <trkpt lat="62.637561011586" lon="17.965168087815">
        <ele>51</ele>
        <time>2017-10-09T18:56:44Z</time>
      </trkpt>
      <trkpt lat="62.637559586663" lon="17.965237657585">
        <ele>51</ele>
        <time>2017-10-09T18:56:45Z</time>
      </trkpt>
      <trkpt lat="62.637562939423" lon="17.965300857111">
        <ele>51</ele>
        <time>2017-10-09T18:56:46Z</time>
      </trkpt>
      <trkpt lat="62.637569561124" lon="17.965377886772">
        <ele>51</ele>
        <time>2017-10-09T18:56:47Z</time>
      </trkpt>
      <trkpt lat="62.63757995468" lon="17.965441673031">
        <ele>50.8</ele>
        <time>2017-10-09T18:56:48Z</time>
      </trkpt>
      <trkpt lat="62.637590599693" lon="17.965502609444">
        <ele>50.6</ele>
        <time>2017-10-09T18:56:49Z</time>
      </trkpt>
      <trkpt lat="62.637605854751" lon="17.965575112879">
        <ele>50.4</ele>
        <time>2017-10-09T18:56:50Z</time>
      </trkpt>
      <trkpt lat="62.637625636035" lon="17.965637809491">
        <ele>50.4</ele>
        <time>2017-10-09T18:56:51Z</time>
      </trkpt>
      <trkpt lat="62.637643405663" lon="17.965697572438">
        <ele>50.4</ele>
        <time>2017-10-09T18:56:52Z</time>
      </trkpt>
      <trkpt lat="62.63766293549" lon="17.965757503023">
        <ele>50.2</ele>
        <time>2017-10-09T18:56:53Z</time>
      </trkpt>
      <trkpt lat="62.637685231344" lon="17.965827408069">
        <ele>50.4</ele>
        <time>2017-10-09T18:56:54Z</time>
      </trkpt>
      <trkpt lat="62.637709790311" lon="17.965896558744">
        <ele>50.2</ele>
        <time>2017-10-09T18:56:55Z</time>
      </trkpt>
      <trkpt lat="62.637733259631" lon="17.965962356659">
        <ele>50</ele>
        <time>2017-10-09T18:56:56Z</time>
      </trkpt>
      <trkpt lat="62.637752118906" lon="17.966013486249">
        <ele>49.6</ele>
        <time>2017-10-09T18:56:57Z</time>
      </trkpt>
      <trkpt lat="62.637772822199" lon="17.966074422662">
        <ele>49.6</ele>
        <time>2017-10-09T18:56:58Z</time>
      </trkpt>
      <trkpt lat="62.63779369313" lon="17.966131168125">
        <ele>49.8</ele>
        <time>2017-10-09T18:56:59Z</time>
      </trkpt>
      <trkpt lat="62.637816240441" lon="17.966197385135">
        <ele>50</ele>
        <time>2017-10-09T18:57:00Z</time>
      </trkpt>
      <trkpt lat="62.637837949562" lon="17.966258824462">
        <ele>50</ele>
        <time>2017-10-09T18:57:01Z</time>
      </trkpt>
      <trkpt lat="62.637858820493" lon="17.966325125291">
        <ele>50.4</ele>
        <time>2017-10-09T18:57:02Z</time>
      </trkpt>
      <trkpt lat="62.637881619261" lon="17.966391593758">
        <ele>50.4</ele>
        <time>2017-10-09T18:57:03Z</time>
      </trkpt>
      <trkpt lat="62.637900729993" lon="17.966441885158">
        <ele>50.4</ele>
        <time>2017-10-09T18:57:04Z</time>
      </trkpt>
      <trkpt lat="62.637926630064" lon="17.966514975326">
        <ele>50.2</ele>
        <time>2017-10-09T18:57:05Z</time>
      </trkpt>
      <trkpt lat="62.637946495167" lon="17.966562249242">
        <ele>50.2</ele>
        <time>2017-10-09T18:57:06Z</time>
      </trkpt>
      <trkpt lat="62.637961414949" lon="17.966612456823">
        <ele>50.2</ele>
        <time>2017-10-09T18:57:07Z</time>
      </trkpt>
      <trkpt lat="62.637983291708" lon="17.966676243082">
        <ele>49.8</ele>
        <time>2017-10-09T18:57:08Z</time>
      </trkpt>
      <trkpt lat="62.638002318621" lon="17.966738352961">
        <ele>49.8</ele>
        <time>2017-10-09T18:57:09Z</time>
      </trkpt>
      <trkpt lat="62.638023441009" lon="17.966792835311">
        <ele>49.4</ele>
        <time>2017-10-09T18:57:10Z</time>
      </trkpt>
      <trkpt lat="62.638049760175" lon="17.966864752013">
        <ele>49.6</ele>
        <time>2017-10-09T18:57:11Z</time>
      </trkpt>
      <trkpt lat="62.638070044373" lon="17.966926610435">
        <ele>49.8</ele>
        <time>2017-10-09T18:57:12Z</time>
      </trkpt>
      <trkpt lat="62.638106086543" lon="17.967024762484">
        <ele>50.2</ele>
        <time>2017-10-09T18:57:14Z</time>
      </trkpt>
      <trkpt lat="62.638114971357" lon="17.967062648672">
        <ele>50.4</ele>
        <time>2017-10-09T18:57:15Z</time>
      </trkpt>
      <trkpt lat="62.638116731556" lon="17.96708125649">
        <ele>50.4</ele>
        <time>2017-10-09T18:57:16Z</time>
      </trkpt>
      <trkpt lat="62.638119497583" lon="17.967115119366">
        <ele>50.6</ele>
        <time>2017-10-09T18:57:17Z</time>
      </trkpt>
      <trkpt lat="62.638119497583" lon="17.967129787691">
        <ele>50.4</ele>
        <time>2017-10-09T18:57:18Z</time>
      </trkpt>
      <trkpt lat="62.63812226361" lon="17.967148479328">
        <ele>50.2</ele>
        <time>2017-10-09T18:57:19Z</time>
      </trkpt>
      <trkpt lat="62.638126957474" lon="17.967176139598">
        <ele>50.4</ele>
        <time>2017-10-09T18:57:20Z</time>
      </trkpt>
      <trkpt lat="62.63812896913" lon="17.96719944128">
        <ele>50.8</ele>
        <time>2017-10-09T18:57:21Z</time>
      </trkpt>
      <trkpt lat="62.638132154252" lon="17.967223078238">
        <ele>51</ele>
        <time>2017-10-09T18:57:22Z</time>
      </trkpt>
      <trkpt lat="62.638134333546" lon="17.967244200626">
        <ele>51.2</ele>
        <time>2017-10-09T18:57:23Z</time>
      </trkpt>
      <trkpt lat="62.638135590831" lon="17.967264652462">
        <ele>51.4</ele>
        <time>2017-10-09T18:57:24Z</time>
      </trkpt>
      <trkpt lat="62.63813818922" lon="17.967284182289">
        <ele>52</ele>
        <time>2017-10-09T18:57:25Z</time>
      </trkpt>
      <trkpt lat="62.63814321836" lon="17.967296252225">
        <ele>52.2</ele>
        <time>2017-10-09T18:57:26Z</time>
      </trkpt>
      <trkpt lat="62.63815076207" lon="17.967293905293">
        <ele>52.2</ele>
        <time>2017-10-09T18:57:27Z</time>
      </trkpt>
      <trkpt lat="62.638155372115" lon="17.967281080986">
        <ele>52.4</ele>
        <time>2017-10-09T18:57:28Z</time>
      </trkpt>
      <trkpt lat="62.638155204477" lon="17.967262473168">
        <ele>52.4</ele>
        <time>2017-10-09T18:57:29Z</time>
      </trkpt>
      <trkpt lat="62.638153192821" lon="17.967241518418">
        <ele>52.4</ele>
        <time>2017-10-09T18:57:30Z</time>
      </trkpt>
      <trkpt lat="62.638146068206" lon="17.967225508989">
        <ele>52.4</ele>
        <time>2017-10-09T18:57:31Z</time>
      </trkpt>
      <trkpt lat="62.638140200876" lon="17.967209080465">
        <ele>52.4</ele>
        <time>2017-10-09T18:57:32Z</time>
      </trkpt>
      <trkpt lat="62.638132070433" lon="17.967189131543">
        <ele>52.2</ele>
        <time>2017-10-09T18:57:33Z</time>
      </trkpt>
      <trkpt lat="62.638126789836" lon="17.967173960304">
        <ele>52</ele>
        <time>2017-10-09T18:57:34Z</time>
      </trkpt>
      <trkpt lat="62.638117988841" lon="17.967153843744">
        <ele>52</ele>
        <time>2017-10-09T18:57:35Z</time>
      </trkpt>
      <trkpt lat="62.638111450959" lon="17.967136493211">
        <ele>52.2</ele>
        <time>2017-10-09T18:57:36Z</time>
      </trkpt>
      <trkpt lat="62.638105667448" lon="17.967121238153">
        <ele>52.4</ele>
        <time>2017-10-09T18:57:37Z</time>
      </trkpt>
      <trkpt lat="62.638099967756" lon="17.967107156561">
        <ele>52.4</ele>
        <time>2017-10-09T18:57:38Z</time>
      </trkpt>
      <trkpt lat="62.638096028263" lon="17.967095254263">
        <ele>52.2</ele>
        <time>2017-10-09T18:57:39Z</time>
      </trkpt>
      <trkpt lat="62.638101727955" lon="17.967119980868">
        <ele>52.2</ele>
        <time>2017-10-09T18:57:40Z</time>
      </trkpt>
      <trkpt lat="62.638674714639" lon="17.966538193189">
        <ele>51.6</ele>
        <time>2017-10-09T18:59:06Z</time>
      </trkpt>
      <trkpt lat="62.638675217553" lon="17.966515813516">
        <ele>51.6</ele>
        <time>2017-10-09T18:59:07Z</time>
      </trkpt>
      <trkpt lat="62.638673373535" lon="17.966491086911">
        <ele>51.6</ele>
        <time>2017-10-09T18:59:08Z</time>
      </trkpt>
      <trkpt lat="62.638672200069" lon="17.966471557084">
        <ele>51.6</ele>
        <time>2017-10-09T18:59:09Z</time>
      </trkpt>
      <trkpt lat="62.638670188413" lon="17.966449177411">
        <ele>51.6</ele>
        <time>2017-10-09T18:59:10Z</time>
      </trkpt>
      <trkpt lat="62.638666081282" lon="17.966415985087">
        <ele>51.6</ele>
        <time>2017-10-09T18:59:11Z</time>
      </trkpt>
      <trkpt lat="62.638664069626" lon="17.966384972057">
        <ele>51.6</ele>
        <time>2017-10-09T18:59:12Z</time>
      </trkpt>
      <trkpt lat="62.638656861192" lon="17.966362424746">
        <ele>51.6</ele>
        <time>2017-10-09T18:59:13Z</time>
      </trkpt>
      <trkpt lat="62.638652418785" lon="17.966342308186">
        <ele>51.6</ele>
        <time>2017-10-09T18:59:14Z</time>
      </trkpt>
      <trkpt lat="62.638648144016" lon="17.96632269454">
        <ele>51.6</ele>
        <time>2017-10-09T18:59:15Z</time>
      </trkpt>
      <trkpt lat="62.638644623618" lon="17.966305344007">
        <ele>51.6</ele>
        <time>2017-10-09T18:59:16Z</time>
      </trkpt>
      <trkpt lat="62.638639678297" lon="17.966277935194">
        <ele>51.8</ele>
        <time>2017-10-09T18:59:17Z</time>
      </trkpt>
      <trkpt lat="62.638632302225" lon="17.966252370399">
        <ele>51.8</ele>
        <time>2017-10-09T18:59:18Z</time>
      </trkpt>
      <trkpt lat="62.638627273085" lon="17.966230577459">
        <ele>51.8</ele>
        <time>2017-10-09T18:59:19Z</time>
      </trkpt>
      <trkpt lat="62.638618052995" lon="17.966214735668">
        <ele>51.8</ele>
        <time>2017-10-09T18:59:20Z</time>
      </trkpt>
      <trkpt lat="62.638614448778" lon="17.966198055687">
        <ele>51.8</ele>
        <time>2017-10-09T18:59:21Z</time>
      </trkpt>
      <trkpt lat="62.638608665267" lon="17.966176178928">
        <ele>51.6</ele>
        <time>2017-10-09T18:59:22Z</time>
      </trkpt>
      <trkpt lat="62.638602462661" lon="17.966150949409">
        <ele>51.6</ele>
        <time>2017-10-09T18:59:23Z</time>
      </trkpt>
      <trkpt lat="62.638595589503" lon="17.966130413754">
        <ele>51.6</ele>
        <time>2017-10-09T18:59:24Z</time>
      </trkpt>
      <trkpt lat="62.638590392725" lon="17.966113482316">
        <ele>51.6</ele>
        <time>2017-10-09T18:59:25Z</time>
      </trkpt>
      <trkpt lat="62.638586285594" lon="17.966096047964">
        <ele>51.6</ele>
        <time>2017-10-09T18:59:26Z</time>
      </trkpt>
      <trkpt lat="62.638579999169" lon="17.966077272508">
        <ele>51.4</ele>
        <time>2017-10-09T18:59:27Z</time>
      </trkpt>
      <trkpt lat="62.638577484599" lon="17.966071153721">
        <ele>51.4</ele>
        <time>2017-10-09T18:59:28Z</time>
      </trkpt>
      <trkpt lat="62.638567845414" lon="17.96603854813">
        <ele>51.4</ele>
        <time>2017-10-09T18:59:29Z</time>
      </trkpt>
      <trkpt lat="62.638560134066" lon="17.966015665543">
        <ele>51.4</ele>
        <time>2017-10-09T18:59:30Z</time>
      </trkpt>
      <trkpt lat="62.638555021107" lon="17.965996973906">
        <ele>51.4</ele>
        <time>2017-10-09T18:59:31Z</time>
      </trkpt>
      <trkpt lat="62.638548818501" lon="17.965976857346">
        <ele>51.6</ele>
        <time>2017-10-09T18:59:32Z</time>
      </trkpt>
      <trkpt lat="62.638541945343" lon="17.965954310035">
        <ele>51.6</ele>
        <time>2017-10-09T18:59:33Z</time>
      </trkpt>
      <trkpt lat="62.638536245651" lon="17.965933271466">
        <ele>51.6</ele>
        <time>2017-10-09T18:59:34Z</time>
      </trkpt>
      <trkpt lat="62.63852878576" lon="17.96591365782">
        <ele>51.6</ele>
        <time>2017-10-09T18:59:35Z</time>
      </trkpt>
      <trkpt lat="62.638523924258" lon="17.965895804373">
        <ele>51.6</ele>
        <time>2017-10-09T18:59:36Z</time>
      </trkpt>
      <trkpt lat="62.638519481851" lon="17.965878202383">
        <ele>51.8</ele>
        <time>2017-10-09T18:59:37Z</time>
      </trkpt>
      <trkpt lat="62.638511519046" lon="17.965860684212">
        <ele>51.8</ele>
        <time>2017-10-09T18:59:38Z</time>
      </trkpt>
      <trkpt lat="62.638504813526" lon="17.965837298711">
        <ele>51.8</ele>
        <time>2017-10-09T18:59:39Z</time>
      </trkpt>
      <trkpt lat="62.638496683083" lon="17.96581894235">
        <ele>51.8</ele>
        <time>2017-10-09T18:59:40Z</time>
      </trkpt>
      <trkpt lat="62.63849106721" lon="17.965802765283">
        <ele>52</ele>
        <time>2017-10-09T18:59:41Z</time>
      </trkpt>
      <trkpt lat="62.638485535156" lon="17.965786588216">
        <ele>52</ele>
        <time>2017-10-09T18:59:42Z</time>
      </trkpt>
      <trkpt lat="62.638478745817" lon="17.965767477484">
        <ele>52</ele>
        <time>2017-10-09T18:59:43Z</time>
      </trkpt>
      <trkpt lat="62.638471285926" lon="17.965747025648">
        <ele>52</ele>
        <time>2017-10-09T18:59:44Z</time>
      </trkpt>
      <trkpt lat="62.638464412768" lon="17.965723137233">
        <ele>51.8</ele>
        <time>2017-10-09T18:59:45Z</time>
      </trkpt>
      <trkpt lat="62.638459802723" lon="17.965705619062">
        <ele>51.8</ele>
        <time>2017-10-09T18:59:46Z</time>
      </trkpt>
      <trkpt lat="62.63845251047" lon="17.965681814466">
        <ele>51.8</ele>
        <time>2017-10-09T18:59:47Z</time>
      </trkpt>
      <trkpt lat="62.638443877113" lon="17.965677958792">
        <ele>51.8</ele>
        <time>2017-10-09T18:59:48Z</time>
      </trkpt>
      <trkpt lat="62.638442284552" lon="17.965644682649">
        <ele>51.8</ele>
        <time>2017-10-09T18:59:49Z</time>
      </trkpt>
      <trkpt lat="62.638434824661" lon="17.965627918849">
        <ele>51.8</ele>
        <time>2017-10-09T18:59:50Z</time>
      </trkpt>
      <trkpt lat="62.638425101657" lon="17.965612915248">
        <ele>52</ele>
        <time>2017-10-09T18:59:51Z</time>
      </trkpt>
      <trkpt lat="62.638417893223" lon="17.965602018778">
        <ele>52.2</ele>
        <time>2017-10-09T18:59:52Z</time>
      </trkpt>
      <trkpt lat="62.638411606798" lon="17.965575615793">
        <ele>52.4</ele>
        <time>2017-10-09T18:59:53Z</time>
      </trkpt>
      <trkpt lat="62.638406829115" lon="17.965558600536">
        <ele>52.4</ele>
        <time>2017-10-09T18:59:54Z</time>
      </trkpt>
      <trkpt lat="62.63839718993" lon="17.965533371017">
        <ele>52.4</ele>
        <time>2017-10-09T18:59:55Z</time>
      </trkpt>
      <trkpt lat="62.638389227125" lon="17.965511913353">
        <ele>52.6</ele>
        <time>2017-10-09T18:59:56Z</time>
      </trkpt>
      <trkpt lat="62.638383611252" lon="17.965493221716">
        <ele>52.6</ele>
        <time>2017-10-09T18:59:57Z</time>
      </trkpt>
      <trkpt lat="62.638379001207" lon="17.965477966658">
        <ele>52.6</ele>
        <time>2017-10-09T18:59:58Z</time>
      </trkpt>
      <trkpt lat="62.63837288242" lon="17.965458269193">
        <ele>52.6</ele>
        <time>2017-10-09T18:59:59Z</time>
      </trkpt>
      <trkpt lat="62.638367350366" lon="17.965426166516">
        <ele>52.6</ele>
        <time>2017-10-09T19:00:00Z</time>
      </trkpt>
      <trkpt lat="62.638362153588" lon="17.965409654173">
        <ele>52.8</ele>
        <time>2017-10-09T19:00:01Z</time>
      </trkpt>
      <trkpt lat="62.638353855507" lon="17.965398841522">
        <ele>53</ele>
        <time>2017-10-09T19:00:02Z</time>
      </trkpt>
      <trkpt lat="62.638346395616" lon="17.965387023043">
        <ele>53</ele>
        <time>2017-10-09T19:00:03Z</time>
      </trkpt>
      <trkpt lat="62.638341701752" lon="17.965371767985">
        <ele>52.8</ele>
        <time>2017-10-09T19:00:04Z</time>
      </trkpt>
      <trkpt lat="62.638333655128" lon="17.965350980873">
        <ele>52.8</ele>
        <time>2017-10-09T19:00:05Z</time>
      </trkpt>
      <trkpt lat="62.638325776142" lon="17.965327679191">
        <ele>52.4</ele>
        <time>2017-10-09T19:00:06Z</time>
      </trkpt>
      <trkpt lat="62.638319070622" lon="17.96530597007">
        <ele>52.2</ele>
        <time>2017-10-09T19:00:07Z</time>
      </trkpt>
      <trkpt lat="62.638314041482" lon="17.965291217926">
        <ele>52.2</ele>
        <time>2017-10-09T19:00:08Z</time>
      </trkpt>
      <trkpt lat="62.638308928523" lon="17.965276046687">
        <ele>52.2</ele>
        <time>2017-10-09T19:00:09Z</time>
      </trkpt>
      <trkpt lat="62.638303983202" lon="17.965250733349">
        <ele>52.2</ele>
        <time>2017-10-09T19:00:10Z</time>
      </trkpt>
      <trkpt lat="62.638298032053" lon="17.965226425839">
        <ele>52.2</ele>
        <time>2017-10-09T19:00:11Z</time>
      </trkpt>
      <trkpt lat="62.638293002913" lon="17.965198095017">
        <ele>52.4</ele>
        <time>2017-10-09T19:00:12Z</time>
      </trkpt>
      <trkpt lat="62.63828990161" lon="17.965180828303">
        <ele>52.4</ele>
        <time>2017-10-09T19:00:13Z</time>
      </trkpt>
      <trkpt lat="62.638282441719" lon="17.965172278765">
        <ele>52.4</ele>
        <time>2017-10-09T19:00:14Z</time>
      </trkpt>
      <trkpt lat="62.638277412579" lon="17.965150485825">
        <ele>52.4</ele>
        <time>2017-10-09T19:00:15Z</time>
      </trkpt>
      <trkpt lat="62.638270707059" lon="17.96512827379">
        <ele>52.4</ele>
        <time>2017-10-09T19:00:16Z</time>
      </trkpt>
      <trkpt lat="62.638263163349" lon="17.965105307384">
        <ele>52.2</ele>
        <time>2017-10-09T19:00:17Z</time>
      </trkpt>
      <trkpt lat="62.638257128381" lon="17.965090219964">
        <ele>52.2</ele>
        <time>2017-10-09T19:00:18Z</time>
      </trkpt>
      <trkpt lat="62.638249919947" lon="17.965080413141">
        <ele>52.2</ele>
        <time>2017-10-09T19:00:19Z</time>
      </trkpt>
      <trkpt lat="62.63824547754" lon="17.965062978789">
        <ele>52</ele>
        <time>2017-10-09T19:00:20Z</time>
      </trkpt>
      <trkpt lat="62.638238017649" lon="17.965038419822">
        <ele>52</ele>
        <time>2017-10-09T19:00:21Z</time>
      </trkpt>
      <trkpt lat="62.638230893034" lon="17.96501679452">
        <ele>51.8</ele>
        <time>2017-10-09T19:00:22Z</time>
      </trkpt>
      <trkpt lat="62.638224271333" lon="17.965004808403">
        <ele>51.8</ele>
        <time>2017-10-09T19:00:23Z</time>
      </trkpt>
      <trkpt lat="62.638219577469" lon="17.964985613852">
        <ele>51.8</ele>
        <time>2017-10-09T19:00:24Z</time>
      </trkpt>
      <trkpt lat="62.638220918573" lon="17.964973879192">
        <ele>51.8</ele>
        <time>2017-10-09T19:00:25Z</time>
      </trkpt>
      <trkpt lat="62.638220080383" lon="17.964962647446">
        <ele>52</ele>
        <time>2017-10-09T19:00:26Z</time>
      </trkpt>
      <trkpt lat="62.638214632148" lon="17.96494806294">
        <ele>52.2</ele>
        <time>2017-10-09T19:00:27Z</time>
      </trkpt>
      <trkpt lat="62.638208261904" lon="17.964933143158">
        <ele>52.2</ele>
        <time>2017-10-09T19:00:28Z</time>
      </trkpt>
      <trkpt lat="62.638205914972" lon="17.964921911412">
        <ele>52.4</ele>
        <time>2017-10-09T19:00:29Z</time>
      </trkpt>
      <trkpt lat="62.63820440623" lon="17.964910847304">
        <ele>52.4</ele>
        <time>2017-10-09T19:00:30Z</time>
      </trkpt>
      <trkpt lat="62.638192252475" lon="17.9648927424">
        <ele>52.4</ele>
        <time>2017-10-09T19:00:31Z</time>
      </trkpt>
      <trkpt lat="62.638185295498" lon="17.964863238112">
        <ele>52.2</ele>
        <time>2017-10-09T19:00:32Z</time>
      </trkpt>
      <trkpt lat="62.638182864747" lon="17.964850246167">
        <ele>52.2</ele>
        <time>2017-10-09T19:00:33Z</time>
      </trkpt>
      <trkpt lat="62.638178841435" lon="17.964840355525">
        <ele>52</ele>
        <time>2017-10-09T19:00:34Z</time>
      </trkpt>
      <trkpt lat="62.638172303553" lon="17.964821747707">
        <ele>52</ele>
        <time>2017-10-09T19:00:35Z</time>
      </trkpt>
      <trkpt lat="62.638164089291" lon="17.964802134061">
        <ele>52</ele>
        <time>2017-10-09T19:00:36Z</time>
      </trkpt>
      <trkpt lat="62.638156461762" lon="17.964789058297">
        <ele>52</ele>
        <time>2017-10-09T19:00:37Z</time>
      </trkpt>
      <trkpt lat="62.638152689907" lon="17.964781514587">
        <ele>52</ele>
        <time>2017-10-09T19:00:38Z</time>
      </trkpt>
      <trkpt lat="62.6381482475" lon="17.964769779927">
        <ele>52</ele>
        <time>2017-10-09T19:00:39Z</time>
      </trkpt>
      <trkpt lat="62.638148750414" lon="17.964765588977">
        <ele>52</ele>
        <time>2017-10-09T19:00:40Z</time>
      </trkpt>
      <trkpt lat="62.638146738758" lon="17.964787046641">
        <ele>51.8</ele>
        <time>2017-10-09T19:00:41Z</time>
      </trkpt>
      <trkpt lat="62.638101811774" lon="17.964601303737">
        <ele>51.8</ele>
        <time>2017-10-09T19:01:24Z</time>
      </trkpt>
      <trkpt lat="62.638081946671" lon="17.96457255382">
        <ele>51.6</ele>
        <time>2017-10-09T19:01:25Z</time>
      </trkpt>
      <trkpt lat="62.638059231722" lon="17.964541876066">
        <ele>51.4</ele>
        <time>2017-10-09T19:01:26Z</time>
      </trkpt>
      <trkpt lat="62.638032828737" lon="17.964516143633">
        <ele>51.6</ele>
        <time>2017-10-09T19:01:27Z</time>
      </trkpt>
      <trkpt lat="62.638016735489" lon="17.964504744249">
        <ele>51.4</ele>
        <time>2017-10-09T19:01:28Z</time>
      </trkpt>
      <trkpt lat="62.637980693319" lon="17.964480939653">
        <ele>51.4</ele>
        <time>2017-10-09T19:01:29Z</time>
      </trkpt>
      <trkpt lat="62.637953116868" lon="17.964467947708">
        <ele>51.6</ele>
        <time>2017-10-09T19:01:30Z</time>
      </trkpt>
      <trkpt lat="62.637928390263" lon="17.964462834749">
        <ele>51.6</ele>
        <time>2017-10-09T19:01:31Z</time>
      </trkpt>
      <trkpt lat="62.637901232907" lon="17.96445436903">
        <ele>51.8</ele>
        <time>2017-10-09T19:01:32Z</time>
      </trkpt>
      <trkpt lat="62.637877595949" lon="17.964454955763">
        <ele>51.8</ele>
        <time>2017-10-09T19:01:33Z</time>
      </trkpt>
      <trkpt lat="62.637856138285" lon="17.964457973247">
        <ele>52</ele>
        <time>2017-10-09T19:01:34Z</time>
      </trkpt>
      <trkpt lat="62.637826047264" lon="17.96446275093">
        <ele>52.2</ele>
        <time>2017-10-09T19:01:35Z</time>
      </trkpt>
      <trkpt lat="62.637802577944" lon="17.964474317952">
        <ele>52</ele>
        <time>2017-10-09T19:01:36Z</time>
      </trkpt>
      <trkpt lat="62.637775755864" lon="17.964494015417">
        <ele>52</ele>
        <time>2017-10-09T19:01:37Z</time>
      </trkpt>
      <trkpt lat="62.637751532173" lon="17.964517568556">
        <ele>52</ele>
        <time>2017-10-09T19:01:38Z</time>
      </trkpt>
      <trkpt lat="62.637726218835" lon="17.964551850527">
        <ele>51.8</ele>
        <time>2017-10-09T19:01:39Z</time>
      </trkpt>
      <trkpt lat="62.637699899669" lon="17.964585881041">
        <ele>51.4</ele>
        <time>2017-10-09T19:01:40Z</time>
      </trkpt>
      <trkpt lat="62.637680286023" lon="17.964620665926">
        <ele>51.2</ele>
        <time>2017-10-09T19:01:41Z</time>
      </trkpt>
      <trkpt lat="62.637661510567" lon="17.964657462467">
        <ele>51</ele>
        <time>2017-10-09T19:01:42Z</time>
      </trkpt>
      <trkpt lat="62.637642483654" lon="17.964698785234">
        <ele>50.8</ele>
        <time>2017-10-09T19:01:43Z</time>
      </trkpt>
      <trkpt lat="62.637624546388" lon="17.964744634227">
        <ele>50.8</ele>
        <time>2017-10-09T19:01:44Z</time>
      </trkpt>
      <trkpt lat="62.637609961882" lon="17.964789225935">
        <ele>51</ele>
        <time>2017-10-09T19:01:45Z</time>
      </trkpt>
      <trkpt lat="62.637595209738" lon="17.96483826005">
        <ele>51</ele>
        <time>2017-10-09T19:01:46Z</time>
      </trkpt>
      <trkpt lat="62.63758246925" lon="17.964891736572">
        <ele>51</ele>
        <time>2017-10-09T19:01:47Z</time>
      </trkpt>
      <trkpt lat="62.637572578608" lon="17.96494135742">
        <ele>50.8</ele>
        <time>2017-10-09T19:01:48Z</time>
      </trkpt>
      <trkpt lat="62.637563526156" lon="17.964996845598">
        <ele>50.4</ele>
        <time>2017-10-09T19:01:49Z</time>
      </trkpt>
      <trkpt lat="62.637556736817" lon="17.965051663224">
        <ele>50</ele>
        <time>2017-10-09T19:01:50Z</time>
      </trkpt>
      <trkpt lat="62.637551875315" lon="17.965107654316">
        <ele>49.8</ele>
        <time>2017-10-09T19:01:51Z</time>
      </trkpt>
      <trkpt lat="62.637547516727" lon="17.965170770023">
        <ele>49.4</ele>
        <time>2017-10-09T19:01:52Z</time>
      </trkpt>
      <trkpt lat="62.637545672709" lon="17.965225000916">
        <ele>49.2</ele>
        <time>2017-10-09T19:01:53Z</time>
      </trkpt>
      <trkpt lat="62.637545840347" lon="17.96528501532">
        <ele>49.2</ele>
        <time>2017-10-09T19:01:54Z</time>
      </trkpt>
      <trkpt lat="62.637548187279" lon="17.965341341688">
        <ele>49.4</ele>
        <time>2017-10-09T19:01:55Z</time>
      </trkpt>
      <trkpt lat="62.637552210591" lon="17.965398254789">
        <ele>49.2</ele>
        <time>2017-10-09T19:01:56Z</time>
      </trkpt>
      <trkpt lat="62.637556652998" lon="17.965451479854">
        <ele>49.2</ele>
        <time>2017-10-09T19:01:57Z</time>
      </trkpt>
      <trkpt lat="62.637567130373" lon="17.965506632756">
        <ele>49.6</ele>
        <time>2017-10-09T19:01:58Z</time>
      </trkpt>
      <trkpt lat="62.637576769558" lon="17.96556161802">
        <ele>49.6</ele>
        <time>2017-10-09T19:01:59Z</time>
      </trkpt>
      <trkpt lat="62.637588001304" lon="17.965611322687">
        <ele>49.4</ele>
        <time>2017-10-09T19:02:00Z</time>
      </trkpt>
      <trkpt lat="62.637601244706" lon="17.96565884806">
        <ele>49.4</ele>
        <time>2017-10-09T19:02:01Z</time>
      </trkpt>
      <trkpt lat="62.637615410117" lon="17.965702266302">
        <ele>49.2</ele>
        <time>2017-10-09T19:02:02Z</time>
      </trkpt>
      <trkpt lat="62.637629659347" lon="17.965744846354">
        <ele>49</ele>
        <time>2017-10-09T19:02:03Z</time>
      </trkpt>
      <trkpt lat="62.637641561645" lon="17.965789773338">
        <ele>48.6</ele>
        <time>2017-10-09T19:02:04Z</time>
      </trkpt>
      <trkpt lat="62.637654218314" lon="17.965830006458">
        <ele>48.4</ele>
        <time>2017-10-09T19:02:05Z</time>
      </trkpt>
      <trkpt lat="62.637667294078" lon="17.965874849623">
        <ele>48.2</ele>
        <time>2017-10-09T19:02:06Z</time>
      </trkpt>
      <trkpt lat="62.637681291851" lon="17.965921117711">
        <ele>48.2</ele>
        <time>2017-10-09T19:02:07Z</time>
      </trkpt>
      <trkpt lat="62.637694199977" lon="17.965964116858">
        <ele>48.6</ele>
        <time>2017-10-09T19:02:08Z</time>
      </trkpt>
      <trkpt lat="62.637707611017" lon="17.966010217308">
        <ele>48.8</ele>
        <time>2017-10-09T19:02:09Z</time>
      </trkpt>
      <trkpt lat="62.637722195523" lon="17.966055898663">
        <ele>49.4</ele>
        <time>2017-10-09T19:02:10Z</time>
      </trkpt>
      <trkpt lat="62.637738037314" lon="17.966100993285">
        <ele>49.8</ele>
        <time>2017-10-09T19:02:11Z</time>
      </trkpt>
      <trkpt lat="62.637752286544" lon="17.966143238061">
        <ele>49.4</ele>
        <time>2017-10-09T19:02:12Z</time>
      </trkpt>
      <trkpt lat="62.637766703412" lon="17.966187243036">
        <ele>49</ele>
        <time>2017-10-09T19:02:13Z</time>
      </trkpt>
      <trkpt lat="62.637782293746" lon="17.966233427305">
        <ele>48.8</ele>
        <time>2017-10-09T19:02:14Z</time>
      </trkpt>
      <trkpt lat="62.637797213528" lon="17.966275001529">
        <ele>48.4</ele>
        <time>2017-10-09T19:02:15Z</time>
      </trkpt>
      <trkpt lat="62.637811965672" lon="17.966320347608">
        <ele>48.2</ele>
        <time>2017-10-09T19:02:16Z</time>
      </trkpt>
      <trkpt lat="62.637825879626" lon="17.966367286248">
        <ele>48.2</ele>
        <time>2017-10-09T19:02:17Z</time>
      </trkpt>
      <trkpt lat="62.637840128856" lon="17.966409614843">
        <ele>48.6</ele>
        <time>2017-10-09T19:02:18Z</time>
      </trkpt>
      <trkpt lat="62.637856138285" lon="17.966454960922">
        <ele>48.8</ele>
        <time>2017-10-09T19:02:19Z</time>
      </trkpt>
      <trkpt lat="62.637871980076" lon="17.966502402476">
        <ele>48.8</ele>
        <time>2017-10-09T19:02:20Z</time>
      </trkpt>
      <trkpt lat="62.63788589403" lon="17.966542467958">
        <ele>48.8</ele>
        <time>2017-10-09T19:02:21Z</time>
      </trkpt>
      <trkpt lat="62.637902406373" lon="17.966588484589">
        <ele>48.8</ele>
        <time>2017-10-09T19:02:22Z</time>
      </trkpt>
      <trkpt lat="62.637918331983" lon="17.966634333582">
        <ele>49</ele>
        <time>2017-10-09T19:02:23Z</time>
      </trkpt>
      <trkpt lat="62.637935431059" lon="17.966684038249">
        <ele>49</ele>
        <time>2017-10-09T19:02:24Z</time>
      </trkpt>
      <trkpt lat="62.637951189031" lon="17.966733659097">
        <ele>48.8</ele>
        <time>2017-10-09T19:02:25Z</time>
      </trkpt>
      <trkpt lat="62.637967366098" lon="17.966782106479">
        <ele>49.4</ele>
        <time>2017-10-09T19:02:26Z</time>
      </trkpt>
      <trkpt lat="62.637983794622" lon="17.966828374567">
        <ele>49.6</ele>
        <time>2017-10-09T19:02:27Z</time>
      </trkpt>
      <trkpt lat="62.637998546766" lon="17.966879839433">
        <ele>49.8</ele>
        <time>2017-10-09T19:02:28Z</time>
      </trkpt>
      <trkpt lat="62.638014472376" lon="17.966931136661">
        <ele>50</ele>
        <time>2017-10-09T19:02:29Z</time>
      </trkpt>
      <trkpt lat="62.638030397986" lon="17.966980506052">
        <ele>50.2</ele>
        <time>2017-10-09T19:02:30Z</time>
      </trkpt>
      <trkpt lat="62.638045317768" lon="17.96702761233">
        <ele>50.2</ele>
        <time>2017-10-09T19:02:31Z</time>
      </trkpt>
      <trkpt lat="62.638062249206" lon="17.967071784943">
        <ele>50.2</ele>
        <time>2017-10-09T19:02:32Z</time>
      </trkpt>
      <trkpt lat="62.638078174816" lon="17.967110844597">
        <ele>50.4</ele>
        <time>2017-10-09T19:02:33Z</time>
      </trkpt>
      <trkpt lat="62.638098123738" lon="17.967157112685">
        <ele>50.4</ele>
        <time>2017-10-09T19:02:34Z</time>
      </trkpt>
      <trkpt lat="62.638117569746" lon="17.967194076864">
        <ele>50.2</ele>
        <time>2017-10-09T19:02:35Z</time>
      </trkpt>
      <trkpt lat="62.638139697962" lon="17.967228275016">
        <ele>50</ele>
        <time>2017-10-09T19:02:36Z</time>
      </trkpt>
      <trkpt lat="62.638161909997" lon="17.967257360209">
        <ele>49.8</ele>
        <time>2017-10-09T19:02:37Z</time>
      </trkpt>
      <trkpt lat="62.638181691281" lon="17.967281919176">
        <ele>49</ele>
        <time>2017-10-09T19:02:38Z</time>
      </trkpt>
      <trkpt lat="62.638203903316" lon="17.967301449003">
        <ele>48.8</ele>
        <time>2017-10-09T19:02:39Z</time>
      </trkpt>
      <trkpt lat="62.638229300473" lon="17.967314943862">
        <ele>48.8</ele>
        <time>2017-10-09T19:02:40Z</time>
      </trkpt>
      <trkpt lat="62.638254865268" lon="17.967323996314">
        <ele>48.8</ele>
        <time>2017-10-09T19:02:41Z</time>
      </trkpt>
      <trkpt lat="62.638279340416" lon="17.967328019626">
        <ele>49.2</ele>
        <time>2017-10-09T19:02:42Z</time>
      </trkpt>
      <trkpt lat="62.638306833048" lon="17.967327851988">
        <ele>49.4</ele>
        <time>2017-10-09T19:02:43Z</time>
      </trkpt>
      <trkpt lat="62.638336924069" lon="17.967325421237">
        <ele>49.6</ele>
        <time>2017-10-09T19:02:44Z</time>
      </trkpt>
      <trkpt lat="62.638364584339" lon="17.967316201147">
        <ele>49.8</ele>
        <time>2017-10-09T19:02:45Z</time>
      </trkpt>
      <trkpt lat="62.638394507722" lon="17.967303879754">
        <ele>50</ele>
        <time>2017-10-09T19:02:46Z</time>
      </trkpt>
      <trkpt lat="62.63842065925" lon="17.967287786506">
        <ele>50.2</ele>
        <time>2017-10-09T19:02:47Z</time>
      </trkpt>
      <trkpt lat="62.638446224045" lon="17.967266915575">
        <ele>50.4</ele>
        <time>2017-10-09T19:02:48Z</time>
      </trkpt>
      <trkpt lat="62.638473800496" lon="17.967240093495">
        <ele>50.6</ele>
        <time>2017-10-09T19:02:49Z</time>
      </trkpt>
      <trkpt lat="62.638498275644" lon="17.967211092121">
        <ele>50.6</ele>
        <time>2017-10-09T19:02:50Z</time>
      </trkpt>
      <trkpt lat="62.638520739136" lon="17.967180246729">
        <ele>51</ele>
        <time>2017-10-09T19:02:51Z</time>
      </trkpt>
      <trkpt lat="62.638544627551" lon="17.967143198731">
        <ele>51</ele>
        <time>2017-10-09T19:02:52Z</time>
      </trkpt>
      <trkpt lat="62.638564157378" lon="17.967106486009">
        <ele>50.8</ele>
        <time>2017-10-09T19:02:53Z</time>
      </trkpt>
      <trkpt lat="62.638584022481" lon="17.967062648672">
        <ele>51</ele>
        <time>2017-10-09T19:02:54Z</time>
      </trkpt>
      <trkpt lat="62.63860170829" lon="17.967017889326">
        <ele>51</ele>
        <time>2017-10-09T19:02:55Z</time>
      </trkpt>
      <trkpt lat="62.638618052995" lon="17.966965921546">
        <ele>51</ele>
        <time>2017-10-09T19:02:56Z</time>
      </trkpt>
      <trkpt lat="62.63863355951" lon="17.966911187739">
        <ele>51.2</ele>
        <time>2017-10-09T19:02:57Z</time>
      </trkpt>
      <trkpt lat="62.63864529417" lon="17.966858884683">
        <ele>51.6</ele>
        <time>2017-10-09T19:02:58Z</time>
      </trkpt>
      <trkpt lat="62.638655184812" lon="17.966799205555">
        <ele>51.8</ele>
        <time>2017-10-09T19:02:59Z</time>
      </trkpt>
      <trkpt lat="62.638662225608" lon="17.966742040997">
        <ele>51.8</ele>
        <time>2017-10-09T19:03:00Z</time>
      </trkpt>
      <trkpt lat="62.638668260576" lon="17.966682864783">
        <ele>52</ele>
        <time>2017-10-09T19:03:01Z</time>
      </trkpt>
      <trkpt lat="62.638671780974" lon="17.966620503447">
        <ele>52</ele>
        <time>2017-10-09T19:03:02Z</time>
      </trkpt>
      <trkpt lat="62.638674463182" lon="17.966559399396">
        <ele>52</ele>
        <time>2017-10-09T19:03:03Z</time>
      </trkpt>
      <trkpt lat="62.638670356051" lon="17.966498211526">
        <ele>51.6</ele>
        <time>2017-10-09T19:03:04Z</time>
      </trkpt>
      <trkpt lat="62.638667506205" lon="17.966437023656">
        <ele>51.6</ele>
        <time>2017-10-09T19:03:05Z</time>
      </trkpt>
      <trkpt lat="62.638661387418" lon="17.966381116383">
        <ele>51.6</ele>
        <time>2017-10-09T19:03:06Z</time>
      </trkpt>
      <trkpt lat="62.638652670242" lon="17.966323616549">
        <ele>51.4</ele>
        <time>2017-10-09T19:03:07Z</time>
      </trkpt>
      <trkpt lat="62.638642109048" lon="17.966273576606">
        <ele>51.6</ele>
        <time>2017-10-09T19:03:08Z</time>
      </trkpt>
      <trkpt lat="62.63862853037" lon="17.966222195559">
        <ele>51.6</ele>
        <time>2017-10-09T19:03:09Z</time>
      </trkpt>
      <trkpt lat="62.638612772398" lon="17.966165366277">
        <ele>51.8</ele>
        <time>2017-10-09T19:03:10Z</time>
      </trkpt>
      <trkpt lat="62.638597182064" lon="17.966116415981">
        <ele>51.8</ele>
        <time>2017-10-09T19:03:11Z</time>
      </trkpt>
      <trkpt lat="62.638582681377" lon="17.966069644979">
        <ele>51.8</ele>
        <time>2017-10-09T19:03:12Z</time>
      </trkpt>
      <trkpt lat="62.638568096871" lon="17.966016671371">
        <ele>51.8</ele>
        <time>2017-10-09T19:03:13Z</time>
      </trkpt>
      <trkpt lat="62.638551081614" lon="17.965964284496">
        <ele>51.8</ele>
        <time>2017-10-09T19:03:14Z</time>
      </trkpt>
      <trkpt lat="62.638534569271" lon="17.965918435503">
        <ele>52</ele>
        <time>2017-10-09T19:03:15Z</time>
      </trkpt>
      <trkpt lat="62.638518476023" lon="17.965866216266">
        <ele>52</ele>
        <time>2017-10-09T19:03:16Z</time>
      </trkpt>
      <trkpt lat="62.638503220965" lon="17.965818858531">
        <ele>52</ele>
        <time>2017-10-09T19:03:17Z</time>
      </trkpt>
      <trkpt lat="62.638487295355" lon="17.965773344814">
        <ele>52</ele>
        <time>2017-10-09T19:03:18Z</time>
      </trkpt>
      <trkpt lat="62.638469190451" lon="17.965722215224">
        <ele>52.2</ele>
        <time>2017-10-09T19:03:19Z</time>
      </trkpt>
      <trkpt lat="62.638452845746" lon="17.965678210249">
        <ele>52.2</ele>
        <time>2017-10-09T19:03:20Z</time>
      </trkpt>
      <trkpt lat="62.638437590688" lon="17.965635965473">
        <ele>52.2</ele>
        <time>2017-10-09T19:03:21Z</time>
      </trkpt>
      <trkpt lat="62.638421162164" lon="17.96559011648">
        <ele>52.6</ele>
        <time>2017-10-09T19:03:22Z</time>
      </trkpt>
      <trkpt lat="62.638405907106" lon="17.965545943867">
        <ele>52.6</ele>
        <time>2017-10-09T19:03:23Z</time>
      </trkpt>
      <trkpt lat="62.63838880803" lon="17.965496742114">
        <ele>52.6</ele>
        <time>2017-10-09T19:03:24Z</time>
      </trkpt>
      <trkpt lat="62.638373133877" lon="17.965453072415">
        <ele>52.8</ele>
        <time>2017-10-09T19:03:25Z</time>
      </trkpt>
      <trkpt lat="62.638357375905" lon="17.965407893974">
        <ele>52.6</ele>
        <time>2017-10-09T19:03:26Z</time>
      </trkpt>
      <trkpt lat="62.63834186939" lon="17.965361542067">
        <ele>52.6</ele>
        <time>2017-10-09T19:03:27Z</time>
      </trkpt>
      <trkpt lat="62.638324854133" lon="17.965320806033">
        <ele>52.8</ele>
        <time>2017-10-09T19:03:28Z</time>
      </trkpt>
      <trkpt lat="62.638306916867" lon="17.965269760262">
        <ele>53</ele>
        <time>2017-10-09T19:03:29Z</time>
      </trkpt>
      <trkpt lat="62.638290404524" lon="17.965224414183">
        <ele>53</ele>
        <time>2017-10-09T19:03:30Z</time>
      </trkpt>
      <trkpt lat="62.638275820018" lon="17.965185438348">
        <ele>53</ele>
        <time>2017-10-09T19:03:31Z</time>
      </trkpt>
      <trkpt lat="62.638260313503" lon="17.965139840812">
        <ele>53</ele>
        <time>2017-10-09T19:03:32Z</time>
      </trkpt>
      <trkpt lat="62.638247070101" lon="17.965093991819">
        <ele>53</ele>
        <time>2017-10-09T19:03:33Z</time>
      </trkpt>
      <trkpt lat="62.638230725396" lon="17.965053088147">
        <ele>52.6</ele>
        <time>2017-10-09T19:03:34Z</time>
      </trkpt>
      <trkpt lat="62.638216224709" lon="17.965004892222">
        <ele>52.4</ele>
        <time>2017-10-09T19:03:35Z</time>
      </trkpt>
      <trkpt lat="62.638201388746" lon="17.964961054885">
        <ele>52.2</ele>
        <time>2017-10-09T19:03:36Z</time>
      </trkpt>
      <trkpt lat="62.638186720421" lon="17.964917469005">
        <ele>52.2</ele>
        <time>2017-10-09T19:03:37Z</time>
      </trkpt>
      <trkpt lat="62.638158389599" lon="17.964827531218">
        <ele>52</ele>
        <time>2017-10-09T19:03:39Z</time>
      </trkpt>
      <trkpt lat="62.638140284695" lon="17.964780257302">
        <ele>52.2</ele>
        <time>2017-10-09T19:03:40Z</time>
      </trkpt>
      <trkpt lat="62.638122682705" lon="17.964736587603">
        <ele>52.2</ele>
        <time>2017-10-09T19:03:41Z</time>
      </trkpt>
      <trkpt lat="62.638104745439" lon="17.964697527949">
        <ele>52</ele>
        <time>2017-10-09T19:03:42Z</time>
      </trkpt>
      <trkpt lat="62.638085047974" lon="17.96465721101">
        <ele>52.2</ele>
        <time>2017-10-09T19:03:43Z</time>
      </trkpt>
      <trkpt lat="62.638063087396" lon="17.964621252659">
        <ele>52.2</ele>
        <time>2017-10-09T19:03:44Z</time>
      </trkpt>
      <trkpt lat="62.638042551741" lon="17.964593257113">
        <ele>52</ele>
        <time>2017-10-09T19:03:45Z</time>
      </trkpt>
      <trkpt lat="62.638019333878" lon="17.964564842472">
        <ele>52.2</ele>
        <time>2017-10-09T19:03:46Z</time>
      </trkpt>
      <trkpt lat="62.637994774911" lon="17.964543552446">
        <ele>52.2</ele>
        <time>2017-10-09T19:03:47Z</time>
      </trkpt>
      <trkpt lat="62.63796971303" lon="17.964525363723">
        <ele>52</ele>
        <time>2017-10-09T19:03:48Z</time>
      </trkpt>
      <trkpt lat="62.637942471855" lon="17.964508180828">
        <ele>52.2</ele>
        <time>2017-10-09T19:03:49Z</time>
      </trkpt>
      <trkpt lat="62.637915817413" lon="17.964498457824">
        <ele>52.2</ele>
        <time>2017-10-09T19:03:50Z</time>
      </trkpt>
      <trkpt lat="62.637891509903" lon="17.96449292577">
        <ele>52.2</ele>
        <time>2017-10-09T19:03:51Z</time>
      </trkpt>
      <trkpt lat="62.637864268728" lon="17.964492506675">
        <ele>52.2</ele>
        <time>2017-10-09T19:03:52Z</time>
      </trkpt>
      <trkpt lat="62.637839961218" lon="17.964494434512">
        <ele>52</ele>
        <time>2017-10-09T19:03:53Z</time>
      </trkpt>
      <trkpt lat="62.637811798034" lon="17.964501223851">
        <ele>52</ele>
        <time>2017-10-09T19:03:54Z</time>
      </trkpt>
      <trkpt lat="62.637785059773" lon="17.964517149461">
        <ele>52</ele>
        <time>2017-10-09T19:03:55Z</time>
      </trkpt>
      <trkpt lat="62.637759075883" lon="17.964535422003">
        <ele>51.8</ele>
        <time>2017-10-09T19:03:56Z</time>
      </trkpt>
      <trkpt lat="62.637733427269" lon="17.964553359269">
        <ele>51.8</ele>
        <time>2017-10-09T19:03:57Z</time>
      </trkpt>
      <trkpt lat="62.637714148899" lon="17.964576409494">
        <ele>51.6</ele>
        <time>2017-10-09T19:03:58Z</time>
      </trkpt>
      <trkpt lat="62.63768975757" lon="17.964607087248">
        <ele>51.4</ele>
        <time>2017-10-09T19:03:59Z</time>
      </trkpt>
      <trkpt lat="62.637666036793" lon="17.964639189925">
        <ele>51.4</ele>
        <time>2017-10-09T19:04:00Z</time>
      </trkpt>
      <trkpt lat="62.637644243853" lon="17.964675735009">
        <ele>51.2</ele>
        <time>2017-10-09T19:04:01Z</time>
      </trkpt>
      <trkpt lat="62.63762521694" lon="17.964717225414">
        <ele>51</ele>
        <time>2017-10-09T19:04:02Z</time>
      </trkpt>
      <trkpt lat="62.637605854751" lon="17.964758883457">
        <ele>50.8</ele>
        <time>2017-10-09T19:04:03Z</time>
      </trkpt>
      <trkpt lat="62.637594539186" lon="17.964812695255">
        <ele>51</ele>
        <time>2017-10-09T19:04:04Z</time>
      </trkpt>
      <trkpt lat="62.637579535585" lon="17.964862986655">
        <ele>50.8</ele>
        <time>2017-10-09T19:04:05Z</time>
      </trkpt>
      <trkpt lat="62.637565873088" lon="17.964915038254">
        <ele>50.8</ele>
        <time>2017-10-09T19:04:06Z</time>
      </trkpt>
      <trkpt lat="62.637553467876" lon="17.964970023518">
        <ele>51</ele>
        <time>2017-10-09T19:04:07Z</time>
      </trkpt>
      <trkpt lat="62.637544080148" lon="17.965021572203">
        <ele>50.8</ele>
        <time>2017-10-09T19:04:08Z</time>
      </trkpt>
      <trkpt lat="62.637536620257" lon="17.965076725105">
        <ele>50.6</ele>
        <time>2017-10-09T19:04:09Z</time>
      </trkpt>
      <trkpt lat="62.637531842574" lon="17.965136823328">
        <ele>50.6</ele>
        <time>2017-10-09T19:04:10Z</time>
      </trkpt>
      <trkpt lat="62.637527651624" lon="17.965194406981">
        <ele>50.6</ele>
        <time>2017-10-09T19:04:11Z</time>
      </trkpt>
      <trkpt lat="62.637532513126" lon="17.965250565711">
        <ele>50.4</ele>
        <time>2017-10-09T19:04:12Z</time>
      </trkpt>
      <trkpt lat="62.637535111515" lon="17.965308233183">
        <ele>50.2</ele>
        <time>2017-10-09T19:04:13Z</time>
      </trkpt>
      <trkpt lat="62.637540224474" lon="17.965367828492">
        <ele>50</ele>
        <time>2017-10-09T19:04:14Z</time>
      </trkpt>
      <trkpt lat="62.637546678537" lon="17.965420047729">
        <ele>49.8</ele>
        <time>2017-10-09T19:04:15Z</time>
      </trkpt>
      <trkpt lat="62.637555144256" lon="17.965477128468">
        <ele>49.8</ele>
        <time>2017-10-09T19:04:16Z</time>
      </trkpt>
      <trkpt lat="62.637565034898" lon="17.965528509515">
        <ele>49.6</ele>
        <time>2017-10-09T19:04:17Z</time>
      </trkpt>
      <trkpt lat="62.637575176997" lon="17.965577878906">
        <ele>49.4</ele>
        <time>2017-10-09T19:04:18Z</time>
      </trkpt>
      <trkpt lat="62.637588001304" lon="17.965631774523">
        <ele>49.4</ele>
        <time>2017-10-09T19:04:19Z</time>
      </trkpt>
      <trkpt lat="62.637603675457" lon="17.965681982104">
        <ele>49.2</ele>
        <time>2017-10-09T19:04:20Z</time>
      </trkpt>
      <trkpt lat="62.637620271619" lon="17.965726070898">
        <ele>49.4</ele>
        <time>2017-10-09T19:04:21Z</time>
      </trkpt>
      <trkpt lat="62.637638041247" lon="17.965772925719">
        <ele>49.6</ele>
        <time>2017-10-09T19:04:22Z</time>
      </trkpt>
      <trkpt lat="62.637652374296" lon="17.965814248486">
        <ele>49.8</ele>
        <time>2017-10-09T19:04:23Z</time>
      </trkpt>
      <trkpt lat="62.637668719001" lon="17.965860265117">
        <ele>49.8</ele>
        <time>2017-10-09T19:04:24Z</time>
      </trkpt>
      <trkpt lat="62.637685063706" lon="17.965905108282">
        <ele>50</ele>
        <time>2017-10-09T19:04:25Z</time>
      </trkpt>
      <trkpt lat="62.637701240773" lon="17.965951711646">
        <ele>50</ele>
        <time>2017-10-09T19:04:26Z</time>
      </trkpt>
      <trkpt lat="62.637716160555" lon="17.965998734105">
        <ele>50</ele>
        <time>2017-10-09T19:04:27Z</time>
      </trkpt>
      <trkpt lat="62.637731750889" lon="17.966039218682">
        <ele>50</ele>
        <time>2017-10-09T19:04:28Z</time>
      </trkpt>
      <trkpt lat="62.637750023431" lon="17.966087414607">
        <ele>49.8</ele>
        <time>2017-10-09T19:04:29Z</time>
      </trkpt>
      <trkpt lat="62.637766368136" lon="17.966132676867">
        <ele>50.2</ele>
        <time>2017-10-09T19:04:30Z</time>
      </trkpt>
      <trkpt lat="62.637783551031" lon="17.96618020224">
        <ele>50</ele>
        <time>2017-10-09T19:04:31Z</time>
      </trkpt>
      <trkpt lat="62.637799476641" lon="17.966226218871">
        <ele>50</ele>
        <time>2017-10-09T19:04:32Z</time>
      </trkpt>
      <trkpt lat="62.637813893509" lon="17.966270978217">
        <ele>50.2</ele>
        <time>2017-10-09T19:04:33Z</time>
      </trkpt>
      <trkpt lat="62.637831327861" lon="17.966318922685">
        <ele>49.8</ele>
        <time>2017-10-09T19:04:34Z</time>
      </trkpt>
      <trkpt lat="62.637847002014" lon="17.966365358411">
        <ele>49.8</ele>
        <time>2017-10-09T19:04:35Z</time>
      </trkpt>
      <trkpt lat="62.637863011443" lon="17.966409614843">
        <ele>49.8</ele>
        <time>2017-10-09T19:04:36Z</time>
      </trkpt>
      <trkpt lat="62.637878266501" lon="17.966456972578">
        <ele>49.6</ele>
        <time>2017-10-09T19:04:37Z</time>
      </trkpt>
      <trkpt lat="62.637893102464" lon="17.966501312829">
        <ele>49.4</ele>
        <time>2017-10-09T19:04:38Z</time>
      </trkpt>
      <trkpt lat="62.637909195712" lon="17.966549341116">
        <ele>49.6</ele>
        <time>2017-10-09T19:04:39Z</time>
      </trkpt>
      <trkpt lat="62.637926462426" lon="17.966599632516">
        <ele>50</ele>
        <time>2017-10-09T19:04:40Z</time>
      </trkpt>
      <trkpt lat="62.63794205276" lon="17.966647493165">
        <ele>50.2</ele>
        <time>2017-10-09T19:04:41Z</time>
      </trkpt>
      <trkpt lat="62.637956804904" lon="17.966694515624">
        <ele>50.4</ele>
        <time>2017-10-09T19:04:42Z</time>
      </trkpt>
      <trkpt lat="62.637972814333" lon="17.966743717377">
        <ele>50.4</ele>
        <time>2017-10-09T19:04:43Z</time>
      </trkpt>
      <trkpt lat="62.637989410495" lon="17.966794176415">
        <ele>50.4</ele>
        <time>2017-10-09T19:04:44Z</time>
      </trkpt>
      <trkpt lat="62.638004246458" lon="17.966840109227">
        <ele>50.4</ele>
        <time>2017-10-09T19:04:45Z</time>
      </trkpt>
      <trkpt lat="62.638021764629" lon="17.966889646256">
        <ele>50.4</ele>
        <time>2017-10-09T19:04:46Z</time>
      </trkpt>
      <trkpt lat="62.638038193153" lon="17.966936836353">
        <ele>50.2</ele>
        <time>2017-10-09T19:04:47Z</time>
      </trkpt>
      <trkpt lat="62.638052610021" lon="17.966980841328">
        <ele>50.2</ele>
        <time>2017-10-09T19:04:48Z</time>
      </trkpt>
      <trkpt lat="62.638069290002" lon="17.967026690321">
        <ele>50.2</ele>
        <time>2017-10-09T19:04:49Z</time>
      </trkpt>
      <trkpt lat="62.638087311087" lon="17.967069940925">
        <ele>50</ele>
        <time>2017-10-09T19:04:50Z</time>
      </trkpt>
      <trkpt lat="62.638105667448" lon="17.96710640219">
        <ele>49.8</ele>
        <time>2017-10-09T19:04:51Z</time>
      </trkpt>
      <trkpt lat="62.638126873655" lon="17.967144875111">
        <ele>49.8</ele>
        <time>2017-10-09T19:04:52Z</time>
      </trkpt>
      <trkpt lat="62.638147576948" lon="17.967177229245">
        <ele>49.6</ele>
        <time>2017-10-09T19:04:53Z</time>
      </trkpt>
      <trkpt lat="62.638171549182" lon="17.967208158456">
        <ele>49.4</ele>
        <time>2017-10-09T19:04:54Z</time>
      </trkpt>
      <trkpt lat="62.638194850864" lon="17.967233555613">
        <ele>49.6</ele>
        <time>2017-10-09T19:04:55Z</time>
      </trkpt>
      <trkpt lat="62.638219242193" lon="17.967255097096">
        <ele>49.6</ele>
        <time>2017-10-09T19:04:56Z</time>
      </trkpt>
      <trkpt lat="62.638242376237" lon="17.967275046018">
        <ele>49.6</ele>
        <time>2017-10-09T19:04:57Z</time>
      </trkpt>
      <trkpt lat="62.638267689575" lon="17.967287618868">
        <ele>49.8</ele>
        <time>2017-10-09T19:04:58Z</time>
      </trkpt>
      <trkpt lat="62.638295685121" lon="17.967297593329">
        <ele>50.2</ele>
        <time>2017-10-09T19:04:59Z</time>
      </trkpt>
      <trkpt lat="62.638321501373" lon="17.967301951917">
        <ele>50.6</ele>
        <time>2017-10-09T19:05:00Z</time>
      </trkpt>
      <trkpt lat="62.638348155815" lon="17.967303544478">
        <ele>50.8</ele>
        <time>2017-10-09T19:05:01Z</time>
      </trkpt>
      <trkpt lat="62.638374391162" lon="17.967299269709">
        <ele>51.2</ele>
        <time>2017-10-09T19:05:02Z</time>
      </trkpt>
      <trkpt lat="62.63839886631" lon="17.967292899465">
        <ele>51.2</ele>
        <time>2017-10-09T19:05:03Z</time>
      </trkpt>
      <trkpt lat="62.638427029494" lon="17.967281500081">
        <ele>51.2</ele>
        <time>2017-10-09T19:05:04Z</time>
      </trkpt>
      <trkpt lat="62.638452007556" lon="17.967264652462">
        <ele>51.2</ele>
        <time>2017-10-09T19:05:05Z</time>
      </trkpt>
      <trkpt lat="62.638479584007" lon="17.967243110979">
        <ele>51.2</ele>
        <time>2017-10-09T19:05:06Z</time>
      </trkpt>
      <trkpt lat="62.638504562069" lon="17.967218552012">
        <ele>51</ele>
        <time>2017-10-09T19:05:07Z</time>
      </trkpt>
      <trkpt lat="62.638526941742" lon="17.967192316665">
        <ele>51.2</ele>
        <time>2017-10-09T19:05:08Z</time>
      </trkpt>
      <trkpt lat="62.638548986139" lon="17.967160800721">
        <ele>51.8</ele>
        <time>2017-10-09T19:05:09Z</time>
      </trkpt>
      <trkpt lat="62.638569102699" lon="17.967125010008">
        <ele>52</ele>
        <time>2017-10-09T19:05:10Z</time>
      </trkpt>
      <trkpt lat="62.638587794336" lon="17.967087878191">
        <ele>52.2</ele>
        <time>2017-10-09T19:05:11Z</time>
      </trkpt>
      <trkpt lat="62.638604390498" lon="17.967048902356">
        <ele>52.6</ele>
        <time>2017-10-09T19:05:12Z</time>
      </trkpt>
      <trkpt lat="62.638619142642" lon="17.967002382811">
        <ele>52.8</ele>
        <time>2017-10-09T19:05:13Z</time>
      </trkpt>
      <trkpt lat="62.638635152071" lon="17.966948319556">
        <ele>52.4</ele>
        <time>2017-10-09T19:05:14Z</time>
      </trkpt>
      <trkpt lat="62.638647557283" lon="17.966900123631">
        <ele>52.4</ele>
        <time>2017-10-09T19:05:15Z</time>
      </trkpt>
      <trkpt lat="62.638659459581" lon="17.96684321053">
        <ele>52.6</ele>
        <time>2017-10-09T19:05:16Z</time>
      </trkpt>
      <trkpt lat="62.638668931128" lon="17.966787303257">
        <ele>52.6</ele>
        <time>2017-10-09T19:05:17Z</time>
      </trkpt>
      <trkpt lat="62.638675217553" lon="17.966732820907">
        <ele>52.6</ele>
        <time>2017-10-09T19:05:18Z</time>
      </trkpt>
      <trkpt lat="62.638680917245" lon="17.966668280277">
        <ele>52.2</ele>
        <time>2017-10-09T19:05:19Z</time>
      </trkpt>
      <trkpt lat="62.638684605281" lon="17.966608936425">
        <ele>52.2</ele>
        <time>2017-10-09T19:05:20Z</time>
      </trkpt>
      <trkpt lat="62.638684605281" lon="17.966555795179">
        <ele>52.2</ele>
        <time>2017-10-09T19:05:21Z</time>
      </trkpt>
      <trkpt lat="62.638682845082" lon="17.966494272033">
        <ele>52</ele>
        <time>2017-10-09T19:05:22Z</time>
      </trkpt>
      <trkpt lat="62.63867965996" lon="17.966440376416">
        <ele>52</ele>
        <time>2017-10-09T19:05:23Z</time>
      </trkpt>
      <trkpt lat="62.638673373535" lon="17.966379188546">
        <ele>52.2</ele>
        <time>2017-10-09T19:05:24Z</time>
      </trkpt>
      <trkpt lat="62.63866541073" lon="17.966323281273">
        <ele>52</ele>
        <time>2017-10-09T19:05:25Z</time>
      </trkpt>
      <trkpt lat="62.638654346622" lon="17.966269804751">
        <ele>52</ele>
        <time>2017-10-09T19:05:26Z</time>
      </trkpt>
      <trkpt lat="62.638642528143" lon="17.966216831143">
        <ele>52.2</ele>
        <time>2017-10-09T19:05:27Z</time>
      </trkpt>
      <trkpt lat="62.638630122931" lon="17.966167545571">
        <ele>52.2</ele>
        <time>2017-10-09T19:05:28Z</time>
      </trkpt>
      <trkpt lat="62.638615286968" lon="17.966115577791">
        <ele>52</ele>
        <time>2017-10-09T19:05:29Z</time>
      </trkpt>
      <trkpt lat="62.638599445177" lon="17.966066292219">
        <ele>52.2</ele>
        <time>2017-10-09T19:05:30Z</time>
      </trkpt>
      <trkpt lat="62.638583854843" lon="17.966018683027">
        <ele>52.2</ele>
        <time>2017-10-09T19:05:31Z</time>
      </trkpt>
      <trkpt lat="62.638568013052" lon="17.965969481274">
        <ele>52</ele>
        <time>2017-10-09T19:05:32Z</time>
      </trkpt>
      <trkpt lat="62.638552422718" lon="17.965919022236">
        <ele>52</ele>
        <time>2017-10-09T19:05:33Z</time>
      </trkpt>
      <trkpt lat="62.638536916203" lon="17.96587174832">
        <ele>52.2</ele>
        <time>2017-10-09T19:05:34Z</time>
      </trkpt>
      <trkpt lat="62.638521074412" lon="17.965823720033">
        <ele>52</ele>
        <time>2017-10-09T19:05:35Z</time>
      </trkpt>
      <trkpt lat="62.638503975336" lon="17.965778625411">
        <ele>52</ele>
        <time>2017-10-09T19:05:36Z</time>
      </trkpt>
      <trkpt lat="62.638488217364" lon="17.96573428516">
        <ele>52.2</ele>
        <time>2017-10-09T19:05:37Z</time>
      </trkpt>
      <trkpt lat="62.638473800496" lon="17.965690866918">
        <ele>52.2</ele>
        <time>2017-10-09T19:05:38Z</time>
      </trkpt>
      <trkpt lat="62.638458293981" lon="17.96564543702">
        <ele>52.2</ele>
        <time>2017-10-09T19:05:39Z</time>
      </trkpt>
      <trkpt lat="62.638440021439" lon="17.965598246923">
        <ele>52.4</ele>
        <time>2017-10-09T19:05:40Z</time>
      </trkpt>
      <trkpt lat="62.638423844372" lon="17.965552146473">
        <ele>52.4</ele>
        <time>2017-10-09T19:05:41Z</time>
      </trkpt>
      <trkpt lat="62.638408673133" lon="17.965509566421">
        <ele>52.6</ele>
        <time>2017-10-09T19:05:42Z</time>
      </trkpt>
      <trkpt lat="62.638393418075" lon="17.965464974713">
        <ele>52.6</ele>
        <time>2017-10-09T19:05:43Z</time>
      </trkpt>
      <trkpt lat="62.638376989551" lon="17.965414850951">
        <ele>52.4</ele>
        <time>2017-10-09T19:05:44Z</time>
      </trkpt>
      <trkpt lat="62.638361818312" lon="17.96537386346">
        <ele>52.4</ele>
        <time>2017-10-09T19:05:45Z</time>
      </trkpt>
      <trkpt lat="62.638344886874" lon="17.965326002811">
        <ele>52.2</ele>
        <time>2017-10-09T19:05:46Z</time>
      </trkpt>
      <trkpt lat="62.638328625988" lon="17.965276298144">
        <ele>52</ele>
        <time>2017-10-09T19:05:47Z</time>
      </trkpt>
      <trkpt lat="62.63831420912" lon="17.965231790255">
        <ele>51.8</ele>
        <time>2017-10-09T19:05:48Z</time>
      </trkpt>
      <trkpt lat="62.638297864415" lon="17.965181834131">
        <ele>52</ele>
        <time>2017-10-09T19:05:49Z</time>
      </trkpt>
      <trkpt lat="62.638282776995" lon="17.965135063129">
        <ele>52</ele>
        <time>2017-10-09T19:05:50Z</time>
      </trkpt>
      <trkpt lat="62.638268863041" lon="17.965093908">
        <ele>52</ele>
        <time>2017-10-09T19:05:51Z</time>
      </trkpt>
      <trkpt lat="62.638252434517" lon="17.965043532781">
        <ele>52.2</ele>
        <time>2017-10-09T19:05:52Z</time>
      </trkpt>
      <trkpt lat="62.63823793383" lon="17.965000701272">
        <ele>52.2</ele>
        <time>2017-10-09T19:05:53Z</time>
      </trkpt>
      <trkpt lat="62.638221672944" lon="17.964954181727">
        <ele>52.2</ele>
        <time>2017-10-09T19:05:54Z</time>
      </trkpt>
      <trkpt lat="62.63820859718" lon="17.964905147612">
        <ele>52.2</ele>
        <time>2017-10-09T19:05:55Z</time>
      </trkpt>
      <trkpt lat="62.638194767045" lon="17.964854772393">
        <ele>52.2</ele>
        <time>2017-10-09T19:05:56Z</time>
      </trkpt>
      <trkpt lat="62.638168280241" lon="17.964771623945">
        <ele>52.2</ele>
        <time>2017-10-09T19:05:58Z</time>
      </trkpt>
      <trkpt lat="62.638157719047" lon="17.964735665594">
        <ele>52.4</ele>
        <time>2017-10-09T19:05:59Z</time>
      </trkpt>
      <trkpt lat="62.638149672423" lon="17.964710771351">
        <ele>52.2</ele>
        <time>2017-10-09T19:06:00Z</time>
      </trkpt>
      <trkpt lat="62.638141793437" lon="17.964684955099">
        <ele>52.2</ele>
        <time>2017-10-09T19:06:01Z</time>
      </trkpt>
      <trkpt lat="62.638135423193" lon="17.964660899046">
        <ele>52.4</ele>
        <time>2017-10-09T19:06:02Z</time>
      </trkpt>
      <trkpt lat="62.638129723501" lon="17.964639692839">
        <ele>52.4</ele>
        <time>2017-10-09T19:06:03Z</time>
      </trkpt>
      <trkpt lat="62.638120000497" lon="17.964632484405">
        <ele>52.2</ele>
        <time>2017-10-09T19:06:04Z</time>
      </trkpt>
      <trkpt lat="62.638110864226" lon="17.964618570451">
        <ele>52.2</ele>
        <time>2017-10-09T19:06:05Z</time>
      </trkpt>
      <trkpt lat="62.638102398507" lon="17.964601722832">
        <ele>52</ele>
        <time>2017-10-09T19:06:06Z</time>
      </trkpt>
      <trkpt lat="62.638093597512" lon="17.964585629584">
        <ele>51.6</ele>
        <time>2017-10-09T19:06:07Z</time>
      </trkpt>
      <trkpt lat="62.638085550888" lon="17.964576409494">
        <ele>51.4</ele>
        <time>2017-10-09T19:06:08Z</time>
      </trkpt>
      <trkpt lat="62.638077420445" lon="17.96457003925">
        <ele>51.4</ele>
        <time>2017-10-09T19:06:09Z</time>
      </trkpt>
      <trkpt lat="62.638067362165" lon="17.964563417549">
        <ele>51.4</ele>
        <time>2017-10-09T19:06:10Z</time>
      </trkpt>
      <trkpt lat="62.638058644989" lon="17.964554365097">
        <ele>51.2</ele>
        <time>2017-10-09T19:06:11Z</time>
      </trkpt>
      <trkpt lat="62.638051604193" lon="17.96454405536">
        <ele>51.2</ele>
        <time>2017-10-09T19:06:12Z</time>
      </trkpt>
      <trkpt lat="62.638044395759" lon="17.964533494166">
        <ele>51.2</ele>
        <time>2017-10-09T19:06:13Z</time>
      </trkpt>
      <trkpt lat="62.638036349135" lon="17.964519915488">
        <ele>51</ele>
        <time>2017-10-09T19:06:14Z</time>
      </trkpt>
      <trkpt lat="62.638029811253" lon="17.964510192484">
        <ele>50.8</ele>
        <time>2017-10-09T19:06:15Z</time>
      </trkpt>
      <trkpt lat="62.63802084262" lon="17.964501140032">
        <ele>50.8</ele>
        <time>2017-10-09T19:06:16Z</time>
      </trkpt>
      <trkpt lat="62.638010365245" lon="17.964493093408">
        <ele>50.8</ele>
        <time>2017-10-09T19:06:17Z</time>
      </trkpt>
      <trkpt lat="62.638000893698" lon="17.964486052612">
        <ele>50.8</ele>
        <time>2017-10-09T19:06:18Z</time>
      </trkpt>
      <trkpt lat="62.637989913409" lon="17.964479347092">
        <ele>50.8</ele>
        <time>2017-10-09T19:06:19Z</time>
      </trkpt>
      <trkpt lat="62.637979016939" lon="17.964474234133">
        <ele>50.8</ele>
        <time>2017-10-09T19:06:20Z</time>
      </trkpt>
      <trkpt lat="62.637968371926" lon="17.964470462278">
        <ele>51</ele>
        <time>2017-10-09T19:06:21Z</time>
      </trkpt>
      <trkpt lat="62.637956050533" lon="17.964464678767">
        <ele>51</ele>
        <time>2017-10-09T19:06:22Z</time>
      </trkpt>
      <trkpt lat="62.63794456733" lon="17.964459314351">
        <ele>51.2</ele>
        <time>2017-10-09T19:06:23Z</time>
      </trkpt>
      <trkpt lat="62.637931826842" lon="17.964455877772">
        <ele>51.4</ele>
        <time>2017-10-09T19:06:24Z</time>
      </trkpt>
      <trkpt lat="62.637920092182" lon="17.964455710134">
        <ele>51.4</ele>
        <time>2017-10-09T19:06:25Z</time>
      </trkpt>
      <trkpt lat="62.637908776617" lon="17.964456632143">
        <ele>51.4</ele>
        <time>2017-10-09T19:06:26Z</time>
      </trkpt>
      <trkpt lat="62.637897377233" lon="17.964456715962">
        <ele>51.2</ele>
        <time>2017-10-09T19:06:27Z</time>
      </trkpt>
      <trkpt lat="62.637886480763" lon="17.964456548324">
        <ele>51</ele>
        <time>2017-10-09T19:06:28Z</time>
      </trkpt>
      <trkpt lat="62.637874913741" lon="17.964459062894">
        <ele>51</ele>
        <time>2017-10-09T19:06:29Z</time>
      </trkpt>
      <trkpt lat="62.637863598176" lon="17.964461326007">
        <ele>50.8</ele>
        <time>2017-10-09T19:06:30Z</time>
      </trkpt>
      <trkpt lat="62.637852031154" lon="17.964465516957">
        <ele>50.8</ele>
        <time>2017-10-09T19:06:31Z</time>
      </trkpt>
      <trkpt lat="62.63784063177" lon="17.964472306296">
        <ele>50.8</ele>
        <time>2017-10-09T19:06:32Z</time>
      </trkpt>
      <trkpt lat="62.637829232386" lon="17.964478257445">
        <ele>50.8</ele>
        <time>2017-10-09T19:06:33Z</time>
      </trkpt>
      <trkpt lat="62.637819006468" lon="17.964482448395">
        <ele>50.8</ele>
        <time>2017-10-09T19:06:34Z</time>
      </trkpt>
      <trkpt lat="62.637807690903" lon="17.9644904112">
        <ele>51</ele>
        <time>2017-10-09T19:06:35Z</time>
      </trkpt>
      <trkpt lat="62.637796040062" lon="17.964498374005">
        <ele>51</ele>
        <time>2017-10-09T19:06:36Z</time>
      </trkpt>
      <trkpt lat="62.637784640678" lon="17.964506672086">
        <ele>51</ele>
        <time>2017-10-09T19:06:37Z</time>
      </trkpt>
      <trkpt lat="62.637773995665" lon="17.964517065642">
        <ele>51</ele>
        <time>2017-10-09T19:06:38Z</time>
      </trkpt>
      <trkpt lat="62.637762512462" lon="17.964529303216">
        <ele>51</ele>
        <time>2017-10-09T19:06:39Z</time>
      </trkpt>
      <trkpt lat="62.637750442526" lon="17.964542630437">
        <ele>51</ele>
        <time>2017-10-09T19:06:40Z</time>
      </trkpt>
      <trkpt lat="62.637738624047" lon="17.964554532735">
        <ele>51</ele>
        <time>2017-10-09T19:06:41Z</time>
      </trkpt>
      <trkpt lat="62.637727895215" lon="17.964567440861">
        <ele>50.8</ele>
        <time>2017-10-09T19:06:42Z</time>
      </trkpt>
      <trkpt lat="62.637716998745" lon="17.964583198833">
        <ele>50.8</ele>
        <time>2017-10-09T19:06:43Z</time>
      </trkpt>
      <trkpt lat="62.637705934637" lon="17.964600884642">
        <ele>50.8</ele>
        <time>2017-10-09T19:06:44Z</time>
      </trkpt>
      <trkpt lat="62.637696127814" lon="17.964615804424">
        <ele>50.8</ele>
        <time>2017-10-09T19:06:45Z</time>
      </trkpt>
      <trkpt lat="62.637685734258" lon="17.964631478577">
        <ele>50.6</ele>
        <time>2017-10-09T19:06:46Z</time>
      </trkpt>
      <trkpt lat="62.637675927435" lon="17.96464882911">
        <ele>50.6</ele>
        <time>2017-10-09T19:06:47Z</time>
      </trkpt>
      <trkpt lat="62.63766712644" lon="17.96466559291">
        <ele>50.8</ele>
        <time>2017-10-09T19:06:48Z</time>
      </trkpt>
      <trkpt lat="62.637656062332" lon="17.964684787461">
        <ele>50.8</ele>
        <time>2017-10-09T19:06:49Z</time>
      </trkpt>
      <trkpt lat="62.637647428975" lon="17.964704065831">
        <ele>50.8</ele>
        <time>2017-10-09T19:06:50Z</time>
      </trkpt>
    </trkseg>
  </trk>
</gpx>